# Wetter Temperatur Luftdruck Luftfeuchtigkeit Sichtweite Windgeschwindigkeit Windrichtung Zeit
1 Thunderstorm 20 1012 68 10000 3.6 80 20:20 12.07.2020
2 Thunderstorm 23 1012 43 10000 2.6 60 19:55 12.07.2020
3 Clouds 23 1011 43 10000 4.1 90 19:36 12.07.2020
4 Clouds 23 1011 43 10000 4.1 90 19:18 12.07.2020
5 Clouds 23 1010 40 10000 5.1 80 18:42 12.07.2020
6 Clouds 23 1010 40 10000 5.1 80 18:19 12.07.2020
7 Clouds 24 1009 41 10000 6.7 90 17:57 12.07.2020
8 Clouds 24 1009 41 10000 6.7 90 17:36 12.07.2020
9 Clouds 24 1009 41 10000 6.7 90 17:18 12.07.2020
10 Clouds 25 1008 44 10000 7.7 100 16:42 12.07.2020
11 Clouds 25 1008 44 10000 7.7 100 16:20 12.07.2020
12 Clouds 27 1008 36 10000 7.7 110 15:43 12.07.2020
13 Clouds 27 1008 36 10000 7.7 110 15:24 12.07.2020
14 Clouds 29 1008 30 10000 7.7 110 14:46 12.07.2020
15 Clouds 29 1008 30 10000 7.7 110 14:27 12.07.2020
16 Clouds 30 1009 27 10000 5.1 120 13:57 12.07.2020
17 Clouds 30 1009 27 10000 5.1 120 13:39 12.07.2020
18 Clouds 30 1009 27 10000 5.1 120 13:20 12.07.2020
19 Clouds 29 1009 28 10000 5.1 40 12:54 12.07.2020
20 Clouds 29 1009 28 10000 5.1 40 12:54 12.07.2020
21 Clouds 29 1009 28 10000 5.1 40 12:36 12.07.2020
22 Clouds 29 1009 28 10000 5.1 40 12:18 12.07.2020
23 Clouds 30 1009 19 10000 5.1 120 11:42 12.07.2020
24 Clouds 30 1009 19 10000 5.1 120 11:19 12.07.2020
25 Clouds 30 1010 19 10000 2.6 240 10:42 12.07.2020
26 Clouds 30 1010 19 10000 2.6 240 10:22 12.07.2020
27 Clear 30 1011 19 10000 1.5 240 09:54 12.07.2020
28 Clear 30 1011 19 10000 1.5 240 09:36 12.07.2020
29 Clear 30 1011 19 10000 1.5 240 09:18 12.07.2020
30 Clear 28 1011 21 10000 1.5 0 08:41 12.07.2020
31 Clear 28 1011 21 10000 1.5 0 08:22 12.07.2020
32 Clear 27 1011 24 10000 3.1 40 07:56 12.07.2020
33 Clear 27 1011 24 10000 3.1 40 07:36 12.07.2020
34 Clear 27 1011 24 10000 3.1 40 07:18 12.07.2020
35 Clear 25 1011 23 10000 5.7 40 06:48 12.07.2020
36 Clear 25 1011 23 10000 5.7 40 06:19 12.07.2020
37 Clear 24 1011 29 10000 3.6 350 05:22 12.07.2020
38 Clear 23 1011 31 10000 3.6 30 04:29 12.07.2020
39 Clear 22 1010 30 10000 6.7 10 03:53 12.07.2020
40 Clear 22 1010 30 10000 6.7 10 03:31 12.07.2020
41 Clear 22 1010 30 10000 5.1 10 02:45 12.07.2020
42 Clear 22 1010 30 10000 3.1 340 01:36 12.07.2020
43 Clear 23 1010 28 9000 5.1 10 00:41 12.07.2020
44 Clear 23 1010 28 9000 5.1 10 00:22 12.07.2020
45 Clear 24 1010 27 8000 6.7 30 23:55 11.07.2020
46 Clear 24 1010 27 8000 6.7 30 23:37 11.07.2020
47 Clear 24 1010 27 8000 6.7 30 23:18 11.07.2020
48 Clear 24 1010 25 8000 3.6 10 22:44 11.07.2020
49 Clear 24 1010 25 8000 3.6 10 22:25 11.07.2020
50 Clear 24 1009 25 8000 2.6 300 21:57 11.07.2020
51 Clear 24 1009 25 8000 2.6 300 21:38 11.07.2020
52 Clear 24 1009 25 8000 2.6 300 21:20 11.07.2020
53 Clear 24 1009 25 7000 3.6 30 20:55 11.07.2020
54 Clear 24 1009 25 7000 3.6 30 20:37 11.07.2020
55 Clear 24 1009 25 7000 3.6 30 20:18 11.07.2020
56 Clear 25 1008 23 7000 5.1 30 19:50 11.07.2020
57 Clear 25 1008 23 7000 5.1 30 19:31 11.07.2020
58 Clear 26 1008 22 7000 6.7 30 18:58 11.07.2020
59 Clear 26 1008 22 7000 6.7 30 18:40 11.07.2020
60 Clear 26 1008 22 7000 6.7 30 18:22 11.07.2020
61 Clear 26 1008 22 10000 5.1 40 17:58 11.07.2020
62 Clear 26 1008 22 10000 5.1 40 17:38 11.07.2020
63 Clear 26 1008 22 10000 5.1 40 17:19 11.07.2020
64 Clear 28 1007 18 10000 4.6 20 16:56 11.07.2020
65 Clear 28 1007 18 10000 4.6 20 16:37 11.07.2020
66 Clear 28 1007 18 10000 4.6 20 16:18 11.07.2020
67 Clear 30 1008 15 10000 6.7 350 15:42 11.07.2020
68 Clear 30 1008 15 10000 6.7 350 15:21 11.07.2020
69 Clear 31 1008 14 10000 6.7 360 14:58 11.07.2020
70 Clear 31 1008 14 10000 6.7 360 14:39 11.07.2020
71 Clear 31 1008 14 10000 6.7 360 14:21 11.07.2020
72 Clouds 32 1008 14 10000 5.1 350 13:44 11.07.2020
73 Clouds 32 1008 14 10000 5.1 350 13:22 11.07.2020
74 Clouds 32 1009 14 10000 5.1 350 12:59 11.07.2020
75 Clouds 32 1009 14 10000 5.1 350 12:40 11.07.2020
76 Clouds 32 1009 14 10000 5.1 350 12:21 11.07.2020
77 Clear 31 1009 14 10000 5.1 350 11:56 11.07.2020
78 Clear 31 1009 14 10000 5.1 350 11:38 11.07.2020
79 Clear 31 1009 14 10000 5.1 350 11:19 11.07.2020
80 Clear 31 1010 14 10000 4.1 360 10:43 11.07.2020
81 Clear 31 1010 14 10000 4.1 360 10:25 11.07.2020
82 Clear 30 1011 16 10000 3.1 300 09:45 11.07.2020
83 Clear 30 1011 17 10000 3.1 300 09:21 11.07.2020
84 Clear 30 1012 17 10000 4.1 320 08:59 11.07.2020
85 Clear 30 1012 17 10000 4.1 320 08:37 11.07.2020
86 Clear 30 1012 18 10000 4.1 320 08:19 11.07.2020
87 Clear 28 1012 18 10000 3.6 350 07:42 11.07.2020
88 Clear 28 1012 20 10000 3.6 350 07:23 11.07.2020
89 Clear 26 1012 16 10000 3.1 220 06:56 11.07.2020
90 Clear 26 1012 16 10000 3.1 220 06:22 11.07.2020
91 Clear 24 1013 23 10000 2.6 270 05:22 11.07.2020
92 Clear 24 1013 23 10000 2.6 270 04:55 11.07.2020
93 Clear 22 1012 26 10000 3.1 310 04:32 11.07.2020
94 Clear 12 1012 40 10000 3.1 350 03:24 11.07.2020
95 Clear 22 1012 21 10000 5.1 10 02:38 11.07.2020
96 Clear 24 1011 19 10000 8.7 20 01:37 11.07.2020
97 Clear 24 1011 19 10000 8.7 20 01:18 11.07.2020
98 Clear 24 1012 19 10000 8.7 20 00:41 11.07.2020
99 Clear 24 1012 19 10000 8.7 20 00:22 11.07.2020
100 Clear 26 1008 16 10000 8.7 330 23:57 10.07.2020
101 Clear 26 1008 16 10000 8.7 330 23:39 10.07.2020
102 Clear 24 1012 19 10000 9.3 20 23:19 10.07.2020
103 Clear 24 1012 19 10000 9.3 20 22:46 10.07.2020
104 Clear 24 1012 19 10000 9.3 20 22:21 10.07.2020
105 Clear 25 1012 17 10000 10.3 20 21:58 10.07.2020
106 Clear 25 1012 17 10000 10.3 20 21:37 10.07.2020
107 Clear 25 1012 17 10000 10.3 20 21:18 10.07.2020
108 Clear 25 1012 16 10000 11.3 20 20:41 10.07.2020
109 Clear 25 1012 16 10000 11.3 20 20:23 10.07.2020
110 Clear 26 1012 14 10000 10.3 20 19:58 10.07.2020
111 Clear 26 1012 14 10000 10.3 20 19:40 10.07.2020
112 Clear 26 1012 14 10000 10.3 20 19:21 10.07.2020
113 Clear 27 1011 13 10000 10.3 20 18:42 10.07.2020
114 Clear 27 1011 13 10000 10.3 20 18:22 10.07.2020
115 Clear 27 1010 12 10000 12.9 20 17:59 10.07.2020
116 Clear 27 1010 12 10000 12.9 20 17:40 10.07.2020
117 Clear 27 1010 12 10000 12.9 20 17:21 10.07.2020
118 Clear 28 1010 13 10000 7.7 10 16:44 10.07.2020
119 Clear 28 1010 13 10000 7.7 10 16:21 10.07.2020
120 Clear 30 1010 13 10000 6.2 20 15:55 10.07.2020
121 Clear 30 1010 13 10000 6.2 20 15:37 10.07.2020
122 Clear 30 1010 13 10000 6.2 20 15:18 10.07.2020
123 Clear 32 1006 11 10000 11.3 350 14:41 10.07.2020
124 Clear 32 1010 11 10000 7.7 360 14:21 10.07.2020
125 Clear 32 1010 11 10000 7.7 360 13:58 10.07.2020
126 Clear 32 1010 11 10000 7.7 360 13:39 10.07.2020
127 Clear 32 1010 11 10000 7.7 360 13:21 10.07.2020
128 Clear 32 1011 11 10000 6.2 350 12:57 10.07.2020
129 Clear 32 1011 11 10000 6.2 350 12:37 10.07.2020
130 Clear 32 1011 11 10000 6.2 350 12:19 10.07.2020
131 Clear 32 1011 13 10000 5.1 320 11:42 10.07.2020
132 Clear 32 1011 14 10000 5.1 320 11:21 10.07.2020
133 Clear 31 1012 14 10000 5.1 350 10:58 10.07.2020
134 Clear 31 1012 14 10000 5.1 350 10:39 10.07.2020
135 Clear 31 1012 15 10000 5.1 350 10:20 10.07.2020
136 Clear 30 1012 15 10000 5.1 350 09:41 10.07.2020
137 Clear 30 1012 15 10000 5.1 350 09:23 10.07.2020
138 Clear 28 1013 17 10000 5.1 360 08:59 10.07.2020
139 Clear 28 1013 17 10000 5.1 360 08:41 10.07.2020
140 Clear 28 1013 17 10000 5.1 360 08:22 10.07.2020
141 Clear 27 1013 18 10000 8.2 10 07:45 10.07.2020
142 Clear 27 1013 18 10000 8.2 10 07:23 10.07.2020
143 Clear 26 1013 21 10000 8.2 10 06:54 10.07.2020
144 Clear 26 1013 21 10000 8.2 10 06:54 10.07.2020
145 Clear 26 1013 21 10000 8.2 10 06:36 10.07.2020
146 Clear 25 1013 22 10000 7.7 10 05:27 10.07.2020
147 Clear 24 1012 23 10000 5.7 30 03:44 10.07.2020
148 Clear 24 1012 23 10000 5.1 30 02:53 10.07.2020
149 Clear 25 1011 22 10000 6.7 30 01:57 10.07.2020
150 Clear 25 1011 22 10000 5.7 30 00:54 10.07.2020
151 Clear 25 1011 22 10000 5.7 30 00:22 10.07.2020
152 Clear 25 1011 22 10000 2.1 0 23:55 09.07.2020
153 Clear 25 1011 22 10000 2.1 0 23:37 09.07.2020
154 Clear 25 1011 22 10000 2.1 0 23:18 09.07.2020
155 Clear 25 1011 22 10000 2.1 0 22:56 09.07.2020
156 Clear 24 1011 25 10000 2.6 60 22:38 09.07.2020
157 Clear 24 1011 25 10000 2.6 60 22:19 09.07.2020
158 Clear 26 1011 21 10000 3.1 60 21:39 09.07.2020
159 Clear 26 1011 21 10000 3.1 60 21:20 09.07.2020
160 Clear 27 1011 19 10000 4.1 30 20:59 09.07.2020
161 Clear 27 1011 19 10000 4.1 30 20:39 09.07.2020
162 Clouds 27 1011 19 10000 4.1 30 20:21 09.07.2020
163 Clouds 27 1011 19 10000 5.1 20 19:43 09.07.2020
164 Clouds 27 1011 19 10000 5.1 20 19:22 09.07.2020
165 Clouds 27 1011 19 10000 5.1 20 19:22 09.07.2020
166 Clouds 27 1010 21 10000 7.7 20 18:56 09.07.2020
167 Clouds 27 1010 21 10000 7.7 20 18:38 09.07.2020
168 Clouds 27 1010 21 10000 7.7 20 18:18 09.07.2020
169 Clouds 28 1010 23 10000 5.7 340 17:43 09.07.2020
170 Clouds 28 1010 23 10000 5.7 340 17:22 09.07.2020
171 Clouds 30 1010 20 10000 6.2 340 16:56 09.07.2020
172 Clouds 30 1010 20 10000 6.2 340 16:38 09.07.2020
173 Clouds 30 1010 20 10000 6.2 340 16:19 09.07.2020
174 Clouds 30 1009 20 10000 7.2 340 15:57 09.07.2020
175 Clouds 30 1009 20 10000 7.2 340 15:37 09.07.2020
176 Clear 30 1009 20 10000 7.2 340 15:18 09.07.2020
177 Clear 31 1010 16 10000 2.6 70 14:57 09.07.2020
178 Clear 31 1010 16 10000 2.6 70 14:39 09.07.2020
179 Clear 31 1010 16 10000 2.6 70 14:39 09.07.2020
180 Clouds 31 1010 16 10000 2.6 70 14:20 09.07.2020
181 Clouds 30 1010 20 10000 1 0 13:56 09.07.2020
182 Clouds 30 1010 20 10000 1 0 13:38 09.07.2020
183 Clouds 30 1010 20 10000 1 0 13:18 09.07.2020
184 Clouds 30 1011 20 10000 7.7 310 12:41 09.07.2020
185 Clouds 30 1011 20 10000 7.7 310 12:23 09.07.2020
186 Clouds 33 1011 16 10000 7.7 310 11:57 09.07.2020
187 Clouds 33 1011 16 10000 7.7 310 11:38 09.07.2020
188 Clouds 33 1011 16 10000 7.7 310 11:18 09.07.2020
189 Rain 31 1012 19 10000 3.6 340 10:55 09.07.2020
190 Rain 31 1012 19 10000 3.6 340 10:37 09.07.2020
191 Rain 31 1012 19 10000 3.6 340 10:19 09.07.2020
192 Rain 31 1012 22 10000 2.6 170 09:42 09.07.2020
193 Clouds 30 1013 25 10000 2.6 100 09:22 09.07.2020
194 Clouds 30 1013 25 10000 2.6 100 08:49 09.07.2020
195 Clouds 30 1013 25 10000 2.6 100 08:26 09.07.2020
196 Clear 27 1014 30 10000 2.6 150 07:50 09.07.2020
197 Clear 27 1014 30 10000 2.6 150 07:30 09.07.2020
198 Clear 27 1015 34 10000 1.5 0 06:58 09.07.2020
199 Clear 27 1015 34 10000 1.5 0 06:20 09.07.2020
200 Clear 24 1015 41 10000 1.5 0 05:47 09.07.2020
201 Clear 21 1014 49 10000 1.5 0 04:28 09.07.2020
202 Clear 19 1014 52 10000 1.5 0 02:37 09.07.2020
203 Clear 21 1014 46 10000 1.5 0 01:54 09.07.2020
204 Clear 21 1014 43 10000 1.5 0 00:56 09.07.2020
205 Clear 21 1014 43 10000 1.5 0 00:37 09.07.2020
206 Clouds 21 1014 43 10000 1.5 0 00:18 09.07.2020
207 Clouds 23 1014 40 10000 1.5 0 23:43 08.07.2020
208 Clear 23 1014 40 10000 1.5 0 23:24 08.07.2020
209 Clear 24 1015 36 10000 1 0 22:55 08.07.2020
210 Clear 24 1015 36 10000 1 0 22:36 08.07.2020
211 Clear 24 1015 36 10000 1 0 22:18 08.07.2020
212 Clouds 24 1016 38 10000 7.7 170 21:39 08.07.2020
213 Clouds 24 1016 38 10000 7.7 170 21:21 08.07.2020
214 Clouds 25 1016 36 10000 4.1 200 20:58 08.07.2020
215 Clouds 25 1016 36 10000 4.1 200 20:58 08.07.2020
216 Clouds 25 1016 36 10000 4.1 200 20:40 08.07.2020
217 Clouds 25 1016 36 10000 4.1 200 20:22 08.07.2020
218 Clear 28 1011 24 10000 1.57 348 19:43 08.07.2020
219 Rain 27 1015 30 10000 4.6 270 19:25 08.07.2020
220 Rain 27 1015 30 10000 4.6 270 18:58 08.07.2020
221 Rain 27 1015 30 10000 4.6 270 18:40 08.07.2020
222 Rain 27 1015 30 10000 4.6 270 18:20 08.07.2020
223 Clouds 27 1014 26 10000 7.2 360 17:56 08.07.2020
224 Clouds 27 1014 26 10000 7.2 360 17:38 08.07.2020
225 Clouds 27 1014 26 10000 7.2 360 17:19 08.07.2020
226 Clouds 27 1013 28 10000 7.7 360 16:54 08.07.2020
227 Clouds 27 1013 28 10000 7.7 360 16:36 08.07.2020
228 Clouds 27 1013 28 10000 7.7 360 16:18 08.07.2020
229 Clouds 29 1013 23 10000 7.2 10 15:41 08.07.2020
230 Clouds 29 1013 23 10000 7.2 10 15:20 08.07.2020
231 Clouds 29 1013 25 10000 7.2 10 14:59 08.07.2020
232 Clouds 29 1013 25 10000 7.2 10 14:41 08.07.2020
233 Clouds 29 1013 25 10000 7.2 10 14:19 08.07.2020
234 Clouds 31 1014 22 10000 7.7 350 13:45 08.07.2020
235 Clouds 32 1014 21 10000 3.6 330 13:27 08.07.2020
236 Clouds 31 1014 22 10000 2.6 330 12:57 08.07.2020
237 Clouds 31 1014 22 10000 2.6 330 12:38 08.07.2020
238 Clouds 31 1014 22 10000 2.6 330 12:19 08.07.2020
239 Clouds 33 1014 19 10000 2.1 310 11:39 08.07.2020
240 Clear 33 1014 19 10000 2.1 310 11:20 08.07.2020
241 Clear 30 1015 22 10000 1.5 0 10:56 08.07.2020
242 Clear 30 1015 22 10000 1.5 0 10:56 08.07.2020
243 Clear 30 1015 22 10000 1.5 0 10:38 08.07.2020
244 Clear 30 1015 22 10000 1.5 0 10:19 08.07.2020
245 Clear 30 1016 22 10000 1.5 0 09:41 08.07.2020
246 Clear 30 1016 22 10000 1.5 0 09:23 08.07.2020
247 Clear 28 1017 26 10000 4.1 70 08:43 08.07.2020
248 Clear 28 1017 26 10000 4.1 70 08:24 08.07.2020
249 Clear 26 1017 29 10000 2.1 360 07:47 08.07.2020
250 Clear 26 1017 29 10000 2.1 360 07:24 08.07.2020
251 Clear 26 1018 29 10000 2.1 340 06:55 08.07.2020
252 Clear 26 1018 29 10000 2.1 340 06:36 08.07.2020
253 Clear 24 1018 36 10000 1.5 0 05:55 08.07.2020
254 Clear 24 1018 36 10000 1.5 0 05:24 08.07.2020
255 Clear 21 1017 46 10000 1.5 320 04:36 08.07.2020
256 Clear 18 1017 55 8000 1.5 0 02:48 08.07.2020
257 Clear 17 1017 55 8000 2.1 80 01:52 08.07.2020
258 Clear 17 1017 55 8000 2.1 80 01:32 08.07.2020
259 Clear 18 1016 52 10000 1.5 290 00:28 08.07.2020
260 Clear 20 1016 45 10000 1.5 80 23:59 07.07.2020
261 Clear 20 1016 45 10000 1.5 80 23:40 07.07.2020
262 Clear 20 1016 45 10000 1.5 80 23:19 07.07.2020
263 Clear 21 1017 46 10000 1.5 0 22:43 07.07.2020
264 Clouds 21 1017 46 10000 1.5 0 22:24 07.07.2020
265 Clouds 22 1017 40 10000 1 0 21:59 07.07.2020
266 Clouds 22 1017 40 10000 1 0 21:40 07.07.2020
267 Clouds 22 1017 40 10000 1 0 21:21 07.07.2020
268 Clouds 22 1016 40 10000 1 0 20:57 07.07.2020
269 Clouds 22 1016 40 10000 1 0 20:39 07.07.2020
270 Clouds 22 1016 40 10000 1 0 20:21 07.07.2020
271 Clouds 23 1016 38 10000 1 0 19:42 07.07.2020
272 Clouds 23 1016 38 10000 1 0 19:21 07.07.2020
273 Clouds 22 1015 43 10000 1.5 110 18:59 07.07.2020
274 Clouds 22 1015 43 10000 1.5 110 18:40 07.07.2020
275 Clouds 22 1015 43 10000 1.5 110 18:22 07.07.2020
276 Clouds 25 1014 29 10000 0.5 90 17:58 07.07.2020
277 Clouds 25 1014 29 10000 0.5 90 17:39 07.07.2020
278 Clouds 25 1014 29 10000 0.5 90 17:21 07.07.2020
279 Clouds 26 1015 29 10000 2.6 140 16:58 07.07.2020
280 Clouds 26 1015 29 10000 2.6 140 16:38 07.07.2020
281 Rain 26 1015 29 10000 2.6 140 16:20 07.07.2020
282 Rain 27 1015 26 10000 1.5 180 15:42 07.07.2020
283 Rain 27 1015 26 10000 1.5 180 15:20 07.07.2020
284 Clouds 26 1015 29 10000 2.6 250 14:47 07.07.2020
285 Clouds 26 1015 29 10000 2.6 250 14:27 07.07.2020
286 Clouds 25 1016 31 10000 6.2 140 13:59 07.07.2020
287 Clouds 25 1016 31 10000 6.2 140 13:38 07.07.2020
288 Clouds 25 1016 31 10000 6.2 140 13:38 07.07.2020
289 Clouds 25 1016 31 10000 6.2 140 13:18 07.07.2020
290 Clouds 28 1014 21 10000 9.3 300 12:40 07.07.2020
291 Clouds 28 1014 21 10000 9.3 300 12:22 07.07.2020
292 Rain 29 1014 18 8000 10.3 300 11:50 07.07.2020
293 Rain 31 1014 16 10000 7.7 350 11:26 07.07.2020
294 Clouds 31 1014 23 10000 8.7 340 10:59 07.07.2020
295 Clouds 30 1014 27 10000 4.1 20 10:41 07.07.2020
296 Clouds 30 1014 27 10000 4.1 20 10:22 07.07.2020
297 Clouds 30 1014 27 10000 3.6 30 09:59 07.07.2020
298 Clouds 30 1014 27 10000 3.6 30 09:38 07.07.2020
299 Clouds 30 1014 27 10000 3.6 30 09:20 07.07.2020
300 Clouds 29 1015 26 10000 2.1 40 08:42 07.07.2020
301 Clouds 29 1015 26 10000 2.1 40 08:23 07.07.2020
302 Clear 28 1015 30 10000 1.5 30 07:45 07.07.2020
303 Clear 28 1015 30 10000 1.5 30 07:23 07.07.2020
304 Clear 27 1015 32 10000 1.5 60 06:49 07.07.2020
305 Clear 27 1015 32 10000 1.5 60 06:30 07.07.2020
306 Clear 25 1015 33 10000 1 0 05:53 07.07.2020
307 Rain 25 1015 33 10000 1 0 05:23 07.07.2020
308 Rain 21 1015 40 10000 1 0 04:40 07.07.2020
309 Rain 19 1014 45 10000 1 0 03:40 07.07.2020
310 Rain 20 1014 42 10000 0.5 0 02:27 07.07.2020
311 Rain 21 1013 35 10000 1.5 0 01:23 07.07.2020
312 Rain 22 1013 37 10000 0.79 345 00:43 07.07.2020
313 Clear 22 1013 37 10000 0.91 353 00:24 07.07.2020
314 Clear 22 1013 35 10000 2.1 80 23:59 06.07.2020
315 Clear 22 1013 35 10000 2.1 80 23:40 06.07.2020
316 Rain 22 1013 35 10000 2.1 80 23:22 06.07.2020
317 Rain 23 1013 27 10000 4.1 70 22:41 06.07.2020
318 Clear 23 1013 27 10000 4.1 70 22:20 06.07.2020
319 Clear 23 1013 27 10000 4.1 70 21:58 06.07.2020
320 Clear 23 1013 35 10000 2.1 70 21:39 06.07.2020
321 Clear 23 1013 35 10000 2.1 70 21:19 06.07.2020
322 Clear 24 1012 38 10000 2.1 70 20:59 06.07.2020
323 Clear 24 1012 38 10000 2.1 70 20:39 06.07.2020
324 Clear 24 1012 38 10000 2.1 70 20:20 06.07.2020
325 Clear 24 1012 38 10000 3.1 110 19:57 06.07.2020
326 Clear 24 1012 38 10000 3.1 110 19:39 06.07.2020
327 Clear 24 1012 38 10000 3.1 110 19:20 06.07.2020
328 Clear 26 1011 34 10000 3.1 90 18:55 06.07.2020
329 Clear 26 1011 34 10000 3.1 90 18:36 06.07.2020
330 Clear 26 1011 34 10000 3.1 90 18:18 06.07.2020
331 Clouds 27 1010 32 10000 3.6 100 17:41 06.07.2020
332 Clouds 27 1010 32 10000 3.6 100 17:23 06.07.2020
333 Clear 29 1009 26 10000 5.7 130 16:55 06.07.2020
334 Clear 29 1009 26 10000 5.7 130 16:37 06.07.2020
335 Clouds 29 1009 26 10000 5.7 130 16:18 06.07.2020
336 Clouds 30 1008 23 10000 4.1 120 15:42 06.07.2020
337 Clouds 30 1008 23 10000 4.1 120 15:24 06.07.2020
338 Clouds 31 1009 20 10000 3.6 30 14:57 06.07.2020
339 Clouds 31 1009 20 10000 3.6 30 14:37 06.07.2020
340 Clear 31 1009 20 10000 3.6 30 14:19 06.07.2020
341 Clear 32 1009 18 10000 3.1 360 13:48 06.07.2020
342 Clear 32 1009 18 10000 3.1 360 13:28 06.07.2020
343 Clear 31 1011 20 10000 3.1 80 12:57 06.07.2020
344 Clear 31 1011 20 10000 3.1 80 12:39 06.07.2020
345 Clear 31 1011 20 10000 3.1 80 12:18 06.07.2020
346 Clear 30 1011 22 10000 3.1 30 11:57 06.07.2020
347 Clear 30 1011 22 10000 3.1 30 11:37 06.07.2020
348 Clear 30 1011 22 10000 3.1 30 11:19 06.07.2020
349 Clear 29 1012 23 10000 2.1 10 10:42 06.07.2020
350 Clear 29 1012 23 10000 2.1 10 10:21 06.07.2020
351 Clear 29 1013 23 10000 2.1 80 09:57 06.07.2020
352 Clear 29 1013 23 10000 2.1 80 09:39 06.07.2020
353 Clear 29 1013 23 10000 2.1 80 09:21 06.07.2020
354 Clear 28 1013 21 10000 2.6 340 08:42 06.07.2020
355 Clear 28 1013 21 10000 2.6 340 08:24 06.07.2020
356 Clear 26 1013 29 10000 2.1 110 07:58 06.07.2020
357 Clear 26 1013 29 10000 2.1 110 07:40 06.07.2020
358 Clear 26 1013 29 10000 2.1 110 07:21 06.07.2020
359 Clear 25 1013 20 10000 2.1 360 06:39 06.07.2020
360 Clear 25 1013 20 10000 2.1 360 06:19 06.07.2020
361 Clear 24 1013 22 10000 1.5 0 05:29 06.07.2020
362 Clear 20 1013 24 10000 0.72 19 04:48 06.07.2020
363 Clear 17 1012 29 10000 0.4 80 02:58 06.07.2020
364 Clear 17 1012 29 10000 0.32 208 02:19 06.07.2020
365 Clear 19 1011 17 10000 3.1 320 00:59 06.07.2020
366 Clear 18 1007 27 10000 0.32 267 00:32 06.07.2020
367 Clear 21 1011 15 10000 4.1 350 23:59 05.07.2020
368 Clear 21 1011 15 10000 4.1 350 23:40 05.07.2020
369 Clear 21 1011 15 10000 4.1 350 23:22 05.07.2020
370 Clear 21 1011 14 10000 2.6 0 22:58 05.07.2020
371 Clear 21 1011 14 10000 2.6 0 22:38 05.07.2020
372 Clear 21 1011 14 10000 2.6 0 22:19 05.07.2020
373 Clear 21 1011 14 10000 2.6 0 21:56 05.07.2020
374 Clear 23 1011 13 10000 5.1 20 21:37 05.07.2020
375 Clear 23 1011 13 10000 5.1 20 21:18 05.07.2020
376 Clear 24 1011 13 10000 6.7 40 20:42 05.07.2020
377 Clear 24 1011 13 10000 6.7 40 20:24 05.07.2020
378 Clear 25 1010 12 10000 5.1 30 19:58 05.07.2020
379 Clear 25 1010 12 10000 5.1 30 19:40 05.07.2020
380 Clear 25 1010 12 10000 5.1 30 19:20 05.07.2020
381 Clear 26 1009 11 10000 7.2 30 18:55 05.07.2020
382 Clear 26 1009 11 10000 7.2 30 18:37 05.07.2020
383 Clear 26 1009 11 10000 7.2 30 18:18 05.07.2020
384 Clear 27 1009 10 10000 6.2 30 17:42 05.07.2020
385 Clear 27 1009 10 10000 6.2 30 17:19 05.07.2020
386 Clear 28 1008 9 10000 7.2 30 16:46 05.07.2020
387 Clear 28 1008 9 10000 7.2 30 16:26 05.07.2020
388 Clear 30 1008 9 10000 5.1 360 15:59 05.07.2020
389 Clear 30 1008 9 10000 5.1 360 15:40 05.07.2020
390 Clear 30 1008 9 10000 5.1 360 15:20 05.07.2020
391 Clear 31 1008 9 10000 6.7 340 14:43 05.07.2020
392 Clear 31 1008 9 10000 6.7 340 14:23 05.07.2020
393 Clear 32 1008 8 10000 2.6 350 13:59 05.07.2020
394 Clear 32 1008 8 10000 2.6 350 13:40 05.07.2020
395 Clear 32 1008 8 10000 2.6 350 13:20 05.07.2020
396 Clear 31 1009 8 10000 3.1 80 12:44 05.07.2020
397 Clear 31 1009 8 10000 3.1 80 12:20 05.07.2020
398 Clear 31 1010 10 10000 2.1 340 11:55 05.07.2020
399 Clear 31 1010 10 10000 2.1 340 11:37 05.07.2020
400 Clear 31 1010 10 10000 2.1 340 11:18 05.07.2020
401 Clear 29 1011 11 10000 3.1 10 10:54 05.07.2020
402 Clear 29 1011 11 10000 3.1 10 10:36 05.07.2020
403 Clear 29 1011 11 10000 3.1 10 10:18 05.07.2020
404 Clear 29 1012 9 10000 4.1 60 09:41 05.07.2020
405 Clear 29 1012 9 10000 4.1 60 09:41 05.07.2020
406 Clear 29 1012 9 10000 4.1 60 09:20 05.07.2020
407 Clear 29 1012 13 10000 4.1 330 08:55 05.07.2020
408 Clear 29 1012 13 10000 4.1 330 08:37 05.07.2020
409 Clouds 25 1012 14 10000 3.1 340 07:59 05.07.2020
410 Clouds 25 1012 14 10000 3.1 340 07:33 05.07.2020
411 Clouds 25 1012 16 10000 1.5 0 06:58 05.07.2020
412 Clouds 25 1012 16 10000 1.5 0 06:29 05.07.2020
413 Clouds 17 1011 27 10000 0.5 0 03:57 05.07.2020
414 Clouds 17 1011 27 10000 1 0 02:59 05.07.2020
415 Clouds 17 1011 27 10000 1 0 02:36 05.07.2020
416 Clouds 20 1011 20 10000 1 0 01:43 05.07.2020
417 Clouds 20 1011 20 10000 1 0 01:22 05.07.2020
418 Clouds 21 1011 16 10000 2.6 20 00:45 05.07.2020
419 Clouds 21 1011 16 10000 2.6 20 00:26 05.07.2020
420 Clouds 23 1011 13 10000 3.6 30 23:55 04.07.2020
421 Clouds 23 1011 13 10000 3.6 30 23:32 04.07.2020
422 Clouds 22 1011 13 10000 4.1 20 22:59 04.07.2020
423 Clouds 22 1011 13 10000 4.1 20 22:40 04.07.2020
424 Clouds 22 1011 13 10000 4.1 20 22:22 04.07.2020
425 Clouds 22 1011 13 10000 4.1 20 21:58 04.07.2020
426 Clouds 24 1011 11 10000 5.1 20 21:39 04.07.2020
427 Clouds 24 1011 11 10000 5.1 20 21:20 04.07.2020
428 Clouds 24 1011 11 10000 5.1 20 20:42 04.07.2020
429 Clouds 24 1011 12 10000 5.1 30 20:21 04.07.2020
430 Clouds 25 1010 11 10000 7.7 20 19:56 04.07.2020
431 Clouds 25 1010 11 10000 7.7 20 19:37 04.07.2020
432 Clouds 25 1010 11 10000 7.7 20 19:19 04.07.2020
433 Clouds 26 1010 12 10000 8.2 30 18:43 04.07.2020
434 Clouds 26 1010 12 10000 8.2 30 18:22 04.07.2020
435 Clouds 27 1009 10 10000 9.8 20 17:45 04.07.2020
436 Clear 27 1009 10 10000 9.8 20 17:26 04.07.2020
437 Clear 27 1009 10 10000 9.8 20 17:26 04.07.2020
438 Clear 27 1009 10 10000 9.8 20 16:59 04.07.2020
439 Clear 28 1007 11 10000 10.3 20 16:39 04.07.2020
440 Clear 28 1007 11 10000 10.3 20 16:21 04.07.2020
441 Clear 30 1007 9 10000 9.8 20 15:58 04.07.2020
442 Clear 30 1007 9 10000 9.8 20 15:40 04.07.2020
443 Clear 30 1007 9 10000 9.8 20 15:21 04.07.2020
444 Clear 31 1007 10 10000 7.7 350 14:55 04.07.2020
445 Clear 31 1007 10 10000 7.7 350 14:55 04.07.2020
446 Clear 31 1007 10 10000 7.7 350 14:55 04.07.2020
447 Clouds 31 1007 10 10000 7.7 350 14:36 04.07.2020
448 Clear 31 1007 10 10000 7.7 350 14:18 04.07.2020
449 Clear 33 1008 7 10000 5.1 350 13:41 04.07.2020
450 Clear 33 1008 7 10000 5.1 350 13:19 04.07.2020
451 Clear 32 1009 7 10000 5.1 20 12:43 04.07.2020
452 Clear 32 1009 7 10000 5.1 20 12:43 04.07.2020
453 Clear 32 1009 7 10000 5.1 20 12:24 04.07.2020
454 Clear 32 1010 7 10000 5.1 20 11:59 04.07.2020
455 Clear 32 1010 7 10000 5.1 20 11:40 04.07.2020
456 Clear 32 1010 7 10000 5.1 20 11:22 04.07.2020
457 Clear 32 1011 8 10000 5.1 20 10:55 04.07.2020
458 Clear 32 1011 8 10000 5.1 20 10:36 04.07.2020
459 Clear 32 1011 8 10000 5.1 20 10:18 04.07.2020
460 Clear 30 1013 9 10000 4.1 20 09:40 04.07.2020
461 Clear 30 1013 9 10000 4.1 20 09:21 04.07.2020
462 Clear 30 1013 7 10000 3.1 20 08:50 04.07.2020
463 Clear 30 1013 7 10000 3.1 20 08:32 04.07.2020
464 Clear 28 1014 13 10000 1.5 100 07:56 04.07.2020
465 Clear 28 1014 13 10000 1.5 100 07:38 04.07.2020
466 Clear 27 1014 13 10000 3.6 360 06:57 04.07.2020
467 Clear 27 1014 13 10000 3.6 360 06:23 04.07.2020
468 Clear 26 1014 16 10000 1.5 0 05:41 04.07.2020
469 Clear 26 1014 16 10000 1.5 0 05:19 04.07.2020
470 Clear 20 1013 22 10000 3.1 260 03:47 04.07.2020
471 Clear 18 1013 27 10000 2.1 310 02:39 04.07.2020
472 Clear 22 1013 17 10000 3.1 270 01:38 04.07.2020
473 Clear 22 1013 17 10000 4.1 270 00:47 04.07.2020
474 Clear 22 1013 17 10000 4.1 270 00:29 04.07.2020
475 Clear 23 1013 12 10000 3.1 350 23:54 03.07.2020
476 Clear 23 1013 12 10000 3.1 350 23:36 03.07.2020
477 Clear 23 1013 12 10000 3.1 350 23:36 03.07.2020
478 Clear 23 1013 12 10000 3.1 350 23:18 03.07.2020
479 Clear 23 1014 12 10000 4.1 320 22:41 03.07.2020
480 Clear 23 1014 12 10000 4.1 320 22:23 03.07.2020
481 Clear 23 1014 12 10000 4.1 320 21:56 03.07.2020
482 Clear 23 1014 11 10000 4.1 300 21:37 03.07.2020
483 Clear 23 1014 11 10000 4.1 300 21:18 03.07.2020
484 Clear 25 1014 10 10000 2.1 0 20:42 03.07.2020
485 Clear 25 1014 10 10000 2.1 0 20:24 03.07.2020
486 Clear 26 1013 10 10000 7.7 360 19:42 03.07.2020
487 Clear 26 1013 10 10000 7.7 360 19:22 03.07.2020
488 Clear 27 1013 10 10000 11.3 10 18:59 03.07.2020
489 Clear 27 1013 10 10000 11.3 10 18:41 03.07.2020
490 Clear 27 1013 10 10000 11.3 10 18:22 03.07.2020
491 Clear 28 1012 10 10000 10.3 10 17:46 03.07.2020
492 Clear 28 1012 10 10000 10.3 10 17:23 03.07.2020
493 Clear 29 1012 9 10000 6.7 30 16:59 03.07.2020
494 Clear 29 1012 9 10000 6.7 30 16:39 03.07.2020
495 Clear 29 1012 9 10000 6.7 30 16:20 03.07.2020
496 Clear 32 1012 8 10000 7.7 10 15:42 03.07.2020
497 Clear 32 1012 8 10000 7.7 10 15:22 03.07.2020
498 Clear 32 1012 7 10000 7.7 360 14:55 03.07.2020
499 Clear 32 1012 7 10000 7.7 360 14:36 03.07.2020
500 Clear 32 1012 7 10000 7.7 360 14:18 03.07.2020
501 Clear 33 1012 7 10000 3.6 30 13:41 03.07.2020
502 Clear 33 1012 7 10000 3.6 30 13:22 03.07.2020
503 Clear 34 1013 8 10000 5.1 340 12:44 03.07.2020
504 Clear 34 1013 8 10000 5.1 340 12:23 03.07.2020
505 Clear 33 1014 9 10000 5.1 360 11:56 03.07.2020
506 Clear 33 1014 9 10000 5.1 360 11:38 03.07.2020
507 Clear 33 1014 9 10000 5.1 360 11:19 03.07.2020
508 Clear 32 1014 10 10000 5.1 360 10:42 03.07.2020
509 Clear 32 1014 10 10000 5.1 360 10:21 03.07.2020
510 Clear 31 1015 10 10000 5.1 360 09:59 03.07.2020
511 Clear 31 1015 10 10000 5.1 360 09:39 03.07.2020
512 Clear 31 1015 10 10000 5.1 360 09:20 03.07.2020
513 Clear 29 1015 10 10000 4.1 10 08:56 03.07.2020
514 Clear 29 1015 10 10000 4.1 10 08:37 03.07.2020
515 Clear 29 1015 10 10000 4.1 10 08:18 03.07.2020
516 Clear 28 1015 13 10000 2.1 310 07:43 03.07.2020
517 Clear 28 1015 13 10000 2.1 310 07:21 03.07.2020
518 Clear 27 1016 15 10000 2.1 260 06:30 03.07.2020
519 Clear 24 1016 20 10000 1.5 320 05:43 03.07.2020
520 Clear 17 1015 33 10000 2.1 320 03:59 03.07.2020
521 Clear 18 1015 34 10000 1.5 290 02:55 03.07.2020
522 Clear 18 1015 34 10000 1.5 290 02:31 03.07.2020
523 Clear 18 1015 31 10000 1.5 310 01:41 03.07.2020
524 Clear 18 1015 31 10000 1.5 310 01:20 03.07.2020
525 Clear 20 1015 30 10000 1 0 00:41 03.07.2020
526 Clear 22 1015 21 10000 2.1 340 23:56 02.07.2020
527 Clear 22 1015 21 10000 2.1 340 23:37 02.07.2020
528 Clear 22 1015 21 10000 2.1 340 23:18 02.07.2020
529 Clear 21 1016 22 10000 1.5 0 22:54 02.07.2020
530 Clear 21 1016 22 10000 1.5 0 22:36 02.07.2020
531 Clear 21 1016 22 10000 1.5 0 22:18 02.07.2020
532 Clear 24 1016 17 10000 5.1 10 21:42 02.07.2020
533 Clear 24 1016 17 10000 5.1 10 21:20 02.07.2020
534 Clear 24 1016 17 10000 5.1 10 20:58 02.07.2020
535 Clear 24 1016 17 10000 5.1 10 20:40 02.07.2020
536 Clear 24 1016 17 10000 5.1 10 20:20 02.07.2020
537 Clear 25 1016 16 10000 11.3 20 19:43 02.07.2020
538 Clear 25 1016 16 10000 11.3 20 19:24 02.07.2020
539 Clear 26 1015 15 10000 11.8 20 18:59 02.07.2020
540 Clear 26 1015 15 10000 11.8 20 18:41 02.07.2020
541 Clear 26 1015 15 10000 11.8 20 18:41 02.07.2020
542 Clear 26 1015 15 10000 11.8 20 18:22 02.07.2020
543 Clear 27 1015 14 10000 10.3 20 17:58 02.07.2020
544 Clear 27 1015 14 10000 10.3 20 17:39 02.07.2020
545 Clear 27 1015 14 10000 10.3 20 17:18 02.07.2020
546 Clear 27 1015 14 10000 10.3 20 16:43 02.07.2020
547 Clear 28 1015 14 10000 7.7 20 16:21 02.07.2020
548 Clear 29 1014 13 10000 8.7 10 15:59 02.07.2020
549 Clear 29 1014 13 10000 8.7 10 15:38 02.07.2020
550 Clear 29 1014 13 10000 8.7 10 15:20 02.07.2020
551 Clear 30 1014 12 10000 11.3 10 14:45 02.07.2020
552 Clear 30 1014 12 10000 11.3 10 14:23 02.07.2020
553 Clear 31 1014 11 10000 10.8 10 13:57 02.07.2020
554 Clear 31 1014 11 10000 10.8 10 13:39 02.07.2020
555 Clear 31 1014 11 10000 10.8 10 13:19 02.07.2020
556 Clear 31 1015 12 10000 10.3 10 12:56 02.07.2020
557 Clear 31 1015 12 10000 10.3 10 12:38 02.07.2020
558 Clear 31 1015 12 10000 10.3 10 12:19 02.07.2020
559 Clear 31 1015 12 10000 9.3 10 11:41 02.07.2020
560 Clear 31 1015 12 10000 9.3 10 11:23 02.07.2020
561 Clear 31 1016 14 10000 8.2 10 10:45 02.07.2020
562 Clear 31 1016 14 10000 8.2 10 10:27 02.07.2020
563 Clouds 31 1013 13 10000 10.8 350 09:56 02.07.2020
564 Clouds 31 1013 13 10000 10.8 350 09:37 02.07.2020
565 Clear 29 1016 16 10000 8.2 360 09:19 02.07.2020
566 Clear 29 1016 16 10000 8.2 360 08:42 02.07.2020
567 Clear 29 1016 16 10000 8.2 360 08:22 02.07.2020
568 Clear 28 1017 18 10000 7.7 10 07:45 02.07.2020
569 Clear 28 1017 18 10000 7.7 10 07:27 02.07.2020
570 Clear 27 1016 21 10000 5.1 10 06:58 02.07.2020
571 Clear 27 1016 21 10000 5.1 10 06:39 02.07.2020
572 Clear 27 1016 21 10000 5.1 10 06:19 02.07.2020
573 Clear 25 1016 25 10000 4.1 350 05:42 02.07.2020
574 Clear 19 1015 45 10000 2.6 340 03:35 02.07.2020
575 Clear 19 1015 48 10000 2.1 280 02:38 02.07.2020
576 Clear 21 1014 46 10000 2.6 300 00:46 02.07.2020
577 Clear 21 1014 46 10000 2.6 300 00:22 02.07.2020
578 Clear 20 1015 49 10000 2.1 330 23:45 01.07.2020
579 Clear 20 1015 49 10000 2.1 330 23:27 01.07.2020
580 Clear 22 1015 37 10000 1 0 22:56 01.07.2020
581 Clear 22 1015 37 10000 1 0 22:38 01.07.2020
582 Clear 22 1015 37 10000 1 0 22:19 01.07.2020
583 Clear 22 1015 37 10000 1 0 21:58 01.07.2020
584 Clear 22 1015 35 10000 2.6 310 21:40 01.07.2020
585 Clear 22 1015 35 10000 2.6 310 21:21 01.07.2020
586 Clear 24 1015 33 10000 2.1 270 20:54 01.07.2020
587 Clear 24 1015 33 10000 2.1 270 20:36 01.07.2020
588 Clear 24 1015 33 10000 2.1 270 20:18 01.07.2020
589 Clouds 26 1015 29 10000 4.1 360 19:42 01.07.2020
590 Clouds 26 1015 29 10000 4.1 360 19:23 01.07.2020
591 Clouds 27 1014 28 10000 6.2 10 18:59 01.07.2020
592 Clouds 27 1014 28 10000 6.2 10 18:40 01.07.2020
593 Clouds 27 1014 28 10000 6.2 10 18:21 01.07.2020
594 Clouds 27 1014 28 10000 5.1 350 17:55 01.07.2020
595 Clouds 27 1014 28 10000 5.1 350 17:37 01.07.2020
596 Clouds 27 1014 28 10000 5.1 350 17:18 01.07.2020
597 Clouds 28 1013 26 10000 6.2 360 16:42 01.07.2020
598 Clouds 28 1013 26 10000 6.2 360 16:24 01.07.2020
599 Clouds 30 1014 23 10000 4.1 330 15:43 01.07.2020
600 Clouds 30 1014 23 10000 4.1 330 15:25 01.07.2020
601 Clouds 30 1014 25 10000 5.1 350 14:58 01.07.2020
602 Clouds 30 1014 25 10000 5.1 350 14:39 01.07.2020
603 Clouds 30 1014 25 10000 5.1 350 14:20 01.07.2020
604 Clouds 30 1014 27 10000 6.2 350 13:55 01.07.2020
605 Clouds 30 1014 27 10000 6.2 350 13:36 01.07.2020
606 Clouds 30 1014 27 10000 6.2 350 13:18 01.07.2020
607 Clouds 30 1015 28 10000 2.1 300 12:41 01.07.2020
608 Clouds 30 1015 28 10000 2.1 300 12:23 01.07.2020
609 Clouds 30 1015 28 10000 2.1 300 12:23 01.07.2020
610 Clouds 30 1015 28 10000 2.1 300 12:23 01.07.2020
611 Clouds 27 1015 34 10000 2.6 10 11:58 01.07.2020
612 Clouds 27 1015 34 10000 2.6 10 11:40 01.07.2020
613 Clouds 27 1015 34 10000 2.6 10 11:21 01.07.2020
614 Clouds 28 1016 32 10000 2.1 290 10:55 01.07.2020
615 Clouds 28 1016 32 10000 2.1 290 10:55 01.07.2020
616 Clouds 28 1016 32 10000 2.1 290 10:36 01.07.2020
617 Clouds 28 1016 32 10000 2.1 290 10:18 01.07.2020
618 Clouds 28 1017 34 10000 3.6 30 09:38 01.07.2020
619 Clouds 28 1017 34 10000 3.6 30 09:20 01.07.2020
620 Clouds 27 1017 39 10000 2.6 320 08:57 01.07.2020
621 Rain 25 1014 53 10000 2.1 290 08:39 01.07.2020
622 Clouds 26 1018 41 10000 1.5 0 08:19 01.07.2020
623 Clouds 26 1018 41 10000 1.5 0 07:41 01.07.2020
624 Clouds 24 1018 47 10000 1.5 0 07:23 01.07.2020
625 Clouds 24 1018 47 10000 1.5 0 06:55 01.07.2020
626 Clouds 24 1018 47 10000 1.5 0 06:32 01.07.2020
627 Clouds 22 1018 60 10000 1 0 05:44 01.07.2020
628 Clouds 20 1018 64 10000 1 0 04:26 01.07.2020
629 Clouds 18 1017 77 10000 2.6 340 03:40 01.07.2020
630 Clouds 18 1017 77 10000 2.6 340 03:20 01.07.2020
631 Clouds 17 1017 77 8000 1 0 01:56 01.07.2020
632 Clouds 18 1017 72 8000 1.5 0 00:48 01.07.2020
633 Clouds 18 1017 72 8000 1.5 0 00:27 01.07.2020
634 Clouds 17 1017 77 8000 1.5 0 23:57 30.06.2020
635 Clouds 17 1017 77 8000 1.5 0 23:39 30.06.2020
636 Clouds 17 1017 77 8000 1.5 0 23:19 30.06.2020
637 Clouds 18 1017 72 8000 1.5 0 22:42 30.06.2020
638 Clouds 18 1017 72 8000 1.5 0 22:19 30.06.2020
639 Clouds 18 1017 72 8000 1.5 0 21:42 30.06.2020
640 Clouds 18 1018 72 8000 2.1 110 21:19 30.06.2020
641 Clouds 20 1018 64 10000 2.1 360 20:59 30.06.2020
642 Clouds 20 1018 64 10000 2.1 360 20:40 30.06.2020
643 Clouds 20 1018 64 10000 2.1 360 20:20 30.06.2020
644 Clouds 19 1017 68 10000 1.5 0 19:43 30.06.2020
645 Rain 19 1017 68 10000 1.5 0 19:20 30.06.2020
646 Rain 19 1017 68 10000 1.5 0 19:20 30.06.2020
647 Clouds 18 1016 77 10000 2.1 320 18:54 30.06.2020
648 Clouds 18 1016 77 10000 2.1 320 18:36 30.06.2020
649 Clouds 18 1016 77 10000 2.1 320 18:18 30.06.2020
650 Clouds 20 1016 64 10000 2.6 160 17:38 30.06.2020
651 Rain 20 1016 72 10000 2.6 0 17:20 30.06.2020
652 Rain 20 1016 72 10000 2.6 0 16:55 30.06.2020
653 Rain 20 1016 72 10000 2.6 0 16:36 30.06.2020
654 Rain 20 1016 72 10000 2.6 0 16:18 30.06.2020
655 Rain 23 1015 43 10000 5.1 350 15:42 30.06.2020
656 Rain 23 1015 43 10000 5.1 350 15:22 30.06.2020
657 Clouds 23 1015 49 10000 8.7 360 14:58 30.06.2020
658 Clouds 23 1015 49 10000 8.7 360 14:39 30.06.2020
659 Clouds 23 1015 49 10000 8.7 360 14:18 30.06.2020
660 Clouds 23 1015 49 10000 8.7 360 14:18 30.06.2020
661 Rain 24 1015 44 10000 10.3 360 13:41 30.06.2020
662 Rain 24 1015 44 10000 10.3 360 13:21 30.06.2020
663 Rain 25 1016 47 10000 7.7 10 12:59 30.06.2020
664 Rain 25 1016 47 10000 7.7 10 12:40 30.06.2020
665 Rain 25 1016 47 10000 7.7 10 12:21 30.06.2020
666 Rain 25 1016 47 10000 7.7 10 12:21 30.06.2020
667 Rain 25 1016 47 10000 7.7 10 12:21 30.06.2020
668 Rain 25 1016 41 10000 8.2 10 11:58 30.06.2020
669 Clouds 29 1015 30 10000 2.1 70 11:39 30.06.2020
670 Clouds 29 1015 30 10000 2.1 70 11:39 30.06.2020
671 Clouds 29 1015 30 10000 2.1 70 11:19 30.06.2020
672 Rain 28 1016 34 10000 3.1 340 10:58 30.06.2020
673 Rain 28 1016 34 10000 3.1 340 10:58 30.06.2020
674 Clear 26 1013 8 10000 7.2 10 16:40 28.06.2020
675 Clear 26 1013 8 10000 7.2 10 16:22 28.06.2020
676 Clear 28 1013 7 10000 8.7 10 15:56 28.06.2020
677 Clear 28 1013 7 10000 8.7 10 15:38 28.06.2020
678 Clear 28 1013 7 10000 8.7 10 15:38 28.06.2020
679 Clear 28 1013 7 10000 8.7 10 15:18 28.06.2020
680 Clear 28 1013 7 10000 8.7 10 14:46 28.06.2020
681 Clear 29 1013 7 10000 8.2 10 14:27 28.06.2020
682 Clear 29 1013 10 10000 8.2 20 13:58 28.06.2020
683 Clear 29 1013 10 10000 8.2 20 13:38 28.06.2020
684 Clear 29 1013 10 10000 8.2 20 13:19 28.06.2020
685 Clear 29 1013 12 10000 9.3 10 12:56 28.06.2020
686 Clear 29 1013 12 10000 9.3 10 12:37 28.06.2020
687 Clear 29 1013 12 10000 9.3 10 12:18 28.06.2020
688 Clear 29 1014 12 10000 10.3 10 11:56 28.06.2020
689 Clear 29 1014 12 10000 10.3 10 11:37 28.06.2020
690 Clear 29 1014 12 10000 10.3 10 11:19 28.06.2020
691 Clear 28 1014 15 10000 8.2 10 10:42 28.06.2020
692 Clear 28 1014 15 10000 8.2 10 10:42 28.06.2020
693 Clear 28 1014 15 10000 8.2 10 10:23 28.06.2020
694 Clear 28 1015 15 10000 7.2 360 09:59 28.06.2020
695 Clear 28 1015 15 10000 7.2 360 09:39 28.06.2020
696 Clear 28 1015 17 10000 7.2 360 09:20 28.06.2020
697 Clear 27 1015 19 10000 7.2 360 08:45 28.06.2020
698 Clear 27 1015 19 10000 7.2 360 08:25 28.06.2020
699 Clear 26 1014 21 10000 6.7 10 07:46 28.06.2020
700 Clear 26 1014 21 10000 6.7 10 07:28 28.06.2020
701 Clear 25 1015 22 10000 5.1 10 06:34 28.06.2020
702 Clear 23 1014 28 10000 5.1 360 05:57 28.06.2020
703 Clear 23 1014 28 10000 5.1 360 05:26 28.06.2020
704 Clear 19 1013 39 10000 1 0 03:23 28.06.2020
705 Clear 19 1013 39 10000 1 0 02:36 28.06.2020
706 Clear 20 1012 32 10000 1.5 0 01:52 28.06.2020
707 Clear 20 1012 32 10000 1.5 0 01:25 28.06.2020
708 Clear 21 1012 30 10000 2.1 270 00:44 28.06.2020
709 Clear 21 1012 30 10000 2.1 270 00:24 28.06.2020
710 Clear 21 1013 28 10000 1.5 300 23:41 27.06.2020
711 Clear 21 1013 28 10000 1.5 300 23:22 27.06.2020
712 Clear 21 1013 28 10000 1.5 300 22:58 27.06.2020
713 Clear 21 1013 28 10000 1.5 300 22:39 27.06.2020
714 Clear 21 1013 28 10000 1.5 300 22:19 27.06.2020
715 Clear 22 1013 26 10000 2.6 290 21:42 27.06.2020
716 Clear 22 1013 26 10000 2.6 290 21:20 27.06.2020
717 Clear 22 1013 26 10000 2.6 290 20:57 27.06.2020
718 Haze 22 1013 26 9000 3.1 320 20:37 27.06.2020
719 Haze 22 1013 26 9000 3.1 320 20:18 27.06.2020
720 Haze 24 1013 23 9000 5.1 350 19:54 27.06.2020
721 Haze 24 1013 23 9000 5.1 350 19:36 27.06.2020
722 Haze 24 1013 23 9000 5.1 350 19:18 27.06.2020
723 Haze 24 1013 23 9000 5.1 360 18:42 27.06.2020
724 Haze 24 1013 23 9000 5.1 360 18:21 27.06.2020
725 Haze 26 1013 19 9000 6.2 10 17:41 27.06.2020
726 Haze 26 1013 19 9000 6.2 10 17:21 27.06.2020
727 Clear 27 1013 19 10000 5.1 30 16:59 27.06.2020
728 Clear 27 1013 19 10000 5.1 30 16:39 27.06.2020
729 Clear 27 1013 19 10000 5.1 30 16:20 27.06.2020
730 Clear 29 1013 16 10000 7.7 350 15:45 27.06.2020
731 Clear 29 1013 16 10000 7.7 350 15:24 27.06.2020
732 Clear 29 1013 16 10000 7.7 350 15:24 27.06.2020
733 Clear 29 1013 19 10000 8.2 360 14:59 27.06.2020
734 Clear 29 1013 19 10000 8.2 360 14:39 27.06.2020
735 Clear 29 1013 15 10000 8.2 360 14:20 27.06.2020
736 Clear 30 1013 15 10000 8.2 350 13:55 27.06.2020
737 Clear 30 1013 15 10000 8.2 350 13:37 27.06.2020
738 Clear 30 1013 14 10000 8.2 350 13:19 27.06.2020
739 Clear 30 1014 13 10000 8.7 360 12:41 27.06.2020
740 Clear 30 1014 13 10000 8.7 360 12:22 27.06.2020
741 Clear 30 1015 12 10000 8.7 360 11:59 27.06.2020
742 Clear 30 1015 12 10000 8.7 360 11:59 27.06.2020
743 Clear 30 1015 12 10000 8.7 360 11:59 27.06.2020
744 Clear 30 1015 12 10000 8.7 360 11:40 27.06.2020
745 Clear 30 1015 12 10000 8.7 360 11:22 27.06.2020
746 Clear 30 1015 13 10000 7.2 360 10:42 27.06.2020
747 Clear 30 1015 13 10000 7.2 360 10:19 27.06.2020
748 Clear 29 1016 13 10000 7.7 350 09:59 27.06.2020
749 Clear 29 1016 13 10000 7.7 350 09:39 27.06.2020
750 Clear 29 1016 13 10000 7.7 350 09:20 27.06.2020
751 Clear 28 1016 15 10000 6.2 10 08:44 27.06.2020
752 Clear 28 1016 15 10000 6.2 10 08:23 27.06.2020
753 Clear 28 1017 15 10000 6.2 360 07:48 27.06.2020
754 Clear 28 1017 15 10000 6.2 360 07:26 27.06.2020
755 Clear 27 1017 14 10000 4.6 360 06:52 27.06.2020
756 Clear 27 1017 14 10000 4.6 360 06:33 27.06.2020
757 Clear 23 1016 18 10000 4.1 10 04:51 27.06.2020
758 Clear 23 1016 18 10000 4.1 10 04:18 27.06.2020
759 Clear 23 1015 17 10000 6.7 20 03:46 27.06.2020
760 Clear 23 1015 16 10000 5.7 30 02:42 27.06.2020
761 Clear 23 1015 16 10000 5.7 30 02:23 27.06.2020
762 Clear 23 1015 16 10000 8.2 20 01:28 27.06.2020
763 Clear 24 1015 15 10000 9.3 20 00:47 27.06.2020
764 Clear 24 1015 15 10000 11.3 10 23:47 26.06.2020
765 Clear 24 1015 15 10000 11.3 10 23:27 26.06.2020
766 Clear 24 1015 16 10000 10.3 20 22:58 26.06.2020
767 Clear 24 1015 16 10000 10.3 20 22:39 26.06.2020
768 Clear 24 1015 16 10000 10.3 20 22:21 26.06.2020
769 Clear 25 1014 15 10000 12.3 20 21:58 26.06.2020
770 Clear 25 1014 15 10000 12.3 20 21:39 26.06.2020
771 Clear 25 1014 15 10000 12.3 20 21:21 26.06.2020
772 Clear 25 1014 15 10000 12.3 20 20:47 26.06.2020
773 Clear 25 1014 16 10000 12.3 10 20:27 26.06.2020
774 Clear 26 1014 15 10000 12.9 10 19:55 26.06.2020
775 Clear 26 1014 15 10000 12.9 10 19:37 26.06.2020
776 Clear 27 1013 14 10000 9.3 20 19:18 26.06.2020
777 Clear 27 1013 14 10000 9.3 20 18:41 26.06.2020
778 Clear 27 1013 14 10000 9.3 20 18:23 26.06.2020
779 Clear 27 1013 14 10000 7.7 20 17:45 26.06.2020
780 Clear 27 1013 14 10000 7.7 20 17:45 26.06.2020
781 Clear 27 1013 14 10000 7.7 20 17:27 26.06.2020
782 Clear 28 1012 14 10000 7.2 40 16:59 26.06.2020
783 Clear 28 1012 14 10000 7.2 40 16:41 26.06.2020
784 Clear 28 1012 14 10000 7.2 40 16:21 26.06.2020
785 Clear 30 1012 13 10000 6.7 40 15:41 26.06.2020
786 Clear 30 1012 13 10000 6.7 40 15:21 26.06.2020
787 Clear 31 1011 14 10000 7.2 10 14:58 26.06.2020
788 Clear 31 1011 14 10000 7.2 10 14:38 26.06.2020
789 Clear 31 1011 13 10000 7.2 10 14:20 26.06.2020
790 Clear 32 1012 13 10000 5.1 360 13:44 26.06.2020
791 Clear 32 1012 13 10000 5.1 360 13:23 26.06.2020
792 Clear 32 1012 13 10000 5.1 360 13:23 26.06.2020
793 Clear 31 1012 14 10000 5.1 360 12:56 26.06.2020
794 Clear 31 1012 14 10000 5.1 360 12:38 26.06.2020
795 Clear 31 1012 14 10000 5.1 360 12:19 26.06.2020
796 Clear 32 1013 15 10000 5.1 10 11:56 26.06.2020
797 Clear 32 1013 15 10000 5.1 10 11:38 26.06.2020
798 Clear 32 1013 15 10000 5.1 10 11:19 26.06.2020
799 Clear 31 1013 16 10000 5.1 350 10:56 26.06.2020
800 Clear 31 1013 16 10000 5.1 350 10:37 26.06.2020
801 Clear 31 1013 16 10000 5.1 350 10:37 26.06.2020
802 Clear 31 1013 16 10000 5.1 350 10:18 26.06.2020
803 Clear 31 1014 16 10000 3.1 40 09:41 26.06.2020
804 Clear 31 1014 16 10000 3.1 40 09:20 26.06.2020
805 Clear 29 1014 18 10000 3.1 50 08:46 26.06.2020
806 Clear 29 1014 18 10000 3.1 50 08:27 26.06.2020
807 Clear 28 1014 20 10000 4.6 20 07:48 26.06.2020
808 Clear 28 1014 20 10000 4.6 20 07:23 26.06.2020
809 Clear 28 1014 23 10000 1.5 100 06:52 26.06.2020
810 Clear 28 1014 23 10000 1.5 100 06:30 26.06.2020
811 Clear 25 1014 31 10000 0.5 0 05:53 26.06.2020
812 Clear 25 1014 31 10000 0.5 0 05:21 26.06.2020
813 Clear 20 1014 37 10000 1.5 0 02:32 26.06.2020
814 Clear 22 1013 30 10000 2.6 50 01:35 26.06.2020
815 Clear 23 1013 27 10000 2.6 360 00:50 26.06.2020
816 Clear 23 1013 27 10000 2.6 360 00:30 26.06.2020
817 Clear 22 1013 26 10000 2.6 320 23:47 25.06.2020
818 Clear 22 1013 26 10000 2.6 320 23:22 25.06.2020
819 Clear 23 1013 25 10000 1.5 0 22:58 25.06.2020
820 Clear 23 1013 25 10000 1.5 0 22:39 25.06.2020
821 Clear 23 1013 25 10000 1.5 0 22:20 25.06.2020
822 Clear 26 1013 19 10000 6.7 10 21:57 25.06.2020
823 Clear 26 1013 19 10000 6.7 10 21:39 25.06.2020
824 Clear 26 1013 19 10000 6.7 10 21:20 25.06.2020
825 Clear 26 1012 24 10000 5.1 10 20:57 25.06.2020
826 Clear 26 1012 24 10000 5.1 10 20:37 25.06.2020
827 Clear 26 1012 23 10000 5.1 10 20:19 25.06.2020
828 Clear 28 1012 15 10000 5.7 10 19:41 25.06.2020
829 Clear 28 1012 15 10000 5.7 10 19:20 25.06.2020
830 Clear 28 1011 15 10000 6.2 10 18:59 25.06.2020
831 Clear 28 1011 15 10000 6.2 10 18:39 25.06.2020
832 Clear 28 1011 15 10000 6.2 10 18:20 25.06.2020
833 Clear 29 1011 19 10000 5.1 10 17:44 25.06.2020
834 Clear 29 1011 17 10000 5.1 10 17:20 25.06.2020
835 Clear 29 1011 17 10000 5.1 10 17:20 25.06.2020
836 Clear 30 1011 13 10000 5.1 360 16:58 25.06.2020
837 Clear 30 1011 13 10000 5.1 360 16:37 25.06.2020
838 Clear 30 1011 13 10000 5.1 360 16:19 25.06.2020
839 Clear 32 1011 11 10000 5.1 360 15:43 25.06.2020
840 Clear 32 1011 11 10000 5.1 360 15:24 25.06.2020
841 Clear 32 1011 11 10000 5.1 350 14:54 25.06.2020
842 Clouds 32 1011 11 10000 5.1 350 14:36 25.06.2020
843 Clouds 32 1011 11 10000 5.1 350 14:18 25.06.2020
844 Clouds 32 1012 13 10000 2.6 10 13:42 25.06.2020
845 Clear 32 1012 15 10000 2.6 10 13:20 25.06.2020
846 Clear 32 1013 11 10000 2.1 80 12:58 25.06.2020
847 Clear 32 1013 11 10000 2.1 80 12:40 25.06.2020
848 Clear 32 1013 11 10000 2.1 80 12:19 25.06.2020
849 Clear 31 1013 12 10000 3.6 360 11:42 25.06.2020
850 Clear 31 1013 12 10000 3.6 360 11:22 25.06.2020
851 Clear 32 1014 15 10000 2.6 330 10:44 25.06.2020
852 Clear 32 1014 16 10000 2.6 330 10:26 25.06.2020
853 Clear 31 1014 15 10000 2.1 320 09:58 25.06.2020
854 Clear 31 1014 15 10000 2.1 320 09:40 25.06.2020
855 Clear 31 1014 15 10000 2.1 320 09:19 25.06.2020
856 Clear 29 1015 17 10000 4.1 360 08:43 25.06.2020
857 Clear 29 1015 17 10000 4.1 360 08:19 25.06.2020
858 Clear 28 1015 20 10000 2.6 40 07:44 25.06.2020
859 Clear 28 1015 20 10000 2.6 40 07:26 25.06.2020
860 Clear 26 1015 24 10000 3.1 40 06:46 25.06.2020
861 Clear 26 1015 24 10000 3.1 40 06:26 25.06.2020
862 Clear 25 1015 29 10000 1 0 05:40 25.06.2020
863 Clear 18 1016 55 10000 0.5 0 03:55 25.06.2020
864 Clear 18 1016 55 10000 0.5 0 03:25 25.06.2020
865 Clear 19 1016 45 10000 1 0 02:41 25.06.2020
866 Clouds 19 1016 39 10000 0.42 326 01:43 25.06.2020
867 Clouds 21 1016 35 10000 0.75 29 00:59 25.06.2020
868 Clouds 21 1016 35 10000 0.75 29 00:40 25.06.2020
869 Clouds 21 1016 35 10000 0.57 2 00:18 25.06.2020
870 Clouds 21 1016 35 10000 1 0 23:41 24.06.2020
871 Clouds 21 1016 35 10000 1 0 23:23 24.06.2020
872 Clouds 22 1016 28 10000 1.5 0 22:56 24.06.2020
873 Clouds 22 1016 28 10000 1.5 0 22:37 24.06.2020
874 Clouds 22 1016 28 10000 1.5 0 22:37 24.06.2020
875 Clouds 22 1016 28 10000 1.5 0 22:18 24.06.2020
876 Clouds 22 1016 28 10000 1.5 0 21:55 24.06.2020
877 Clouds 25 1016 23 10000 5.1 10 21:36 24.06.2020
878 Clear 25 1016 23 10000 5.1 10 21:18 24.06.2020
879 Clear 25 1016 23 10000 6.7 30 20:56 24.06.2020
880 Clear 25 1016 23 10000 6.7 30 20:37 24.06.2020
881 Clouds 25 1016 23 10000 6.7 30 20:19 24.06.2020
882 Clouds 26 1016 22 10000 5.1 30 19:55 24.06.2020
883 Clouds 26 1016 22 10000 5.1 30 19:36 24.06.2020
884 Clouds 26 1016 22 10000 5.1 30 19:18 24.06.2020
885 Clouds 26 1016 22 10000 5.1 30 18:56 24.06.2020
886 Clouds 26 1015 24 10000 5.1 30 18:37 24.06.2020
887 Clouds 26 1015 24 10000 5.1 30 18:18 24.06.2020
888 Clouds 26 1014 26 10000 5.1 30 17:41 24.06.2020
889 Clouds 28 1014 26 10000 3.1 60 17:19 24.06.2020
890 Clouds 28 1014 26 10000 3.1 60 16:56 24.06.2020
891 Clouds 28 1014 26 10000 3.1 60 16:56 24.06.2020
892 Clouds 28 1014 26 10000 3.1 60 16:38 24.06.2020
893 Clouds 28 1014 26 10000 3.1 60 16:20 24.06.2020
894 Clouds 28 1014 28 10000 4.1 10 15:56 24.06.2020
895 Clouds 28 1014 28 10000 4.1 10 15:38 24.06.2020
896 Clouds 28 1014 28 10000 4.1 10 15:19 24.06.2020
897 Clouds 28 1014 28 10000 6.2 340 14:43 24.06.2020
898 Clouds 28 1014 28 10000 6.2 340 14:24 24.06.2020
899 Clouds 30 1014 23 0 6.2 360 13:43 24.06.2020
900 Clouds 30 1014 23 0 6.2 360 13:22 24.06.2020
901 Clouds 29 1015 37 10000 6.7 360 12:57 24.06.2020
902 Clouds 29 1015 37 10000 6.7 360 12:38 24.06.2020
903 Clouds 29 1015 37 10000 6.7 360 12:20 24.06.2020
904 Clouds 28 1015 37 10000 5.1 360 11:55 24.06.2020
905 Clouds 28 1015 37 10000 5.1 360 11:37 24.06.2020
906 Clouds 28 1015 37 10000 5.1 360 11:18 24.06.2020
907 Clouds 29 1016 32 10000 7.7 10 10:41 24.06.2020
908 Clouds 29 1016 32 10000 7.7 10 10:19 24.06.2020
909 Clouds 29 1016 37 9000 4.1 10 09:43 24.06.2020
910 Clouds 29 1016 37 9000 4.1 10 09:22 24.06.2020
911 Clouds 28 1017 39 9000 3.1 70 08:43 24.06.2020
912 Clouds 28 1017 39 9000 3.1 70 08:21 24.06.2020
913 Clouds 27 1017 44 9000 1.5 0 07:51 24.06.2020
914 Clouds 27 1017 44 9000 1.5 0 07:32 24.06.2020
915 Clouds 24 1018 57 8000 1.5 0 06:51 24.06.2020
916 Clouds 24 1018 57 8000 1.5 0 06:26 24.06.2020
917 Clouds 22 1018 68 9000 1 0 05:58 24.06.2020
918 Clouds 22 1018 68 9000 1 0 05:20 24.06.2020
919 Rain 21 1016 68 10000 2.6 360 04:35 24.06.2020
920 Rain 21 1016 68 10000 2.6 360 03:35 24.06.2020
921 Clouds 21 1016 68 10000 2.1 310 02:51 24.06.2020
922 Rain 21 1016 68 10000 1 0 01:45 24.06.2020
923 Clouds 22 1016 64 10000 2.1 290 00:47 24.06.2020
924 Clouds 22 1016 64 10000 2.1 290 00:27 24.06.2020
925 Clouds 22 1016 64 10000 2.1 290 00:27 24.06.2020
926 Clouds 22 1016 56 10000 0.5 0 23:46 23.06.2020
927 Clouds 22 1016 56 10000 0.5 0 23:20 23.06.2020
928 Clouds 23 1016 53 10000 1.5 0 22:54 23.06.2020
929 Clouds 23 1016 53 10000 1.5 0 22:36 23.06.2020
930 Rain 23 1016 53 10000 1.5 0 22:18 23.06.2020
931 Rain 23 1016 53 10000 1.5 0 21:41 23.06.2020
932 Rain 23 1016 53 10000 1.5 0 21:20 23.06.2020
933 Rain 23 1016 56 10000 2.6 90 20:56 23.06.2020
934 Rain 23 1016 56 10000 2.6 90 20:37 23.06.2020
935 Clouds 23 1016 56 10000 2.6 90 20:18 23.06.2020
936 Clouds 23 1016 60 10000 3.6 140 19:45 23.06.2020
937 Clouds 23 1016 60 10000 3.6 140 19:27 23.06.2020
938 Clouds 24 1015 53 10000 2.6 60 18:42 23.06.2020
939 Clouds 24 1015 53 10000 2.6 60 18:19 23.06.2020
940 Clouds 25 1014 50 10000 4.1 130 17:58 23.06.2020
941 Clouds 25 1014 50 10000 4.1 130 17:39 23.06.2020
942 Clouds 25 1014 50 10000 4.1 130 17:20 23.06.2020
943 Clouds 27 1014 44 10000 4.1 150 16:55 23.06.2020
944 Clouds 27 1014 44 10000 4.1 150 16:37 23.06.2020
945 Clouds 27 1014 44 10000 4.1 150 16:18 23.06.2020
946 Rain 29 1013 28 10000 5.1 30 15:44 23.06.2020
947 Rain 29 1013 28 10000 5.1 30 15:25 23.06.2020
948 Clouds 31 1013 25 10000 5.1 10 14:58 23.06.2020
949 Clouds 31 1013 25 10000 5.1 10 14:40 23.06.2020
950 Clouds 31 1013 25 10000 5.1 10 14:18 23.06.2020
951 Clouds 32 1013 22 10000 3.1 360 13:54 23.06.2020
952 Clouds 32 1013 22 10000 3.1 360 13:54 23.06.2020
953 Clouds 32 1013 22 10000 3.1 360 13:36 23.06.2020
954 Clouds 32 1013 22 10000 3.1 360 13:18 23.06.2020
955 Clouds 33 1014 22 10000 2.1 40 12:40 23.06.2020
956 Clouds 33 1014 22 10000 2.1 40 12:22 23.06.2020
957 Clouds 31 1015 25 10000 4.6 340 11:44 23.06.2020
958 Clouds 31 1015 25 10000 4.6 340 11:44 23.06.2020
959 Clouds 31 1015 25 10000 4.6 340 11:23 23.06.2020
960 Clouds 30 1016 23 10000 6.2 300 10:59 23.06.2020
961 Clouds 30 1016 23 10000 6.2 300 10:41 23.06.2020
962 Clouds 30 1016 23 10000 6.2 300 10:22 23.06.2020
963 Clouds 30 1016 40 8000 4.1 350 09:57 23.06.2020
964 Clouds 30 1016 40 8000 4.1 350 09:57 23.06.2020
965 Clouds 30 1016 40 8000 4.1 350 09:38 23.06.2020
966 Clouds 30 1016 40 8000 4.1 350 09:20 23.06.2020
967 Clouds 30 1016 40 8000 4.1 350 09:20 23.06.2020
968 Clouds 30 1016 42 9000 3.6 80 08:46 23.06.2020
969 Clouds 30 1016 42 9000 3.6 80 08:26 23.06.2020
970 Clouds 28 1017 48 8000 2.1 100 07:49 23.06.2020
971 Clouds 28 1017 48 8000 2.1 100 07:25 23.06.2020
972 Clear 28 1017 45 8000 2.6 80 06:53 23.06.2020
973 Clear 28 1017 45 8000 2.6 80 06:32 23.06.2020
974 Clear 28 1016 45 10000 1.5 0 05:59 23.06.2020
975 Clear 28 1016 45 10000 1.5 0 05:26 23.06.2020
976 Rain 24 1015 53 10000 0.5 0 03:22 23.06.2020
977 Rain 24 1014 53 10000 0.92 8 02:49 23.06.2020
978 Rain 24 1014 53 10000 0.87 11 02:29 23.06.2020
979 Clear 24 1014 50 10000 1 0 01:46 23.06.2020
980 Clear 24 1014 50 10000 1 0 01:24 23.06.2020
981 Clear 24 1013 47 10000 1 0 00:46 23.06.2020
982 Clouds 24 1013 47 10000 1 0 00:21 23.06.2020
983 Clouds 25 1013 38 10000 0.5 0 23:55 22.06.2020
984 Clouds 25 1013 38 10000 0.5 0 23:36 22.06.2020
985 Clouds 25 1013 38 10000 0.5 0 23:18 22.06.2020
986 Clouds 27 1013 39 10000 2.6 110 22:54 22.06.2020
987 Clouds 27 1013 39 10000 2.6 110 22:36 22.06.2020
988 Clouds 27 1013 39 10000 2.6 110 22:18 22.06.2020
989 Clouds 27 1013 39 10000 2.1 60 21:41 22.06.2020
990 Clouds 27 1013 39 10000 2.1 60 21:22 22.06.2020
991 -273 0 0 0 0 0 20:59 22.06.2020
992 Clouds 27 1013 34 8000 1.5 0 20:59 22.06.2020
993 Clouds 27 1013 34 8000 1.5 0 20:40 22.06.2020
994 Clouds 27 1013 34 8000 1.5 0 20:21 22.06.2020
995 Clouds 28 1012 32 10000 3.6 90 19:44 22.06.2020
996 Clouds 28 1012 32 10000 3.6 90 19:19 22.06.2020
997 Clouds 28 1011 32 10000 3.1 110 18:57 22.06.2020
998 Clouds 28 1011 32 10000 3.1 110 18:38 22.06.2020
999 Clouds 28 1011 32 10000 3.1 110 18:19 22.06.2020
1000 Clouds 30 1011 22 10000 2.6 110 17:55 22.06.2020
1001 Clouds 30 1011 22 10000 2.6 110 17:37 22.06.2020
1002 Clouds 30 1011 22 10000 2.6 110 17:19 22.06.2020
1003 Clouds 33 1011 14 10000 3.6 330 16:43 22.06.2020
1004 Clouds 33 1011 14 10000 3.6 330 16:19 22.06.2020
1005 Clouds 33 1010 15 10000 3.6 350 15:58 22.06.2020
1006 Clouds 33 1010 15 10000 3.6 350 15:39 22.06.2020
1007 Clouds 33 1010 15 10000 3.6 350 15:39 22.06.2020
1008 Clouds 33 1010 15 10000 3.6 350 15:21 22.06.2020
1009 Clouds 34 1010 13 10000 2.6 80 14:40 22.06.2020
1010 Clear 34 1010 13 10000 2.6 80 14:21 22.06.2020
1011 Clear 35 1011 14 10000 4.1 70 13:58 22.06.2020
1012 Clear 35 1011 14 10000 4.1 70 13:38 22.06.2020
1013 Clear 35 1011 14 10000 4.1 70 13:20 22.06.2020
1014 Clear 34 1011 13 10000 3.6 140 12:44 22.06.2020
1015 Clear 34 1011 13 10000 3.6 140 12:44 22.06.2020
1016 Clear 34 1011 13 10000 3.6 140 12:23 22.06.2020
1017 Clear 34 1012 13 10000 1.5 0 11:58 22.06.2020
1018 Clear 34 1012 13 10000 1.5 0 11:37 22.06.2020
1019 Clear 34 1012 13 10000 1.5 0 11:18 22.06.2020
1020 Clear 34 1013 15 9000 1.5 0 10:55 22.06.2020
1021 Clear 34 1013 15 9000 1.5 0 10:36 22.06.2020
1022 Clear 34 1013 15 9000 1.5 0 10:18 22.06.2020
1023 Clear 32 1013 17 8000 1.5 350 09:42 22.06.2020
1024 Clear 32 1013 17 8000 1.5 350 09:22 22.06.2020
1025 Clear 32 1013 17 8000 1.5 350 09:22 22.06.2020
1026 Clear 31 1014 20 8000 1 0 08:59 22.06.2020
1027 Clear 31 1014 20 8000 1 0 08:39 22.06.2020
1028 Clear 31 1014 20 8000 1 0 08:20 22.06.2020
1029 Clear 29 1014 26 9000 1.5 0 07:52 22.06.2020
1030 Clear 29 1014 26 9000 1.5 0 07:33 22.06.2020
1031 Clear 27 1014 28 10000 1.5 0 06:46 22.06.2020
1032 Clear 27 1014 28 10000 1.5 0 06:27 22.06.2020
1033 Clear 26 1014 29 10000 1.5 0 05:58 22.06.2020
1034 Clear 26 1014 29 10000 1.5 0 05:30 22.06.2020
1035 Clear 20 1013 40 10000 1 0 02:56 22.06.2020
1036 Clear 21 1013 37 10000 1.5 280 01:34 22.06.2020
1037 Clear 21 1013 37 10000 1.5 280 00:41 22.06.2020
1038 Clear 20 1013 34 10000 1.5 320 23:59 21.06.2020
1039 Clear 20 1013 34 10000 1.5 320 23:40 21.06.2020
1040 Clear 20 1013 34 10000 1.5 320 23:22 21.06.2020
1041 Clear 20 1013 34 10000 1.5 320 22:57 21.06.2020
1042 Clear 23 1013 28 8000 1.5 280 22:38 21.06.2020
1043 Clear 23 1013 28 8000 1.5 280 22:38 21.06.2020
1044 Clear 23 1013 28 8000 1.5 280 22:19 21.06.2020
1045 Clear 22 1013 28 6000 1 10 21:59 21.06.2020
1046 Clear 22 1013 28 6000 1 10 21:41 21.06.2020
1047 Clear 22 1013 28 6000 1 10 21:21 21.06.2020
1048 Clear 23 1012 28 6000 1.5 150 20:59 21.06.2020
1049 Clear 23 1012 28 6000 1.5 150 20:38 21.06.2020
1050 Clear 23 1012 28 6000 1.5 150 20:19 21.06.2020
1051 Clear 23 1012 28 6000 1.5 150 20:19 21.06.2020
1052 Clear 23 1012 28 6000 1.5 120 19:57 21.06.2020
1053 Clear 23 1012 28 6000 1.5 120 19:57 21.06.2020
1054 Clear 23 1012 28 6000 1.5 120 19:38 21.06.2020
1055 Clear 23 1012 28 6000 1.5 120 19:19 21.06.2020
1056 Clear 28 1012 17 10000 2.1 350 18:55 21.06.2020
1057 Clear 28 1012 17 10000 2.1 350 18:36 21.06.2020
1058 Clear 28 1012 16 10000 2.1 350 18:18 21.06.2020
1059 Clear 27 1012 18 10000 2.1 320 17:40 21.06.2020
1060 Clear 27 1012 18 10000 2.1 320 17:21 21.06.2020
1061 Clear 30 1011 13 10000 4.1 10 16:56 21.06.2020
1062 Clear 30 1011 13 10000 4.1 10 16:56 21.06.2020
1063 Clear 30 1011 13 10000 4.1 10 16:38 21.06.2020
1064 Clear 30 1011 13 10000 4.1 10 16:19 21.06.2020
1065 Clear 32 1012 11 10000 1.5 90 15:39 21.06.2020
1066 Clear 32 1012 11 10000 1.5 90 15:39 21.06.2020
1067 Clear 32 1012 11 10000 1.5 90 15:21 21.06.2020
1068 Clear 33 1012 11 10000 1.5 0 14:55 21.06.2020
1069 Clear 33 1012 11 10000 1.5 0 14:36 21.06.2020
1070 Clear 33 1012 11 10000 1.5 0 14:18 21.06.2020
1071 Clear 32 1013 11 10000 1.5 0 13:41 21.06.2020
1072 Clear 32 1013 11 10000 1.5 0 13:23 21.06.2020
1073 Clear 32 1013 11 10000 2.1 70 12:57 21.06.2020
1074 Clear 32 1013 11 10000 2.1 70 12:39 21.06.2020
1075 Clear 32 1013 11 10000 2.1 70 12:20 21.06.2020
1076 Clear 31 1014 15 10000 3.1 40 11:42 21.06.2020
1077 Clear 31 1014 15 10000 3.1 40 11:24 21.06.2020
1078 Clear 30 1014 15 10000 3.1 360 10:58 21.06.2020
1079 Clear 30 1014 15 10000 3.1 360 10:39 21.06.2020
1080 Clear 30 1014 15 10000 3.1 360 10:21 21.06.2020
1081 Clear 28 1014 12 10000 4.1 350 09:44 21.06.2020
1082 Clear 28 1014 13 10000 4.1 350 09:24 21.06.2020
1083 Clear 29 1015 14 10000 4.6 350 08:58 21.06.2020
1084 Clear 29 1015 14 10000 4.6 350 08:40 21.06.2020
1085 Clear 29 1015 14 10000 4.6 350 08:20 21.06.2020
1086 Clear 29 1015 13 10000 3.6 10 07:43 21.06.2020
1087 Clear 29 1015 13 10000 3.6 10 07:24 21.06.2020
1088 Clear 27 1015 16 10000 3.1 20 06:51 21.06.2020
1089 Clear 27 1015 17 10000 3.1 20 06:31 21.06.2020
1090 Clear 25 1015 25 10000 1.5 0 05:57 21.06.2020
1091 Clear 21 1015 35 10000 1.5 0 04:42 21.06.2020
1092 Clear 16 1015 44 10000 1.5 110 03:19 21.06.2020
1093 Clear 17 1014 39 10000 1.5 0 02:36 21.06.2020
1094 Clear 19 1014 29 10000 1.5 0 01:40 21.06.2020
1095 Clear 19 1014 29 10000 1.5 0 01:20 21.06.2020
1096 Clear 19 1014 29 10000 1.5 0 00:46 21.06.2020
1097 Clear 19 1014 32 10000 1.5 80 00:25 21.06.2020
1098 Clear 19 1014 32 10000 1.5 80 23:46 20.06.2020
1099 Clear 23 1014 20 10000 2.6 150 23:23 20.06.2020
1100 Clear 22 1014 21 10000 2.6 310 22:59 20.06.2020
1101 -273 0 0 0 0 0 22:59 20.06.2020
1102 Clear 22 1014 21 10000 2.6 310 22:40 20.06.2020
1103 Clear 22 1014 21 10000 2.6 310 22:20 20.06.2020
1104 Clear 25 1014 16 10000 2.6 220 21:58 20.06.2020
1105 Clear 25 1014 16 10000 2.6 220 21:40 20.06.2020
1106 Clear 25 1014 16 10000 2.6 220 21:21 20.06.2020
1107 Clear 26 1014 15 10000 6.2 360 20:58 20.06.2020
1108 Clear 26 1014 15 10000 6.2 360 20:40 20.06.2020
1109 Clouds 26 1014 15 10000 6.2 360 20:20 20.06.2020
1110 Clouds 26 1014 15 10000 6.2 10 19:58 20.06.2020
1111 Clouds 26 1014 15 10000 6.2 10 19:39 20.06.2020
1112 Clouds 26 1014 15 10000 6.2 10 19:20 20.06.2020
1113 Clouds 27 1013 14 10000 7.2 20 18:43 20.06.2020
1114 Clouds 27 1013 14 10000 7.2 20 18:20 20.06.2020
1115 Clouds 28 1012 18 10000 6.2 10 17:57 20.06.2020
1116 Clouds 28 1012 18 10000 6.2 10 17:39 20.06.2020
1117 Clouds 28 1012 17 10000 6.2 10 17:20 20.06.2020
1118 Clouds 30 1012 15 10000 6.7 10 16:42 20.06.2020
1119 Clouds 30 1012 15 10000 6.7 10 16:19 20.06.2020
1120 Clouds 31 1012 14 10000 6.2 360 15:58 20.06.2020
1121 Clouds 31 1012 14 10000 6.2 360 15:40 20.06.2020
1122 Clouds 31 1012 14 10000 6.2 360 15:18 20.06.2020
1123 Clouds 30 1012 17 10000 4.1 40 14:43 20.06.2020
1124 Clouds 30 1012 17 10000 4.1 40 14:21 20.06.2020
1125 Clouds 31 1013 18 10000 2.1 100 13:42 20.06.2020
1126 Clouds 31 1013 18 10000 2.1 100 13:24 20.06.2020
1127 Clouds 32 1013 15 10000 2.6 10 12:57 20.06.2020
1128 Clouds 32 1013 15 10000 2.6 10 12:38 20.06.2020
1129 Clouds 32 1013 15 10000 2.6 10 12:19 20.06.2020
1130 Clouds 31 1014 19 10000 3.1 320 11:55 20.06.2020
1131 Clouds 31 1014 19 10000 3.1 320 11:36 20.06.2020
1132 Clouds 31 1014 19 10000 3.1 320 11:18 20.06.2020
1133 Clouds 31 1014 20 10000 3.6 10 10:44 20.06.2020
1134 Clouds 31 1014 20 10000 3.6 10 10:21 20.06.2020
1135 Clear 30 1015 23 10000 2.6 340 09:54 20.06.2020
1136 Clear 30 1015 23 10000 2.6 340 09:36 20.06.2020
1137 Clear 30 1015 23 10000 2.6 340 09:18 20.06.2020
1138 Clear 29 1016 25 10000 1 0 08:44 20.06.2020
1139 Clear 29 1016 25 10000 1 0 08:26 20.06.2020
1140 Clear 27 1016 26 10000 1 0 07:51 20.06.2020
1141 Clear 27 1016 26 10000 1 0 07:27 20.06.2020
1142 Clear 27 1016 26 9000 1 0 06:53 20.06.2020
1143 Clear 27 1016 26 9000 1 0 06:23 20.06.2020
1144 Clear 25 1016 22 10000 1.5 0 05:50 20.06.2020
1145 Clear 22 1015 28 10000 1.5 0 04:52 20.06.2020
1146 Clouds 19 1015 29 10000 1.5 0 02:27 20.06.2020
1147 Clouds 22 1014 21 10000 1.5 0 01:48 20.06.2020
1148 Clouds 22 1014 21 10000 5.1 350 00:52 20.06.2020
1149 Clouds 22 1014 21 10000 5.1 350 00:21 20.06.2020
1150 Clouds 22 1014 21 10000 5.1 350 23:55 19.06.2020
1151 Clouds 23 1014 35 10000 2.1 30 23:36 19.06.2020
1152 Clouds 23 1014 35 10000 2.1 30 23:18 19.06.2020
1153 Clouds 24 1014 29 10000 4.6 40 22:40 19.06.2020
1154 Clouds 24 1014 29 10000 4.6 40 22:22 19.06.2020
1155 Clouds 24 1014 19 10000 5.1 350 21:58 19.06.2020
1156 Clouds 24 1014 19 10000 5.1 350 21:38 19.06.2020
1157 Clouds 24 1014 19 10000 5.1 350 21:38 19.06.2020
1158 Clouds 24 1014 19 10000 5.1 350 21:18 19.06.2020
1159 Clouds 26 1014 22 10000 4.1 20 20:58 19.06.2020
1160 Clouds 26 1014 22 10000 4.1 20 20:40 19.06.2020
1161 Clouds 26 1014 22 10000 4.1 20 20:20 19.06.2020
1162 Clouds 25 1014 23 10000 1.5 0 19:55 19.06.2020
1163 Clouds 25 1014 23 10000 1.5 0 19:37 19.06.2020
1164 Clouds 25 1014 23 10000 1.5 0 19:37 19.06.2020
1165 Clouds 25 1014 23 10000 1.5 0 19:18 19.06.2020
1166 Clouds 28 1012 22 10000 5.7 20 18:41 19.06.2020
1167 Clouds 28 1012 21 10000 5.7 20 18:21 19.06.2020
1168 Clouds 27 1012 18 10000 4.6 60 17:55 19.06.2020
1169 Clouds 27 1012 18 10000 4.6 60 17:36 19.06.2020
1170 Clouds 27 1012 18 10000 4.6 60 17:18 19.06.2020
1171 Clouds 29 1011 16 10000 5.7 20 16:41 19.06.2020
1172 Clouds 29 1011 16 10000 5.7 20 16:23 19.06.2020
1173 Clouds 29 1011 17 10000 6.2 10 15:58 19.06.2020
1174 Clouds 29 1011 17 10000 6.2 10 15:40 19.06.2020
1175 Clouds 29 1011 17 10000 6.2 10 15:19 19.06.2020
1176 Clouds 32 1010 17 10000 6.2 90 14:55 19.06.2020
1177 Clouds 32 1010 17 10000 6.2 90 14:37 19.06.2020
1178 Clouds 32 1010 17 10000 6.2 90 14:18 19.06.2020
1179 Clouds 32 1011 13 10000 4.6 100 13:41 19.06.2020
1180 Clouds 32 1011 13 10000 4.6 100 13:23 19.06.2020
1181 Clouds 32 1011 13 10000 3.1 50 12:46 19.06.2020
1182 Clear 32 1011 13 10000 3.1 50 12:22 19.06.2020
1183 Clear 32 1012 15 10000 3.6 50 11:57 19.06.2020
1184 Clear 32 1012 15 10000 3.6 50 11:38 19.06.2020
1185 Clear 32 1012 15 10000 3.6 50 11:18 19.06.2020
1186 Clear 32 1012 15 10000 3.6 50 11:18 19.06.2020
1187 Clear 31 1013 14 10000 1.5 0 10:45 19.06.2020
1188 Clear 31 1013 14 10000 1.5 0 10:26 19.06.2020
1189 Clear 31 1014 15 10000 2.1 20 09:57 19.06.2020
1190 Clear 31 1014 15 10000 2.1 20 09:39 19.06.2020
1191 Clear 31 1014 15 10000 2.1 20 09:19 19.06.2020
1192 Clear 29 1014 17 10000 2.6 80 08:42 19.06.2020
1193 Clear 29 1014 17 10000 2.6 80 08:42 19.06.2020
1194 Clear 29 1014 17 10000 2.6 80 08:23 19.06.2020
1195 Clear 28 1014 18 10000 1.5 120 07:55 19.06.2020
1196 Clear 28 1014 18 10000 1.5 120 07:55 19.06.2020
1197 Clear 28 1014 18 10000 1.5 120 07:36 19.06.2020
1198 Clear 28 1014 18 10000 1.5 120 07:18 19.06.2020
1199 Clear 26 1015 21 10000 1.5 50 06:23 19.06.2020
1200 Clear 24 1015 27 10000 1.5 0 05:43 19.06.2020
1201 Clear 22 1014 30 10000 1 0 04:23 19.06.2020
1202 Clouds 18 1013 36 10000 1 0 02:33 19.06.2020
1203 Clouds 20 1013 28 10000 1.5 0 00:48 19.06.2020
1204 Clouds 20 1013 28 10000 1.5 0 00:22 19.06.2020
1205 Clouds 20 1013 30 10000 3.1 320 23:58 18.06.2020
1206 Clouds 20 1013 30 10000 3.1 320 23:40 18.06.2020
1207 Clouds 20 1013 29 10000 3.1 320 23:22 18.06.2020
1208 Clouds 20 1013 29 10000 3.1 320 22:57 18.06.2020
1209 Clouds 21 1013 29 10000 2.6 290 22:36 18.06.2020
1210 Clouds 21 1013 29 10000 2.6 290 22:18 18.06.2020
1211 Clouds 24 1013 19 10000 5.7 350 21:38 18.06.2020
1212 Clear 24 1013 19 10000 5.7 350 21:19 18.06.2020
1213 Clear 24 1013 19 10000 9.8 10 20:44 18.06.2020
1214 Clouds 24 1013 19 10000 9.8 10 20:23 18.06.2020
1215 Clouds 25 1013 26 10000 7.2 10 19:59 18.06.2020
1216 Clouds 25 1013 26 10000 7.2 10 19:41 18.06.2020
1217 Clouds 25 1013 23 10000 7.2 10 19:20 18.06.2020
1218 Clouds 26 1012 16 10000 8.2 20 18:44 18.06.2020
1219 Clouds 26 1012 16 10000 8.2 20 18:25 18.06.2020
1220 Clouds 27 1012 15 10000 8.2 10 17:59 18.06.2020
1221 Clouds 27 1012 15 10000 8.2 10 17:41 18.06.2020
1222 Clouds 27 1012 15 10000 8.2 10 17:23 18.06.2020
1223 Clouds 29 1011 20 10000 7.7 360 16:44 18.06.2020
1224 Clear 29 1011 17 10000 7.7 360 16:25 18.06.2020
1225 Clear 30 1011 13 10000 7.7 360 15:59 18.06.2020
1226 Clear 30 1011 13 10000 7.7 360 15:40 18.06.2020
1227 Clouds 30 1011 13 10000 7.7 360 15:20 18.06.2020
1228 Clouds 30 1011 13 10000 5.7 360 14:57 18.06.2020
1229 Clouds 30 1011 13 10000 5.7 360 14:39 18.06.2020
1230 Clear 30 1011 13 10000 5.7 360 14:20 18.06.2020
1231 Clear 31 1011 12 10000 5.1 10 13:48 18.06.2020
1232 Clear 31 1011 12 10000 5.1 10 13:29 18.06.2020
1233 Clear 31 1012 11 10000 5.1 10 12:58 18.06.2020
1234 Clear 31 1012 11 10000 5.1 10 12:40 18.06.2020
1235 Clear 31 1012 11 10000 5.1 10 12:40 18.06.2020
1236 Clear 31 1012 11 10000 5.1 10 12:20 18.06.2020
1237 Clear 31 1012 12 10000 4.1 20 11:57 18.06.2020
1238 Clear 31 1012 12 10000 4.1 20 11:38 18.06.2020
1239 Clear 31 1012 12 10000 4.1 20 11:19 18.06.2020
1240 Clear 30 1013 13 10000 3.6 10 10:40 18.06.2020
1241 Clear 30 1013 13 10000 3.6 10 10:19 18.06.2020
1242 Clear 30 1013 13 10000 3.6 10 10:19 18.06.2020
1243 Clear 29 1014 13 10000 3.1 50 09:47 18.06.2020
1244 Clear 29 1014 13 10000 3.1 50 09:27 18.06.2020
1245 Clear 28 1014 14 10000 3.1 320 08:58 18.06.2020
1246 Clear 28 1014 14 10000 3.1 320 08:38 18.06.2020
1247 Clouds 27 1014 15 10000 1.5 0 08:20 18.06.2020
1248 Clouds 27 1014 15 10000 1.5 0 07:45 18.06.2020
1249 Clouds 27 1014 15 10000 1.5 0 07:26 18.06.2020
1250 Clouds 26 1014 16 10000 1.5 0 06:42 18.06.2020
1251 Clouds 24 1014 22 10000 1.5 340 05:34 18.06.2020
1252 Clouds 21 1014 26 10000 1.5 340 04:21 18.06.2020
1253 Clear 22 1013 18 10000 4.1 350 01:49 18.06.2020
1254 Clear 22 1013 18 10000 4.1 350 01:27 18.06.2020
1255 Clear 22 1014 19 10000 1.5 0 00:54 18.06.2020
1256 Clear 22 1014 19 10000 1.5 0 00:32 18.06.2020
1257 Clear 23 1013 17 10000 5.1 20 23:56 17.06.2020
1258 Clear 23 1013 17 10000 5.1 20 23:38 17.06.2020
1259 Clear 23 1013 17 10000 5.1 20 23:19 17.06.2020
1260 Clear 24 1014 16 10000 6.2 20 22:57 17.06.2020
1261 Clear 24 1014 16 10000 6.2 20 22:57 17.06.2020
1262 Clear 24 1014 16 10000 6.2 20 22:37 17.06.2020
1263 Clear 24 1014 16 10000 6.2 20 22:37 17.06.2020
1264 Clear 24 1014 16 10000 6.2 20 22:19 17.06.2020
1265 Clear 24 1014 15 10000 6.7 30 21:40 17.06.2020
1266 Clear 24 1014 15 10000 8.2 20 21:22 17.06.2020
1267 Clear 24 1014 15 10000 8.2 20 20:56 17.06.2020
1268 Clear 26 1010 13 10000 7.2 340 20:37 17.06.2020
1269 Clear 25 1013 14 10000 7.2 20 20:19 17.06.2020
1270 Clear 25 1013 14 10000 7.2 20 19:43 17.06.2020
1271 Clouds 25 1013 14 10000 7.2 20 19:22 17.06.2020
1272 Clouds 26 1013 13 10000 9.8 10 18:56 17.06.2020
1273 Clouds 26 1013 13 10000 9.8 10 18:38 17.06.2020
1274 Clouds 26 1013 13 10000 9.8 10 18:38 17.06.2020
1275 Clouds 26 1013 13 10000 9.8 10 18:38 17.06.2020
1276 Clouds 26 1013 13 10000 9.8 10 18:38 17.06.2020
1277 Clouds 26 1013 13 10000 9.8 10 18:19 17.06.2020
1278 Clouds 27 1012 12 10000 7.7 20 17:42 17.06.2020
1279 Clouds 27 1012 12 10000 7.7 20 17:22 17.06.2020
1280 Clouds 28 1012 12 10000 8.7 10 16:56 17.06.2020
1281 Clouds 28 1012 12 10000 8.7 10 16:38 17.06.2020
1282 Clouds 28 1012 12 10000 8.7 10 16:20 17.06.2020
1283 Clouds 29 1011 11 10000 7.2 360 15:40 17.06.2020
1284 Clouds 29 1011 11 10000 7.2 360 15:21 17.06.2020
1285 Clouds 31 1011 10 10000 6.2 10 14:59 17.06.2020
1286 Clouds 31 1011 10 10000 6.2 10 14:40 17.06.2020
1287 Clouds 31 1011 10 10000 6.2 10 14:40 17.06.2020
1288 Clear 31 1011 10 10000 6.2 10 14:21 17.06.2020
1289 Clear 31 1011 10 10000 5.1 10 14:00 17.06.2020
1290 Clear 31 1011 10 10000 5.1 10 13:41 17.06.2020
1291 Clear 31 1011 10 10000 5.1 10 13:21 17.06.2020
1292 Clear 31 1012 10 10000 5.1 360 12:55 17.06.2020
1293 Clear 31 1012 10 10000 5.1 360 12:37 17.06.2020
1294 Clear 31 1012 10 10000 5.1 360 12:19 17.06.2020
1295 Clear 31 1012 10 10000 5.1 350 11:44 17.06.2020
1296 Clear 31 1012 10 10000 5.1 350 11:24 17.06.2020
1297 Clear 30 1013 10 10000 5.1 10 10:55 17.06.2020
1298 Clear 30 1013 10 10000 5.1 10 10:36 17.06.2020
1299 Clear 30 1013 10 10000 5.1 10 10:18 17.06.2020
1300 Clear 30 1013 11 10000 4.1 10 09:54 17.06.2020
1301 Clear 30 1013 11 10000 4.1 10 09:36 17.06.2020
1302 Clear 30 1013 11 10000 4.1 10 09:36 17.06.2020
1303 Clear 30 1013 11 10000 4.1 10 09:18 17.06.2020
1304 Clear 28 1014 13 10000 4.1 360 08:41 17.06.2020
1305 Clear 28 1014 13 10000 4.1 360 08:19 17.06.2020
1306 Clear 28 1014 13 10000 3.1 300 07:43 17.06.2020
1307 Clear 28 1014 13 10000 3.1 300 07:22 17.06.2020
1308 Clear 27 1015 14 10000 2.1 300 06:56 17.06.2020
1309 Clear 27 1015 14 10000 2.1 300 06:38 17.06.2020
1310 Clear 27 1015 14 10000 2.1 300 06:20 17.06.2020
1311 Clear 24 1015 19 10000 2.6 320 05:29 17.06.2020
1312 Clear 18 1013 25 10000 2.1 340 03:28 17.06.2020
1313 Clear 18 1013 25 10000 1.5 0 01:52 17.06.2020
1314 Clear 18 1013 25 10000 1.5 0 00:47 17.06.2020
1315 Clear 19 1013 22 10000 1.5 0 00:23 17.06.2020
1316 Clear 20 1014 18 10000 2.6 280 23:56 16.06.2020
1317 Clear 20 1014 18 10000 2.6 280 23:37 16.06.2020
1318 Clear 20 1014 18 10000 2.6 280 23:19 16.06.2020
1319 Clear 20 1014 18 10000 2.6 280 22:55 16.06.2020
1320 Clear 23 1014 13 10000 5.1 360 22:37 16.06.2020
1321 Clear 23 1014 13 10000 5.1 360 22:18 16.06.2020
1322 Clear 23 1014 13 10000 5.1 360 21:47 16.06.2020
1323 Clear 23 1014 13 10000 5.1 360 21:24 16.06.2020
1324 Clear 25 1014 12 10000 7.2 30 20:58 16.06.2020
1325 Clear 25 1014 12 10000 7.2 30 20:39 16.06.2020
1326 Clear 25 1014 12 10000 7.2 30 20:19 16.06.2020
1327 Clear 25 1014 12 10000 7.2 30 20:19 16.06.2020
1328 Clear 25 1014 12 10000 7.7 30 19:57 16.06.2020
1329 Clear 25 1014 12 10000 7.7 30 19:39 16.06.2020
1330 Clear 25 1014 12 10000 7.7 30 19:21 16.06.2020
1331 Clear 26 1014 11 10000 9.3 20 18:55 16.06.2020
1332 Clear 26 1014 11 10000 9.3 20 18:36 16.06.2020
1333 Clear 26 1014 11 10000 9.3 20 18:18 16.06.2020
1334 Clear 26 1013 10 10000 9.8 30 17:54 16.06.2020
1335 Clear 26 1013 10 10000 9.8 30 17:36 16.06.2020
1336 Clear 26 1013 10 10000 9.8 30 17:18 16.06.2020
1337 Clear 27 1013 10 10000 7.7 10 16:42 16.06.2020
1338 Clear 27 1013 10 10000 7.7 10 16:20 16.06.2020
1339 Clear 29 1013 9 10000 8.7 20 15:58 16.06.2020
1340 Clear 29 1013 9 10000 8.7 20 15:39 16.06.2020
1341 Clear 29 1013 9 10000 8.7 20 15:21 16.06.2020
1342 Clear 29 1013 9 10000 7.7 360 14:57 16.06.2020
1343 Clear 29 1013 9 10000 7.7 360 14:57 16.06.2020
1344 Clear 29 1013 9 10000 7.7 360 14:38 16.06.2020
1345 Clear 29 1013 9 10000 7.7 360 14:20 16.06.2020
1346 Clear 30 1014 9 10000 7.7 10 13:46 16.06.2020
1347 Clear 30 1014 9 10000 7.7 10 13:26 16.06.2020
1348 Clear 30 1014 10 10000 7.7 20 12:55 16.06.2020
1349 Clear 30 1014 10 10000 7.7 20 12:37 16.06.2020
1350 Clear 30 1014 10 10000 7.7 20 12:18 16.06.2020
1351 Clear 30 1015 11 10000 6.7 360 11:42 16.06.2020
1352 Clear 30 1015 11 10000 6.7 360 11:23 16.06.2020
1353 Clear 30 1015 11 10000 6.7 10 10:59 16.06.2020
1354 Clear 30 1015 11 10000 6.7 10 10:41 16.06.2020
1355 Clear 30 1015 11 10000 6.7 10 10:20 16.06.2020
1356 Clear 29 1016 13 10000 5.7 10 09:47 16.06.2020
1357 Clear 29 1016 13 10000 5.7 10 09:26 16.06.2020
1358 Clear 28 1016 14 10000 6.2 350 08:58 16.06.2020
1359 Clear 28 1016 14 10000 6.2 350 08:58 16.06.2020
1360 Clear 28 1016 14 10000 6.2 350 08:40 16.06.2020
1361 Clear 28 1016 14 10000 6.2 350 08:22 16.06.2020
1362 Clear 27 1017 13 10000 6.2 20 07:42 16.06.2020
1363 Clear 27 1017 13 10000 6.2 20 07:24 16.06.2020
1364 Clear 26 1017 15 10000 5.1 10 06:34 16.06.2020
1365 Clear 24 1017 17 10000 4.1 360 05:52 16.06.2020
1366 Clear 24 1017 17 10000 4.1 360 05:26 16.06.2020
1367 Clear 21 1016 22 10000 4.1 330 04:26 16.06.2020
1368 Clear 18 1016 28 10000 0.5 0 02:47 16.06.2020
1369 Clear 19 1016 22 10000 2.1 330 01:34 16.06.2020
1370 Clear 23 1016 16 10000 6.2 360 00:58 16.06.2020
1371 Clear 23 1016 16 10000 6.2 360 00:29 16.06.2020
1372 Clear 23 1016 16 10000 5.1 10 23:59 15.06.2020
1373 Clear 23 1016 16 10000 5.1 10 23:41 15.06.2020
1374 Clear 23 1016 16 10000 5.1 10 23:21 15.06.2020
1375 Clear 23 1016 16 10000 5.1 20 22:42 15.06.2020
1376 Clear 23 1016 16 10000 5.1 20 22:23 15.06.2020
1377 Clear 24 1016 15 10000 6.2 30 21:58 15.06.2020
1378 Clear 24 1016 15 10000 6.2 30 21:38 15.06.2020
1379 Clear 24 1016 15 10000 6.2 30 21:20 15.06.2020
1380 Clear 24 1016 15 10000 6.2 30 21:20 15.06.2020
1381 Clear 24 1016 15 10000 6.2 10 20:59 15.06.2020
1382 Clear 24 1016 15 10000 6.2 10 20:39 15.06.2020
1383 Clear 24 1016 15 10000 6.2 10 20:19 15.06.2020
1384 Clear 24 1016 16 10000 6.2 360 19:57 15.06.2020
1385 Clear 24 1016 16 10000 6.2 360 19:39 15.06.2020
1386 Clear 24 1016 16 10000 6.2 360 19:21 15.06.2020
1387 Clear 25 1015 14 10000 5.1 10 18:57 15.06.2020
1388 Clear 25 1015 14 10000 5.1 10 18:39 15.06.2020
1389 Clear 25 1015 14 10000 5.1 10 18:39 15.06.2020
1390 Clear 25 1015 14 10000 5.1 10 18:19 15.06.2020
1391 Clear 27 1015 12 10000 6.7 20 17:56 15.06.2020
1392 Clear 27 1015 12 10000 6.7 20 17:56 15.06.2020
1393 Clear 27 1015 12 10000 6.7 20 17:37 15.06.2020
1394 Clear 27 1015 12 10000 6.7 20 17:19 15.06.2020
1395 Clear 28 1015 12 10000 6.2 30 16:42 15.06.2020
1396 Clear 28 1015 12 10000 6.2 30 16:19 15.06.2020
1397 Clear 29 1014 10 10000 6.2 40 15:57 15.06.2020
1398 Clear 29 1014 10 10000 6.2 40 15:39 15.06.2020
1399 Clear 29 1014 10 10000 6.2 40 15:19 15.06.2020
1400 Clear 31 1014 8 10000 6.7 20 14:55 15.06.2020
1401 Clear 31 1014 8 10000 6.7 20 14:37 15.06.2020
1402 Clear 31 1014 8 10000 6.7 20 14:18 15.06.2020
1403 Clear 31 1015 9 10000 6.2 360 13:42 15.06.2020
1404 Clear 31 1015 9 10000 6.2 360 13:24 15.06.2020
1405 Clear 31 1015 9 10000 5.7 350 12:59 15.06.2020
1406 Clear 31 1015 9 10000 5.7 350 12:40 15.06.2020
1407 Clear 31 1015 9 10000 5.7 350 12:21 15.06.2020
1408 Clear 30 1016 10 10000 5.1 350 11:45 15.06.2020
1409 Clear 29 1017 11 10000 4.6 350 11:26 15.06.2020
1410 Clear 29 1017 11 10000 4.6 350 10:57 15.06.2020
1411 Clear 29 1017 11 10000 4.6 350 10:38 15.06.2020
1412 Clear 29 1017 11 10000 4.6 350 10:19 15.06.2020
1413 Clear 29 1017 11 10000 4.6 350 10:19 15.06.2020
1414 Clear 28 1018 12 10000 5.1 360 09:42 15.06.2020
1415 Clear 28 1018 12 10000 5.1 360 09:22 15.06.2020
1416 Clear 28 1018 13 10000 4.6 360 08:43 15.06.2020
1417 Clear 28 1018 13 10000 4.6 360 08:25 15.06.2020
1418 Clear 27 1018 13 10000 5.7 360 07:51 15.06.2020
1419 Clear 27 1018 13 10000 5.7 360 07:33 15.06.2020
1420 Clear 26 1018 16 10000 2.1 320 06:57 15.06.2020
1421 Clear 26 1018 16 10000 2.1 320 06:57 15.06.2020
1422 Clear 26 1018 16 10000 2.1 320 06:27 15.06.2020
1423 Clear 24 1018 22 10000 1.5 300 05:50 15.06.2020
1424 Clear 24 1018 22 10000 1.5 300 05:28 15.06.2020
1425 Clear 20 1018 30 10000 2.1 320 04:22 15.06.2020
1426 Clear 18 1017 31 10000 1.5 310 03:48 15.06.2020
1427 Clear 18 1017 31 10000 1.5 310 03:48 15.06.2020
1428 Clear 16 1017 30 10000 1.5 320 02:56 15.06.2020
1429 Clear 16 1017 31 10000 1.5 320 02:24 15.06.2020
1430 Clear 19 1016 22 10000 2.1 330 01:41 15.06.2020
1431 Clear 19 1016 22 10000 2.1 330 01:23 15.06.2020
1432 Clear 22 1016 17 10000 5.1 20 00:43 15.06.2020
1433 Clear 22 1016 17 10000 5.1 20 00:23 15.06.2020
1434 Clear 23 1016 16 10000 6.2 10 23:56 14.06.2020
1435 Clear 23 1016 16 10000 6.2 10 23:38 14.06.2020
1436 Clear 23 1016 16 10000 6.2 10 23:20 14.06.2020
1437 Clear 22 1016 18 10000 5.1 360 22:56 14.06.2020
1438 Clear 22 1016 18 10000 5.1 360 22:37 14.06.2020
1439 Clear 22 1016 18 10000 5.1 360 22:18 14.06.2020
1440 Clear 24 1017 16 10000 6.2 10 21:55 14.06.2020
1441 Clear 24 1017 16 10000 6.2 10 21:37 14.06.2020
1442 Clear 24 1017 16 10000 6.2 10 21:18 14.06.2020
1443 Clear 24 1017 16 10000 6.2 10 20:55 14.06.2020
1444 Clear 24 1017 16 10000 6.2 10 20:55 14.06.2020
1445 Clear 24 1017 16 10000 6.2 10 20:36 14.06.2020
1446 Clear 24 1017 16 10000 6.2 10 20:18 14.06.2020
1447 Clear 25 1017 15 10000 7.7 10 19:54 14.06.2020
1448 Clear 25 1017 15 10000 7.7 10 19:36 14.06.2020
1449 Clear 25 1017 15 10000 7.7 10 19:18 14.06.2020
1450 Clear 26 1016 13 10000 5.1 20 18:55 14.06.2020
1451 Clear 26 1016 13 10000 5.1 20 18:36 14.06.2020
1452 Clear 26 1016 13 10000 5.1 20 18:18 14.06.2020
1453 Clear 26 1016 13 10000 3.6 30 17:40 14.06.2020
1454 Clear 26 1016 13 10000 3.6 30 17:20 14.06.2020
1455 Clouds 28 1015 13 10000 6.2 10 16:58 14.06.2020
1456 Clouds 28 1015 13 10000 6.2 10 16:39 14.06.2020
1457 Clouds 28 1015 13 10000 6.2 10 16:19 14.06.2020
1458 Clouds 29 1015 16 10000 6.2 360 15:55 14.06.2020
1459 Clouds 29 1015 16 10000 6.2 360 15:36 14.06.2020
1460 Clouds 29 1015 15 10000 6.2 360 15:18 14.06.2020
1461 Clouds 32 1010 11 10000 9.3 360 14:41 14.06.2020
1462 Clouds 31 1015 16 10000 3.1 20 14:23 14.06.2020
1463 Clouds 31 1015 16 10000 3.1 20 13:59 14.06.2020
1464 Clouds 31 1015 16 10000 3.1 20 13:40 14.06.2020
1465 Clouds 31 1015 16 10000 3.1 20 13:40 14.06.2020
1466 Clouds 31 1015 16 10000 3.1 20 13:21 14.06.2020
1467 Clouds 30 1015 16 10000 2.6 30 12:57 14.06.2020
1468 Clouds 30 1015 16 10000 2.6 30 12:39 14.06.2020
1469 Clouds 30 1015 16 10000 2.6 30 12:21 14.06.2020
1470 Clouds 30 1016 16 10000 3.1 60 11:57 14.06.2020
1471 Clouds 31 1012 17 10000 3.6 310 11:38 14.06.2020
1472 Clouds 29 1017 20 10000 2.6 100 11:20 14.06.2020
1473 Clouds 29 1017 20 10000 2.6 100 10:42 14.06.2020
1474 Clouds 29 1017 20 10000 2.6 100 10:20 14.06.2020
1475 Clear 27 1017 22 10000 2.6 50 09:51 14.06.2020
1476 Clear 27 1017 22 10000 2.6 50 09:26 14.06.2020
1477 Clear 27 1018 24 10000 1.5 330 08:59 14.06.2020
1478 Clear 27 1018 24 10000 1.5 330 08:41 14.06.2020
1479 Clear 27 1018 24 10000 1.5 330 08:19 14.06.2020
1480 Clear 25 1018 27 10000 2.1 340 07:52 14.06.2020
1481 Clear 25 1018 27 10000 2.1 340 07:32 14.06.2020
1482 Clear 24 1018 38 9000 0.84 95 06:39 14.06.2020
1483 Clear 21 1018 46 10000 1 0 05:45 14.06.2020
1484 Clear 21 1018 46 10000 1 0 04:59 14.06.2020
1485 Clear 19 1018 59 10000 1.5 320 04:33 14.06.2020
1486 Clear 14 1017 71 10000 1 0 03:27 14.06.2020
1487 Clear 14 1017 76 10000 1 0 02:30 14.06.2020
1488 Clear 14 1016 71 10000 1 0 01:45 14.06.2020
1489 Clear 14 1016 71 10000 1 0 01:23 14.06.2020
1490 Clear 15 1016 67 10000 1.5 140 00:39 14.06.2020
1491 Clear 15 1016 67 10000 1.5 140 00:19 14.06.2020
1492 Clear 16 1016 63 10000 1 0 23:43 13.06.2020
1493 Clear 16 1016 63 10000 1 0 23:24 13.06.2020
1494 Clear 16 1017 59 10000 1 0 22:57 13.06.2020
1495 Clear 16 1017 59 10000 1 0 22:37 13.06.2020
1496 Clear 16 1017 59 10000 1 0 22:18 13.06.2020
1497 Clear 16 1017 59 10000 1 0 22:18 13.06.2020
1498 Clear 17 1017 55 10000 1 0 21:55 13.06.2020
1499 Clear 17 1017 55 10000 1 0 21:37 13.06.2020
1500 Clear 17 1017 55 10000 1 0 21:18 13.06.2020
1501 Clear 18 1016 52 10000 1 0 20:42 13.06.2020
1502 Clear 18 1016 52 10000 1 0 20:42 13.06.2020
1503 Clouds 18 1016 52 10000 1 0 20:19 13.06.2020
1504 Clouds 18 1016 52 10000 1.5 150 19:57 13.06.2020
1505 Clouds 18 1016 52 10000 1.5 150 19:36 13.06.2020
1506 Clouds 18 1016 52 10000 1.5 150 19:18 13.06.2020
1507 Clouds 20 1015 45 10000 2.1 150 18:55 13.06.2020
1508 Clouds 20 1015 45 10000 2.1 150 18:37 13.06.2020
1509 Clouds 20 1015 45 10000 2.1 150 18:18 13.06.2020
1510 Clouds 21 1015 46 10000 1.5 160 17:42 13.06.2020
1511 Clouds 21 1015 46 10000 1.5 160 17:23 13.06.2020
1512 Clouds 22 1014 40 10000 2.6 140 16:58 13.06.2020
1513 Clouds 22 1014 40 10000 2.6 140 16:39 13.06.2020
1514 Rain 23 1014 38 10000 1.5 0 16:19 13.06.2020
1515 Rain 23 1014 38 10000 1.5 0 15:45 13.06.2020
1516 Rain 23 1014 38 10000 1.5 0 15:27 13.06.2020
1517 Rain 23 1013 38 10000 6.2 80 14:59 13.06.2020
1518 Rain 23 1013 38 10000 6.2 80 14:41 13.06.2020
1519 Rain 23 1013 38 10000 6.2 80 14:20 13.06.2020
1520 Clouds 23 1014 43 10000 3.1 150 13:44 13.06.2020
1521 Clouds 23 1014 43 10000 3.1 150 13:26 13.06.2020
1522 Clouds 22 1014 49 10000 5.1 190 12:55 13.06.2020
1523 Clouds 22 1014 49 10000 5.1 190 12:37 13.06.2020
1524 Clouds 22 1014 49 10000 5.1 190 12:19 13.06.2020
1525 Clouds 22 1014 40 10000 5.1 20 11:40 13.06.2020
1526 Clouds 22 1014 40 10000 5.1 20 11:19 13.06.2020
1527 Rain 20 1014 56 10000 7.7 340 10:58 13.06.2020
1528 Thunderstorm 22 1014 43 8000 7.7 350 10:39 13.06.2020
1529 Thunderstorm 22 1014 43 8000 7.7 350 10:20 13.06.2020
1530 Clouds 27 1014 34 10000 1.5 210 09:45 13.06.2020
1531 Clouds 27 1014 34 10000 1.5 210 09:27 13.06.2020
1532 Clouds 26 1015 39 10000 2.1 90 08:56 13.06.2020
1533 Clouds 26 1015 39 10000 2.1 90 08:37 13.06.2020
1534 Clouds 26 1015 39 10000 2.1 90 08:19 13.06.2020
1535 Clouds 24 1015 41 10000 2.6 130 07:42 13.06.2020
1536 Clouds 24 1015 41 10000 2.6 130 07:23 13.06.2020
1537 Clouds 23 1015 46 10000 1 0 06:44 13.06.2020
1538 Clouds 23 1015 46 10000 1 0 06:24 13.06.2020
1539 Clouds 19 1015 63 10000 1.5 0 05:27 13.06.2020
1540 Clouds 19 1015 63 10000 1.5 0 04:34 13.06.2020
1541 Clouds 18 1014 63 10000 3.1 340 02:55 13.06.2020
1542 Clouds 18 1014 63 10000 3.1 340 02:37 13.06.2020
1543 Clouds 19 1014 59 10000 3.1 340 01:47 13.06.2020
1544 Clouds 19 1014 59 10000 3.1 340 01:22 13.06.2020
1545 Clouds 18 1014 59 10000 3.6 70 00:45 13.06.2020
1546 Clouds 18 1014 59 10000 3.6 70 00:26 13.06.2020
1547 Clouds 19 1014 55 10000 4.1 80 23:55 12.06.2020
1548 Clouds 19 1014 55 10000 4.1 80 23:37 12.06.2020
1549 Clouds 19 1014 55 10000 4.1 80 23:18 12.06.2020
1550 Rain 19 1014 59 10000 6.2 70 22:41 12.06.2020
1551 Rain 19 1014 59 10000 6.2 70 22:19 12.06.2020
1552 Rain 20 1014 56 10000 6.2 90 21:50 12.06.2020
1553 Rain 20 1014 56 10000 6.2 90 21:27 12.06.2020
1554 Clouds 20 1014 60 10000 4.1 90 20:59 12.06.2020
1555 Clouds 20 1014 60 10000 4.1 90 20:41 12.06.2020
1556 Clouds 20 1014 60 10000 4.1 90 20:22 12.06.2020
1557 Clouds 21 1013 56 10000 5.1 90 19:57 12.06.2020
1558 Clouds 21 1013 56 10000 5.1 90 19:57 12.06.2020
1559 Clouds 21 1013 56 10000 5.1 90 19:38 12.06.2020
1560 Clouds 21 1013 56 10000 5.1 90 19:18 12.06.2020
1561 Rain 21 1012 56 10000 7.7 100 18:39 12.06.2020
1562 Rain 21 1012 56 10000 7.7 100 18:19 12.06.2020
1563 Clouds 22 1011 53 10000 7.7 70 17:58 12.06.2020
1564 Clouds 22 1011 53 10000 7.7 70 17:38 12.06.2020
1565 Clouds 22 1011 53 10000 7.7 70 17:18 12.06.2020
1566 Clouds 24 1010 44 10000 6.2 110 16:41 12.06.2020
1567 Clouds 24 1010 44 10000 6.2 110 16:20 12.06.2020
1568 Clouds 27 1010 34 10000 6.7 60 15:48 12.06.2020
1569 Clouds 27 1010 34 10000 6.7 60 15:25 12.06.2020
1570 Clouds 27 1010 34 10000 6.7 60 14:56 12.06.2020
1571 Clouds 27 1010 34 10000 6.7 60 14:38 12.06.2020
1572 Clouds 27 1010 34 10000 6.7 60 14:20 12.06.2020
1573 Clouds 29 1010 23 10000 5.1 360 13:42 12.06.2020
1574 Clouds 29 1010 23 10000 5.1 360 13:21 12.06.2020
1575 Clouds 31 1011 16 10000 2.6 320 12:41 12.06.2020
1576 Clouds 31 1011 16 10000 2.6 320 12:41 12.06.2020
1577 Clouds 31 1011 16 10000 2.6 320 12:41 12.06.2020
1578 Clouds 31 1011 16 10000 2.6 320 12:20 12.06.2020
1579 Clouds 30 1012 20 10000 2.6 220 11:58 12.06.2020
1580 Clouds 30 1012 20 10000 2.6 220 11:39 12.06.2020
1581 Clouds 30 1012 20 10000 2.6 220 11:21 12.06.2020
1582 Clouds 29 1013 26 10000 2.1 100 10:46 12.06.2020
1583 Clouds 29 1013 26 10000 2.1 100 10:24 12.06.2020
1584 Clouds 27 1014 32 10000 3.1 220 09:47 12.06.2020
1585 Clouds 27 1014 32 10000 3.1 220 09:21 12.06.2020
1586 Clear 26 1014 39 10000 1.5 20 08:45 12.06.2020
1587 Clear 26 1014 39 10000 1.5 20 08:25 12.06.2020
1588 Clear 25 1015 41 10000 1.5 150 07:44 12.06.2020
1589 Clear 25 1015 41 10000 1.5 150 07:26 12.06.2020
1590 Clouds 24 1015 41 10000 1 140 06:56 12.06.2020
1591 Clouds 24 1015 41 10000 1 140 06:30 12.06.2020
1592 Clouds 12 1015 54 10000 3.1 360 05:55 12.06.2020
1593 Clouds 12 1015 54 10000 3.1 360 05:37 12.06.2020
1594 Clouds 12 1015 54 10000 3.1 360 05:19 12.06.2020
1595 Clouds 17 1014 31 10000 1.5 0 03:24 12.06.2020
1596 Clear 18 1013 33 10000 1.5 0 01:57 12.06.2020
1597 Clear 18 1013 32 10000 1.5 0 01:30 12.06.2020
1598 Clear 19 1013 24 10000 1.5 300 00:47 12.06.2020
1599 Rain 19 1013 24 10000 1.5 300 00:26 12.06.2020
1600 Rain 20 1013 22 10000 2.1 320 23:59 11.06.2020
1601 Rain 20 1013 22 10000 2.1 320 23:59 11.06.2020
1602 Rain 20 1013 22 10000 2.1 320 23:41 11.06.2020
1603 Rain 20 1013 22 10000 2.1 320 23:21 11.06.2020
1604 Rain 20 1013 22 10000 3.1 330 22:59 11.06.2020
1605 Rain 20 1013 22 10000 3.1 330 22:39 11.06.2020
1606 Clear 20 1013 22 10000 3.1 330 22:20 11.06.2020
1607 Clear 22 1014 19 10000 4.6 350 21:56 11.06.2020
1608 Clear 22 1014 19 10000 4.6 350 21:38 11.06.2020
1609 Clear 22 1014 19 10000 4.6 350 21:20 11.06.2020
1610 Clear 23 1013 17 10000 6.2 10 20:45 11.06.2020
1611 Clouds 23 1013 17 10000 6.2 10 20:22 11.06.2020
1612 Clouds 23 1013 18 10000 6.2 10 19:58 11.06.2020
1613 Clouds 23 1013 18 10000 6.2 10 19:40 11.06.2020
1614 Clouds 24 1012 17 10000 7.7 360 19:21 11.06.2020
1615 Clouds 24 1012 17 10000 7.7 360 18:42 11.06.2020
1616 Clouds 24 1012 17 10000 7.7 360 18:24 11.06.2020
1617 Clouds 25 1012 16 10000 7.7 10 17:57 11.06.2020
1618 Clouds 25 1012 16 10000 7.7 10 17:38 11.06.2020
1619 Clouds 25 1012 16 10000 7.7 10 17:19 11.06.2020
1620 Clouds 27 1012 15 10000 7.7 360 16:57 11.06.2020
1621 Clouds 27 1012 15 10000 7.7 360 16:38 11.06.2020
1622 Clouds 27 1012 15 10000 7.7 360 16:20 11.06.2020
1623 Clouds 39 1011 7 10000 6.2 360 15:43 11.06.2020
1624 Clear 39 1011 7 10000 6.2 360 15:25 11.06.2020
1625 Clear 30 1012 10 10000 5.1 10 14:58 11.06.2020
1626 Clear 30 1012 10 10000 5.1 10 14:38 11.06.2020
1627 Clear 30 1012 10 10000 5.1 10 14:20 11.06.2020
1628 Clear 30 1013 10 10000 2.6 40 13:55 11.06.2020
1629 Clear 30 1013 10 10000 2.6 40 13:37 11.06.2020
1630 Clear 30 1013 10 10000 2.6 40 13:18 11.06.2020
1631 Clear 30 1013 8 10000 2.6 70 12:54 11.06.2020
1632 Clear 30 1013 8 10000 2.6 70 12:36 11.06.2020
1633 Clear 30 1013 8 10000 2.6 70 12:18 11.06.2020
1634 Clear 29 1014 10 10000 3.1 30 11:56 11.06.2020
1635 Clear 29 1014 10 10000 3.1 30 11:37 11.06.2020
1636 Clear 29 1014 10 10000 3.1 30 11:18 11.06.2020
1637 Clear 29 1015 13 10000 1.5 0 10:42 11.06.2020
1638 Clear 29 1015 13 10000 1.5 0 10:19 11.06.2020
1639 Clear 27 1016 15 10000 2.1 20 09:45 11.06.2020
1640 Clear 27 1016 15 10000 2.1 20 09:45 11.06.2020
1641 Clear 27 1016 15 10000 2.1 20 09:26 11.06.2020
1642 Clear 26 1016 16 10000 3.6 340 08:55 11.06.2020
1643 Clear 26 1016 16 10000 3.6 340 08:36 11.06.2020
1644 Clear 26 1016 16 10000 3.6 340 08:18 11.06.2020
1645 Clear 26 1013 19 10000 1.04 27 07:41 11.06.2020
1646 Clear 23 1016 23 10000 4.1 350 07:22 11.06.2020
1647 Clear 23 1016 23 10000 4.1 350 06:31 11.06.2020
1648 Clear 22 1016 24 10000 3.1 330 05:54 11.06.2020
1649 Clear 21 1016 25 10000 1.5 0 04:37 11.06.2020
1650 Clear 19 1016 25 10000 3.1 270 03:25 11.06.2020
1651 Clear 18 1015 27 10000 2.1 270 02:46 11.06.2020
1652 Clear 18 1015 27 10000 3.1 300 01:56 11.06.2020
1653 Clear 18 1015 27 10000 3.1 300 01:35 11.06.2020
1654 Clear 19 1015 25 10000 2.6 0 00:56 11.06.2020
1655 Clear 22 1011 19 10000 7.2 350 00:38 11.06.2020
1656 Clear 20 1015 24 10000 5.1 340 00:18 11.06.2020
1657 Clear 20 1015 24 10000 5.1 340 23:39 10.06.2020
1658 Clear 20 1015 24 10000 5.1 340 23:21 10.06.2020
1659 Clear 21 1015 22 10000 4.1 10 22:41 10.06.2020
1660 Clear 21 1015 22 10000 6.2 10 22:22 10.06.2020
1661 Clear 21 1015 22 10000 6.2 10 21:59 10.06.2020
1662 Clear 21 1015 22 10000 6.2 10 21:41 10.06.2020
1663 Clear 21 1015 22 10000 6.2 10 21:19 10.06.2020
1664 Clear 22 1015 21 10000 7.7 350 20:58 10.06.2020
1665 Clear 22 1015 21 10000 7.7 350 20:40 10.06.2020
1666 Clear 22 1015 21 10000 7.7 350 20:40 10.06.2020
1667 Clear 22 1015 21 10000 7.7 350 20:21 10.06.2020
1668 Clear 22 1015 21 10000 5.1 360 19:59 10.06.2020
1669 Clear 22 1015 21 10000 5.1 360 19:38 10.06.2020
1670 Clear 22 1015 21 10000 5.1 360 19:18 10.06.2020
1671 Clear 23 1015 20 10000 8.7 10 18:42 10.06.2020
1672 Clear 23 1015 20 10000 8.7 10 18:22 10.06.2020
1673 Clear 24 1014 19 10000 8.2 20 17:59 10.06.2020
1674 Clear 24 1014 19 10000 8.2 20 17:41 10.06.2020
1675 Clear 24 1014 19 10000 8.2 20 17:20 10.06.2020
1676 Clear 26 1014 16 10000 6.7 10 16:59 10.06.2020
1677 Clear 26 1014 16 10000 6.7 10 16:40 10.06.2020
1678 Clear 26 1014 16 10000 6.7 10 16:20 10.06.2020
1679 Clear 27 1014 19 10000 7.7 10 15:57 10.06.2020
1680 Clear 27 1014 19 10000 7.7 10 15:37 10.06.2020
1681 Clear 27 1014 17 10000 7.7 10 15:19 10.06.2020
1682 Clouds 27 1014 15 10000 9.3 360 14:40 10.06.2020
1683 Clouds 27 1014 15 10000 9.3 360 14:21 10.06.2020
1684 Clouds 28 1015 14 10000 6.2 350 13:56 10.06.2020
1685 Clouds 28 1015 14 10000 6.2 350 13:38 10.06.2020
1686 Clouds 28 1015 14 10000 6.2 350 13:20 10.06.2020
1687 Clear 29 1015 13 10000 6.2 350 12:41 10.06.2020
1688 Clear 29 1015 13 10000 6.2 350 12:18 10.06.2020
1689 Clear 29 1016 14 10000 5.7 360 11:46 10.06.2020
1690 Clear 29 1016 14 10000 5.7 360 11:20 10.06.2020
1691 Clear 28 1016 14 10000 4.6 10 10:59 10.06.2020
1692 Clear 28 1016 14 10000 4.6 10 10:41 10.06.2020
1693 Clear 28 1016 14 10000 4.6 10 10:22 10.06.2020
1694 Clear 27 1017 15 10000 4.1 360 09:44 10.06.2020
1695 Clear 27 1017 15 10000 4.1 360 09:26 10.06.2020
1696 Clear 27 1017 18 10000 4.1 350 08:59 10.06.2020
1697 Clear 27 1017 18 10000 4.1 350 08:41 10.06.2020
1698 Clear 27 1017 18 10000 4.1 350 08:22 10.06.2020
1699 Clear 25 1018 22 10000 4.1 360 07:42 10.06.2020
1700 Clear 25 1018 22 10000 4.1 360 07:23 10.06.2020
1701 Clear 24 1018 25 10000 4.6 350 06:52 10.06.2020
1702 Clear 24 1018 25 10000 4.6 350 06:33 10.06.2020
1703 Clear 22 1018 26 10000 3.1 350 06:00 10.06.2020
1704 Clear 22 1018 26 10000 3.1 350 05:31 10.06.2020
1705 Clear 21 1017 26 10000 2.6 320 04:48 10.06.2020
1706 Clear 21 1017 26 10000 2.6 320 04:28 10.06.2020
1707 Clear 16 1016 36 10000 1.5 0 02:24 10.06.2020
1708 Clear 19 1016 45 10000 3.6 350 01:41 10.06.2020
1709 Clear 19 1016 25 10000 5.1 330 00:43 10.06.2020
1710 Clear 19 1016 25 10000 5.1 330 00:43 10.06.2020
1711 Clear 19 1016 25 10000 5.1 330 00:24 10.06.2020
1712 Clear 19 1016 25 10000 3.6 330 23:59 09.06.2020
1713 Clear 19 1016 25 10000 3.6 330 23:41 09.06.2020
1714 Clear 19 1016 25 10000 3.6 330 23:23 09.06.2020
1715 Clear 21 1016 22 10000 6.7 350 22:57 09.06.2020
1716 Clear 21 1016 22 10000 6.7 350 22:38 09.06.2020
1717 Clear 21 1016 22 10000 6.7 350 22:20 09.06.2020
1718 Clear 22 1016 19 10000 6.2 360 21:57 09.06.2020
1719 Clear 22 1016 19 10000 6.2 360 21:39 09.06.2020
1720 Clear 22 1016 19 10000 6.2 360 21:21 09.06.2020
1721 Clear 22 1016 21 10000 6.2 10 20:57 09.06.2020
1722 Clear 22 1016 21 10000 6.2 10 20:57 09.06.2020
1723 Clear 22 1016 21 10000 6.2 10 20:38 09.06.2020
1724 Clear 22 1016 21 10000 6.2 10 20:20 09.06.2020
1725 Clear 23 1016 20 10000 7.2 10 19:57 09.06.2020
1726 Clear 23 1016 20 10000 7.2 10 19:39 09.06.2020
1727 Clear 23 1016 20 10000 7.2 10 19:39 09.06.2020
1728 Clouds 23 1016 20 10000 7.2 10 19:20 09.06.2020
1729 Clouds 23 1016 20 10000 7.2 10 19:20 09.06.2020
1730 Clouds 24 1015 22 10000 7.7 20 18:57 09.06.2020
1731 Clouds 24 1015 22 10000 7.7 20 18:38 09.06.2020
1732 Clear 24 1015 22 10000 7.7 20 18:19 09.06.2020
1733 Clouds 24 1014 27 10000 7.2 10 17:55 09.06.2020
1734 Clouds 24 1014 27 10000 7.2 10 17:55 09.06.2020
1735 Clouds 24 1014 27 10000 7.2 10 17:36 09.06.2020
1736 Clouds 24 1014 27 10000 7.2 10 17:18 09.06.2020
1737 Clouds 26 1014 31 8000 5.1 360 16:42 09.06.2020
1738 Clouds 26 1014 31 8000 5.1 360 16:23 09.06.2020
1739 Clouds 26 1014 27 8000 5.1 350 15:55 09.06.2020
1740 Clouds 26 1014 27 8000 5.1 350 15:37 09.06.2020
1741 Clouds 26 1014 27 8000 5.1 350 15:19 09.06.2020
1742 Clouds 27 1014 28 8000 5.1 360 14:41 09.06.2020
1743 Clouds 27 1014 28 8000 5.1 360 14:21 09.06.2020
1744 Clouds 29 1014 25 8000 5.1 340 13:58 09.06.2020
1745 Clouds 29 1014 25 8000 5.1 340 13:40 09.06.2020
1746 Clouds 29 1014 25 8000 5.1 340 13:21 09.06.2020
1747 Clouds 30 1014 22 8000 5.7 360 12:44 09.06.2020
1748 Clouds 30 1014 22 8000 5.7 360 12:21 09.06.2020
1749 Clouds 29 1015 25 8000 5.7 360 11:59 09.06.2020
1750 Clouds 29 1015 25 8000 5.7 360 11:41 09.06.2020
1751 Clouds 29 1015 25 8000 5.7 360 11:20 09.06.2020
1752 Clouds 29 1015 30 7000 4.1 350 10:58 09.06.2020
1753 Clouds 29 1015 30 7000 4.1 350 10:40 09.06.2020
1754 Clouds 29 1015 30 7000 4.1 350 10:22 09.06.2020
1755 Clear 29 1016 32 7000 4.1 330 09:44 09.06.2020
1756 Clear 29 1016 32 7000 4.1 330 09:24 09.06.2020
1757 Clear 27 1016 39 6000 3.1 330 08:56 09.06.2020
1758 Clear 27 1016 39 6000 3.1 330 08:38 09.06.2020
1759 Clear 27 1016 39 6000 3.1 330 08:19 09.06.2020
1760 Haze 26 1016 39 5000 1.5 0 07:38 09.06.2020
1761 Haze 26 1016 39 5000 1.5 0 07:19 09.06.2020
1762 Haze 25 1017 41 5000 1.81 27 06:54 09.06.2020
1763 Haze 25 1017 41 5000 1.81 27 06:34 09.06.2020
1764 Haze 24 1016 33 5000 1 0 05:34 09.06.2020
1765 Haze 18 1015 48 5000 0.5 0 03:34 09.06.2020
1766 Haze 20 1015 40 5000 1.5 0 01:43 09.06.2020
1767 Haze 20 1015 40 5000 1.5 0 01:19 09.06.2020
1768 Haze 21 1015 35 5000 2.6 310 00:50 09.06.2020
1769 Haze 21 1015 35 5000 2.6 310 00:26 09.06.2020
1770 Haze 22 1015 35 5000 4.6 30 23:59 08.06.2020
1771 Haze 22 1015 35 5000 4.6 30 23:39 08.06.2020
1772 Haze 22 1015 35 5000 4.6 30 23:19 08.06.2020
1773 Haze 22 1015 35 5000 1 0 22:42 08.06.2020
1774 Haze 22 1015 35 5000 1 0 22:23 08.06.2020
1775 Haze 24 1015 25 5000 5.1 10 21:59 08.06.2020
1776 Haze 24 1015 25 5000 5.1 10 21:41 08.06.2020
1777 Haze 24 1015 25 5000 5.1 10 21:22 08.06.2020
1778 Haze 24 1014 27 5000 3.1 10 20:57 08.06.2020
1779 Haze 24 1014 27 5000 3.1 10 20:39 08.06.2020
1780 Haze 24 1014 27 5000 3.1 10 20:20 08.06.2020
1781 Haze 24 1013 27 5000 5.1 340 19:59 08.06.2020
1782 Haze 24 1013 27 5000 5.1 340 19:41 08.06.2020
1783 Haze 24 1013 27 5000 5.1 340 19:20 08.06.2020
1784 Clouds 24 1013 25 8000 2.6 80 18:41 08.06.2020
1785 Clouds 24 1013 25 8000 2.6 80 18:19 08.06.2020
1786 Clouds 26 1012 21 8000 4.6 10 17:57 08.06.2020
1787 Clouds 26 1012 21 8000 4.6 10 17:39 08.06.2020
1788 Clouds 26 1012 21 8000 4.6 10 17:19 08.06.2020
1789 Clouds 28 1012 25 10000 4.1 360 16:46 08.06.2020
1790 Clouds 28 1012 21 10000 4.1 360 16:25 08.06.2020
1791 Clouds 29 1011 21 10000 6.2 20 15:59 08.06.2020
1792 Clouds 29 1011 21 10000 6.2 20 15:41 08.06.2020
1793 Clouds 29 1011 15 10000 6.2 20 15:20 08.06.2020
1794 Clouds 29 1011 16 10000 7.2 360 14:56 08.06.2020
1795 Clouds 29 1011 16 10000 7.2 360 14:36 08.06.2020
1796 Clouds 29 1011 16 10000 7.2 360 14:18 08.06.2020
1797 Clouds 29 1011 16 10000 7.2 360 14:18 08.06.2020
1798 Clouds 31 1012 14 10000 5.1 360 13:41 08.06.2020
1799 Clear 31 1012 14 10000 5.1 360 13:20 08.06.2020
1800 Clear 31 1012 10 10000 3.1 90 12:40 08.06.2020
1801 Clear 31 1012 10 10000 3.1 90 12:19 08.06.2020
1802 Clear 32 1013 11 10000 2.6 270 11:57 08.06.2020
1803 Clear 32 1013 11 10000 2.6 270 11:38 08.06.2020
1804 Clear 32 1013 11 10000 2.6 270 11:38 08.06.2020
1805 Clear 32 1013 11 10000 2.6 270 11:20 08.06.2020
1806 Clear 30 1014 11 10000 2.6 20 10:56 08.06.2020
1807 Clear 30 1014 11 10000 2.6 20 10:37 08.06.2020
1808 Clear 30 1014 11 10000 2.6 20 10:19 08.06.2020
1809 Clear 29 1015 12 10000 2.6 210 09:43 08.06.2020
1810 Clear 29 1015 12 10000 2.6 210 09:23 08.06.2020
1811 Clear 28 1015 14 10000 1.5 0 08:49 08.06.2020
1812 Clear 28 1015 14 10000 1.5 0 08:24 08.06.2020
1813 Clear 27 1015 15 10000 1.5 0 07:56 08.06.2020
1814 Clear 27 1015 15 10000 1.5 0 07:37 08.06.2020
1815 Clear 27 1015 15 10000 1.5 0 07:18 08.06.2020
1816 Clear 26 1015 16 10000 1 0 06:38 08.06.2020
1817 Clear 24 1015 20 10000 1.5 0 05:54 08.06.2020
1818 Clear 21 1015 26 10000 1.5 310 04:36 08.06.2020
1819 Clear 18 1015 30 10000 1.5 320 03:22 08.06.2020
1820 Clear 16 1014 32 10000 2.1 310 02:26 08.06.2020
1821 Clear 17 1014 29 10000 2.1 290 01:42 08.06.2020
1822 Clear 20 1014 20 10000 1.5 0 00:45 08.06.2020
1823 Clear 20 1014 20 10000 1.5 0 00:23 08.06.2020
1824 Clear 20 1014 22 10000 2.6 260 23:38 07.06.2020
1825 Clear 20 1014 22 10000 2.6 260 23:18 07.06.2020
1826 Clear 23 1014 16 10000 5.1 10 22:56 07.06.2020
1827 Clear 23 1014 16 10000 5.1 10 22:36 07.06.2020
1828 Clear 23 1014 16 10000 5.1 10 22:18 07.06.2020
1829 Clear 23 1015 16 10000 5.1 360 21:57 07.06.2020
1830 Clear 23 1015 16 10000 5.1 360 21:36 07.06.2020
1831 Clear 23 1015 16 10000 5.1 360 21:18 07.06.2020
1832 Clear 23 1015 16 10000 5.1 360 21:18 07.06.2020
1833 Clear 23 1015 15 10000 5.1 360 20:39 07.06.2020
1834 Clear 23 1015 15 10000 5.1 360 20:20 07.06.2020
1835 Clear 25 1014 12 10000 8.7 20 19:57 07.06.2020
1836 Clear 25 1014 12 10000 8.7 20 19:38 07.06.2020
1837 Clear 25 1014 12 10000 8.7 20 19:19 07.06.2020
1838 Clear 26 1013 10 10000 8.2 30 18:56 07.06.2020
1839 Clear 26 1013 10 10000 8.2 30 18:38 07.06.2020
1840 Clear 26 1013 10 10000 8.2 30 18:19 07.06.2020
1841 Clear 26 1013 10 10000 8.7 30 17:56 07.06.2020
1842 Clear 26 1013 10 10000 5.7 30 17:37 07.06.2020
1843 Clear 26 1013 10 10000 5.7 30 17:19 07.06.2020
1844 Clear 28 1013 10 10000 7.7 10 16:42 07.06.2020
1845 Clear 28 1013 10 10000 7.7 10 16:21 07.06.2020
1846 Clear 30 1012 9 10000 8.2 10 15:40 07.06.2020
1847 Clear 30 1012 9 10000 8.2 10 15:21 07.06.2020
1848 Clear 31 1013 9 10000 5.1 350 14:41 07.06.2020
1849 Clear 31 1013 9 10000 5.1 350 14:41 07.06.2020
1850 Clear 31 1013 9 10000 5.1 350 14:41 07.06.2020
1851 Clear 31 1013 9 10000 5.1 350 14:41 07.06.2020
1852 Clear 31 1013 9 10000 5.1 350 14:22 07.06.2020
1853 Clear 32 1013 8 10000 2.6 10 13:48 07.06.2020
1854 Clear 32 1014 7 10000 5.1 60 13:22 07.06.2020
1855 Clear 32 1014 7 10000 5.1 60 12:57 07.06.2020
1856 Clear 32 1014 7 10000 5.1 60 12:39 07.06.2020
1857 Clear 32 1014 7 10000 5.1 60 12:19 07.06.2020
1858 Clear 31 1015 8 10000 4.6 30 11:55 07.06.2020
1859 Clear 31 1015 8 10000 4.6 30 11:36 07.06.2020
1860 Clear 31 1015 8 10000 4.6 30 11:18 07.06.2020
1861 Clear 31 1015 9 10000 4.1 320 10:45 07.06.2020
1862 Clear 31 1015 9 10000 4.1 320 10:20 07.06.2020
1863 Clear 30 1016 9 10000 5.1 350 09:58 07.06.2020
1864 Clear 30 1016 9 10000 5.1 350 09:39 07.06.2020
1865 Clear 30 1016 9 10000 5.1 350 09:20 07.06.2020
1866 Clear 29 1016 12 10000 3.1 310 08:57 07.06.2020
1867 Clear 29 1016 12 10000 3.1 310 08:39 07.06.2020
1868 Clear 29 1016 12 10000 3.1 310 08:20 07.06.2020
1869 Clear 29 1012 14 10000 2.6 270 07:33 07.06.2020
1870 Clear 26 1016 15 10000 1.5 290 06:52 07.06.2020
1871 Clear 24 1016 19 10000 2.1 320 05:52 07.06.2020
1872 Clear 21 1016 28 10000 1.5 320 04:21 07.06.2020
1873 Clear 17 1015 33 10000 1.5 300 03:33 07.06.2020
1874 Clear 18 1015 27 10000 1.5 0 02:18 07.06.2020
1875 Clear 18 1015 27 10000 1.5 0 01:25 07.06.2020
1876 Clear 18 1015 27 10000 1.5 0 01:25 07.06.2020
1877 Clear 20 1015 20 10000 1.5 320 00:47 07.06.2020
1878 Clear 20 1015 20 10000 1.5 320 00:20 07.06.2020
1879 Clear 22 1015 18 10000 6.2 350 23:58 06.06.2020
1880 Clear 22 1015 18 10000 6.2 350 23:37 06.06.2020
1881 Clear 22 1015 18 10000 6.2 350 23:19 06.06.2020
1882 Clear 24 1015 16 10000 8.2 20 22:56 06.06.2020
1883 Clear 24 1015 16 10000 8.2 20 22:38 06.06.2020
1884 Clear 24 1015 16 10000 8.2 20 22:19 06.06.2020
1885 Clear 24 1016 17 10000 7.2 20 21:45 06.06.2020
1886 Clear 24 1016 17 10000 7.2 20 21:22 06.06.2020
1887 Clear 24 1016 17 10000 7.2 20 20:57 06.06.2020
1888 Clear 24 1016 17 10000 7.2 20 20:38 06.06.2020
1889 Clear 24 1016 17 10000 7.2 20 20:18 06.06.2020
1890 Clear 24 1016 17 10000 7.2 20 20:18 06.06.2020
1891 Clear 25 1016 16 10000 9.8 10 19:57 06.06.2020
1892 Clear 25 1016 16 10000 9.8 10 19:37 06.06.2020
1893 Clear 25 1016 16 10000 9.8 10 19:19 06.06.2020
1894 Clear 25 1015 16 10000 9.3 10 18:43 06.06.2020
1895 Clear 25 1015 16 10000 9.3 10 18:24 06.06.2020
1896 Clear 26 1015 14 10000 11.8 10 17:58 06.06.2020
1897 Clear 26 1015 14 10000 11.8 10 17:39 06.06.2020
1898 Clear 26 1015 14 10000 11.8 10 17:19 06.06.2020
1899 Clear 27 1014 14 10000 11.8 10 16:44 06.06.2020
1900 Clear 27 1014 14 10000 11.8 10 16:22 06.06.2020
1901 Clear 38 1014 7 10000 10.8 10 15:56 06.06.2020
1902 Clear 38 1014 7 10000 10.8 10 15:37 06.06.2020
1903 Clear 38 1014 7 10000 10.8 10 15:19 06.06.2020
1904 Clear 30 1014 12 10000 6.7 10 14:43 06.06.2020
1905 Clear 30 1014 12 10000 6.7 10 14:24 06.06.2020
1906 Clear 30 1014 12 10000 7.7 20 13:58 06.06.2020
1907 Clear 30 1014 12 10000 7.7 20 13:40 06.06.2020
1908 Clear 30 1014 12 10000 7.7 20 13:18 06.06.2020
1909 Clear 31 1014 11 10000 7.7 30 12:43 06.06.2020
1910 Clear 31 1014 11 10000 7.7 30 12:23 06.06.2020
1911 Clear 31 1015 12 10000 10.8 40 11:58 06.06.2020
1912 Clear 31 1015 12 10000 10.8 40 11:38 06.06.2020
1913 Clear 31 1015 12 10000 10.8 40 11:20 06.06.2020
1914 Clear 30 1015 12 10000 7.7 20 10:58 06.06.2020
1915 Clear 30 1015 12 10000 7.7 20 10:39 06.06.2020
1916 Clear 30 1015 12 10000 7.7 20 10:21 06.06.2020
1917 Clear 29 1015 14 10000 7.2 10 09:46 06.06.2020
1918 Clear 29 1015 14 10000 7.2 10 09:27 06.06.2020
1919 Clouds 29 1015 14 10000 7.7 10 08:58 06.06.2020
1920 Clouds 29 1015 14 10000 7.7 10 08:40 06.06.2020
1921 Clouds 29 1015 14 10000 7.7 10 08:19 06.06.2020
1922 Clouds 28 1016 15 10000 9.3 360 07:45 06.06.2020
1923 Clouds 28 1016 15 10000 9.3 360 07:45 06.06.2020
1924 Clouds 28 1016 15 10000 9.3 360 07:22 06.06.2020
1925 Clouds 28 1016 15 10000 7.2 360 06:46 06.06.2020
1926 Clouds 27 1016 15 10000 5.1 360 06:27 06.06.2020
1927 Clouds 26 1016 21 10000 1.5 0 05:53 06.06.2020
1928 Clouds 26 1016 21 10000 1.5 0 05:27 06.06.2020
1929 Clouds 26 1011 19 10000 4.6 330 04:42 06.06.2020
1930 Clear 18 1015 34 10000 2.1 0 02:45 06.06.2020
1931 Clear 19 1015 32 10000 2.1 220 01:45 06.06.2020
1932 Clear 19 1015 32 10000 2.1 220 01:18 06.06.2020
1933 Clear 21 1015 26 10000 1.5 0 00:43 06.06.2020
1934 Clear 21 1015 26 10000 1.5 0 00:25 06.06.2020
1935 Clear 23 1016 23 10000 4.6 10 23:40 05.06.2020
1936 Clear 23 1016 23 10000 4.6 10 23:21 05.06.2020
1937 Clear 24 1016 28 10000 7.2 360 22:59 05.06.2020
1938 Clear 24 1016 28 10000 7.2 360 22:41 05.06.2020
1939 Clear 24 1016 27 10000 7.2 360 22:23 05.06.2020
1940 Clear 24 1016 19 10000 5.1 10 21:58 05.06.2020
1941 Clear 24 1016 19 10000 5.1 10 21:40 05.06.2020
1942 Clear 24 1016 19 10000 5.1 10 21:19 05.06.2020
1943 Clear 24 1016 16 10000 5.1 360 20:56 05.06.2020
1944 Clear 24 1016 16 10000 5.1 360 20:37 05.06.2020
1945 Clear 24 1016 16 10000 5.1 360 20:19 05.06.2020
1946 Clear 25 1016 15 10000 7.2 10 19:40 05.06.2020
1947 Clear 25 1016 15 10000 7.2 10 19:22 05.06.2020
1948 Clear 26 1015 14 10000 9.3 10 18:54 05.06.2020
1949 Clear 26 1015 14 10000 9.3 10 18:36 05.06.2020
1950 Clear 26 1015 14 10000 9.3 10 18:18 05.06.2020
1951 Clear 26 1014 13 10000 8.7 10 17:55 05.06.2020
1952 Clear 26 1014 13 10000 8.7 10 17:37 05.06.2020
1953 Clear 26 1014 13 10000 8.7 10 17:18 05.06.2020
1954 Clear 27 1014 13 10000 7.7 10 16:37 05.06.2020
1955 Clear 27 1014 13 10000 7.7 10 16:19 05.06.2020
1956 Clear 28 1014 14 10000 9.8 360 15:40 05.06.2020
1957 Clear 28 1014 14 10000 9.8 360 15:21 05.06.2020
1958 Clear 29 1014 12 10000 11.8 10 14:58 05.06.2020
1959 Clear 29 1014 12 10000 11.8 10 14:39 05.06.2020
1960 Clear 29 1014 12 10000 11.8 10 14:39 05.06.2020
1961 Clear 29 1014 12 10000 11.8 10 14:21 05.06.2020
1962 Clear 30 1014 11 10000 13.9 10 13:47 05.06.2020
1963 Clear 30 1014 11 10000 13.9 10 13:28 05.06.2020
1964 Clear 30 1014 13 10000 11.8 10 12:57 05.06.2020
1965 Clear 30 1014 13 10000 11.8 10 12:38 05.06.2020
1966 Clear 30 1014 13 10000 11.8 10 12:19 05.06.2020
1967 Clear 30 1015 12 10000 11.3 10 11:43 05.06.2020
1968 Clear 30 1015 12 10000 11.3 10 11:24 05.06.2020
1969 Clear 30 1015 13 10000 12.9 360 10:58 05.06.2020
1970 Clear 30 1015 13 10000 12.9 360 10:39 05.06.2020
1971 Clear 30 1015 13 10000 12.9 360 10:39 05.06.2020
1972 Clear 30 1015 13 10000 12.9 360 10:19 05.06.2020
1973 Clear 30 1016 14 10000 10.3 10 09:57 05.06.2020
1974 Clear 30 1016 14 10000 10.3 10 09:37 05.06.2020
1975 Clear 30 1016 15 10000 10.3 10 09:19 05.06.2020
1976 Clear 29 1016 15 10000 10.8 10 08:57 05.06.2020
1977 Clear 29 1016 15 10000 10.8 10 08:38 05.06.2020
1978 Clear 29 1016 17 10000 10.8 10 08:18 05.06.2020
1979 Clear 28 1016 17 10000 10.3 10 07:48 05.06.2020
1980 Clear 28 1016 17 10000 10.3 10 07:30 05.06.2020
1981 Clear 27 1016 18 10000 10.3 360 06:37 05.06.2020
1982 Clear 25 1016 20 10000 5.1 360 05:22 05.06.2020
1983 Clear 22 1016 26 10000 2.1 0 04:27 05.06.2020
1984 Clear 18 1015 34 10000 1.5 0 03:29 05.06.2020
1985 Clear 18 1015 34 10000 1.5 0 02:28 05.06.2020
1986 Clear 18 1014 31 10000 2.1 290 01:58 05.06.2020
1987 Clear 18 1014 31 10000 2.1 290 01:30 05.06.2020
1988 Clear 19 1015 37 10000 1.5 330 00:43 05.06.2020
1989 Clear 19 1015 36 10000 1.5 330 00:21 05.06.2020
1990 Clear 22 1015 21 10000 5.1 360 23:47 04.06.2020
1991 Clear 22 1015 21 10000 5.1 360 23:29 04.06.2020
1992 Clear 22 1016 35 10000 3.6 20 22:57 04.06.2020
1993 Clear 22 1016 35 10000 3.6 20 22:37 04.06.2020
1994 Clear 22 1016 34 10000 3.6 20 22:18 04.06.2020
1995 Clear 23 1016 34 10000 8.2 20 21:56 04.06.2020
1996 Clear 23 1016 32 10000 8.2 20 21:38 04.06.2020
1997 Clear 23 1016 34 10000 8.2 20 21:38 04.06.2020
1998 Clear 23 1016 30 10000 8.2 20 21:19 04.06.2020
1999 Clear 24 1016 30 10000 6.2 20 20:55 04.06.2020
2000 Clear 24 1016 30 10000 6.2 20 20:36 04.06.2020
2001 Clear 24 1016 29 10000 6.2 20 20:18 04.06.2020
2002 Clear 27 1012 29 10000 7.7 340 19:40 04.06.2020
2003 Clear 25 1015 17 10000 8.7 20 19:21 04.06.2020
2004 Clear 25 1015 17 10000 8.7 20 18:56 04.06.2020
2005 Clear 25 1015 17 10000 8.7 20 18:38 04.06.2020
2006 Clear 25 1015 17 10000 8.7 20 18:20 04.06.2020
2007 Clear 26 1014 23 10000 7.7 20 17:42 04.06.2020
2008 Clear 26 1014 21 10000 7.7 20 17:21 04.06.2020
2009 Clouds 27 1014 18 10000 9.8 10 16:56 04.06.2020
2010 Clouds 27 1014 18 10000 9.8 10 16:38 04.06.2020
2011 Clouds 27 1014 18 10000 9.8 10 16:18 04.06.2020
2012 Clouds 28 1013 18 10000 7.7 20 15:43 04.06.2020
2013 Clouds 28 1013 18 10000 7.7 20 15:24 04.06.2020
2014 Clouds 29 1013 16 10000 8.7 10 14:41 04.06.2020
2015 Clouds 29 1013 16 10000 8.7 10 14:22 04.06.2020
2016 Clouds 30 1013 16 10000 7.7 350 13:56 04.06.2020
2017 Clouds 30 1013 16 10000 7.7 350 13:38 04.06.2020
2018 Clouds 30 1013 16 10000 7.7 350 13:20 04.06.2020
2019 Clouds 30 1014 16 10000 7.2 360 12:56 04.06.2020
2020 Clouds 30 1014 16 10000 7.2 360 12:38 04.06.2020
2021 Clouds 30 1014 16 10000 7.2 360 12:19 04.06.2020
2022 Clouds 29 1014 16 10000 8.2 10 11:41 04.06.2020
2023 Clouds 29 1014 16 10000 8.2 10 11:41 04.06.2020
2024 Clouds 29 1014 16 10000 8.2 10 11:20 04.06.2020
2025 Clouds 29 1015 18 10000 7.7 350 10:59 04.06.2020
2026 Clouds 29 1015 18 10000 7.7 350 10:39 04.06.2020
2027 Clouds 29 1015 18 10000 7.7 350 10:20 04.06.2020
2028 Clouds 28 1015 21 10000 5.1 360 09:46 04.06.2020
2029 Clouds 28 1015 21 10000 5.1 360 09:28 04.06.2020
2030 Clouds 27 1016 24 10000 3.1 330 08:57 04.06.2020
2031 Clouds 27 1016 24 10000 3.1 330 08:38 04.06.2020
2032 Clouds 27 1016 24 10000 3.1 330 08:20 04.06.2020
2033 Clouds 25 1016 29 9000 1.5 0 07:31 04.06.2020
2034 Clouds 23 1016 38 8000 1.5 0 06:47 04.06.2020
2035 Clouds 23 1016 38 8000 1.5 0 06:27 04.06.2020
2036 Clouds 22 1016 43 10000 1.5 0 05:52 04.06.2020
2037 Clouds 22 1016 43 10000 1.5 0 05:31 04.06.2020
2038 Clear 16 1016 63 10000 1.5 0 03:34 04.06.2020
2039 Clear 15 1015 67 10000 1.5 0 02:19 04.06.2020
2040 Clear 15 1015 67 10000 1.5 0 01:21 04.06.2020
2041 Clear 16 1015 63 10000 1.5 0 00:59 04.06.2020
2042 Clear 16 1016 63 10000 1.5 0 23:58 03.06.2020
2043 Clear 16 1016 63 10000 1.5 0 23:36 03.06.2020
2044 Clear 16 1016 63 10000 1.5 0 23:18 03.06.2020
2045 Clear 18 1016 55 10000 2.6 140 22:40 03.06.2020
2046 Clear 18 1016 55 10000 2.6 140 22:19 03.06.2020
2047 Clear 18 1016 55 10000 1 310 21:59 03.06.2020
2048 Clear 18 1016 55 10000 1 310 21:41 03.06.2020
2049 Clear 18 1016 55 10000 1 310 21:22 03.06.2020
2050 Clear 23 1013 38 10000 4.1 70 20:58 03.06.2020
2051 Clear 23 1013 38 10000 4.1 70 20:40 03.06.2020
2052 Clouds 20 1016 45 10000 3.6 130 20:20 03.06.2020
2053 Clouds 20 1016 45 10000 3.6 130 19:57 03.06.2020
2054 Clear 24 1012 33 10000 5.1 80 19:38 03.06.2020
2055 Clouds 21 1016 43 10000 4.1 140 19:19 03.06.2020
2056 Clouds 21 1016 43 10000 4.1 140 18:56 03.06.2020
2057 Clouds 21 1016 43 10000 4.1 140 18:38 03.06.2020
2058 Clouds 21 1016 43 10000 4.1 140 18:18 03.06.2020
2059 Clouds 22 1014 40 10000 3.1 140 17:42 03.06.2020
2060 Clouds 22 1014 40 10000 3.1 140 17:22 03.06.2020
2061 Clouds 24 1014 33 10000 5.1 120 16:56 03.06.2020
2062 Clouds 24 1014 33 10000 5.1 120 16:38 03.06.2020
2063 Clouds 24 1014 33 10000 5.1 120 16:18 03.06.2020
2064 Clouds 24 1014 33 10000 5.1 120 16:18 03.06.2020
2065 Clouds 25 1014 33 10000 6.2 150 15:41 03.06.2020
2066 Clouds 25 1014 33 10000 6.2 150 15:21 03.06.2020
2067 Clouds 25 1014 29 10000 6.2 120 14:57 03.06.2020
2068 Clouds 25 1014 29 10000 6.2 120 14:38 03.06.2020
2069 Clouds 25 1014 29 10000 6.2 120 14:20 03.06.2020
2070 Clouds 26 1014 27 10000 5.1 120 13:38 03.06.2020
2071 Clouds 26 1014 27 10000 5.1 120 13:19 03.06.2020
2072 Clouds 27 1014 24 10000 3.6 150 12:43 03.06.2020
2073 Clouds 27 1014 24 10000 3.6 150 12:22 03.06.2020
2074 Clouds 28 1014 17 10000 4.1 90 11:57 03.06.2020
2075 Clouds 28 1014 17 10000 4.1 90 11:38 03.06.2020
2076 Clouds 28 1014 17 10000 4.1 90 11:20 03.06.2020
2077 Clear 26 1011 17 0 2.67 49 10:41 03.06.2020
2078 Clear 25 1011 18 0 2.3 55 10:22 03.06.2020
2079 Clouds 26 1015 19 10000 3.6 30 09:45 03.06.2020
2080 Clouds 26 1015 19 10000 3.6 30 09:20 03.06.2020
2081 Clear 26 1016 19 10000 3.6 40 08:58 03.06.2020
2082 Clear 26 1016 19 10000 3.6 40 08:58 03.06.2020
2083 Clear 26 1016 19 10000 3.6 40 08:58 03.06.2020
2084 -273 0 0 0 0 0 08:58 03.06.2020
2085 Clear 26 1016 19 10000 3.6 40 08:58 03.06.2020
2086 Clear 26 1016 19 10000 3.6 40 08:40 03.06.2020
2087 Clear 26 1016 20 10000 3.6 40 08:19 03.06.2020
2088 Clear 24 1016 29 10000 1.5 0 07:42 03.06.2020
2089 Clear 24 1016 29 10000 1.5 0 07:20 03.06.2020
2090 Clear 22 1016 35 10000 2.6 160 06:52 03.06.2020
2091 Clear 22 1016 35 10000 2.6 160 06:30 03.06.2020
2092 Clear 20 1016 49 10000 3.1 140 05:47 03.06.2020
2093 Clear 18 1016 42 10000 1.5 0 04:56 03.06.2020
2094 Clear 14 1015 44 10000 1.5 0 03:50 03.06.2020
2095 Clear 17 1015 33 10000 1.5 0 02:57 03.06.2020
2096 Clear 17 1015 46 10000 1.5 0 01:52 03.06.2020
2097 Clear 16 1015 46 10000 1.5 0 00:43 03.06.2020
2098 Clear 16 1015 47 10000 1.5 0 00:25 03.06.2020
2099 Clear 16 1015 47 10000 1.5 0 23:51 02.06.2020
2100 Clear 19 1016 24 10000 1.5 0 23:28 02.06.2020
2101 Clear 22 1016 18 10000 5.1 20 22:57 02.06.2020
2102 Clear 22 1016 18 10000 5.1 20 22:38 02.06.2020
2103 Clear 22 1016 18 10000 5.1 20 22:19 02.06.2020
2104 Clear 22 1017 18 10000 5.1 30 21:56 02.06.2020
2105 Clear 22 1017 18 10000 5.1 30 21:37 02.06.2020
2106 Clear 22 1017 18 10000 5.1 30 21:19 02.06.2020
2107 Clear 22 1017 19 10000 7.2 30 20:55 02.06.2020
2108 Clear 22 1017 19 10000 7.2 30 20:36 02.06.2020
2109 Clear 22 1017 19 10000 7.2 30 20:18 02.06.2020
2110 Clear 22 1017 19 10000 6.7 30 19:42 02.06.2020
2111 Clear 22 1017 19 10000 6.7 30 19:24 02.06.2020
2112 Clear 23 1016 17 10000 7.2 30 18:57 02.06.2020
2113 Clear 23 1016 17 10000 7.2 30 18:39 02.06.2020
2114 Clear 23 1016 17 10000 7.2 30 18:20 02.06.2020
2115 Clear 23 1015 17 10000 8.2 20 17:55 02.06.2020
2116 Clear 23 1015 17 10000 8.2 20 17:37 02.06.2020
2117 Clear 23 1015 17 10000 8.2 20 17:18 02.06.2020
2118 Clear 24 1015 17 10000 7.2 40 16:40 02.06.2020
2119 Clear 24 1015 17 10000 7.2 40 16:21 02.06.2020
2120 Clear 25 1014 17 10000 7.2 40 15:58 02.06.2020
2121 Clear 25 1014 17 10000 7.2 40 15:38 02.06.2020
2122 Clouds 25 1014 17 10000 7.2 40 15:20 02.06.2020
2123 Clouds 27 1015 14 10000 5.1 20 14:45 02.06.2020
2124 Clouds 27 1015 14 10000 5.1 20 14:27 02.06.2020
2125 Clouds 28 1015 15 10000 5.1 40 13:55 02.06.2020
2126 Clouds 28 1015 15 10000 5.1 40 13:36 02.06.2020
2127 Clouds 28 1015 15 10000 5.1 40 13:18 02.06.2020
2128 Clouds 28 1015 15 10000 5.1 360 12:40 02.06.2020
2129 Clouds 28 1015 15 10000 5.1 360 12:22 02.06.2020
2130 Clouds 28 1016 15 10000 5.1 360 11:59 02.06.2020
2131 Clouds 28 1016 15 10000 5.1 360 11:40 02.06.2020
2132 Clouds 28 1016 15 10000 5.1 360 11:20 02.06.2020
2133 Clouds 27 1016 15 10000 5.1 10 10:50 02.06.2020
2134 Clouds 27 1016 15 10000 5.1 10 10:29 02.06.2020
2135 Clouds 26 1017 15 10000 5.1 350 09:59 02.06.2020
2136 Clouds 26 1017 15 10000 5.1 350 09:40 02.06.2020
2137 Clouds 26 1017 15 10000 5.1 350 09:20 02.06.2020
2138 Clear 26 1017 15 10000 6.2 350 08:53 02.06.2020
2139 Clear 26 1017 15 10000 6.2 350 08:27 02.06.2020
2140 Clear 25 1017 16 10000 3.6 360 07:54 02.06.2020
2141 Clear 25 1017 16 10000 3.6 360 07:30 02.06.2020
2142 Clear 24 1017 19 10000 1.5 270 06:51 02.06.2020
2143 Clear 24 1017 19 10000 1.5 270 06:31 02.06.2020
2144 Clear 22 1017 25 10000 1.5 0 05:27 02.06.2020
2145 Clear 15 1017 38 10000 1 0 03:53 02.06.2020
2146 Clouds 20 1013 19 10000 4.6 320 02:30 02.06.2020
2147 Clear 17 1017 29 10000 1.5 0 01:34 02.06.2020
2148 Clear 18 1017 25 10000 1.5 30 00:26 02.06.2020
2149 Clear 19 1017 24 10000 3.1 360 23:59 01.06.2020
2150 Clear 19 1017 24 10000 3.1 360 23:38 01.06.2020
2151 Clear 19 1017 24 10000 3.1 360 23:18 01.06.2020
2152 Clear 21 1018 21 10000 5.1 10 22:56 01.06.2020
2153 Clear 21 1018 21 10000 5.1 10 22:37 01.06.2020
2154 Clear 21 1018 21 10000 5.1 10 22:18 01.06.2020
2155 Clear 22 1018 19 10000 5.1 30 21:41 01.06.2020
2156 Clear 22 1018 19 10000 5.1 30 21:20 01.06.2020
2157 Clear 22 1018 19 10000 6.7 30 20:58 01.06.2020
2158 Clear 22 1018 19 10000 6.7 30 20:40 01.06.2020
2159 Clear 22 1018 19 10000 6.7 30 20:19 01.06.2020
2160 Clear 22 1018 18 10000 5.1 20 19:56 01.06.2020
2161 Clear 22 1018 18 10000 5.1 20 19:38 01.06.2020
2162 Clear 22 1018 18 10000 5.1 20 19:19 01.06.2020
2163 Clear 23 1017 17 10000 9.3 30 18:55 01.06.2020
2164 Clear 23 1017 17 10000 9.3 30 18:37 01.06.2020
2165 Clear 23 1017 17 10000 9.3 30 18:18 01.06.2020
2166 Clear 24 1017 15 10000 6.2 20 17:41 01.06.2020
2167 Clear 24 1017 15 10000 6.2 20 17:20 01.06.2020
2168 Clear 25 1016 13 10000 5.1 10 16:42 01.06.2020
2169 Clear 25 1016 13 10000 5.1 10 16:42 01.06.2020
2170 Clouds 25 1016 13 10000 5.1 10 16:24 01.06.2020
2171 Clouds 26 1016 11 10000 4.1 30 15:59 01.06.2020
2172 Clouds 26 1016 11 10000 4.1 30 15:40 01.06.2020
2173 Clouds 26 1016 11 10000 4.1 30 15:21 01.06.2020
2174 Clouds 27 1016 10 10000 7.2 360 14:58 01.06.2020
2175 Clouds 27 1016 10 10000 7.2 360 14:40 01.06.2020
2176 Clear 27 1016 10 10000 7.2 360 14:21 01.06.2020
2177 Clear 27 1016 10 10000 7.2 360 13:55 01.06.2020
2178 Clear 27 1016 10 10000 7.2 360 13:37 01.06.2020
2179 Clear 27 1016 10 10000 7.2 360 13:37 01.06.2020
2180 Clear 27 1016 10 10000 7.2 360 13:18 01.06.2020
2181 Clear 27 1016 10 10000 7.2 360 13:18 01.06.2020
2182 Clear 28 1017 9 10000 5.1 60 12:54 01.06.2020
2183 Clear 28 1017 9 10000 5.1 60 12:36 01.06.2020
2184 Clear 28 1017 9 10000 5.1 60 12:18 01.06.2020
2185 Clear 28 1017 10 10000 4.1 60 11:39 01.06.2020
2186 Clear 28 1017 10 10000 4.1 60 11:21 01.06.2020
2187 Clear 27 1018 10 10000 6.2 10 10:57 01.06.2020
2188 Clear 27 1018 10 10000 6.2 10 10:37 01.06.2020
2189 Clear 27 1018 10 10000 6.2 10 10:18 01.06.2020
2190 Clear 27 1018 11 10000 3.1 340 09:46 01.06.2020
2191 Clear 27 1018 11 10000 3.1 340 09:27 01.06.2020
2192 Clear 27 1019 12 10000 5.1 330 08:59 01.06.2020
2193 Clear 27 1019 12 10000 5.1 330 08:40 01.06.2020
2194 Clear 27 1019 12 10000 5.1 330 08:22 01.06.2020
2195 Clear 24 1019 14 10000 4.6 20 07:42 01.06.2020
2196 Clear 24 1019 14 10000 4.6 20 07:24 01.06.2020
2197 Clouds 27 1015 12 10000 5.7 320 06:51 01.06.2020
2198 Clear 22 1019 18 10000 2.6 0 05:58 01.06.2020
2199 Clear 22 1019 18 10000 2.6 0 05:22 01.06.2020
2200 Clear 19 1018 25 10000 1.5 0 04:18 01.06.2020
2201 Clear 16 1018 31 10000 1.5 340 03:42 01.06.2020
2202 Clear 17 1018 27 10000 1.5 0 02:57 01.06.2020
2203 Clear 17 1017 25 10000 2.6 320 01:40 01.06.2020
2204 Clear 17 1017 25 10000 2.6 320 01:18 01.06.2020
2205 Clear 20 1017 19 10000 5.1 350 00:56 01.06.2020
2206 Clear 20 1017 19 10000 5.1 350 00:37 01.06.2020
2207 Clear 20 1017 19 10000 5.1 350 00:19 01.06.2020
2208 Clear 20 1018 18 10000 5.1 50 23:41 31.05.2020
2209 Clear 20 1018 18 10000 5.1 50 23:22 31.05.2020
2210 Clear 21 1018 16 10000 6.2 50 22:59 31.05.2020
2211 Clear 21 1018 16 10000 6.2 50 22:41 31.05.2020
2212 Clear 21 1018 16 10000 6.2 50 22:41 31.05.2020
2213 Clear 21 1018 16 10000 6.2 50 22:22 31.05.2020
2214 Clear 22 1018 15 10000 5.1 30 21:57 31.05.2020
2215 Clear 22 1018 15 10000 5.1 30 21:39 31.05.2020
2216 Clear 22 1018 15 10000 5.1 30 21:20 31.05.2020
2217 Clear 22 1018 15 10000 6.2 40 20:45 31.05.2020
2218 Clear 22 1018 15 10000 6.2 40 20:25 31.05.2020
2219 Clear 22 1017 15 10000 5.1 30 19:56 31.05.2020
2220 Clear 22 1017 15 10000 5.1 30 19:38 31.05.2020
2221 Clear 22 1017 15 10000 5.1 30 19:20 31.05.2020
2222 Clear 24 1016 14 10000 7.7 30 18:45 31.05.2020
2223 Clear 24 1016 14 10000 7.7 30 18:25 31.05.2020
2224 Clear 24 1016 14 10000 5.1 50 17:59 31.05.2020
2225 Clear 24 1016 14 10000 5.1 50 17:40 31.05.2020
2226 Clear 24 1016 14 10000 5.1 50 17:21 31.05.2020
2227 Clear 25 1016 13 10000 5.1 30 16:41 31.05.2020
2228 Clear 25 1016 13 10000 5.1 30 16:21 31.05.2020
2229 Clouds 27 1015 13 10000 7.7 360 15:56 31.05.2020
2230 Clouds 27 1015 13 10000 7.7 360 15:37 31.05.2020
2231 Clouds 27 1015 13 10000 7.7 360 15:18 31.05.2020
2232 Clouds 28 1015 14 10000 6.7 360 14:41 31.05.2020
2233 Clouds 28 1015 14 10000 6.7 360 14:19 31.05.2020
2234 Clear 29 1015 13 10000 5.1 350 13:55 31.05.2020
2235 Clear 29 1015 13 10000 5.1 350 13:37 31.05.2020
2236 Clear 29 1015 13 10000 5.1 350 13:19 31.05.2020
2237 Clear 28 1015 14 10000 5.1 360 12:46 31.05.2020
2238 Clear 28 1015 14 10000 5.1 360 12:24 31.05.2020
2239 Clear 28 1016 15 10000 4.6 360 11:56 31.05.2020
2240 Clear 28 1016 15 10000 4.6 360 11:38 31.05.2020
2241 Clear 28 1016 15 10000 4.6 360 11:19 31.05.2020
2242 Clear 27 1016 14 10000 4.1 10 10:44 31.05.2020
2243 Clear 27 1016 14 10000 4.1 10 10:44 31.05.2020
2244 Clear 27 1016 14 10000 4.1 10 10:26 31.05.2020
2245 Clear 27 1017 13 10000 5.1 360 09:58 31.05.2020
2246 Clear 27 1017 13 10000 5.1 360 09:40 31.05.2020
2247 Clear 27 1017 13 10000 5.1 360 09:20 31.05.2020
2248 Clear 26 1017 15 10000 5.7 320 08:43 31.05.2020
2249 Clear 26 1017 15 10000 5.7 320 08:24 31.05.2020
2250 Clear 25 1018 17 10000 5.1 330 07:50 31.05.2020
2251 Clear 25 1018 17 10000 5.1 330 07:22 31.05.2020
2252 Clear 24 1018 19 10000 3.1 320 06:57 31.05.2020
2253 Clear 24 1018 19 10000 3.1 320 06:35 31.05.2020
2254 Clear 23 1018 20 10000 1.5 0 05:49 31.05.2020
2255 Clear 23 1018 20 10000 1.5 0 05:31 31.05.2020
2256 Clear 20 1018 30 10000 1.5 0 04:18 31.05.2020
2257 Clear 16 1017 36 10000 1.5 0 03:39 31.05.2020
2258 Clouds 21 1013 21 10000 4.6 330 02:47 31.05.2020
2259 Clear 19 1016 24 10000 3.1 350 01:46 31.05.2020
2260 Clear 23 1013 18 10000 5.1 320 00:41 31.05.2020
2261 Clear 20 1016 22 10000 5.1 30 00:23 31.05.2020
2262 Clear 20 1016 22 10000 5.1 30 23:42 30.05.2020
2263 Clear 20 1016 22 10000 5.1 30 23:23 30.05.2020
2264 Clear 21 1016 19 10000 6.2 30 22:56 30.05.2020
2265 Clear 21 1016 19 10000 6.2 30 22:37 30.05.2020
2266 Clear 21 1016 19 10000 6.2 30 22:19 30.05.2020
2267 Clear 22 1016 18 10000 6.7 40 21:42 30.05.2020
2268 Clear 22 1016 18 10000 6.7 40 21:22 30.05.2020
2269 Clear 22 1016 19 10000 8.7 10 20:57 30.05.2020
2270 Clear 22 1016 19 10000 8.7 10 20:39 30.05.2020
2271 Clear 22 1016 19 10000 8.7 10 20:21 30.05.2020
2272 Clear 23 1016 20 10000 8.7 30 19:55 30.05.2020
2273 Clear 23 1016 20 10000 8.7 30 19:37 30.05.2020
2274 Clear 23 1016 20 10000 8.7 30 19:18 30.05.2020
2275 Clear 23 1015 18 10000 6.2 20 18:43 30.05.2020
2276 Clear 23 1015 18 10000 6.2 20 18:19 30.05.2020
2277 Clear 24 1015 17 10000 6.7 40 17:42 30.05.2020
2278 Clear 24 1015 17 10000 6.7 40 17:24 30.05.2020
2279 Clear 25 1015 16 10000 6.7 40 16:58 30.05.2020
2280 Clear 25 1015 16 10000 6.7 40 16:38 30.05.2020
2281 Clear 25 1015 16 10000 6.7 40 16:20 30.05.2020
2282 Clear 26 1014 16 10000 5.1 40 15:42 30.05.2020
2283 Clear 26 1014 16 10000 5.1 40 15:24 30.05.2020
2284 Clear 26 1014 16 10000 5.1 40 15:24 30.05.2020
2285 Clear 27 1014 15 10000 6.2 20 14:43 30.05.2020
2286 Clear 27 1014 15 10000 6.2 20 14:24 30.05.2020
2287 Clouds 28 1014 14 10000 7.7 360 13:44 30.05.2020
2288 Clear 28 1014 14 10000 7.7 360 13:24 30.05.2020
2289 Clear 29 1015 16 10000 5.1 350 12:42 30.05.2020
2290 Clear 29 1015 17 10000 5.1 350 12:21 30.05.2020
2291 Clear 28 1015 17 10000 5.7 360 11:58 30.05.2020
2292 Clear 28 1015 17 10000 5.7 360 11:39 30.05.2020
2293 Clear 28 1015 17 10000 5.7 360 11:21 30.05.2020
2294 Clear 27 1016 18 10000 6.2 350 10:41 30.05.2020
2295 Clear 27 1017 19 10000 5.1 20 10:21 30.05.2020
2296 Clear 27 1017 19 10000 5.1 20 09:50 30.05.2020
2297 Clear 27 1017 19 10000 5.1 20 09:31 30.05.2020
2298 Clear 25 1017 23 10000 4.1 360 08:51 30.05.2020
2299 Clear 25 1017 23 10000 4.1 360 08:33 30.05.2020
2300 Clouds 24 1018 27 10000 1 0 07:49 30.05.2020
2301 Clouds 24 1018 27 10000 1 0 07:25 30.05.2020
2302 Clouds 23 1018 35 10000 2.1 160 06:52 30.05.2020
2303 Clouds 23 1018 35 10000 2.1 160 06:23 30.05.2020
2304 Clouds 20 1017 49 10000 2.1 140 05:49 30.05.2020
2305 Clouds 15 1016 54 10000 1.5 0 03:46 30.05.2020
2306 Clouds 15 1016 51 10000 1 0 02:30 30.05.2020
2307 Clouds 14 1015 50 10000 1 0 01:49 30.05.2020
2308 Clouds 18 1015 36 10000 1.5 340 00:38 30.05.2020
2309 Clouds 18 1015 36 10000 1.5 340 00:19 30.05.2020
2310 Clouds 18 1015 36 10000 1.5 340 23:57 29.05.2020
2311 Clouds 18 1015 36 10000 1.5 0 23:38 29.05.2020
2312 Clouds 18 1015 36 10000 1.5 0 23:18 29.05.2020
2313 Clouds 18 1015 36 10000 1.5 0 22:41 29.05.2020
2314 Clouds 18 1016 34 10000 1 0 22:20 29.05.2020
2315 Clouds 20 1016 30 10000 1.5 0 21:58 29.05.2020
2316 Clouds 20 1016 30 10000 1.5 0 21:39 29.05.2020
2317 Clouds 20 1016 30 10000 1.5 0 21:20 29.05.2020
2318 Clouds 20 1016 28 10000 0.5 0 20:45 29.05.2020
2319 Clouds 20 1016 28 10000 0.5 0 20:21 29.05.2020
2320 Clouds 21 1017 26 10000 4.6 20 19:59 29.05.2020
2321 Clouds 21 1017 26 10000 4.6 20 19:59 29.05.2020
2322 Clouds 21 1017 26 10000 4.6 20 19:41 29.05.2020
2323 Clear 21 1017 26 10000 4.6 20 19:23 29.05.2020
2324 Clear 21 1016 26 10000 3.6 70 18:47 29.05.2020
2325 Clear 21 1016 26 10000 3.6 70 18:47 29.05.2020
2326 Clear 21 1016 26 10000 3.6 70 18:20 29.05.2020
2327 Clouds 23 1015 23 10000 6.2 50 17:57 29.05.2020
2328 Clouds 23 1015 23 10000 6.2 50 17:38 29.05.2020
2329 Clouds 23 1015 23 10000 6.2 50 17:19 29.05.2020
2330 Clouds 23 1015 27 10000 6.7 70 16:44 29.05.2020
2331 Clouds 23 1015 27 10000 6.7 70 16:25 29.05.2020
2332 Dust 25 1015 25 8000 8.7 60 15:57 29.05.2020
2333 Dust 25 1015 25 8000 8.7 60 15:38 29.05.2020
2334 Dust 25 1015 25 8000 8.7 60 15:19 29.05.2020
2335 Dust 26 1014 21 5000 8.7 20 14:50 29.05.2020
2336 Dust 26 1014 21 5000 8.7 20 14:23 29.05.2020
2337 Dust 28 1013 20 5000 10.3 360 13:58 29.05.2020
2338 Dust 28 1013 20 5000 10.3 360 13:58 29.05.2020
2339 Dust 28 1013 20 5000 10.3 360 13:39 29.05.2020
2340 Clouds 29 1013 18 10000 7.7 360 13:18 29.05.2020
2341 Clouds 30 1013 16 10000 6.7 10 12:44 29.05.2020
2342 Clouds 30 1013 16 10000 6.7 10 12:25 29.05.2020
2343 Clouds 30 1014 16 10000 4.1 330 11:46 29.05.2020
2344 Clouds 30 1014 16 10000 4.1 330 11:27 29.05.2020
2345 Clouds 29 1015 16 10000 4.1 50 10:58 29.05.2020
2346 Clouds 29 1015 16 10000 4.1 50 10:38 29.05.2020
2347 Clouds 29 1015 16 10000 4.1 50 10:20 29.05.2020
2348 Clouds 28 1015 18 10000 6.2 20 09:45 29.05.2020
2349 Clouds 28 1015 18 10000 6.2 20 09:21 29.05.2020
2350 Clouds 27 1016 22 10000 3.1 40 08:57 29.05.2020
2351 Clouds 27 1016 22 10000 3.1 40 08:39 29.05.2020
2352 Clouds 27 1016 22 10000 3.1 40 08:20 29.05.2020
2353 Clouds 26 1016 26 10000 3.1 20 07:44 29.05.2020
2354 Clouds 26 1016 26 10000 3.1 20 07:26 29.05.2020
2355 Clouds 24 1016 29 10000 1 0 06:49 29.05.2020
2356 Clouds 24 1016 29 10000 1 0 06:28 29.05.2020
2357 Clouds 23 1016 33 10000 1.5 0 05:53 29.05.2020
2358 Clouds 17 1015 48 10000 1.5 320 03:44 29.05.2020
2359 Clear 17 1015 48 10000 1.5 280 01:46 29.05.2020
2360 Clear 17 1015 48 10000 1.5 280 01:23 29.05.2020
2361 Clear 20 1015 37 10000 1.5 250 00:47 29.05.2020
2362 Clear 20 1015 37 10000 1.5 250 00:22 29.05.2020
2363 Clear 20 1015 34 10000 1.5 0 23:40 28.05.2020
2364 Clear 20 1015 34 10000 1.5 0 23:19 28.05.2020
2365 Clear 20 1015 32 10000 1.5 340 22:45 28.05.2020
2366 Clear 20 1015 32 10000 1.5 340 22:45 28.05.2020
2367 Clear 20 1015 32 10000 1.5 340 22:45 28.05.2020
2368 Rain 20 1015 32 10000 1.5 340 22:27 28.05.2020
2369 Rain 21 1015 30 10000 5.1 350 21:59 28.05.2020
2370 Rain 21 1015 30 10000 5.1 350 21:40 28.05.2020
2371 Clouds 21 1015 30 10000 5.1 350 21:20 28.05.2020
2372 Clouds 22 1015 28 10000 7.2 350 20:58 28.05.2020
2373 Clouds 22 1015 28 10000 7.2 350 20:39 28.05.2020
2374 Clouds 22 1015 28 10000 7.2 350 20:19 28.05.2020
2375 Clouds 22 1015 30 10000 6.2 10 19:57 28.05.2020
2376 Clouds 22 1015 30 10000 6.2 10 19:57 28.05.2020
2377 Clouds 22 1015 30 10000 6.2 10 19:39 28.05.2020
2378 Clouds 22 1015 30 10000 6.2 10 19:20 28.05.2020
2379 Clouds 23 1014 28 10000 7.2 10 18:43 28.05.2020
2380 Clouds 23 1014 28 10000 7.2 10 18:25 28.05.2020
2381 Clouds 24 1014 27 10000 4.6 20 17:57 28.05.2020
2382 Clouds 24 1014 27 10000 4.6 20 17:39 28.05.2020
2383 Clouds 24 1014 27 10000 4.6 20 17:19 28.05.2020
2384 Clouds 26 1013 22 10000 7.7 10 16:45 28.05.2020
2385 Clouds 26 1013 22 10000 7.7 10 16:21 28.05.2020
2386 Clouds 27 1013 22 10000 7.7 350 15:47 28.05.2020
2387 Clouds 27 1013 22 10000 7.7 350 15:25 28.05.2020
2388 Clouds 29 1012 20 10000 7.2 330 14:59 28.05.2020
2389 Clouds 29 1012 20 10000 7.2 330 14:40 28.05.2020
2390 Clouds 29 1012 20 10000 7.2 330 14:22 28.05.2020
2391 Clouds 29 1012 20 10000 7.2 330 14:22 28.05.2020
2392 Clouds 30 1012 16 10000 6.2 360 13:45 28.05.2020
2393 Clouds 30 1012 16 10000 6.2 360 13:27 28.05.2020
2394 Clouds 30 1012 15 10000 4.1 10 12:43 28.05.2020
2395 Clouds 30 1012 15 10000 4.1 10 12:20 28.05.2020
2396 Clouds 30 1013 17 10000 5.1 30 11:54 28.05.2020
2397 Clouds 30 1013 17 10000 5.1 30 11:36 28.05.2020
2398 Clouds 30 1013 17 10000 5.1 30 11:36 28.05.2020
2399 Clouds 30 1013 17 10000 5.1 30 11:18 28.05.2020
2400 Clouds 29 1014 18 10000 4.1 10 10:42 28.05.2020
2401 Clouds 29 1014 18 10000 4.1 10 10:24 28.05.2020
2402 Clouds 29 1015 21 10000 3.1 290 09:41 28.05.2020
2403 Clouds 29 1015 21 10000 3.1 290 09:22 28.05.2020
2404 Clouds 27 1015 22 10000 4.1 350 08:57 28.05.2020
2405 Clouds 27 1015 22 10000 4.1 350 08:39 28.05.2020
2406 Clouds 27 1015 22 10000 4.1 350 08:20 28.05.2020
2407 Clear 25 1016 23 10000 1.5 190 07:41 28.05.2020
2408 Clear 25 1016 23 10000 1.5 190 07:23 28.05.2020
2409 Clear 26 1016 22 10000 1 0 06:44 28.05.2020
2410 Clear 26 1016 22 10000 1 0 06:26 28.05.2020
2411 Clear 23 1016 28 10000 2.1 320 05:38 28.05.2020
2412 Clear 20 1016 37 10000 1.5 320 04:36 28.05.2020
2413 Clear 17 1015 45 10000 2.1 340 03:53 28.05.2020
2414 Clear 16 1015 44 10000 1.5 290 02:55 28.05.2020
2415 Clear 18 1015 39 10000 1 0 01:57 28.05.2020
2416 Clear 18 1015 39 10000 1 0 01:35 28.05.2020
2417 Clear 18 1016 36 10000 1.5 320 00:47 28.05.2020
2418 Clear 18 1016 36 10000 1.5 320 00:19 28.05.2020
2419 Clear 19 1016 34 10000 1.5 320 23:55 27.05.2020
2420 Clear 19 1016 34 10000 1.5 320 23:36 27.05.2020
2421 Clear 19 1016 34 10000 1.5 320 23:18 27.05.2020
2422 Clear 20 1016 30 10000 1 0 22:41 27.05.2020
2423 Clear 20 1016 30 10000 1 0 22:22 27.05.2020
2424 Clear 21 1016 28 10000 6.2 360 21:56 27.05.2020
2425 Clear 21 1016 28 10000 6.2 360 21:37 27.05.2020
2426 Clear 21 1016 28 10000 6.2 360 21:19 27.05.2020
2427 Clear 23 1016 23 10000 9.8 20 20:56 27.05.2020
2428 Clear 23 1016 23 10000 9.8 20 20:36 27.05.2020
2429 Clear 23 1016 23 10000 9.8 20 20:18 27.05.2020
2430 Clear 23 1016 25 10000 10.8 20 19:42 27.05.2020
2431 Clear 23 1016 25 10000 10.8 20 19:20 27.05.2020
2432 Clear 23 1016 25 10000 9.8 20 18:44 27.05.2020
2433 Clear 23 1016 25 10000 9.8 20 18:20 27.05.2020
2434 Clear 24 1015 22 10000 8.2 30 17:58 27.05.2020
2435 Clear 24 1015 22 10000 8.2 30 17:39 27.05.2020
2436 Clear 24 1015 22 10000 8.2 30 17:21 27.05.2020
2437 Clear 26 1015 19 10000 7.7 20 16:56 27.05.2020
2438 Clear 26 1015 19 10000 7.7 20 16:38 27.05.2020
2439 Clear 26 1015 19 10000 7.7 20 16:19 27.05.2020
2440 Clear 27 1014 18 10000 7.7 20 15:47 27.05.2020
2441 Clear 27 1014 18 10000 7.7 20 15:22 27.05.2020
2442 Clouds 28 1014 20 10000 6.7 10 14:46 27.05.2020
2443 Clouds 28 1014 20 10000 6.7 10 14:46 27.05.2020
2444 Clouds 28 1014 17 10000 6.7 10 14:22 27.05.2020
2445 Clouds 29 1015 16 10000 7.2 360 13:58 27.05.2020
2446 Clouds 29 1015 16 10000 7.2 360 13:39 27.05.2020
2447 Clouds 29 1015 16 10000 7.2 360 13:21 27.05.2020
2448 Clouds 29 1015 16 10000 6.7 360 12:42 27.05.2020
2449 Clouds 29 1015 16 10000 6.7 360 12:23 27.05.2020
2450 Clouds 29 1016 16 10000 5.1 350 11:55 27.05.2020
2451 Clouds 29 1016 16 10000 5.1 350 11:36 27.05.2020
2452 Clouds 29 1016 16 10000 5.1 350 11:18 27.05.2020
2453 Clouds 29 1017 16 10000 6.2 350 10:43 27.05.2020
2454 Clouds 29 1017 16 10000 6.2 350 10:24 27.05.2020
2455 Clear 29 1017 14 10000 5.1 330 09:56 27.05.2020
2456 Clear 29 1017 14 10000 5.1 330 09:38 27.05.2020
2457 Clear 29 1017 14 10000 5.1 330 09:20 27.05.2020
2458 Clear 28 1018 15 10000 4.6 20 08:42 27.05.2020
2459 Clear 28 1018 15 10000 4.6 20 08:24 27.05.2020
2460 Clear 27 1018 20 10000 3.6 350 07:52 27.05.2020
2461 Clear 27 1018 20 10000 3.6 350 07:34 27.05.2020
2462 Clear 25 1018 17 10000 4.6 10 06:55 27.05.2020
2463 Clear 25 1018 17 10000 4.6 10 06:24 27.05.2020
2464 Clear 24 1018 19 10000 3.6 340 05:50 27.05.2020
2465 Clear 24 1018 19 10000 3.6 340 05:24 27.05.2020
2466 Clear 19 1019 32 10000 2.1 270 03:21 27.05.2020
2467 Clear 19 1019 42 10000 2.6 290 02:27 27.05.2020
2468 Clear 20 1018 24 10000 4.1 340 01:31 27.05.2020
2469 Clear 21 1018 22 10000 4.6 360 00:47 27.05.2020
2470 Clear 21 1018 22 10000 4.6 360 00:21 27.05.2020
2471 Clear 23 1019 20 10000 9.3 10 23:58 26.05.2020
2472 Clear 23 1019 20 10000 9.3 10 23:39 26.05.2020
2473 Clear 23 1019 20 10000 9.3 10 23:21 26.05.2020
2474 Clear 23 1019 20 10000 8.2 20 22:57 26.05.2020
2475 Clear 23 1019 20 10000 8.2 20 22:37 26.05.2020
2476 Clear 23 1019 20 10000 8.2 20 22:19 26.05.2020
2477 Clear 23 1019 20 10000 7.2 20 21:55 26.05.2020
2478 Clear 23 1019 20 10000 7.2 20 21:36 26.05.2020
2479 Clear 23 1019 20 10000 7.2 20 21:18 26.05.2020
2480 Clear 24 1019 19 10000 8.7 20 20:41 26.05.2020
2481 Clear 24 1019 19 10000 8.7 20 20:20 26.05.2020
2482 Clear 23 1018 34 10000 5.7 10 19:41 26.05.2020
2483 Clear 23 1018 31 10000 5.7 10 19:22 26.05.2020
2484 Clear 24 1018 31 10000 5.7 10 18:59 26.05.2020
2485 Clear 24 1018 31 10000 5.7 10 18:39 26.05.2020
2486 Clear 24 1018 28 10000 5.7 10 18:21 26.05.2020
2487 Clouds 26 1017 19 10000 5.1 10 17:42 26.05.2020
2488 Clouds 26 1017 19 10000 5.1 10 17:23 26.05.2020
2489 Clouds 27 1016 19 10000 4.6 30 16:49 26.05.2020
2490 Clouds 27 1016 19 10000 4.6 30 16:24 26.05.2020
2491 Clouds 28 1013 17 10000 11.8 360 15:59 26.05.2020
2492 Clouds 29 1012 17 10000 9.8 360 15:41 26.05.2020
2493 Clouds 30 1016 13 10000 4.6 360 15:20 26.05.2020
2494 Clouds 30 1016 13 10000 4.6 360 14:55 26.05.2020
2495 Clouds 30 1016 13 10000 4.6 360 14:37 26.05.2020
2496 Clouds 30 1016 13 10000 4.6 360 14:18 26.05.2020
2497 Clouds 31 1017 12 10000 3.6 10 13:41 26.05.2020
2498 Clouds 31 1017 12 10000 3.6 10 13:22 26.05.2020
2499 Clouds 31 1017 12 10000 3.6 330 12:44 26.05.2020
2500 Clouds 31 1017 12 10000 3.6 330 12:23 26.05.2020
2501 Clouds 30 1018 15 10000 3.6 330 11:59 26.05.2020
2502 Clouds 30 1018 15 10000 3.6 330 11:40 26.05.2020
2503 Clouds 30 1018 16 10000 3.6 330 11:20 26.05.2020
2504 Clear 30 1018 16 10000 3.1 130 10:47 26.05.2020
2505 Clear 28 1019 14 10000 2.6 200 10:19 26.05.2020
2506 Clear 28 1019 14 10000 2.6 200 09:57 26.05.2020
2507 Clear 28 1019 14 10000 2.6 200 09:57 26.05.2020
2508 Clear 28 1019 14 10000 2.6 200 09:37 26.05.2020
2509 Clear 28 1019 14 10000 2.6 200 09:18 26.05.2020
2510 Clear 29 1019 16 10000 2.1 290 08:40 26.05.2020
2511 Clear 29 1019 16 10000 2.1 290 08:22 26.05.2020
2512 Clear 26 1019 19 10000 2.6 220 07:42 26.05.2020
2513 Clear 26 1019 19 10000 2.6 220 07:23 26.05.2020
2514 Clear 24 1019 27 10000 1.5 310 06:52 26.05.2020
2515 Clear 24 1019 27 10000 1.5 310 06:28 26.05.2020
2516 Clear 24 1019 27 10000 1.5 310 06:28 26.05.2020
2517 Clear 23 1019 25 10000 1.5 270 05:42 26.05.2020
2518 Clear 23 1019 25 10000 1.5 270 05:18 26.05.2020
2519 Clear 20 1019 34 10000 2.6 290 04:47 26.05.2020
2520 Clear 20 1019 34 10000 2.6 290 04:28 26.05.2020
2521 Clear 17 1019 36 10000 2.1 270 03:46 26.05.2020
2522 Clear 16 1019 38 10000 2.1 310 02:35 26.05.2020
2523 Clear 16 1019 38 10000 2.1 280 01:47 26.05.2020
2524 Clear 19 1019 25 10000 1.5 290 00:43 26.05.2020
2525 Clear 19 1019 25 10000 1.5 290 00:23 26.05.2020
2526 Clear 19 1019 25 10000 1.5 290 23:59 25.05.2020
2527 Clear 20 1019 24 10000 1.5 240 23:39 25.05.2020
2528 Clear 20 1019 24 10000 1.5 240 23:20 25.05.2020
2529 Clear 22 1020 19 10000 6.7 10 22:56 25.05.2020
2530 Clear 22 1020 19 10000 6.7 10 22:56 25.05.2020
2531 Clear 22 1020 19 10000 6.7 10 22:37 25.05.2020
2532 Clear 22 1020 19 10000 6.7 10 22:37 25.05.2020
2533 Clear 22 1020 19 10000 6.7 10 22:37 25.05.2020
2534 Clear 22 1020 19 10000 6.7 10 22:19 25.05.2020
2535 Clear 23 1020 18 10000 8.2 20 21:58 25.05.2020
2536 Clear 23 1020 18 10000 8.2 20 21:38 25.05.2020
2537 Clear 23 1020 18 10000 8.2 20 21:19 25.05.2020
2538 Clear 23 1020 17 10000 7.2 10 20:58 25.05.2020
2539 Clear 23 1020 17 10000 7.2 10 20:40 25.05.2020
2540 Clear 23 1020 17 10000 7.2 10 20:20 25.05.2020
2541 Clear 24 1020 16 10000 7.7 30 19:55 25.05.2020
2542 Clear 24 1020 16 10000 7.7 30 19:37 25.05.2020
2543 Clear 24 1020 16 10000 7.7 30 19:18 25.05.2020
2544 Clear 24 1019 17 10000 9.3 20 18:42 25.05.2020
2545 Clear 24 1019 17 10000 9.3 20 18:21 25.05.2020
2546 Clear 25 1019 16 10000 7.7 20 17:54 25.05.2020
2547 Clear 25 1019 16 10000 7.7 20 17:36 25.05.2020
2548 Clear 25 1019 16 10000 7.7 20 17:18 25.05.2020
2549 Clear 26 1019 15 10000 6.2 10 16:40 25.05.2020
2550 Clear 26 1019 15 10000 6.2 10 16:22 25.05.2020
2551 Clear 27 1018 15 10000 4.6 30 15:58 25.05.2020
2552 Clear 27 1018 15 10000 4.6 30 15:58 25.05.2020
2553 Clear 27 1018 15 10000 4.6 30 15:40 25.05.2020
2554 Clear 27 1018 15 10000 4.6 30 15:18 25.05.2020
2555 Clear 29 1018 12 10000 6.7 360 14:43 25.05.2020
2556 Clear 29 1018 12 10000 6.7 360 14:24 25.05.2020
2557 Clear 29 1018 13 10000 6.7 30 13:57 25.05.2020
2558 Clear 29 1018 13 10000 6.7 30 13:37 25.05.2020
2559 Clear 29 1018 13 10000 6.7 30 13:19 25.05.2020
2560 Clear 30 1018 12 10000 7.7 350 12:40 25.05.2020
2561 Clear 30 1018 12 10000 7.7 350 12:21 25.05.2020
2562 Clear 30 1019 13 10000 5.1 360 11:58 25.05.2020
2563 Clear 30 1019 13 10000 5.1 360 11:38 25.05.2020
2564 Clear 30 1019 13 10000 5.1 360 11:18 25.05.2020
2565 Clear 29 1019 13 10000 5.7 20 10:43 25.05.2020
2566 Clear 29 1019 13 10000 5.7 20 10:21 25.05.2020
2567 Clear 28 1020 13 10000 5.1 10 09:57 25.05.2020
2568 Clear 28 1020 13 10000 5.1 10 09:57 25.05.2020
2569 Clear 28 1020 13 10000 5.1 10 09:38 25.05.2020
2570 Clear 28 1020 13 10000 5.1 10 09:19 25.05.2020
2571 Clear 28 1020 14 10000 4.6 360 08:57 25.05.2020
2572 Clear 28 1020 14 10000 4.6 360 08:36 25.05.2020
2573 Clear 28 1020 14 10000 4.6 360 08:18 25.05.2020
2574 Clear 27 1020 18 10000 1.5 0 07:42 25.05.2020
2575 Clear 27 1020 21 10000 1.5 0 07:20 25.05.2020
2576 Clear 28 1016 15 10000 5.7 340 06:46 25.05.2020
2577 Clear 24 1020 24 10000 1.5 0 06:27 25.05.2020
2578 Clear 17 1019 36 10000 1.5 350 03:46 25.05.2020
2579 Clear 17 1019 36 10000 1.5 350 03:22 25.05.2020
2580 Clear 15 1019 41 10000 2.1 330 02:44 25.05.2020
2581 Clear 17 1019 40 10000 1.5 0 01:42 25.05.2020
2582 Clear 19 1019 22 10000 1.5 290 00:58 25.05.2020
2583 Clear 19 1019 22 10000 1.5 290 00:33 25.05.2020
2584 Clear 21 1020 16 10000 2.6 340 23:59 24.05.2020
2585 Clear 21 1020 16 10000 2.6 340 23:40 24.05.2020
2586 Clear 21 1020 16 10000 2.6 340 23:22 24.05.2020
2587 Clear 22 1020 15 10000 5.1 10 22:58 24.05.2020
2588 Clear 22 1020 15 10000 5.1 10 22:40 24.05.2020
2589 Clear 22 1020 15 10000 5.1 10 22:18 24.05.2020
2590 Clear 22 1020 15 10000 3.6 290 21:55 24.05.2020
2591 Clear 22 1020 15 10000 3.6 290 21:55 24.05.2020
2592 Clear 22 1020 15 10000 3.6 290 21:37 24.05.2020
2593 Clear 22 1020 15 10000 3.6 290 21:18 24.05.2020
2594 Clear 25 1019 12 10000 8.7 30 20:43 24.05.2020
2595 Clear 25 1019 12 10000 8.7 30 20:43 24.05.2020
2596 Clear 25 1019 12 10000 8.7 30 20:21 24.05.2020
2597 Clear 24 1019 16 10000 7.7 10 19:58 24.05.2020
2598 Clear 24 1019 16 10000 7.7 10 19:40 24.05.2020
2599 Clear 24 1019 16 10000 7.7 10 19:19 24.05.2020
2600 Clear 25 1018 15 10000 9.3 20 18:44 24.05.2020
2601 Clouds 25 1018 15 10000 9.3 20 18:24 24.05.2020
2602 Clouds 26 1018 14 10000 7.2 10 17:59 24.05.2020
2603 Clouds 26 1018 14 10000 7.2 10 17:40 24.05.2020
2604 Clouds 26 1018 14 10000 7.2 10 17:21 24.05.2020
2605 Clouds 26 1018 14 10000 7.2 10 17:21 24.05.2020
2606 Clouds 27 1017 14 10000 7.2 20 16:56 24.05.2020
2607 Clouds 27 1017 14 10000 7.2 20 16:38 24.05.2020
2608 Clouds 27 1017 14 10000 7.2 20 16:19 24.05.2020
2609 Clouds 29 1017 14 10000 6.2 10 15:56 24.05.2020
2610 Clouds 29 1017 14 10000 6.2 10 15:38 24.05.2020
2611 Clouds 29 1017 14 10000 6.2 10 15:18 24.05.2020
2612 Clouds 29 1017 14 10000 5.1 360 14:45 24.05.2020
2613 Clouds 29 1017 14 10000 5.1 360 14:24 24.05.2020
2614 Clouds 30 1017 13 10000 5.1 360 13:58 24.05.2020
2615 Clouds 30 1017 13 10000 5.1 360 13:39 24.05.2020
2616 Clouds 30 1017 13 10000 5.1 360 13:21 24.05.2020
2617 Clouds 30 1018 12 10000 2.6 80 12:59 24.05.2020
2618 Clouds 30 1018 12 10000 2.6 80 12:40 24.05.2020
2619 Clouds 30 1018 12 10000 2.6 80 12:22 24.05.2020
2620 Clouds 30 1018 15 10000 2.6 100 11:59 24.05.2020
2621 Clouds 30 1018 15 10000 2.6 100 11:41 24.05.2020
2622 Clouds 30 1018 15 10000 2.6 100 11:22 24.05.2020
2623 Clouds 29 1019 20 10000 1.5 0 10:56 24.05.2020
2624 Clouds 29 1019 20 10000 1.5 0 10:37 24.05.2020
2625 Clouds 29 1019 20 10000 1.5 0 10:19 24.05.2020
2626 Clear 28 1020 24 10000 2.1 100 09:41 24.05.2020
2627 Clear 28 1020 24 10000 2.1 100 09:18 24.05.2020
2628 Clear 26 1020 27 10000 2.6 340 08:56 24.05.2020
2629 Clear 26 1020 27 10000 2.6 340 08:38 24.05.2020
2630 Clear 26 1020 27 10000 2.6 340 08:19 24.05.2020
2631 Clear 25 1020 33 10000 1.5 0 07:44 24.05.2020
2632 Clear 25 1020 33 10000 1.5 0 07:25 24.05.2020
2633 Clear 23 1021 35 10000 2.6 330 06:49 24.05.2020
2634 Clear 23 1021 35 10000 2.6 330 06:29 24.05.2020
2635 Clear 22 1020 40 10000 1.5 0 04:54 24.05.2020
2636 Clear 16 1019 59 10000 1.5 0 03:42 24.05.2020
2637 Clear 16 1019 55 10000 2.1 310 02:46 24.05.2020
2638 Clear 17 1019 51 10000 1.5 320 01:47 24.05.2020
2639 Clear 17 1019 51 10000 1.5 0 00:41 24.05.2020
2640 Clear 17 1019 51 10000 1.5 0 00:22 24.05.2020
2641 Clear 19 1019 45 10000 2.6 160 23:44 23.05.2020
2642 Clear 19 1019 45 10000 2.6 160 23:25 23.05.2020
2643 Clear 20 1019 37 10000 2.1 340 22:59 23.05.2020
2644 Clear 20 1019 37 10000 2.1 340 22:39 23.05.2020
2645 Clear 20 1019 37 10000 2.1 340 22:20 23.05.2020
2646 Clear 21 1019 32 10000 2.1 340 21:58 23.05.2020
2647 Clear 21 1019 32 10000 2.1 340 21:40 23.05.2020
2648 Clouds 21 1019 32 10000 2.1 340 21:20 23.05.2020
2649 Clouds 21 1019 32 10000 2.1 340 21:20 23.05.2020
2650 Clouds 21 1019 32 10000 2.1 340 21:20 23.05.2020
2651 Clouds 21 1019 32 10000 2.1 340 21:20 23.05.2020
2652 Clouds 22 1018 30 10000 0.5 0 20:58 23.05.2020
2653 Clouds 22 1018 30 10000 0.5 0 20:38 23.05.2020
2654 Clouds 22 1018 30 10000 0.5 0 20:38 23.05.2020
2655 Clouds 22 1018 30 10000 0.5 0 20:19 23.05.2020
2656 Clouds 22 1018 35 10000 1 0 19:42 23.05.2020
2657 Clouds 22 1018 35 10000 1 0 19:20 23.05.2020
2658 Clouds 25 1017 20 10000 1.5 0 18:59 23.05.2020
2659 Clouds 25 1017 20 10000 1.5 0 18:40 23.05.2020
2660 Clouds 25 1017 20 10000 1.5 0 18:40 23.05.2020
2661 Clouds 25 1017 20 10000 1.5 0 18:22 23.05.2020
2662 Clouds 23 1016 28 10000 2.6 90 17:56 23.05.2020
2663 Clouds 23 1016 28 10000 2.6 90 17:38 23.05.2020
2664 Clouds 23 1016 28 10000 2.6 90 17:19 23.05.2020
2665 Clouds 26 1016 21 10000 2.6 70 16:56 23.05.2020
2666 Clouds 26 1016 21 10000 2.6 70 16:38 23.05.2020
2667 Clouds 26 1016 21 10000 2.6 70 16:19 23.05.2020
2668 Clouds 27 1015 18 10000 3.1 350 15:42 23.05.2020
2669 Clouds 27 1015 18 10000 3.1 350 15:24 23.05.2020
2670 Clouds 27 1015 18 10000 3.1 350 15:24 23.05.2020
2671 Clouds 29 1015 16 10000 4.1 320 14:58 23.05.2020
2672 Clouds 29 1015 16 10000 4.1 320 14:39 23.05.2020
2673 Clouds 29 1015 16 10000 4.1 320 14:21 23.05.2020
2674 Clouds 29 1015 17 10000 2.6 10 13:40 23.05.2020
2675 Clouds 29 1015 17 10000 2.6 10 13:19 23.05.2020
2676 Clouds 29 1016 18 10000 2.6 100 12:56 23.05.2020
2677 Clouds 29 1016 18 10000 2.6 100 12:37 23.05.2020
2678 Clouds 29 1016 18 10000 2.6 100 12:18 23.05.2020
2679 Clouds 28 1017 20 10000 3.1 20 11:43 23.05.2020
2680 Clouds 28 1017 20 10000 3.1 20 11:21 23.05.2020
2681 Clouds 28 1017 21 10000 2.1 40 10:57 23.05.2020
2682 Clouds 28 1017 21 10000 2.1 40 10:39 23.05.2020
2683 Clouds 28 1017 21 10000 2.1 40 10:19 23.05.2020
2684 Clouds 27 1018 24 10000 1.5 0 09:56 23.05.2020
2685 Clouds 27 1018 24 10000 1.5 0 09:38 23.05.2020
2686 Clouds 27 1018 24 10000 1.5 0 09:19 23.05.2020
2687 Clouds 27 1018 24 10000 1.5 0 08:42 23.05.2020
2688 Clouds 26 1018 27 10000 1 0 08:19 23.05.2020
2689 Clouds 26 1018 27 10000 1 0 08:19 23.05.2020
2690 Clear 25 1018 27 10000 1.5 0 07:46 23.05.2020
2691 Clear 25 1018 27 10000 1.5 0 07:28 23.05.2020
2692 Clear 23 1019 33 10000 2.1 200 06:53 23.05.2020
2693 Clear 23 1019 33 10000 2.1 200 06:35 23.05.2020
2694 Clear 20 1018 40 10000 1.5 0 04:49 23.05.2020
2695 Clear 16 1017 51 10000 1 0 03:29 23.05.2020
2696 Clear 16 1017 48 10000 1.5 320 02:56 23.05.2020
2697 Clouds 17 1016 48 10000 1 0 01:55 23.05.2020
2698 Clouds 17 1016 48 10000 1 0 01:20 23.05.2020
2699 Clouds 16 1017 51 10000 1.5 0 00:45 23.05.2020
2700 Clouds 16 1017 51 10000 1.5 0 00:23 23.05.2020
2701 Clouds 18 1017 42 10000 1 0 23:56 22.05.2020
2702 Clouds 18 1017 42 10000 1 0 23:38 22.05.2020
2703 Clouds 18 1017 42 10000 1 0 23:18 22.05.2020
2704 Clouds 20 1018 34 10000 1 0 22:42 22.05.2020
2705 Clouds 20 1018 34 10000 1 0 22:21 22.05.2020
2706 Clouds 19 1018 39 10000 1 0 21:56 22.05.2020
2707 Clouds 19 1018 39 10000 1 0 21:56 22.05.2020
2708 Clouds 19 1018 39 10000 1 0 21:38 22.05.2020
2709 Clear 19 1018 39 10000 1 0 21:20 22.05.2020
2710 Clouds 22 1018 30 10000 1.5 0 20:45 22.05.2020
2711 Clouds 22 1018 30 10000 1.5 0 20:21 22.05.2020
2712 Clouds 22 1018 30 10000 1 150 19:54 22.05.2020
2713 Clouds 20 1014 37 10000 0.47 249 19:36 22.05.2020
2714 Clouds 24 1017 25 10000 4.1 210 19:18 22.05.2020
2715 Clouds 24 1017 25 10000 4.1 210 18:39 22.05.2020
2716 Clouds 24 1017 25 10000 4.1 210 18:39 22.05.2020
2717 Clouds 24 1017 25 10000 4.1 210 18:19 22.05.2020
2718 Clouds 23 1016 39 10000 2.6 90 17:41 22.05.2020
2719 Clouds 23 1016 34 10000 2.6 90 17:20 22.05.2020
2720 Clouds 26 1015 21 10000 3.1 10 17:00 22.05.2020
2721 Clouds 26 1015 21 10000 3.1 10 16:41 22.05.2020
2722 Clouds 26 1015 21 10000 3.1 10 16:20 22.05.2020
2723 Clouds 26 1015 21 10000 3.1 10 16:20 22.05.2020
2724 Clouds 26 1015 21 10000 3.1 10 16:20 22.05.2020
2725 Clouds 29 1014 14 10000 3.1 90 15:57 22.05.2020
2726 Clouds 29 1014 14 10000 3.1 90 15:39 22.05.2020
2727 Clouds 29 1014 14 10000 3.1 90 15:18 22.05.2020
2728 Clouds 29 1014 14 10000 6.2 100 14:41 22.05.2020
2729 Clouds 29 1014 14 10000 6.2 100 14:23 22.05.2020
2730 Clouds 29 1014 13 0 3.1 110 13:45 22.05.2020
2731 Clouds 29 1014 13 0 3.1 110 13:20 22.05.2020
2732 Clouds 29 1015 11 10000 3.1 80 12:44 22.05.2020
2733 Clouds 29 1015 11 10000 3.1 80 12:25 22.05.2020
2734 Clouds 29 1015 11 10000 3.1 350 11:56 22.05.2020
2735 Clouds 29 1015 11 10000 3.1 350 11:37 22.05.2020
2736 Clouds 29 1015 11 10000 3.1 350 11:19 22.05.2020
2737 Clouds 28 1016 12 10000 3.6 360 10:41 22.05.2020
2738 Clouds 28 1016 12 10000 3.6 360 10:22 22.05.2020
2739 Clouds 27 1017 10 10000 2.1 330 09:59 22.05.2020
2740 Clouds 27 1017 10 10000 2.1 330 09:59 22.05.2020
2741 Clouds 27 1017 10 10000 2.1 330 09:40 22.05.2020
2742 Clouds 27 1017 10 10000 2.1 330 09:18 22.05.2020
2743 Clouds 26 1017 12 10000 2.6 20 08:43 22.05.2020
2744 Clouds 26 1017 12 10000 2.6 20 08:43 22.05.2020
2745 Clouds 26 1017 12 10000 2.6 20 08:20 22.05.2020
2746 Clouds 25 1017 24 10000 1.5 340 07:54 22.05.2020
2747 Clouds 25 1017 28 10000 1.5 340 07:24 22.05.2020
2748 Clouds 23 1017 27 10000 1.5 270 06:55 22.05.2020
2749 Clouds 23 1017 27 10000 1.5 270 06:33 22.05.2020
2750 Clouds 20 1017 34 10000 1.5 0 05:38 22.05.2020
2751 Clouds 18 1017 45 10000 1 0 04:50 22.05.2020
2752 Clouds 18 1017 45 10000 1 0 04:19 22.05.2020
2753 Clouds 13 1016 58 10000 1.5 0 03:45 22.05.2020
2754 Clouds 14 1016 54 10000 1.5 0 02:59 22.05.2020
2755 Clouds 15 1016 47 10000 1.5 280 01:52 22.05.2020
2756 Clouds 15 1016 47 10000 1.5 280 01:24 22.05.2020
2757 Clouds 16 1016 41 10000 1.5 300 00:35 22.05.2020
2758 Clouds 16 1016 38 10000 1.5 330 23:59 21.05.2020
2759 Clouds 16 1016 38 10000 1.5 330 23:41 21.05.2020
2760 Clouds 16 1016 38 10000 1.5 330 23:23 21.05.2020
2761 Clouds 16 1016 38 10000 1.5 330 22:57 21.05.2020
2762 Clouds 16 1016 38 10000 1.5 330 22:57 21.05.2020
2763 Clouds 18 1017 31 10000 1.5 0 22:37 21.05.2020
2764 Clouds 18 1017 31 10000 1.5 0 22:19 21.05.2020
2765 Clouds 20 1017 22 10000 4.6 340 21:49 21.05.2020
2766 Clouds 20 1017 22 10000 4.6 340 21:27 21.05.2020
2767 Clouds 21 1017 21 10000 6.2 301 20:59 21.05.2020
2768 Clouds 21 1017 21 10000 6.2 301 20:40 21.05.2020
2769 Clouds 21 1017 21 10000 6.2 301 20:21 21.05.2020
2770 Clouds 21 1018 21 10000 5.7 340 19:40 21.05.2020
2771 Clouds 21 1018 21 10000 5.7 340 19:20 21.05.2020
2772 Clouds 22 1017 19 10000 6.2 10 18:58 21.05.2020
2773 Clouds 22 1017 19 10000 6.2 10 18:37 21.05.2020
2774 Rain 22 1017 19 10000 6.2 10 18:18 21.05.2020
2775 Rain 24 1016 16 10000 7.7 20 17:55 21.05.2020
2776 Rain 24 1016 16 10000 7.7 20 17:36 21.05.2020
2777 Rain 24 1016 16 10000 7.7 20 17:18 21.05.2020
2778 Rain 24 1016 17 10000 7.2 20 16:41 21.05.2020
2779 Clouds 24 1016 17 10000 7.2 20 16:22 21.05.2020
2780 Clouds 26 1015 16 10000 7.2 10 15:41 21.05.2020
2781 Clouds 26 1015 16 10000 7.2 10 15:22 21.05.2020
2782 Clouds 27 1015 14 10000 7.2 340 14:42 21.05.2020
2783 Clouds 27 1015 14 10000 7.2 340 14:23 21.05.2020
2784 Clouds 27 1015 15 10000 4.6 10 13:58 21.05.2020
2785 Clouds 27 1015 15 10000 4.6 10 13:38 21.05.2020
2786 Clouds 27 1015 15 10000 4.6 10 13:18 21.05.2020
2787 Clouds 28 1016 14 10000 4.6 10 12:40 21.05.2020
2788 Clouds 28 1016 14 10000 4.6 10 12:21 21.05.2020
2789 Clouds 28 1016 14 10000 4.6 350 11:57 21.05.2020
2790 Clouds 28 1016 14 10000 4.6 350 11:39 21.05.2020
2791 Clouds 28 1016 14 10000 4.6 350 11:20 21.05.2020
2792 Clouds 28 1017 17 10000 2.1 180 10:43 21.05.2020
2793 Clouds 28 1017 17 10000 2.1 180 10:23 21.05.2020
2794 Clouds 28 1017 17 10000 2.1 180 10:23 21.05.2020
2795 Clouds 26 1017 16 10000 2.1 20 09:59 21.05.2020
2796 Clouds 26 1017 16 10000 2.1 20 09:40 21.05.2020
2797 Clouds 26 1017 16 10000 2.1 20 09:40 21.05.2020
2798 Clouds 26 1017 16 10000 2.1 20 09:40 21.05.2020
2799 Clouds 26 1017 16 10000 2.1 20 09:22 21.05.2020
2800 Clouds 25 1018 20 10000 2.1 160 08:56 21.05.2020
2801 Clouds 25 1018 20 10000 2.1 160 08:37 21.05.2020
2802 Clouds 25 1018 20 10000 2.1 160 08:19 21.05.2020
2803 Clear 24 1018 22 10000 1 0 07:41 21.05.2020
2804 Clear 24 1018 22 10000 1 0 07:22 21.05.2020
2805 Clear 22 1018 24 10000 1.5 350 06:37 21.05.2020
2806 Clear 19 1018 34 10000 1.5 330 05:50 21.05.2020
2807 Clear 13 1017 50 10000 1.5 0 03:49 21.05.2020
2808 Clear 13 1017 50 10000 1.5 0 03:21 21.05.2020
2809 Clear 13 1017 50 10000 1.5 0 03:21 21.05.2020
2810 Clear 13 1017 50 10000 1 0 02:31 21.05.2020
2811 Clouds 12 1016 58 10000 1.5 0 01:51 21.05.2020
2812 Clouds 12 1016 58 10000 1.5 0 01:24 21.05.2020
2813 Clouds 15 1017 38 10000 1.5 0 00:54 21.05.2020
2814 Clouds 15 1017 38 10000 1.5 0 00:27 21.05.2020
2815 Clouds 14 1017 44 10000 1.5 150 23:59 20.05.2020
2816 Clouds 14 1017 44 10000 1.5 150 23:59 20.05.2020
2817 Clouds 14 1017 44 10000 1.5 150 23:38 20.05.2020
2818 Clouds 14 1017 44 10000 1.5 150 23:18 20.05.2020
2819 Clouds 15 1018 44 10000 0.5 0 22:43 20.05.2020
2820 Clouds 15 1018 41 10000 0.5 0 22:25 20.05.2020
2821 Clouds 16 1018 36 10000 3.1 320 21:58 20.05.2020
2822 Clouds 16 1018 36 10000 3.1 320 21:38 20.05.2020
2823 Clouds 16 1018 36 10000 3.1 320 21:19 20.05.2020
2824 Clouds 18 1018 22 10000 1 320 20:44 20.05.2020
2825 Clouds 18 1018 22 10000 1 320 20:23 20.05.2020
2826 Clouds 19 1018 19 10000 6.2 330 19:44 20.05.2020
2827 Clouds 19 1018 19 10000 6.2 330 19:25 20.05.2020
2828 Clouds 20 1017 18 10000 7.2 360 18:59 20.05.2020
2829 Clouds 20 1017 18 10000 7.2 360 18:40 20.05.2020
2830 Clouds 20 1017 18 10000 7.2 360 18:20 20.05.2020
2831 Clouds 20 1017 18 10000 7.2 360 18:20 20.05.2020
2832 Clouds 22 1017 14 10000 6.7 20 17:40 20.05.2020
2833 Clear 22 1017 14 10000 6.7 20 17:21 20.05.2020
2834 Clear 23 1017 15 10000 6.7 20 16:55 20.05.2020
2835 Clear 23 1017 15 10000 6.7 20 16:37 20.05.2020
2836 Clear 23 1017 15 10000 6.7 20 16:18 20.05.2020
2837 Clear 24 1016 16 10000 5.7 360 15:42 20.05.2020
2838 Clear 24 1016 16 10000 5.7 360 15:23 20.05.2020
2839 Clear 25 1016 15 10000 5.7 360 14:44 20.05.2020
2840 Clouds 25 1016 15 10000 5.7 360 14:22 20.05.2020
2841 Clouds 26 1016 15 10000 3.1 10 13:55 20.05.2020
2842 Clouds 26 1016 15 10000 3.1 10 13:36 20.05.2020
2843 Clouds 26 1016 15 10000 3.1 10 13:18 20.05.2020
2844 Clouds 26 1016 15 10000 4.1 20 12:41 20.05.2020
2845 Clouds 26 1016 15 10000 4.1 20 12:20 20.05.2020
2846 Clouds 26 1017 16 10000 4.1 330 11:37 20.05.2020
2847 Clear 26 1017 16 10000 4.1 330 11:18 20.05.2020
2848 Clear 25 1018 16 10000 3.1 330 10:44 20.05.2020
2849 Clear 25 1018 16 10000 3.1 330 10:22 20.05.2020
2850 Clear 24 1018 19 10000 1.5 160 09:46 20.05.2020
2851 Clear 24 1018 19 10000 1.5 160 09:23 20.05.2020
2852 Clear 23 1018 20 10000 1.5 0 08:59 20.05.2020
2853 Clear 23 1018 20 10000 1.5 0 08:41 20.05.2020
2854 Clear 23 1018 20 10000 1.5 0 08:19 20.05.2020
2855 Clear 21 1018 26 10000 2.1 300 07:49 20.05.2020
2856 Clear 21 1018 26 10000 2.1 300 07:22 20.05.2020
2857 Clear 20 1018 26 10000 2.1 350 06:46 20.05.2020
2858 Clear 18 1018 29 10000 2.6 340 05:39 20.05.2020
2859 Clear 15 1017 44 10000 1.5 0 04:37 20.05.2020
2860 Clear 12 1017 50 10000 1.5 0 03:54 20.05.2020
2861 Clear 12 1017 46 10000 1.5 320 02:34 20.05.2020
2862 Clear 12 1017 46 10000 1.5 130 01:32 20.05.2020
2863 Clear 16 1017 25 10000 4.1 10 00:46 20.05.2020
2864 Clear 16 1017 25 10000 4.1 10 00:24 20.05.2020
2865 Clear 16 1017 25 10000 4.1 10 23:45 19.05.2020
2866 Clear 15 1018 28 10000 2.1 0 23:22 19.05.2020
2867 Clear 17 1018 23 10000 3.1 360 22:57 19.05.2020
2868 Clear 17 1018 23 10000 3.1 360 22:39 19.05.2020
2869 Clear 17 1018 23 10000 3.1 360 22:20 19.05.2020
2870 Clear 17 1018 23 10000 1.5 250 21:59 19.05.2020
2871 Clear 17 1018 23 10000 1.5 250 21:39 19.05.2020
2872 Clear 17 1018 23 10000 1.5 250 21:21 19.05.2020
2873 Clear 19 1018 19 10000 4.6 360 20:58 19.05.2020
2874 Clear 19 1018 19 10000 4.6 360 20:40 19.05.2020
2875 Clear 19 1018 19 10000 4.6 360 20:22 19.05.2020
2876 Clear 19 1018 20 10000 4.1 20 19:56 19.05.2020
2877 Clear 19 1018 20 10000 4.1 20 19:37 19.05.2020
2878 Clear 19 1018 20 10000 4.1 20 19:19 19.05.2020
2879 Clear 20 1017 19 10000 5.1 350 18:42 19.05.2020
2880 Clear 20 1017 19 10000 5.1 350 18:21 19.05.2020
2881 Clear 21 1017 16 10000 4.6 10 17:44 19.05.2020
2882 Clear 21 1017 16 10000 4.6 10 17:22 19.05.2020
2883 Clear 22 1016 14 10000 3.6 10 16:59 19.05.2020
2884 Clear 22 1016 14 10000 3.6 10 16:39 19.05.2020
2885 Clear 22 1016 14 10000 3.6 10 16:21 19.05.2020
2886 Clear 23 1016 11 10000 3.1 70 15:48 19.05.2020
2887 Clear 23 1016 11 10000 3.1 70 15:23 19.05.2020
2888 Clear 24 1016 12 10000 4.1 50 14:59 19.05.2020
2889 Clear 24 1016 12 10000 4.1 50 14:41 19.05.2020
2890 Clear 24 1016 12 10000 4.1 50 14:21 19.05.2020
2891 Clear 25 1016 9 10000 1.5 0 13:58 19.05.2020
2892 Clear 25 1016 9 10000 1.5 0 13:40 19.05.2020
2893 Clear 25 1016 9 10000 1.5 0 13:21 19.05.2020
2894 Clear 25 1017 9 10000 1 0 12:58 19.05.2020
2895 Clear 25 1017 9 10000 1 0 12:39 19.05.2020
2896 Clear 25 1017 9 10000 1 0 12:21 19.05.2020
2897 Clear 23 1017 8 10000 2.6 150 11:55 19.05.2020
2898 Clear 23 1017 8 10000 2.6 150 11:37 19.05.2020
2899 Clear 23 1017 8 10000 2.6 150 11:19 19.05.2020
2900 Clear 23 1018 11 10000 2.1 180 10:45 19.05.2020
2901 Clear 23 1018 11 10000 2.1 180 10:27 19.05.2020
2902 Clear 22 1018 10 10000 2.1 250 09:56 19.05.2020
2903 Clear 22 1018 10 10000 2.1 250 09:38 19.05.2020
2904 Clear 22 1018 10 10000 2.1 250 09:20 19.05.2020
2905 Clear 20 1019 18 10000 2.6 240 08:42 19.05.2020
2906 Clear 20 1019 18 10000 2.6 240 08:23 19.05.2020
2907 Clear 18 1019 22 10000 3.6 220 07:43 19.05.2020
2908 Clear 18 1019 22 10000 3.6 220 07:25 19.05.2020
2909 Clear 17 1019 25 10000 4.6 190 06:45 19.05.2020
2910 Clear 17 1019 25 10000 4.6 190 06:24 19.05.2020
2911 Clear 15 1018 30 10000 5.1 210 05:40 19.05.2020
2912 Clear 12 1018 50 10000 3.1 350 04:56 19.05.2020
2913 Clear 12 1018 50 10000 3.1 350 04:18 19.05.2020
2914 Clouds 10 1017 71 10000 1.5 350 01:30 19.05.2020
2915 Clouds 9 1018 81 10000 2.1 310 00:43 19.05.2020
2916 Clouds 9 1018 81 10000 2.1 310 00:22 19.05.2020
2917 Clouds 9 1018 81 10000 2.1 310 23:56 18.05.2020
2918 Clouds 11 1018 71 10000 1.5 250 23:38 18.05.2020
2919 Clouds 11 1018 71 10000 1.5 250 23:19 18.05.2020
2920 Clouds 13 1019 58 10000 2.6 260 22:40 18.05.2020
2921 Clouds 13 1019 58 10000 2.6 260 22:21 18.05.2020
2922 Clouds 13 1019 58 10000 2.6 260 22:21 18.05.2020
2923 Clouds 12 1019 66 10000 2.1 280 21:54 18.05.2020
2924 Clouds 12 1019 66 10000 2.1 280 21:36 18.05.2020
2925 Clouds 12 1019 66 10000 2.1 280 21:18 18.05.2020
2926 Clouds 13 1020 71 10000 2.6 150 20:42 18.05.2020
2927 Clouds 13 1020 71 10000 2.6 150 20:21 18.05.2020
2928 Clouds 14 1020 54 10000 1.5 0 19:57 18.05.2020
2929 Clouds 14 1020 54 10000 1.5 0 19:39 18.05.2020
2930 Clouds 14 1020 54 10000 1.5 0 19:19 18.05.2020
2931 Clouds 15 1019 47 10000 5.1 20 18:45 18.05.2020
2932 Clouds 15 1019 47 10000 5.1 20 18:24 18.05.2020
2933 Rain 15 1018 54 10000 5.1 40 17:41 18.05.2020
2934 Rain 15 1018 54 10000 5.1 40 17:18 18.05.2020
2935 Thunderstorm 16 1018 48 10000 7.2 310 16:59 18.05.2020
2936 Thunderstorm 16 1018 48 10000 7.2 310 16:40 18.05.2020
2937 Thunderstorm 19 1016 32 10000 8.7 340 16:20 18.05.2020
2938 Rain 21 1015 62 10000 3.6 360 15:57 18.05.2020
2939 Rain 21 1015 62 10000 3.6 360 15:38 18.05.2020
2940 Rain 21 1015 30 10000 3.6 360 15:20 18.05.2020
2941 Rain 22 1015 21 10000 3.6 330 14:47 18.05.2020
2942 Rain 22 1015 21 10000 3.6 330 14:25 18.05.2020
2943 Rain 22 1015 21 10000 3.6 340 13:59 18.05.2020
2944 Rain 22 1015 21 10000 3.6 340 13:39 18.05.2020
2945 Rain 22 1015 21 10000 3.6 340 13:20 18.05.2020
2946 Clouds 23 1016 20 10000 3.1 240 12:57 18.05.2020
2947 Clouds 23 1016 20 10000 3.1 240 12:39 18.05.2020
2948 Clouds 23 1017 20 10000 3.1 340 12:19 18.05.2020
2949 Clouds 23 1017 20 10000 3.1 340 11:47 18.05.2020
2950 Clouds 23 1017 20 10000 3.1 340 11:27 18.05.2020
2951 Clouds 22 1018 21 10000 3.6 340 10:58 18.05.2020
2952 Clouds 22 1018 21 10000 3.6 340 10:40 18.05.2020
2953 Clouds 22 1018 21 10000 3.6 340 10:22 18.05.2020
2954 Clouds 21 1019 22 10000 4.1 40 09:44 18.05.2020
2955 Clouds 21 1019 22 10000 4.1 40 09:25 18.05.2020
2956 Clouds 21 1019 22 10000 6.2 340 08:45 18.05.2020
2957 Clouds 21 1019 22 10000 6.2 340 08:27 18.05.2020
2958 Clouds 19 1019 28 10000 5.7 10 07:55 18.05.2020
2959 Clouds 19 1019 30 10000 5.7 10 07:27 18.05.2020
2960 Clouds 18 1020 31 10000 4.6 10 06:54 18.05.2020
2961 Clouds 18 1020 31 10000 4.6 10 06:34 18.05.2020
2962 Clouds 16 1020 48 10000 3.1 300 05:49 18.05.2020
2963 Clouds 16 1020 48 10000 3.1 300 05:21 18.05.2020
2964 Clouds 9 1019 70 10000 2.1 330 03:31 18.05.2020
2965 Clear 8 1019 75 10000 2.6 330 02:22 18.05.2020
2966 Clear 10 1018 66 10000 2.1 330 00:55 18.05.2020
2967 Clear 10 1018 66 10000 2.1 330 00:25 18.05.2020
2968 Clear 11 1019 66 10000 1.5 0 23:57 17.05.2020
2969 Clear 11 1019 66 10000 1.5 0 23:39 17.05.2020
2970 Clear 11 1019 66 10000 1.5 0 23:20 17.05.2020
2971 Clear 11 1019 66 10000 1.5 0 22:56 17.05.2020
2972 Clear 11 1019 66 10000 1.5 0 22:37 17.05.2020
2973 Clear 11 1019 66 10000 1.5 0 22:18 17.05.2020
2974 Clear 11 1020 66 10000 1.5 300 21:43 17.05.2020
2975 Clear 11 1020 66 10000 1.5 300 21:21 17.05.2020
2976 Clear 11 1020 66 10000 1.5 300 21:21 17.05.2020
2977 Clear 11 1020 66 10000 1.5 90 20:59 17.05.2020
2978 Clear 11 1020 66 10000 1.5 90 20:41 17.05.2020
2979 Clouds 11 1020 66 10000 1.5 90 20:20 17.05.2020
2980 Clouds 11 1020 66 10000 2.6 110 19:55 17.05.2020
2981 Clouds 11 1020 66 10000 2.6 110 19:37 17.05.2020
2982 Clouds 11 1020 66 10000 2.6 110 19:37 17.05.2020
2983 Clouds 11 1020 66 10000 2.6 110 19:18 17.05.2020
2984 Clouds 13 1020 54 10000 3.6 90 18:39 17.05.2020
2985 Clouds 13 1020 54 10000 3.6 90 18:21 17.05.2020
2986 Clouds 14 1019 50 10000 4.1 310 17:56 17.05.2020
2987 Clouds 14 1019 50 10000 4.1 310 17:37 17.05.2020
2988 Clouds 14 1019 50 10000 4.1 310 17:18 17.05.2020
2989 Clouds 16 1019 41 10000 6.2 350 16:40 17.05.2020
2990 Clouds 16 1019 41 10000 6.2 350 16:20 17.05.2020
2991 Clouds 16 1019 41 10000 6.2 350 16:20 17.05.2020
2992 Rain 18 1019 34 10000 6.2 360 15:56 17.05.2020
2993 Rain 18 1019 34 10000 6.2 360 15:37 17.05.2020
2994 Rain 18 1019 34 10000 6.2 360 15:19 17.05.2020
2995 Clouds 19 1018 32 10000 5.1 360 14:43 17.05.2020
2996 Clouds 19 1018 32 10000 5.1 360 14:24 17.05.2020
2997 Clouds 20 1018 32 10000 2.6 80 13:58 17.05.2020
2998 Clouds 20 1018 32 10000 2.6 80 13:39 17.05.2020
2999 Clouds 20 1018 32 10000 2.6 80 13:18 17.05.2020
3000 Clouds 12 1017 62 10000 1.5 0 04:26 17.05.2020
3001 Clouds 11 1017 66 10000 1.5 120 02:29 17.05.2020
3002 Rain 13 1017 50 10000 3.1 320 01:58 17.05.2020
3003 Rain 13 1017 50 10000 3.1 320 01:38 17.05.2020
3004 Rain 13 1017 54 10000 2.1 10 00:40 17.05.2020
3005 Clouds 15 1017 44 10000 1.5 140 23:57 16.05.2020
3006 Clouds 15 1017 44 10000 1.5 140 23:39 16.05.2020
3007 Clouds 15 1017 44 10000 1.5 140 23:20 16.05.2020
3008 Clouds 14 1018 50 10000 1.5 0 22:58 16.05.2020
3009 Clouds 14 1018 50 10000 1.5 0 22:40 16.05.2020
3010 Clouds 14 1018 50 10000 1.5 0 22:19 16.05.2020
3011 Clouds 15 1018 41 10000 1.5 0 21:45 16.05.2020
3012 Clouds 15 1018 41 10000 1.5 0 21:27 16.05.2020
3013 Clouds 16 1018 38 10000 2.1 280 20:58 16.05.2020
3014 Clouds 16 1018 38 10000 2.1 280 20:39 16.05.2020
3015 Clouds 16 1018 38 10000 2.1 280 20:21 16.05.2020
3016 Clouds 17 1018 36 10000 2.6 60 19:58 16.05.2020
3017 Clouds 17 1018 36 10000 2.6 60 19:39 16.05.2020
3018 Clouds 17 1018 36 10000 2.6 60 19:21 16.05.2020
3019 Clouds 18 1018 31 10000 3.6 360 18:42 16.05.2020
3020 Rain 18 1018 31 10000 3.6 360 18:24 16.05.2020
3021 Clouds 18 1018 36 10000 3.1 350 17:56 16.05.2020
3022 Clouds 18 1018 36 10000 3.1 350 17:38 16.05.2020
3023 Clouds 18 1018 36 10000 3.1 350 17:19 16.05.2020
3024 Clouds 19 1017 32 10000 2.1 40 16:40 16.05.2020
3025 Clouds 19 1017 32 10000 2.1 40 16:22 16.05.2020
3026 Clouds 21 1017 28 10000 2.6 250 15:57 16.05.2020
3027 Clouds 21 1017 28 10000 2.6 250 15:38 16.05.2020
3028 Clouds 21 1017 28 10000 2.6 250 15:19 16.05.2020
3029 Clouds 22 1017 26 10000 1.5 0 14:43 16.05.2020
3030 Clouds 22 1017 26 10000 1.5 0 14:20 16.05.2020
3031 Clouds 20 1017 30 10000 6.2 40 13:57 16.05.2020
3032 Clouds 20 1017 30 10000 6.2 40 13:39 16.05.2020
3033 Clouds 20 1017 30 10000 6.2 40 13:21 16.05.2020
3034 Clouds 20 1018 40 10000 5.1 20 12:45 16.05.2020
3035 Clouds 18 1018 55 10000 5.1 330 12:21 16.05.2020
3036 Thunderstorm 19 1018 32 10000 2.6 170 11:56 16.05.2020
3037 Thunderstorm 19 1018 32 10000 2.6 170 11:38 16.05.2020
3038 Thunderstorm 19 1018 32 10000 2.6 170 11:20 16.05.2020
3039 Clouds 22 1018 33 10000 4.1 20 10:55 16.05.2020
3040 Clouds 22 1018 33 10000 4.1 20 10:36 16.05.2020
3041 Clouds 22 1018 33 10000 4.1 20 10:18 16.05.2020
3042 Clouds 21 1019 40 10000 4.6 10 09:40 16.05.2020
3043 Clouds 21 1019 40 10000 4.6 10 09:19 16.05.2020
3044 Clouds 20 1019 42 10000 3.1 360 08:43 16.05.2020
3045 Clouds 20 1019 42 10000 3.1 360 08:21 16.05.2020
3046 Clouds 19 1019 42 10000 2.6 360 07:46 16.05.2020
3047 Clouds 18 1019 45 10000 1 0 07:26 16.05.2020
3048 Clouds 18 1019 45 10000 1 0 06:57 16.05.2020
3049 Clouds 18 1019 45 10000 1 0 06:37 16.05.2020
3050 Clouds 18 1019 45 10000 1 0 06:18 16.05.2020
3051 Clouds 15 1019 62 10000 1.5 130 05:32 16.05.2020
3052 Clouds 11 1018 81 10000 1.5 0 03:37 16.05.2020
3053 Clouds 12 1018 62 10000 1.5 0 02:59 16.05.2020
3054 Clouds 12 1018 62 10000 1.5 0 02:21 16.05.2020
3055 Clouds 12 1018 66 10000 1.5 0 01:47 16.05.2020
3056 Clouds 12 1018 66 10000 1.5 0 01:22 16.05.2020
3057 Clouds 12 1017 76 10000 1.5 0 00:46 16.05.2020
3058 Clouds 12 1017 76 10000 1.5 0 00:22 16.05.2020
3059 Clouds 12 1018 76 10000 1 0 23:41 15.05.2020
3060 Clouds 12 1018 76 10000 1 0 23:20 15.05.2020
3061 Clear 13 1018 71 10000 1.5 0 22:58 15.05.2020
3062 Clear 13 1018 71 10000 1.5 0 22:38 15.05.2020
3063 Rain 13 1018 71 10000 1.5 0 22:18 15.05.2020
3064 Rain 13 1018 71 10000 1.5 0 22:18 15.05.2020
3065 Rain 14 1018 62 10000 3.1 350 21:40 15.05.2020
3066 Rain 14 1018 62 10000 3.1 350 21:21 15.05.2020
3067 Rain 14 1018 67 10000 1.5 0 20:59 15.05.2020
3068 Clear 14 1018 67 10000 1.5 0 20:40 15.05.2020
3069 Rain 14 1018 67 10000 1.5 0 20:22 15.05.2020
3070 Rain 14 1018 62 10000 1 0 19:56 15.05.2020
3071 Rain 14 1018 62 10000 1 0 19:37 15.05.2020
3072 Rain 14 1018 62 10000 1 0 19:37 15.05.2020
3073 Rain 14 1018 62 10000 1 0 19:19 15.05.2020
3074 Rain 16 1018 59 10000 5.1 10 18:43 15.05.2020
3075 Rain 16 1018 59 10000 5.1 10 18:24 15.05.2020
3076 Clouds 16 1018 59 10000 5.1 340 17:40 15.05.2020
3077 Clouds 16 1018 59 10000 5.1 340 17:20 15.05.2020
3078 Clouds 16 1018 59 10000 5.1 340 17:20 15.05.2020
3079 Clouds 17 1017 48 10000 4.1 30 16:58 15.05.2020
3080 Clouds 17 1017 48 10000 4.1 30 16:39 15.05.2020
3081 Clouds 17 1017 48 10000 4.1 30 16:19 15.05.2020
3082 Clouds 18 1018 52 10000 4.1 10 15:55 15.05.2020
3083 Clouds 18 1018 52 10000 4.1 10 15:37 15.05.2020
3084 Clouds 18 1018 52 10000 4.1 10 15:18 15.05.2020
3085 Thunderstorm 18 1017 52 10000 3.1 50 14:42 15.05.2020
3086 Thunderstorm 18 1017 52 10000 3.1 50 14:24 15.05.2020
3087 Clouds 19 1017 48 10000 5.1 50 13:58 15.05.2020
3088 Clouds 19 1017 48 10000 5.1 50 13:39 15.05.2020
3089 Clouds 19 1017 48 10000 5.1 50 13:20 15.05.2020
3090 Clouds 17 1018 63 10000 7.7 310 12:40 15.05.2020
3091 Clouds 17 1018 63 10000 7.7 310 12:40 15.05.2020
3092 Clouds 17 1018 63 10000 7.7 310 12:19 15.05.2020
3093 Clouds 17 1018 63 10000 7.7 310 12:19 15.05.2020
3094 Thunderstorm 20 1017 45 10000 5.1 70 11:57 15.05.2020
3095 Rain 21 1018 43 10000 3.1 100 11:38 15.05.2020
3096 Rain 21 1018 43 10000 3.1 100 11:20 15.05.2020
3097 Clouds 21 1018 46 10000 4.1 130 10:58 15.05.2020
3098 Clouds 21 1018 46 10000 4.1 130 10:39 15.05.2020
3099 Clouds 21 1018 46 10000 4.1 130 10:21 15.05.2020
3100 Clouds 20 1020 49 10000 2.6 120 09:58 15.05.2020
3101 Clouds 20 1020 49 10000 2.6 120 09:37 15.05.2020
3102 Clouds 20 1020 49 10000 2.6 120 09:18 15.05.2020
3103 Clouds 19 1020 55 10000 1.5 80 08:54 15.05.2020
3104 Clouds 19 1020 55 10000 1.5 80 08:36 15.05.2020
3105 Clouds 19 1020 55 10000 1.5 80 08:18 15.05.2020
3106 Clouds 18 1020 59 10000 1.5 330 07:42 15.05.2020
3107 Clouds 18 1020 59 10000 1.5 330 07:42 15.05.2020
3108 Clouds 18 1020 59 10000 1.5 330 07:23 15.05.2020
3109 Clouds 16 1021 67 10000 2.1 30 06:35 15.05.2020
3110 Mist 16 1021 72 10000 1.5 0 05:38 15.05.2020
3111 Clouds 11 1020 93 9000 1 0 03:52 15.05.2020
3112 Clouds 11 1020 93 9000 1 0 03:31 15.05.2020
3113 Clouds 12 1020 93 10000 1.5 160 01:37 15.05.2020
3114 Clouds 12 1020 93 10000 1.5 160 01:19 15.05.2020
3115 Clouds 12 1019 93 10000 1.5 0 00:43 15.05.2020
3116 Clouds 12 1019 93 10000 1.5 0 00:22 15.05.2020
3117 Clouds 12 1019 93 10000 1 0 23:42 14.05.2020
3118 Clouds 12 1019 93 10000 1 0 23:20 14.05.2020
3119 Clouds 12 1019 93 10000 1 0 22:55 14.05.2020
3120 Clear 13 1020 87 10000 0.5 0 22:37 14.05.2020
3121 Clear 13 1020 87 10000 0.5 0 22:19 14.05.2020
3122 Clouds 13 1020 87 10000 2.1 0 21:42 14.05.2020
3123 Clouds 13 1020 87 10000 2.1 0 21:42 14.05.2020
3124 Clouds 13 1020 87 10000 2.1 0 21:20 14.05.2020
3125 Clouds 14 1020 82 10000 2.1 0 20:59 14.05.2020
3126 Clouds 14 1020 82 10000 2.1 0 20:40 14.05.2020
3127 Clouds 14 1020 82 10000 2.1 0 20:20 14.05.2020
3128 Clouds 15 1019 72 10000 1 0 19:57 14.05.2020
3129 Clouds 15 1019 72 10000 1 0 19:39 14.05.2020
3130 Clouds 15 1019 72 10000 1 0 19:20 14.05.2020
3131 Clouds 14 1019 82 10000 2.1 0 18:57 14.05.2020
3132 Clouds 14 1019 82 10000 2.1 0 18:38 14.05.2020
3133 Clouds 14 1019 82 10000 2.1 0 18:19 14.05.2020
3134 Clouds 16 1018 67 10000 1.5 340 17:57 14.05.2020
3135 Clouds 16 1018 67 10000 1.5 340 17:37 14.05.2020
3136 Clouds 16 1018 67 10000 1.5 340 17:18 14.05.2020
3137 Clouds 17 1017 59 10000 2.1 330 16:41 14.05.2020
3138 Clouds 17 1017 59 10000 2.1 330 16:23 14.05.2020
3139 Clouds 19 1017 52 10000 1.5 310 15:59 14.05.2020
3140 Clouds 19 1017 52 10000 1.5 310 15:40 14.05.2020
3141 Clouds 19 1017 52 10000 1.5 310 15:40 14.05.2020
3142 Clouds 19 1017 52 10000 1.5 310 15:21 14.05.2020
3143 Clouds 18 1017 59 10000 4.1 350 14:57 14.05.2020
3144 Clouds 18 1017 59 10000 4.1 350 14:38 14.05.2020
3145 Clouds 18 1017 59 10000 4.1 350 14:20 14.05.2020
3146 Clouds 18 1017 59 10000 4.1 350 14:20 14.05.2020
3147 Clouds 19 1017 59 10000 4.1 360 13:57 14.05.2020
3148 Clouds 19 1017 59 10000 4.1 360 13:38 14.05.2020
3149 Clouds 19 1017 59 10000 4.1 360 13:38 14.05.2020
3150 Clouds 19 1017 59 10000 4.1 360 13:19 14.05.2020
3151 Clouds 19 1017 59 10000 3.1 360 12:57 14.05.2020
3152 Clouds 19 1017 59 10000 3.1 360 12:37 14.05.2020
3153 Clouds 19 1017 59 10000 3.1 360 12:18 14.05.2020
3154 Clouds 17 1018 67 10000 2.1 60 11:56 14.05.2020
3155 Clouds 17 1018 67 10000 2.1 60 11:37 14.05.2020
3156 Clouds 17 1018 67 10000 2.1 60 11:37 14.05.2020
3157 Clouds 17 1018 67 10000 2.1 60 11:19 14.05.2020
3158 Clouds 16 1016 77 10000 2.69 68 10:42 14.05.2020
3159 Clouds 14 1018 82 10000 4.1 340 10:24 14.05.2020
3160 Clouds 14 1018 82 10000 4.1 340 09:56 14.05.2020
3161 Clouds 14 1018 82 10000 4.1 340 09:56 14.05.2020
3162 Clouds 14 1018 82 10000 4.1 340 09:36 14.05.2020
3163 Clouds 14 1018 82 10000 4.1 340 09:18 14.05.2020
3164 Clouds 14 1017 82 10000 1.5 190 08:37 14.05.2020
3165 Clouds 12 1018 87 10000 4.1 340 08:19 14.05.2020
3166 Clouds 12 1018 87 10000 4.1 340 07:45 14.05.2020
3167 Clouds 12 1018 87 10000 4.1 340 07:45 14.05.2020
3168 Clouds 12 1018 87 10000 4.1 340 07:22 14.05.2020
3169 Clouds 12 1018 87 10000 3.6 340 06:44 14.05.2020
3170 Clouds 12 1018 87 10000 3.6 340 06:25 14.05.2020
3171 Rain 11 1018 87 9000 4.1 340 05:42 14.05.2020
3172 Rain 11 1018 87 9000 4.1 340 05:42 14.05.2020
3173 Rain 11 1018 93 10000 1.5 0 04:46 14.05.2020
3174 Rain 11 1018 93 10000 3.6 330 03:43 14.05.2020
3175 Rain 11 1018 93 10000 3.6 330 03:20 14.05.2020
3176 Rain 11 1018 93 9000 1 0 02:36 14.05.2020
3177 Clouds 11 1018 93 10000 1.5 170 01:52 14.05.2020
3178 Rain 12 1017 93 10000 2.1 0 00:54 14.05.2020
3179 Rain 12 1017 93 10000 2.1 0 00:28 14.05.2020
3180 Rain 12 1018 93 9000 2.6 330 23:45 13.05.2020
3181 Rain 12 1018 93 9000 3.6 330 23:25 13.05.2020
3182 Clouds 12 1018 87 10000 1.5 0 22:59 13.05.2020
3183 Clouds 12 1018 87 10000 1.5 0 22:41 13.05.2020
3184 Clouds 12 1018 87 10000 1.5 0 22:22 13.05.2020
3185 Clouds 13 1019 87 10000 3.6 20 21:58 13.05.2020
3186 Clouds 13 1019 87 10000 3.6 20 21:58 13.05.2020
3187 Clouds 13 1019 87 10000 3.6 20 21:39 13.05.2020
3188 Clouds 13 1019 87 10000 3.6 20 21:19 13.05.2020
3189 Rain 12 1020 93 10000 5.1 350 20:55 13.05.2020
3190 Rain 12 1020 93 10000 5.1 350 20:55 13.05.2020
3191 Rain 12 1020 93 10000 5.1 350 20:37 13.05.2020
3192 Rain 12 1020 93 10000 5.1 350 20:18 13.05.2020
3193 Rain 12 1020 93 8000 3.1 340 19:41 13.05.2020
3194 Rain 12 1020 93 8000 3.1 340 19:22 13.05.2020
3195 Thunderstorm 12 1020 93 8000 3.1 240 18:44 13.05.2020
3196 Thunderstorm 14 1019 87 6000 7.2 320 18:22 13.05.2020
3197 Thunderstorm 14 1019 87 6000 7.2 320 18:22 13.05.2020
3198 Thunderstorm 16 1018 72 8000 7.7 320 17:58 13.05.2020
3199 Clouds 17 1016 51 10000 2.6 70 17:38 13.05.2020
3200 Clouds 17 1016 51 10000 2.6 70 17:18 13.05.2020
3201 Clouds 18 1016 52 10000 5.1 90 16:40 13.05.2020
3202 Clouds 18 1016 52 10000 5.1 90 16:19 13.05.2020
3203 Clouds 20 1016 52 10000 4.1 90 15:55 13.05.2020
3204 Clouds 20 1016 52 10000 4.1 90 15:36 13.05.2020
3205 Clouds 20 1016 52 10000 4.1 90 15:36 13.05.2020
3206 Clouds 20 1016 52 10000 4.1 90 15:18 13.05.2020
3207 Clouds 20 1016 52 10000 4.1 90 14:42 13.05.2020
3208 Clouds 18 1016 63 10000 6.7 110 14:24 13.05.2020
3209 Clouds 19 1017 59 10000 1 0 13:59 13.05.2020
3210 Clouds 19 1017 59 10000 1 0 13:41 13.05.2020
3211 Rain 18 1018 72 10000 1.5 0 13:21 13.05.2020
3212 Rain 18 1018 72 10000 1.5 0 12:58 13.05.2020
3213 Rain 18 1018 72 10000 1.5 0 12:39 13.05.2020
3214 Rain 18 1018 72 10000 1.5 0 12:20 13.05.2020
3215 Rain 18 1018 63 10000 4.1 330 11:56 13.05.2020
3216 Rain 18 1018 63 10000 4.1 330 11:56 13.05.2020
3217 Rain 18 1018 63 10000 4.1 330 11:37 13.05.2020
3218 Rain 18 1018 63 10000 4.1 330 11:19 13.05.2020
3219 Rain 19 1018 55 10000 6.2 330 10:56 13.05.2020
3220 Rain 21 1018 43 10000 2.6 70 10:38 13.05.2020
3221 Rain 21 1018 43 10000 2.6 70 10:18 13.05.2020
3222 Clouds 22 1019 49 10000 2.6 80 09:43 13.05.2020
3223 Clouds 21 1020 52 10000 2.6 50 09:23 13.05.2020
3224 Clouds 22 1017 53 10000 1.5 140 08:57 13.05.2020
3225 Clouds 22 1017 53 10000 1.5 140 08:37 13.05.2020
3226 Clouds 20 1017 64 10000 1.22 68 08:18 13.05.2020
3227 Clouds 20 1017 64 10000 1.22 68 07:43 13.05.2020
3228 Clouds 20 1017 64 10000 0.75 74 07:25 13.05.2020
3229 Clouds 18 1017 72 10000 1.5 70 06:47 13.05.2020
3230 Clouds 17 1020 67 10000 1.5 0 06:28 13.05.2020
3231 Clouds 15 1020 77 10000 1 0 04:57 13.05.2020
3232 Clouds 14 1019 82 10000 1.5 90 03:27 13.05.2020
3233 Clouds 14 1019 76 10000 1.5 40 02:32 13.05.2020
3234 Clouds 14 1019 82 10000 1.5 0 01:37 13.05.2020
3235 Clouds 14 1019 76 10000 1.5 0 00:53 13.05.2020
3236 Clouds 14 1019 76 10000 1.5 0 00:22 13.05.2020
3237 Clouds 14 1020 76 10000 1.5 20 23:40 12.05.2020
3238 Clouds 14 1020 76 10000 1.5 20 23:21 12.05.2020
3239 Clouds 14 1020 76 10000 1.5 20 23:21 12.05.2020
3240 Clouds 14 1020 76 10000 1.5 20 23:21 12.05.2020
3241 Clouds 14 1020 76 10000 0.5 0 22:59 12.05.2020
3242 Clouds 14 1020 76 10000 0.5 0 22:41 12.05.2020
3243 Clouds 14 1020 76 10000 0.5 0 22:21 12.05.2020
3244 Clouds 14 1020 76 10000 4.1 320 21:56 12.05.2020
3245 Clouds 14 1020 76 10000 4.1 320 21:37 12.05.2020
3246 Clouds 14 1020 76 10000 4.1 320 21:37 12.05.2020
3247 Clouds 14 1020 76 10000 4.1 320 21:19 12.05.2020
3248 Rain 15 1020 72 10000 5.1 10 20:57 12.05.2020
3249 Rain 15 1020 72 10000 5.1 10 20:38 12.05.2020
3250 Rain 15 1020 72 10000 5.1 10 20:20 12.05.2020
3251 Clouds 16 1020 67 10000 2.1 0 19:56 12.05.2020
3252 Clouds 16 1020 67 10000 2.1 0 19:37 12.05.2020
3253 Clouds 16 1020 67 10000 2.1 0 19:19 12.05.2020
3254 Thunderstorm 16 1019 67 10000 6.7 350 18:43 12.05.2020
3255 Thunderstorm 15 1019 72 10000 5.7 360 18:24 12.05.2020
3256 Thunderstorm 17 1019 55 10000 3.6 350 17:58 12.05.2020
3257 Thunderstorm 17 1019 55 10000 3.6 350 17:39 12.05.2020
3258 Clouds 19 1018 52 10000 2.6 20 17:21 12.05.2020
3259 Thunderstorm 20 1017 52 10000 4.1 70 16:43 12.05.2020
3260 Thunderstorm 20 1017 52 10000 4.1 70 16:23 12.05.2020
3261 Clouds 20 1017 56 10000 3.1 90 15:56 12.05.2020
3262 Thunderstorm 20 1016 52 10000 7.7 140 15:37 12.05.2020
3263 Thunderstorm 20 1016 52 10000 7.7 140 15:18 12.05.2020
3264 Thunderstorm 20 1016 52 10000 7.7 140 15:18 12.05.2020
3265 Thunderstorm 20 1016 60 10000 5.1 130 14:55 12.05.2020
3266 Rain 22 1016 43 10000 7.7 120 14:36 12.05.2020
3267 Rain 22 1016 43 10000 7.7 120 14:18 12.05.2020
3268 Rain 25 1016 38 10000 5.1 120 13:56 12.05.2020
3269 Rain 25 1016 38 10000 5.1 120 13:37 12.05.2020
3270 Rain 25 1016 38 10000 5.1 120 13:18 12.05.2020
3271 Clouds 25 1017 31 10000 3.1 30 12:57 12.05.2020
3272 Clouds 25 1017 31 10000 3.1 30 12:38 12.05.2020
3273 Clouds 25 1017 31 10000 3.1 30 12:38 12.05.2020
3274 Clouds 25 1017 31 10000 3.1 30 12:20 12.05.2020
3275 Clouds 27 1018 28 10000 6.2 20 11:57 12.05.2020
3276 Clouds 27 1018 28 10000 6.2 20 11:57 12.05.2020
3277 Clouds 26 1014 34 10000 2.1 250 11:37 12.05.2020
3278 Clouds 26 1019 31 10000 2.6 40 11:19 12.05.2020
3279 Clouds 26 1019 31 10000 2.6 40 10:55 12.05.2020
3280 Clouds 26 1019 31 10000 2.6 40 10:37 12.05.2020
3281 Clouds 26 1019 31 10000 2.6 40 10:18 12.05.2020
3282 Clouds 25 1020 33 10000 2.6 50 09:57 12.05.2020
3283 Clouds 25 1020 33 10000 2.6 50 09:38 12.05.2020
3284 Clouds 25 1020 33 10000 2.6 50 09:19 12.05.2020
3285 Clouds 24 1020 36 10000 1.5 0 08:40 12.05.2020
3286 Clouds 24 1020 36 10000 1.5 0 08:21 12.05.2020
3287 Clouds 21 1020 46 10000 1.5 0 07:45 12.05.2020
3288 Clear 21 1020 46 10000 1.5 0 07:27 12.05.2020
3289 Clear 20 1021 45 10000 1.5 0 06:56 12.05.2020
3290 Clear 20 1021 45 10000 1.5 0 06:37 12.05.2020
3291 Clear 20 1021 45 10000 1.5 0 06:18 12.05.2020
3292 Clear 18 1020 52 10000 1.5 0 05:45 12.05.2020
3293 Clear 13 1020 82 10000 1 0 03:49 12.05.2020
3294 Clear 13 1020 82 10000 1 0 03:18 12.05.2020
3295 Clear 13 1020 82 10000 1 140 02:26 12.05.2020
3296 Clear 13 1020 82 10000 1 140 02:26 12.05.2020
3297 Clear 13 1020 71 10000 1 0 01:33 12.05.2020
3298 Clear 15 1020 62 10000 1 0 00:57 12.05.2020
3299 Clear 15 1020 62 10000 1 0 00:21 12.05.2020
3300 Clear 15 1021 67 10000 1.5 0 23:55 11.05.2020
3301 Clear 15 1021 67 10000 1.5 0 23:37 11.05.2020
3302 Clear 15 1021 67 10000 1.5 0 23:18 11.05.2020
3303 Clear 16 1022 55 10000 1.5 0 22:55 11.05.2020
3304 Clear 16 1022 55 10000 1.5 0 22:36 11.05.2020
3305 Clear 16 1022 55 10000 1.5 0 22:18 11.05.2020
3306 Clear 16 1022 59 10000 1.5 350 21:54 11.05.2020
3307 Clear 16 1022 59 10000 1.5 350 21:36 11.05.2020
3308 Clear 16 1022 59 10000 1.5 350 21:18 11.05.2020
3309 Clear 16 1022 67 10000 3.6 340 20:42 11.05.2020
3310 Clear 16 1022 67 10000 3.6 340 20:21 11.05.2020
3311 Clouds 17 1022 59 10000 3.1 90 19:58 11.05.2020
3312 Clouds 17 1022 59 10000 3.1 90 19:40 11.05.2020
3313 Clouds 17 1022 59 10000 3.1 90 19:21 11.05.2020
3314 Rain 18 1021 63 10000 2.1 90 18:56 11.05.2020
3315 Rain 18 1021 63 10000 2.1 90 18:38 11.05.2020
3316 Rain 18 1021 63 10000 2.1 90 18:18 11.05.2020
3317 Rain 19 1020 55 10000 2.6 80 17:57 11.05.2020
3318 Rain 19 1020 55 10000 2.6 80 17:38 11.05.2020
3319 Rain 19 1020 55 10000 2.6 80 17:19 11.05.2020
3320 Rain 19 1019 63 10000 5.1 120 16:42 11.05.2020
3321 Rain 19 1019 63 10000 5.1 120 16:23 11.05.2020
3322 Rain 20 1019 56 10000 3.1 130 15:59 11.05.2020
3323 Rain 20 1019 56 10000 3.1 130 15:40 11.05.2020
3324 Rain 20 1019 56 10000 3.1 130 15:19 11.05.2020
3325 Rain 21 1019 43 10000 2.1 70 14:56 11.05.2020
3326 Rain 21 1019 43 10000 2.1 70 14:56 11.05.2020
3327 Rain 21 1019 43 10000 2.1 70 14:38 11.05.2020
3328 Rain 21 1019 43 10000 2.1 70 14:19 11.05.2020
3329 Clouds 22 1019 43 10000 6.2 70 13:42 11.05.2020
3330 Clouds 22 1019 43 10000 6.2 70 13:22 11.05.2020
3331 Clouds 23 1018 40 10000 7.7 100 12:58 11.05.2020
3332 Clouds 23 1018 40 10000 7.7 100 12:40 11.05.2020
3333 Clouds 23 1018 40 10000 7.7 100 12:22 11.05.2020
3334 Clouds 24 1019 33 10000 2.1 110 11:57 11.05.2020
3335 Clouds 24 1019 33 10000 2.1 110 11:39 11.05.2020
3336 Clouds 24 1019 33 10000 2.1 110 11:21 11.05.2020
3337 Clouds 22 1019 43 10000 5.1 30 10:56 11.05.2020
3338 Clouds 22 1019 43 10000 5.1 30 10:38 11.05.2020
3339 Clouds 22 1019 43 10000 5.1 30 10:20 11.05.2020
3340 Rain 22 1020 49 10000 8.2 350 09:56 11.05.2020
3341 Rain 22 1020 49 10000 8.2 350 09:37 11.05.2020
3342 Rain 22 1020 49 10000 8.2 350 09:18 11.05.2020
3343 Rain 22 1020 49 10000 8.2 350 09:18 11.05.2020
3344 Rain 25 1020 36 10000 7.2 350 08:42 11.05.2020
3345 Clouds 22 1020 40 10000 4.1 60 08:23 11.05.2020
3346 Clouds 24 1020 36 10000 2.1 80 07:56 11.05.2020
3347 Clouds 24 1020 36 10000 2.1 80 07:38 11.05.2020
3348 Clouds 24 1020 36 10000 2.1 80 07:20 11.05.2020
3349 Clouds 24 1020 36 10000 2.1 80 07:20 11.05.2020
3350 Clouds 23 1020 38 9000 2.6 110 06:34 11.05.2020
3351 Clouds 20 1020 45 9000 1.5 160 05:51 11.05.2020
3352 Clouds 20 1020 45 9000 1.5 160 05:21 11.05.2020
3353 Rain 16 1019 59 10000 1.5 320 03:52 11.05.2020
3354 Rain 17 1018 55 10000 1.5 320 02:36 11.05.2020
3355 Rain 17 1018 51 10000 1.5 0 01:55 11.05.2020
3356 Clouds 17 1018 51 10000 1.5 0 00:57 11.05.2020
3357 Clouds 17 1018 51 10000 1.5 0 00:38 11.05.2020
3358 Clouds 17 1018 51 10000 1.5 0 00:18 11.05.2020
3359 Clouds 17 1018 51 10000 1.5 0 23:39 10.05.2020
3360 Clouds 17 1018 51 10000 1.5 0 23:19 10.05.2020
3361 Clouds 18 1015 55 10000 1.25 11 22:54 10.05.2020
3362 Clouds 18 1015 55 10000 1.25 11 22:36 10.05.2020
3363 Clouds 19 1019 39 10000 0.5 0 22:18 10.05.2020
3364 Clouds 17 1015 63 10000 1.32 14 21:41 10.05.2020
3365 Clouds 20 1019 37 10000 2.6 80 21:18 10.05.2020
3366 Clouds 20 1019 37 10000 2.6 80 20:42 10.05.2020
3367 Clouds 20 1019 37 10000 2.6 80 20:24 10.05.2020
3368 Clouds 20 1018 32 10000 2.1 0 19:57 10.05.2020
3369 Clouds 20 1018 32 10000 2.1 0 19:38 10.05.2020
3370 Clouds 20 1018 32 10000 2.1 0 19:20 10.05.2020
3371 Clouds 20 1018 32 10000 2.1 0 18:55 10.05.2020
3372 Clouds 20 1018 32 10000 2.1 0 18:36 10.05.2020
3373 Clouds 20 1018 32 10000 2.1 0 18:36 10.05.2020
3374 Clouds 20 1018 32 10000 2.1 0 18:18 10.05.2020
3375 Clouds 22 1018 24 10000 2.6 340 17:57 10.05.2020
3376 Clouds 22 1018 24 10000 2.6 340 17:37 10.05.2020
3377 Clouds 22 1018 24 10000 2.6 340 17:19 10.05.2020
3378 Clouds 24 1017 28 10000 3.6 350 16:43 10.05.2020
3379 Clouds 24 1017 23 10000 3.6 350 16:21 10.05.2020
3380 Clouds 26 1018 19 10000 2.6 40 15:58 10.05.2020
3381 Clouds 26 1018 19 10000 2.6 40 15:39 10.05.2020
3382 Clouds 26 1018 19 10000 2.6 40 15:21 10.05.2020
3383 Clouds 27 1018 19 10000 2.1 0 14:56 10.05.2020
3384 Clouds 27 1018 19 10000 2.1 0 14:37 10.05.2020
3385 Clouds 27 1018 19 10000 2.1 0 14:19 10.05.2020
3386 Clouds 27 1018 18 10000 4.1 60 13:57 10.05.2020
3387 Clouds 27 1018 18 10000 4.1 60 13:36 10.05.2020
3388 Clouds 27 1018 18 10000 4.1 60 13:18 10.05.2020
3389 Clouds 27 1019 18 10000 4.1 110 12:42 10.05.2020
3390 Clouds 27 1019 18 10000 4.1 110 12:22 10.05.2020
3391 Clouds 26 1020 19 10000 2.6 50 11:59 10.05.2020
3392 Clouds 26 1020 19 10000 2.6 50 11:40 10.05.2020
3393 Clouds 26 1020 19 10000 2.6 50 11:21 10.05.2020
3394 Clouds 26 1020 19 10000 2.6 90 10:55 10.05.2020
3395 Clouds 26 1020 19 10000 2.6 90 10:55 10.05.2020
3396 Clouds 26 1020 19 10000 2.6 90 10:37 10.05.2020
3397 Clouds 26 1020 19 10000 2.6 90 10:19 10.05.2020
3398 Clouds 24 1021 23 10000 2.6 150 09:42 10.05.2020
3399 Clouds 24 1021 23 10000 2.6 150 09:23 10.05.2020
3400 Clouds 24 1021 25 10000 2.6 360 08:57 10.05.2020
3401 Clouds 24 1021 25 10000 2.6 360 08:39 10.05.2020
3402 Clear 24 1021 25 10000 2.6 360 08:20 10.05.2020
3403 Clear 23 1022 27 10000 1 0 07:40 10.05.2020
3404 Clear 23 1022 27 10000 1 0 07:19 10.05.2020
3405 Clear 22 1022 30 10000 1.5 0 06:50 10.05.2020
3406 Clear 22 1022 30 10000 1.5 0 06:24 10.05.2020
3407 Clear 20 1022 40 10000 1 0 05:45 10.05.2020
3408 Clear 15 1021 62 10000 1.5 120 04:45 10.05.2020
3409 Clear 15 1021 62 10000 1.5 120 04:25 10.05.2020
3410 Clear 13 1021 66 10000 1.5 130 03:47 10.05.2020
3411 Clear 15 1020 44 10000 1 0 02:59 10.05.2020
3412 Clear 15 1020 44 10000 1 0 02:25 10.05.2020
3413 Clear 15 1020 47 10000 1.5 0 01:58 10.05.2020
3414 Clear 15 1020 47 10000 1.5 0 01:39 10.05.2020
3415 Clear 15 1020 47 10000 1.5 0 01:18 10.05.2020
3416 Clear 16 1020 48 10000 1.5 0 00:52 10.05.2020
3417 Clear 16 1020 48 10000 1.5 0 00:21 10.05.2020
3418 Clear 17 1020 39 10000 4.1 340 23:40 09.05.2020
3419 Clear 17 1020 39 10000 4.1 340 23:40 09.05.2020
3420 Clear 17 1020 39 10000 4.1 340 23:22 09.05.2020
3421 Clouds 21 1017 30 10000 8.2 350 22:59 09.05.2020
3422 Clouds 21 1017 30 10000 8.2 350 22:40 09.05.2020
3423 Rain 19 1020 37 10000 5.1 350 22:22 09.05.2020
3424 Rain 19 1020 37 10000 5.1 350 21:57 09.05.2020
3425 Rain 19 1020 37 10000 5.1 350 21:39 09.05.2020
3426 Rain 19 1020 37 10000 5.1 350 21:20 09.05.2020
3427 Clear 19 1020 37 10000 3.6 350 20:56 09.05.2020
3428 Clear 19 1020 37 10000 3.6 350 20:38 09.05.2020
3429 Clear 19 1020 37 10000 3.6 350 20:19 09.05.2020
3430 Clouds 20 1020 37 10000 5.7 40 19:40 09.05.2020
3431 Clouds 20 1020 37 10000 5.7 40 19:21 09.05.2020
3432 Clouds 20 1019 52 10000 1 0 18:59 09.05.2020
3433 Clouds 20 1019 52 10000 1 0 18:40 09.05.2020
3434 Clouds 20 1019 52 10000 1 0 18:21 09.05.2020
3435 Clouds 21 1017 46 10000 6.2 10 17:44 09.05.2020
3436 Clouds 21 1017 46 10000 6.2 10 17:23 09.05.2020
3437 Rain 22 1017 43 10000 4.6 10 16:55 09.05.2020
3438 Rain 22 1017 43 10000 4.6 10 16:37 09.05.2020
3439 Rain 22 1017 43 10000 4.6 10 16:18 09.05.2020
3440 Clouds 23 1017 40 10000 4.6 10 15:41 09.05.2020
3441 Clouds 23 1017 40 10000 4.6 10 15:22 09.05.2020
3442 Clouds 25 1017 33 10000 2.1 50 14:45 09.05.2020
3443 Clouds 25 1017 33 10000 2.1 50 14:20 09.05.2020
3444 Rain 23 1018 38 10000 5.1 330 14:00 09.05.2020
3445 Rain 23 1018 38 10000 5.1 330 13:41 09.05.2020
3446 Rain 23 1018 38 10000 5.1 330 13:22 09.05.2020
3447 Rain 24 1018 36 10000 2.6 50 12:58 09.05.2020
3448 Rain 24 1018 36 10000 2.6 50 12:39 09.05.2020
3449 Rain 24 1018 36 10000 2.6 50 12:39 09.05.2020
3450 Rain 24 1018 36 10000 2.6 50 12:21 09.05.2020
3451 Clouds 26 1019 27 10000 1.5 0 11:44 09.05.2020
3452 Clouds 26 1019 27 10000 1.5 0 11:20 09.05.2020
3453 Clouds 25 1020 31 10000 2.1 140 10:48 09.05.2020
3454 Clouds 25 1020 31 10000 2.1 140 10:27 09.05.2020
3455 Clouds 24 1020 36 10000 2.6 60 09:59 09.05.2020
3456 Clouds 24 1020 36 10000 2.6 60 09:41 09.05.2020
3457 Clouds 24 1020 36 10000 2.6 60 09:19 09.05.2020
3458 Clouds 22 1021 40 10000 3.1 90 08:52 09.05.2020
3459 Clouds 22 1021 40 10000 3.1 90 08:34 09.05.2020
3460 Clouds 21 1021 43 10000 1 0 07:55 09.05.2020
3461 Clouds 21 1021 43 10000 1 0 07:37 09.05.2020
3462 Clouds 21 1021 43 10000 1 0 07:19 09.05.2020
3463 Clouds 21 1021 43 10000 1.5 0 06:26 09.05.2020
3464 Clouds 20 1021 42 10000 1.5 0 05:50 09.05.2020
3465 Clouds 15 1021 62 10000 1 0 04:58 09.05.2020
3466 Clouds 14 1020 67 10000 1.5 0 03:39 09.05.2020
3467 Clouds 14 1020 67 10000 1.5 80 02:53 09.05.2020
3468 Clouds 14 1020 67 10000 1.5 80 02:23 09.05.2020
3469 Clouds 14 1020 67 10000 1 0 01:47 09.05.2020
3470 Clouds 14 1020 67 10000 1 0 01:20 09.05.2020
3471 Clouds 16 1020 59 10000 3.1 160 00:40 09.05.2020
3472 Clouds 15 1020 58 10000 3.1 330 23:58 08.05.2020
3473 Clouds 15 1020 58 10000 3.1 330 23:39 08.05.2020
3474 Clouds 15 1020 58 10000 3.1 330 23:20 08.05.2020
3475 Clouds 16 1020 55 10000 1.5 0 22:55 08.05.2020
3476 Clouds 16 1020 55 10000 1.5 0 22:36 08.05.2020
3477 Rain 16 1020 55 10000 1.5 0 22:18 08.05.2020
3478 Rain 16 1020 59 10000 4.1 270 21:54 08.05.2020
3479 Rain 16 1020 59 10000 4.1 270 21:36 08.05.2020
3480 Clouds 16 1020 59 10000 4.1 270 21:18 08.05.2020
3481 Clouds 18 1019 52 10000 6.2 360 20:41 08.05.2020
3482 Clouds 17 1019 55 10000 3.1 340 20:23 08.05.2020
3483 Clouds 17 1019 55 10000 3.1 340 19:56 08.05.2020
3484 Clouds 17 1019 55 10000 3.1 340 19:37 08.05.2020
3485 Rain 17 1019 55 10000 3.1 340 19:19 08.05.2020
3486 Rain 18 1018 48 10000 0.5 0 18:44 08.05.2020
3487 Rain 18 1018 48 10000 0.5 0 18:44 08.05.2020
3488 Rain 18 1018 48 10000 0.5 0 18:26 08.05.2020
3489 Clouds 17 1018 55 10000 1.5 0 17:43 08.05.2020
3490 Clouds 17 1018 55 10000 1.5 0 17:20 08.05.2020
3491 Clouds 20 1017 42 10000 4.1 170 16:55 08.05.2020
3492 Clouds 20 1017 42 10000 4.1 170 16:37 08.05.2020
3493 Clouds 20 1017 42 10000 4.1 170 16:18 08.05.2020
3494 Rain 22 1016 35 10000 5.7 330 15:42 08.05.2020
3495 Rain 22 1016 35 10000 5.7 330 15:20 08.05.2020
3496 Thunderstorm 23 1017 28 10000 5.7 300 14:56 08.05.2020
3497 Thunderstorm 23 1017 28 10000 5.7 300 14:56 08.05.2020
3498 Rain 24 1016 23 10000 1.5 0 14:37 08.05.2020
3499 Rain 24 1016 23 10000 1.5 0 14:18 08.05.2020
3500 Clouds 25 1016 23 10000 4.6 230 13:41 08.05.2020
3501 Clouds 25 1016 23 10000 4.6 230 13:41 08.05.2020
3502 Clouds 25 1016 23 10000 4.6 230 13:20 08.05.2020
3503 Clouds 24 1017 25 10000 3.1 180 12:59 08.05.2020
3504 Clouds 24 1017 25 10000 3.1 180 12:38 08.05.2020
3505 Clouds 24 1017 25 10000 3.1 180 12:20 08.05.2020
3506 Rain 25 1017 27 10000 4.1 190 11:44 08.05.2020
3507 Rain 25 1017 27 10000 4.1 190 11:23 08.05.2020
3508 Clouds 25 1018 25 10000 5.1 130 10:59 08.05.2020
3509 Clouds 25 1018 25 10000 5.1 130 10:40 08.05.2020
3510 Rain 22 1018 33 10000 7.7 230 10:19 08.05.2020
3511 Clouds 25 1019 29 10000 1 170 09:56 08.05.2020
3512 Clouds 25 1019 29 10000 1 170 09:38 08.05.2020
3513 Clouds 25 1019 29 10000 1 170 09:18 08.05.2020
3514 Clouds 23 1019 31 10000 1 0 08:42 08.05.2020
3515 Clouds 23 1019 31 10000 1 0 08:21 08.05.2020
3516 Clouds 21 1020 37 10000 1.5 150 07:43 08.05.2020
3517 Clouds 21 1020 37 10000 1.5 150 07:43 08.05.2020
3518 Clouds 21 1020 37 10000 1.5 150 07:24 08.05.2020
3519 Clouds 20 1020 42 10000 1.5 0 06:51 08.05.2020
3520 Clouds 20 1020 42 10000 1.5 0 06:23 08.05.2020
3521 Clouds 18 1020 48 10000 2.6 250 05:42 08.05.2020
3522 Clouds 15 1020 62 10000 2.6 240 04:32 08.05.2020
3523 Clouds 15 1019 67 10000 1.5 0 02:33 08.05.2020
3524 Clouds 14 1020 71 10000 2.1 10 01:47 08.05.2020
3525 Clouds 14 1020 71 10000 2.1 10 01:27 08.05.2020
3526 Clouds 14 1021 76 10000 2.1 110 00:51 08.05.2020
3527 Clouds 14 1021 76 10000 2.1 110 00:29 08.05.2020
3528 Clouds 14 1021 76 10000 2.1 110 23:58 07.05.2020
3529 Clouds 14 1021 76 10000 2.1 110 23:40 07.05.2020
3530 Clouds 15 1021 67 10000 1.5 0 23:21 07.05.2020
3531 Clouds 15 1021 67 10000 1.5 0 22:55 07.05.2020
3532 Clouds 14 1022 76 10000 1.5 0 22:37 07.05.2020
3533 Rain 14 1022 76 10000 1.5 0 22:19 07.05.2020
3534 Rain 14 1022 71 10000 1 0 21:55 07.05.2020
3535 Rain 14 1022 71 10000 1 0 21:36 07.05.2020
3536 Rain 14 1022 71 10000 1 0 21:18 07.05.2020
3537 Rain 15 1022 67 10000 2.6 140 20:42 07.05.2020
3538 Rain 15 1022 67 10000 2.6 140 20:21 07.05.2020
3539 Clouds 15 1022 67 10000 4.1 70 19:54 07.05.2020
3540 Clouds 15 1022 67 10000 4.1 70 19:36 07.05.2020
3541 Clouds 15 1022 67 10000 4.1 70 19:18 07.05.2020
3542 Clouds 15 1022 67 10000 4.1 70 18:41 07.05.2020
3543 Rain 19 1022 48 10000 7.2 220 18:23 07.05.2020
3544 Clouds 22 1019 28 10000 5.7 340 17:43 07.05.2020
3545 Clouds 22 1019 28 10000 5.7 340 17:21 07.05.2020
3546 Clouds 22 1019 28 10000 5.7 340 17:21 07.05.2020
3547 Clouds 23 1018 25 10000 3.1 340 16:56 07.05.2020
3548 Clouds 23 1018 25 10000 3.1 340 16:38 07.05.2020
3549 Clouds 23 1018 25 10000 3.1 340 16:18 07.05.2020
3550 Clouds 24 1017 22 10000 3.1 30 15:55 07.05.2020
3551 Clouds 24 1017 22 10000 3.1 30 15:36 07.05.2020
3552 Clouds 24 1017 22 10000 3.1 30 15:18 07.05.2020
3553 Clouds 25 1016 25 10000 2.1 50 14:41 07.05.2020
3554 Clouds 25 1016 21 10000 2.1 50 14:20 07.05.2020
3555 Clouds 26 1016 15 10000 3.6 30 13:44 07.05.2020
3556 Clouds 26 1016 15 10000 3.6 30 13:25 07.05.2020
3557 Clouds 25 1017 16 10000 2.1 70 12:45 07.05.2020
3558 Clouds 25 1017 16 10000 2.1 70 12:45 07.05.2020
3559 Clouds 25 1017 16 10000 2.1 70 12:20 07.05.2020
3560 Clouds 25 1017 16 10000 1.5 0 11:59 07.05.2020
3561 Clouds 25 1017 16 10000 1.5 0 11:39 07.05.2020
3562 Clouds 25 1017 16 10000 1.5 0 11:21 07.05.2020
3563 Clouds 25 1018 17 10000 1.5 0 10:43 07.05.2020
3564 Clouds 25 1018 17 10000 1.5 0 10:24 07.05.2020
3565 Clouds 25 1019 21 10000 1.5 290 09:41 07.05.2020
3566 Clouds 25 1019 23 10000 1.5 290 09:21 07.05.2020
3567 -273 0 0 0 0 0 08:59 07.05.2020
3568 Clouds 23 1019 20 10000 2.1 140 08:41 07.05.2020
3569 Clear 23 1019 20 10000 2.1 140 08:21 07.05.2020
3570 Clear 22 1020 25 10000 1 0 07:46 07.05.2020
3571 Clear 22 1020 27 10000 1 0 07:28 07.05.2020
3572 Clear 19 1020 29 10000 1 0 06:56 07.05.2020
3573 Clear 19 1020 29 10000 1 0 06:35 07.05.2020
3574 Clear 17 1020 36 10000 2.1 320 05:38 07.05.2020
3575 Clear 14 1020 50 10000 2.6 330 04:25 07.05.2020
3576 Clear 11 1019 57 10000 1 0 03:26 07.05.2020
3577 Clear 11 1019 53 10000 1.5 0 02:53 07.05.2020
3578 Clear 11 1019 57 10000 1 0 01:46 07.05.2020
3579 Clear 11 1019 57 10000 1 0 01:24 07.05.2020
3580 Clear 11 1019 57 10000 2.1 130 00:50 07.05.2020
3581 Clear 11 1019 57 10000 2.1 130 00:29 07.05.2020
3582 Clear 12 1019 46 10000 1.5 0 23:57 06.05.2020
3583 Clear 12 1019 46 10000 1.5 0 23:38 06.05.2020
3584 Clear 12 1019 46 10000 1.5 0 23:19 06.05.2020
3585 Clear 14 1020 41 10000 1.5 0 22:54 06.05.2020
3586 Clear 14 1020 41 10000 1.5 0 22:36 06.05.2020
3587 Clear 14 1020 41 10000 1.5 0 22:18 06.05.2020
3588 Clear 13 1020 43 10000 2.6 310 21:42 06.05.2020
3589 Clear 13 1020 43 10000 2.6 310 21:21 06.05.2020
3590 Clear 16 1020 31 10000 3.1 260 20:54 06.05.2020
3591 Clear 16 1020 31 10000 3.1 260 20:36 06.05.2020
3592 Clear 16 1020 31 10000 3.1 260 20:18 06.05.2020
3593 Clear 17 1020 29 10000 6.2 350 19:55 06.05.2020
3594 Clear 17 1020 29 10000 6.2 350 19:36 06.05.2020
3595 Clear 17 1020 29 10000 6.2 350 19:18 06.05.2020
3596 Clear 19 1019 24 10000 6.7 360 18:54 06.05.2020
3597 Clear 19 1019 24 10000 6.7 360 18:36 06.05.2020
3598 Clear 19 1019 24 10000 6.7 360 18:18 06.05.2020
3599 Clear 20 1018 20 10000 3.6 10 17:40 06.05.2020
3600 Clear 20 1018 20 10000 3.6 10 17:22 06.05.2020
3601 Clear 21 1018 21 10000 3.6 40 16:59 06.05.2020
3602 Clear 21 1018 21 10000 3.6 40 16:41 06.05.2020
3603 Clear 21 1018 21 10000 3.6 40 16:41 06.05.2020
3604 Clear 21 1018 21 10000 3.6 40 16:22 06.05.2020
3605 Clouds 22 1018 21 10000 4.6 30 15:59 06.05.2020
3606 Clouds 22 1018 21 10000 4.6 30 15:41 06.05.2020
3607 Clouds 22 1018 21 10000 4.6 30 15:22 06.05.2020
3608 Clouds 23 1017 20 10000 7.7 10 14:56 06.05.2020
3609 Clouds 23 1017 20 10000 7.7 10 14:37 06.05.2020
3610 Clouds 23 1017 20 10000 7.7 10 14:18 06.05.2020
3611 Clouds 23 1018 20 10000 5.1 10 13:56 06.05.2020
3612 Clouds 23 1018 20 10000 5.1 10 13:36 06.05.2020
3613 Clouds 23 1018 20 10000 5.1 10 13:18 06.05.2020
3614 Clouds 23 1018 21 10000 5.1 10 12:42 06.05.2020
3615 Clouds 23 1018 22 10000 5.1 10 12:23 06.05.2020
3616 Clouds 22 1019 22 10000 5.1 360 11:41 06.05.2020
3617 Clouds 22 1019 22 10000 5.1 360 11:21 06.05.2020
3618 Clouds 24 1016 22 10000 8.7 10 10:58 06.05.2020
3619 Clouds 24 1016 22 10000 8.7 10 10:38 06.05.2020
3620 Clouds 22 1021 24 10000 1.5 0 10:19 06.05.2020
3621 Clouds 22 1021 24 10000 1.5 0 09:45 06.05.2020
3622 Clouds 22 1021 24 10000 1.5 0 09:24 06.05.2020
3623 Clouds 21 1021 26 10000 1.5 0 08:55 06.05.2020
3624 Clouds 21 1021 26 10000 1.5 0 08:55 06.05.2020
3625 Clouds 21 1021 26 10000 1.5 0 08:36 06.05.2020
3626 Clouds 21 1021 26 10000 1.5 0 08:18 06.05.2020
3627 Clouds 19 1021 29 10000 2.6 0 07:40 06.05.2020
3628 Clouds 19 1021 29 10000 2.6 0 07:21 06.05.2020
3629 Clouds 18 1020 34 10000 1 0 06:56 06.05.2020
3630 Clouds 18 1020 34 10000 1 0 06:38 06.05.2020
3631 Clouds 18 1020 34 10000 1 0 06:18 06.05.2020
3632 Clouds 15 1021 44 10000 2.1 290 05:37 06.05.2020
3633 Clear 11 1020 62 10000 1.5 0 04:40 06.05.2020
3634 Clouds 11 1020 53 10000 2.6 360 03:44 06.05.2020
3635 Clouds 11 1020 53 10000 2.6 360 03:22 06.05.2020
3636 Clouds 9 1020 61 10000 2.1 320 02:30 06.05.2020
3637 Clouds 11 1020 50 10000 1 330 01:55 06.05.2020
3638 Clouds 11 1020 50 10000 1 330 01:33 06.05.2020
3639 Clouds 12 1021 46 10000 3.6 300 00:54 06.05.2020
3640 Clouds 12 1021 46 10000 3.6 300 00:27 06.05.2020
3641 Clouds 13 1021 43 10000 6.2 340 23:57 05.05.2020
3642 Clouds 13 1021 43 10000 6.2 340 23:38 05.05.2020
3643 Clouds 13 1021 43 10000 6.2 340 23:18 05.05.2020
3644 Clouds 13 1022 43 10000 5.1 330 22:42 05.05.2020
3645 Clouds 13 1022 43 10000 5.1 330 22:20 05.05.2020
3646 Clouds 13 1022 43 10000 5.1 330 21:58 05.05.2020
3647 Clouds 13 1022 43 10000 5.1 330 21:58 05.05.2020
3648 Clouds 15 1021 49 10000 7.7 10 21:39 05.05.2020
3649 Clouds 15 1021 47 10000 7.7 10 21:20 05.05.2020
3650 Clouds 12 1022 46 10000 3.1 300 20:58 05.05.2020
3651 Clouds 17 1019 33 10000 14.4 10 20:39 05.05.2020
3652 Clouds 15 1021 45 10000 3.1 310 20:18 05.05.2020
3653 Clouds 15 1021 45 10000 3.1 310 19:54 05.05.2020
3654 Clouds 15 1021 45 10000 3.1 310 19:36 05.05.2020
3655 Clouds 15 1021 42 10000 3.1 310 19:18 05.05.2020
3656 Clouds 17 1021 29 10000 9.3 10 18:42 05.05.2020
3657 Clouds 17 1021 29 10000 9.3 10 18:20 05.05.2020
3658 Clouds 18 1020 23 10000 9.3 20 17:59 05.05.2020
3659 Clouds 18 1020 23 10000 9.3 20 17:41 05.05.2020
3660 Clouds 18 1020 23 10000 9.3 20 17:23 05.05.2020
3661 Clouds 19 1019 22 10000 5.1 20 16:57 05.05.2020
3662 Clouds 19 1019 22 10000 5.1 20 16:36 05.05.2020
3663 Clouds 19 1019 22 10000 5.1 20 16:18 05.05.2020
3664 Clouds 19 1019 22 10000 5.1 20 16:18 05.05.2020
3665 Clouds 19 1019 22 10000 5.1 20 16:18 05.05.2020
3666 Clouds 21 1019 21 10000 6.2 360 15:41 05.05.2020
3667 Clouds 21 1019 21 10000 6.2 360 15:22 05.05.2020
3668 Clouds 22 1019 19 10000 4.6 50 14:58 05.05.2020
3669 Clouds 22 1019 19 10000 4.6 50 14:39 05.05.2020
3670 Clouds 22 1019 19 10000 4.6 50 14:39 05.05.2020
3671 Clouds 22 1019 19 10000 4.6 50 14:21 05.05.2020
3672 Clouds 23 1019 18 10000 3.1 0 13:58 05.05.2020
3673 Clouds 23 1019 18 10000 3.1 0 13:39 05.05.2020
3674 Clouds 23 1019 18 10000 3.1 0 13:21 05.05.2020
3675 Clouds 23 1019 11 10000 6.7 350 12:58 05.05.2020
3676 Clouds 23 1019 11 10000 6.7 350 12:39 05.05.2020
3677 Clouds 23 1019 11 10000 6.7 350 12:19 05.05.2020
3678 Clouds 22 1020 28 10000 5.7 40 11:42 05.05.2020
3679 Clouds 22 1020 28 10000 5.7 40 11:21 05.05.2020
3680 Clouds 22 1020 26 10000 2.6 0 10:59 05.05.2020
3681 Clouds 22 1020 26 10000 2.6 0 10:39 05.05.2020
3682 Clouds 22 1020 26 10000 2.6 0 10:19 05.05.2020
3683 Clouds 21 1021 26 10000 2.6 0 09:57 05.05.2020
3684 Clouds 21 1021 26 10000 2.6 0 09:39 05.05.2020
3685 Clouds 21 1021 26 10000 2.6 0 09:20 05.05.2020
3686 Clouds 19 1021 32 10000 2.6 0 08:41 05.05.2020
3687 Clouds 19 1021 32 10000 2.6 0 08:20 05.05.2020
3688 Clouds 18 1022 34 10000 2.1 0 07:57 05.05.2020
3689 Clouds 18 1022 34 10000 2.1 0 07:38 05.05.2020
3690 Clouds 18 1022 34 10000 2.1 0 07:18 05.05.2020
3691 Clouds 18 1022 39 10000 2.1 0 06:45 05.05.2020
3692 Clouds 18 1022 39 10000 2.1 0 06:21 05.05.2020
3693 Clouds 16 1022 55 10000 2.6 290 05:36 05.05.2020
3694 Clouds 11 1021 87 10000 1.5 240 03:34 05.05.2020
3695 Clouds 11 1021 87 10000 1.5 140 01:27 05.05.2020
3696 Clouds 11 1021 87 10000 1 140 00:50 05.05.2020
3697 Clouds 11 1021 87 10000 1 140 00:20 05.05.2020
3698 Clouds 12 1021 81 10000 0.5 180 23:43 04.05.2020
3699 Clouds 12 1021 81 10000 0.5 180 23:21 04.05.2020
3700 Clouds 13 1022 76 10000 1 200 22:56 04.05.2020
3701 Clouds 13 1022 76 10000 1 200 22:38 04.05.2020
3702 Clouds 13 1022 76 10000 1 200 22:19 04.05.2020
3703 Clouds 14 1022 71 10000 1 0 21:53 04.05.2020
3704 Clouds 14 1022 71 10000 1 0 21:53 04.05.2020
3705 Clouds 14 1022 71 10000 1 0 21:30 04.05.2020
3706 Clouds 14 1022 76 10000 2.1 130 20:54 04.05.2020
3707 Clouds 14 1022 76 10000 2.1 130 20:36 04.05.2020
3708 Clouds 14 1022 76 10000 2.1 130 20:18 04.05.2020
3709 Clouds 13 1021 82 10000 1 0 19:40 04.05.2020
3710 Clouds 13 1021 82 10000 1 0 19:20 04.05.2020
3711 Clouds 16 1021 59 10000 3.1 60 18:55 04.05.2020
3712 Clouds 16 1021 59 10000 3.1 60 18:55 04.05.2020
3713 Clouds 16 1021 59 10000 3.1 60 18:37 04.05.2020
3714 Clouds 16 1021 59 10000 3.1 60 18:18 04.05.2020
3715 Clouds 15 1020 67 10000 4.1 100 17:55 04.05.2020
3716 Clouds 15 1020 67 10000 4.1 100 17:55 04.05.2020
3717 Clouds 17 1019 48 10000 3.6 100 17:36 04.05.2020
3718 Clouds 17 1019 48 10000 3.6 100 17:18 04.05.2020
3719 Clouds 18 1019 45 10000 3.6 0 16:42 04.05.2020
3720 Clouds 18 1019 45 10000 3.6 0 16:42 04.05.2020
3721 Clouds 18 1019 45 10000 3.6 0 16:21 04.05.2020
3722 Clouds 21 1018 32 10000 5.1 340 15:46 04.05.2020
3723 Clouds 21 1018 32 10000 5.1 340 15:25 04.05.2020
3724 Clouds 21 1018 32 10000 5.1 340 15:25 04.05.2020
3725 Clouds 22 1018 30 10000 3.1 0 14:57 04.05.2020
3726 Clouds 22 1018 30 10000 3.1 0 14:57 04.05.2020
3727 Clouds 22 1018 30 10000 3.1 0 14:38 04.05.2020
3728 Clouds 22 1018 30 10000 3.1 0 14:38 04.05.2020
3729 Clouds 22 1018 30 10000 3.1 0 14:38 04.05.2020
3730 Clouds 22 1018 30 10000 3.1 0 14:38 04.05.2020
3731 Clouds 22 1018 30 10000 3.1 0 14:38 04.05.2020
3732 Clouds 23 1019 27 10000 3.1 0 13:55 04.05.2020
3733 Clouds 23 1019 27 10000 3.1 0 13:46 04.05.2020
3734 Clouds 23 1019 27 10000 3.1 0 13:46 04.05.2020
3735 Clouds 23 1019 27 10000 3.1 0 13:46 04.05.2020
3736 Clouds 23 1019 27 10000 3.1 0 13:46 04.05.2020
3737 Clouds 23 1019 25 10000 2.6 0 12:48 04.05.2020
3738 Clouds 23 1019 25 10000 2.6 0 12:48 04.05.2020
3739 Clouds 23 1019 25 10000 2.6 0 12:47 04.05.2020
3740 Clouds 23 1019 25 10000 2.6 0 12:46 04.05.2020
3741 Clouds 23 1019 25 10000 2.6 0 12:46 04.05.2020
3742 Clouds 23 1019 25 10000 2.6 0 12:20 04.05.2020
3743 Clouds 23 1019 25 10000 2.6 0 12:20 04.05.2020
3744 Clouds 21 1020 37 10000 2.1 0 09:33 04.05.2020
3745 Clouds 21 1021 32 10000 2.1 0 08:56 04.05.2020
3746 Clouds 21 1021 32 10000 2.1 0 08:56 04.05.2020
3747 Clouds 21 1021 32 10000 2.1 0 08:56 04.05.2020
3748 Clouds 21 1021 32 10000 2.1 0 08:56 04.05.2020
3749 Clouds 21 1021 32 10000 2.1 0 08:55 04.05.2020
3750 Clouds 21 1021 40 10000 1.5 0 07:45 04.05.2020
3751 Clouds 21 1021 40 10000 1.5 0 07:45 04.05.2020
3752 Clouds 21 1021 40 10000 1.5 0 07:45 04.05.2020
3753 Clouds 21 1021 40 10000 1.5 0 07:17 04.05.2020
3754 Clouds 21 1021 40 10000 1.5 0 07:17 04.05.2020
3755 Clouds 21 1021 40 10000 1.5 0 07:17 04.05.2020
3756 Clear 14 1020 67 10000 0.81 342 04:55 04.05.2020
3757 Clear 11 1019 76 10000 1 320 03:18 04.05.2020
3758 Clear 12 1019 71 10000 0.5 310 02:30 04.05.2020
3759 Clear 13 1018 71 10000 1.19 357 00:38 04.05.2020
3760 Clear 13 1018 66 10000 1.5 100 23:46 03.05.2020
3761 Clear 13 1018 66 10000 1.5 100 23:24 03.05.2020
3762 Clear 13 1019 58 10000 2.1 120 22:56 03.05.2020
3763 Clear 13 1019 58 10000 2.1 120 22:38 03.05.2020
3764 Clear 13 1019 58 10000 2.1 120 22:19 03.05.2020
3765 Clear 15 1019 44 10000 2.1 300 21:41 03.05.2020
3766 Clear 15 1019 44 10000 2.1 300 21:41 03.05.2020
3767 Clear 15 1019 44 10000 2.1 300 21:20 03.05.2020
3768 Clear 16 1019 41 10000 2.1 320 20:47 03.05.2020
3769 Clear 16 1019 41 10000 2.1 320 20:23 03.05.2020
3770 Clear 17 1018 42 10000 1.35 357 19:55 03.05.2020
3771 Clear 17 1018 42 10000 1.35 357 19:55 03.05.2020
3772 Clear 17 1018 42 10000 1.35 357 19:36 03.05.2020
3773 Clear 17 1018 42 10000 1.49 354 19:18 03.05.2020
3774 Clouds 18 1018 39 10000 2.6 330 18:39 03.05.2020
3775 Clouds 18 1018 39 10000 2.6 330 18:20 03.05.2020
3776 Clouds 18 1017 48 10000 4.6 350 17:42 03.05.2020
3777 Clouds 18 1017 48 10000 4.6 350 17:22 03.05.2020
3778 Clouds 20 1017 40 10000 4.6 360 16:57 03.05.2020
3779 Clouds 20 1017 40 10000 4.6 360 16:57 03.05.2020
3780 Clouds 20 1017 40 10000 4.6 360 16:57 03.05.2020
3781 Clouds 20 1017 40 10000 4.6 360 16:57 03.05.2020
3782 Clouds 20 1017 40 10000 4.6 360 16:57 03.05.2020
3783 Clouds 20 1017 40 10000 4.6 360 16:37 03.05.2020
3784 Clouds 20 1017 40 10000 4.6 360 16:18 03.05.2020
3785 Clouds 21 1017 37 10000 5.1 360 15:55 03.05.2020
3786 Clouds 21 1017 37 10000 5.1 360 15:37 03.05.2020
3787 Clouds 21 1017 37 10000 5.1 360 15:18 03.05.2020
3788 Clouds 21 1017 37 10000 5.1 360 15:18 03.05.2020
3789 Clouds 21 1017 43 10000 5.1 360 14:41 03.05.2020
3790 Clouds 21 1017 43 10000 5.1 360 14:41 03.05.2020
3791 Clouds 21 1017 43 10000 5.1 360 14:22 03.05.2020
3792 Clouds 21 1017 43 10000 5.1 360 14:22 03.05.2020
3793 Clouds 21 1017 43 10000 5.1 360 14:22 03.05.2020
3794 Clouds 22 1017 35 10000 5.1 30 13:57 03.05.2020
3795 Clouds 22 1017 35 10000 5.1 30 13:33 03.05.2020
3796 Clouds 22 1017 35 10000 5.1 30 13:33 03.05.2020
3797 Clouds 22 1017 35 10000 5.1 30 13:33 03.05.2020
3798 Clouds 22 1017 35 10000 5.1 30 13:33 03.05.2020
3799 Clouds 22 1018 28 10000 2.1 0 12:47 03.05.2020
3800 Clouds 22 1018 28 10000 2.1 0 12:25 03.05.2020
3801 Clouds 22 1018 28 10000 2.1 0 12:25 03.05.2020
3802 Clouds 22 1018 28 10000 2.1 0 12:25 03.05.2020
3803 Clouds 23 1019 27 10000 3.1 0 11:57 03.05.2020
3804 Clouds 23 1019 27 10000 3.1 0 11:39 03.05.2020
3805 Clouds 23 1019 27 10000 3.1 0 11:20 03.05.2020
3806 Clouds 23 1019 31 10000 2.1 0 10:52 03.05.2020
3807 Clouds 23 1019 31 10000 2.1 0 10:52 03.05.2020
3808 Clouds 23 1019 31 10000 2.1 0 10:52 03.05.2020
3809 Clouds 23 1019 31 10000 2.1 0 10:52 03.05.2020
3810 Clouds 23 1019 31 10000 2.1 0 10:52 03.05.2020
3811 Clouds 23 1019 31 10000 2.1 0 10:24 03.05.2020
3812 Clouds 23 1019 31 10000 2.1 0 10:24 03.05.2020
3813 Clouds 23 1019 31 10000 2.1 0 10:24 03.05.2020
3814 Clouds 23 1019 31 10000 2.1 0 10:24 03.05.2020
3815 Clouds 21 1020 35 10000 2.1 0 09:39 03.05.2020
3816 Clouds 20 1021 34 10000 3.1 0 08:57 03.05.2020
3817 Clouds 20 1021 34 10000 3.1 0 08:31 03.05.2020
3818 Clouds 20 1021 34 10000 3.1 0 08:31 03.05.2020
3819 Clouds 20 1021 34 10000 3.1 0 08:31 03.05.2020
3820 Clouds 20 1021 34 10000 3.1 0 08:31 03.05.2020
3821 Clouds 19 1021 45 10000 3.1 200 07:40 03.05.2020
3822 Clouds 17 1020 59 10000 1.5 0 06:31 03.05.2020
3823 Clouds 14 1017 76 10000 1.5 130 05:49 03.05.2020
3824 Clouds 14 1017 76 10000 1.5 130 05:29 03.05.2020
3825 Clouds 13 1019 76 10000 1.5 330 04:27 03.05.2020
3826 Clouds 10 1018 87 8000 1 0 03:30 03.05.2020
3827 Clouds 10 1017 87 10000 1 0 02:31 03.05.2020
3828 Clouds 11 1017 81 10000 1 0 01:48 03.05.2020
3829 Clouds 11 1017 81 10000 1 0 01:27 03.05.2020
3830 Clouds 10 1017 87 10000 1 0 00:57 03.05.2020
3831 Clouds 10 1017 87 10000 1 0 00:57 03.05.2020
3832 Clouds 10 1017 87 10000 1 0 00:38 03.05.2020
3833 Clouds 10 1017 87 10000 1 0 00:20 03.05.2020
3834 Clouds 11 1017 81 10000 1 0 23:44 02.05.2020
3835 Clouds 11 1017 81 10000 1 0 23:26 02.05.2020
3836 Clouds 12 1018 81 10000 0.5 0 22:56 02.05.2020
3837 Clouds 12 1018 81 10000 0.5 0 22:37 02.05.2020
3838 Clouds 12 1018 81 10000 0.5 0 22:18 02.05.2020
3839 Clouds 11 1019 81 10000 1.5 0 21:40 02.05.2020
3840 Clouds 11 1019 81 10000 1.5 0 21:19 02.05.2020
3841 Clouds 12 1020 76 10000 1 0 20:57 02.05.2020
3842 Clouds 12 1020 76 10000 1 0 20:37 02.05.2020
3843 Clouds 12 1020 76 10000 1 0 20:19 02.05.2020
3844 Clouds 12 1019 76 10000 0.5 0 19:57 02.05.2020
3845 Clouds 12 1019 76 10000 0.5 0 19:38 02.05.2020
3846 Clouds 12 1019 76 10000 0.5 0 19:38 02.05.2020
3847 Clouds 12 1019 76 10000 0.5 0 19:38 02.05.2020
3848 Clouds 12 1019 76 10000 0.5 0 19:19 02.05.2020
3849 Clouds 13 1019 66 10000 1 0 18:55 02.05.2020
3850 Clouds 13 1019 66 10000 1 0 18:37 02.05.2020
3851 Clouds 13 1019 66 10000 1 0 18:18 02.05.2020
3852 Clouds 14 1018 67 10000 2.1 190 17:40 02.05.2020
3853 Clouds 14 1018 67 10000 2.1 190 17:20 02.05.2020
3854 Clouds 15 1018 62 10000 5.7 330 16:59 02.05.2020
3855 Clouds 15 1018 62 10000 5.7 330 16:41 02.05.2020
3856 Clouds 15 1018 62 10000 5.7 330 16:23 02.05.2020
3857 Rain 16 1018 63 10000 5.7 350 15:44 02.05.2020
3858 Rain 16 1018 63 10000 5.7 350 15:21 02.05.2020
3859 Rain 17 1017 59 10000 4.1 80 14:59 02.05.2020
3860 Rain 17 1017 59 10000 4.1 80 14:40 02.05.2020
3861 Rain 17 1017 59 10000 4.1 80 14:22 02.05.2020
3862 Clouds 17 1017 48 10000 3.6 10 13:40 02.05.2020
3863 Clouds 17 1017 48 10000 3.6 10 13:22 02.05.2020
3864 Clouds 17 1017 45 10000 7.7 130 12:56 02.05.2020
3865 Clouds 17 1017 45 10000 7.7 130 12:38 02.05.2020
3866 Clouds 17 1017 45 10000 7.7 130 12:19 02.05.2020
3867 Thunderstorm 21 1016 35 10000 7.7 130 11:54 02.05.2020
3868 Clouds 24 1017 33 10000 3.1 0 11:36 02.05.2020
3869 Clouds 24 1017 33 10000 3.1 0 11:18 02.05.2020
3870 Clouds 23 1018 38 10000 3.1 0 10:39 02.05.2020
3871 Clouds 23 1018 38 10000 3.1 0 10:21 02.05.2020
3872 Clouds 22 1019 43 10000 2.6 0 09:58 02.05.2020
3873 Clouds 22 1019 43 10000 2.6 0 09:39 02.05.2020
3874 Clouds 22 1019 43 10000 2.6 0 09:20 02.05.2020
3875 Clouds 21 1020 43 10000 2.6 0 08:51 02.05.2020
3876 Clouds 21 1020 43 10000 2.6 0 08:30 02.05.2020
3877 Clouds 19 1020 52 10000 1.5 230 07:49 02.05.2020
3878 Clouds 19 1020 52 10000 1.5 230 07:29 02.05.2020
3879 Clouds 18 1020 59 10000 1 0 06:53 02.05.2020
3880 Clouds 18 1020 59 10000 1 0 06:18 02.05.2020
3881 Clouds 16 1019 67 10000 0.5 0 05:27 02.05.2020
3882 Clouds 12 1019 87 10000 1 0 04:25 02.05.2020
3883 Clouds 11 1019 87 10000 1.5 0 03:34 02.05.2020
3884 Clouds 11 1019 87 10000 1.5 0 02:39 02.05.2020
3885 Clouds 12 1018 81 10000 1.5 0 01:51 02.05.2020
3886 Clear 12 1019 87 10000 2.1 90 00:58 02.05.2020
3887 Clear 12 1019 87 10000 2.1 90 00:39 02.05.2020
3888 Clear 12 1019 87 10000 2.1 90 00:18 02.05.2020
3889 Clear 12 1019 81 10000 1.5 130 23:40 01.05.2020
3890 Clear 12 1019 81 10000 1.5 130 23:20 01.05.2020
3891 Clear 13 1020 71 10000 2.1 300 22:58 01.05.2020
3892 Clear 13 1020 71 10000 2.1 300 22:38 01.05.2020
3893 Clear 13 1020 71 10000 2.1 300 22:18 01.05.2020
3894 Clear 13 1020 76 10000 2.1 340 21:57 01.05.2020
3895 Clear 13 1020 76 10000 2.1 340 21:38 01.05.2020
3896 Clear 13 1020 76 10000 2.1 340 21:18 01.05.2020
3897 Clear 13 1020 76 10000 2.1 340 21:18 01.05.2020
3898 Clear 14 1020 71 10000 1.5 0 20:56 01.05.2020
3899 Clouds 14 1020 71 10000 1.5 0 20:37 01.05.2020
3900 Clouds 14 1020 71 10000 1.5 0 20:19 01.05.2020
3901 Clouds 13 1020 76 10000 1.5 0 19:42 01.05.2020
3902 Clouds 13 1020 76 10000 1.5 0 19:22 01.05.2020
3903 Clouds 15 1020 67 10000 1.5 0 18:58 01.05.2020
3904 Clouds 15 1020 67 10000 1.5 0 18:40 01.05.2020
3905 Clouds 15 1020 67 10000 1.5 0 18:21 01.05.2020
3906 Clouds 15 1019 62 10000 4.1 310 17:57 01.05.2020
3907 Clouds 15 1019 62 10000 4.1 310 17:38 01.05.2020
3908 Clouds 15 1019 62 10000 4.1 310 17:20 01.05.2020
3909 Clouds 16 1019 67 10000 7.7 360 16:55 01.05.2020
3910 Clouds 16 1019 67 10000 7.7 360 16:55 01.05.2020
3911 Clouds 16 1019 67 10000 7.7 360 16:37 01.05.2020
3912 Clouds 16 1019 67 10000 7.7 360 16:19 01.05.2020
3913 Clouds 18 1019 59 10000 3.1 30 15:42 01.05.2020
3914 Clouds 18 1019 59 10000 3.1 30 15:24 01.05.2020
3915 Clouds 20 1019 52 10000 1.5 0 14:59 01.05.2020
3916 Clouds 20 1019 52 10000 1.5 0 14:40 01.05.2020
3917 Clouds 20 1019 52 10000 1.5 0 14:22 01.05.2020
3918 Clouds 19 1019 52 10000 4.1 190 13:41 01.05.2020
3919 Clouds 19 1019 52 10000 4.1 190 13:22 01.05.2020
3920 Clouds 19 1019 52 10000 4.1 190 13:22 01.05.2020
3921 Rain 17 1019 67 10000 2.6 110 12:58 01.05.2020
3922 Rain 17 1019 67 10000 2.6 110 12:40 01.05.2020
3923 Rain 17 1019 67 10000 2.6 110 12:20 01.05.2020
3924 Rain 18 1020 59 10000 1 0 11:58 01.05.2020
3925 Rain 18 1020 59 10000 1 0 11:58 01.05.2020
3926 Rain 18 1020 59 10000 1 0 11:39 01.05.2020
3927 Rain 18 1020 59 10000 1 0 11:19 01.05.2020
3928 Rain 19 1019 52 10000 4.6 350 10:41 01.05.2020
3929 Rain 19 1019 52 10000 4.6 350 10:20 01.05.2020
3930 Rain 21 1020 43 10000 1.5 0 09:55 01.05.2020
3931 Rain 21 1020 43 10000 1.5 0 09:37 01.05.2020
3932 Rain 21 1020 43 10000 1.5 0 09:18 01.05.2020
3933 Clouds 21 1020 43 10000 1 0 08:42 01.05.2020
3934 Clouds 21 1020 43 10000 1 0 08:24 01.05.2020
3935 Clouds 18 1020 55 10000 1 0 07:55 01.05.2020
3936 Clouds 18 1020 55 10000 1 0 07:36 01.05.2020
3937 Clouds 17 1020 59 10000 1 0 06:57 01.05.2020
3938 Clouds 16 1020 63 10000 1 0 05:41 01.05.2020
3939 Clouds 16 1020 63 10000 1 0 05:20 01.05.2020
3940 Clouds 13 1020 76 10000 2.6 140 03:42 01.05.2020
3941 Clouds 12 1020 76 10000 1.5 0 02:50 01.05.2020
3942 Clouds 12 1020 76 10000 1.5 0 02:32 01.05.2020
3943 Clouds 14 1020 67 10000 1.5 0 01:42 01.05.2020
3944 Clouds 14 1020 67 10000 1.5 0 01:24 01.05.2020
3945 Clouds 14 1020 62 10000 1.5 40 00:39 01.05.2020
3946 Clouds 14 1020 62 10000 1.5 40 00:20 01.05.2020
3947 Clouds 16 1021 51 10000 1.5 0 23:57 30.04.2020
3948 Clouds 16 1021 51 10000 1.5 0 23:38 30.04.2020
3949 Clouds 16 1021 51 10000 1.5 0 23:19 30.04.2020
3950 Clouds 15 1021 58 10000 1.5 320 22:42 30.04.2020
3951 Clouds 15 1021 58 10000 1.5 320 22:21 30.04.2020
3952 Clouds 18 1022 45 10000 2.1 0 21:58 30.04.2020
3953 Clouds 18 1022 45 10000 2.1 0 21:40 30.04.2020
3954 Clouds 18 1022 45 10000 2.1 0 21:21 30.04.2020
3955 Clouds 18 1022 45 10000 3.1 330 20:56 30.04.2020
3956 Clouds 18 1022 45 10000 3.1 330 20:38 30.04.2020
3957 Clouds 18 1022 45 10000 3.1 330 20:18 30.04.2020
3958 Clouds 18 1022 45 10000 2.6 0 19:45 30.04.2020
3959 Clouds 18 1022 45 10000 2.6 0 19:25 30.04.2020
3960 Clouds 18 1021 45 10000 5.1 340 18:57 30.04.2020
3961 Clouds 18 1021 45 10000 5.1 340 18:39 30.04.2020
3962 Clouds 18 1021 45 10000 5.1 340 18:20 30.04.2020
3963 Clouds 19 1020 42 10000 6.7 340 17:57 30.04.2020
3964 Clouds 19 1020 42 10000 6.7 340 17:39 30.04.2020
3965 Clouds 19 1020 42 10000 6.7 340 17:20 30.04.2020
3966 Clouds 21 1019 37 10000 6.2 10 16:56 30.04.2020
3967 Clouds 21 1019 37 10000 6.2 10 16:37 30.04.2020
3968 Clouds 21 1019 37 10000 6.2 10 16:18 30.04.2020
3969 Clouds 23 1019 35 10000 3.1 60 15:44 30.04.2020
3970 Clouds 23 1019 35 10000 3.1 60 15:23 30.04.2020
3971 Clouds 23 1019 35 10000 3.1 60 15:23 30.04.2020
3972 Thunderstorm 23 1019 35 10000 5.7 360 14:43 30.04.2020
3973 Thunderstorm 23 1019 35 10000 5.7 360 14:22 30.04.2020
3974 Thunderstorm 24 1019 29 10000 3.6 290 13:59 30.04.2020
3975 Clouds 23 1019 31 10000 2.6 100 13:41 30.04.2020
3976 Clouds 23 1019 31 10000 2.6 100 13:23 30.04.2020
3977 Clouds 24 1020 27 10000 3.1 180 12:59 30.04.2020
3978 Clouds 24 1020 27 10000 3.1 180 12:41 30.04.2020
3979 Clouds 24 1020 27 10000 3.1 180 12:19 30.04.2020
3980 Clouds 25 1021 29 10000 1.5 0 11:38 30.04.2020
3981 Clouds 25 1021 29 10000 1.5 0 11:19 30.04.2020
3982 Clouds 25 1023 25 10000 2.1 130 10:59 30.04.2020
3983 Clouds 25 1023 25 10000 2.1 130 10:40 30.04.2020
3984 Clouds 25 1023 25 10000 2.1 130 10:21 30.04.2020
3985 Clouds 24 1023 29 10000 2.1 180 09:56 30.04.2020
3986 Clouds 24 1023 29 10000 2.1 180 09:38 30.04.2020
3987 Clouds 24 1023 29 10000 2.1 180 09:19 30.04.2020
3988 Clouds 22 1024 37 10000 1.5 0 08:45 30.04.2020
3989 Clouds 22 1024 37 10000 1.5 0 08:45 30.04.2020
3990 Clouds 22 1024 37 10000 1.5 0 08:26 30.04.2020
3991 Clear 20 1023 42 10000 1.5 0 07:44 30.04.2020
3992 Clear 20 1023 42 10000 1.5 0 07:25 30.04.2020
3993 Clear 18 1023 55 10000 0.5 0 06:53 30.04.2020
3994 Clear 18 1023 55 10000 0.5 0 06:19 30.04.2020
3995 Clear 16 1023 63 10000 1.32 222 05:45 30.04.2020
3996 Clear 11 1023 81 10000 1 120 04:39 30.04.2020
3997 Clear 10 1022 81 10000 1 0 03:58 30.04.2020
3998 Clear 10 1022 81 10000 2.1 310 02:47 30.04.2020
3999 Clear 10 1022 81 10000 2.1 310 02:25 30.04.2020
4000 Clouds 10 1022 87 10000 0.75 252 01:36 30.04.2020
4001 Clouds 11 1022 81 10000 1 0 00:42 30.04.2020
4002 Clouds 11 1022 81 10000 1 0 00:20 30.04.2020
4003 Clouds 12 1022 76 10000 2.1 350 23:57 29.04.2020
4004 Clouds 12 1022 76 10000 2.1 350 23:37 29.04.2020
4005 Clouds 12 1022 76 10000 2.1 350 23:19 29.04.2020
4006 Clouds 12 1023 76 10000 1.5 320 22:40 29.04.2020
4007 Clouds 12 1023 76 10000 1.5 320 22:21 29.04.2020
4008 Clouds 13 1023 71 10000 1.5 260 21:59 29.04.2020
4009 Clouds 13 1020 82 10000 1.5 150 21:37 29.04.2020
4010 Clouds 12 1023 76 10000 2.1 90 21:18 29.04.2020
4011 Clouds 12 1023 76 10000 2.1 90 20:55 29.04.2020
4012 Clouds 12 1023 76 10000 2.1 90 20:36 29.04.2020
4013 Clouds 13 1023 71 10000 1.5 0 20:18 29.04.2020
4014 Clouds 13 1023 71 10000 1.5 0 19:42 29.04.2020
4015 Clouds 13 1023 71 10000 1.5 0 19:20 29.04.2020
4016 Clouds 14 1023 67 10000 1 0 18:43 29.04.2020
4017 Clouds 14 1023 67 10000 1 0 18:25 29.04.2020
4018 Clouds 15 1022 54 10000 1.5 0 17:59 29.04.2020
4019 Clouds 15 1022 54 10000 1.5 0 17:41 29.04.2020
4020 Clouds 15 1022 54 10000 1.5 0 17:21 29.04.2020
4021 Clouds 14 1021 67 10000 4.1 310 16:39 29.04.2020
4022 Clouds 14 1021 67 10000 4.1 310 16:20 29.04.2020
4023 Clouds 17 1021 55 10000 7.7 330 15:58 29.04.2020
4024 Clouds 17 1021 55 10000 7.7 330 15:39 29.04.2020
4025 Clouds 17 1021 55 10000 7.7 330 15:21 29.04.2020
4026 Rain 17 1021 48 10000 6.2 30 14:57 29.04.2020
4027 Rain 17 1021 48 10000 6.2 30 14:39 29.04.2020
4028 Rain 17 1021 48 10000 6.2 30 14:21 29.04.2020
4029 Clouds 19 1021 45 10000 4.6 50 13:42 29.04.2020
4030 Clouds 19 1021 45 10000 4.6 50 13:21 29.04.2020
4031 Rain 19 1021 45 10000 6.2 310 12:59 29.04.2020
4032 Rain 19 1021 45 10000 6.2 310 12:40 29.04.2020
4033 Rain 19 1021 45 10000 6.2 310 12:19 29.04.2020
4034 Thunderstorm 20 1021 52 10000 6.2 240 11:58 29.04.2020
4035 Thunderstorm 20 1021 52 10000 6.2 240 11:36 29.04.2020
4036 Thunderstorm 20 1021 52 10000 6.2 240 11:18 29.04.2020
4037 Clouds 24 1022 33 10000 1.5 0 10:37 29.04.2020
4038 Clouds 24 1022 33 10000 1.5 0 10:19 29.04.2020
4039 Clouds 23 1020 40 10000 1 0 09:57 29.04.2020
4040 Clouds 23 1020 40 10000 1 0 09:38 29.04.2020
4041 Clouds 23 1020 40 10000 1 0 09:18 29.04.2020
4042 Clouds 21 1021 46 10000 1 0 08:43 29.04.2020
4043 Clouds 21 1021 46 10000 1 0 08:24 29.04.2020
4044 Clouds 18 1021 55 10000 2.1 0 07:48 29.04.2020
4045 Clear 18 1021 55 10000 2.1 0 07:25 29.04.2020
4046 Clear 18 1022 55 10000 2.29 201 06:52 29.04.2020
4047 Clear 18 1022 55 10000 2.29 201 06:31 29.04.2020
4048 Clear 14 1021 71 10000 2.1 330 05:22 29.04.2020
4049 Clouds 13 1019 82 10000 2.5 215 04:47 29.04.2020
4050 Clear 10 1021 93 10000 2.02 200 04:19 29.04.2020
4051 Clear 10 1021 93 10000 1.5 320 02:49 29.04.2020
4052 Clear 10 1021 93 10000 1.5 0 01:44 29.04.2020
4053 Clear 10 1021 93 10000 1.5 0 01:26 29.04.2020
4054 Clear 11 1022 87 10000 1 0 00:50 29.04.2020
4055 Clear 11 1022 87 10000 1 0 00:50 29.04.2020
4056 Clear 11 1022 87 10000 1 0 00:20 29.04.2020
4057 Clear 11 1022 93 10000 2.1 350 23:56 28.04.2020
4058 Clear 11 1022 93 10000 2.1 350 23:37 28.04.2020
4059 Clear 11 1022 93 10000 2.1 350 23:18 28.04.2020
4060 Clear 12 1022 87 10000 2.1 160 22:37 28.04.2020
4061 Clear 12 1022 87 10000 2.1 160 22:19 28.04.2020
4062 Clouds 13 1024 82 10000 2.6 360 21:57 28.04.2020
4063 Clouds 13 1024 82 10000 2.6 360 21:39 28.04.2020
4064 Clouds 13 1024 82 10000 2.6 360 21:21 28.04.2020
4065 Clouds 13 1024 76 10000 1 0 20:55 28.04.2020
4066 Clouds 14 1020 87 10000 2.6 170 20:37 28.04.2020
4067 Clouds 13 1024 82 10000 3.1 260 20:19 28.04.2020
4068 Clouds 13 1024 82 10000 3.1 260 19:43 28.04.2020
4069 Clouds 13 1024 82 10000 3.1 260 19:22 28.04.2020
4070 Clouds 13 1024 76 10000 4.1 0 18:59 28.04.2020
4071 Clouds 13 1024 76 10000 4.1 0 18:41 28.04.2020
4072 Clouds 13 1024 76 10000 4.1 0 18:20 28.04.2020
4073 Rain 13 1023 87 10000 10.3 50 17:58 28.04.2020
4074 Rain 16 1023 63 10000 2.1 360 17:37 28.04.2020
4075 Rain 16 1023 63 10000 2.1 360 17:18 28.04.2020
4076 Rain 17 1021 55 10000 1.5 360 16:43 28.04.2020
4077 Rain 17 1021 55 10000 1.5 360 16:24 28.04.2020
4078 Rain 18 1021 52 10000 1.5 310 15:58 28.04.2020
4079 Rain 18 1021 52 10000 1.5 310 15:40 28.04.2020
4080 Rain 18 1021 52 10000 1.5 310 15:21 28.04.2020
4081 Clouds 18 1021 55 10000 7.2 340 14:59 28.04.2020
4082 Clouds 18 1021 55 10000 7.2 340 14:41 28.04.2020
4083 Clouds 18 1021 55 10000 7.2 340 14:21 28.04.2020
4084 Clouds 16 1021 59 10000 9.3 10 13:58 28.04.2020
4085 Clouds 16 1021 59 10000 9.3 10 13:38 28.04.2020
4086 Clouds 16 1021 59 10000 9.3 10 13:20 28.04.2020
4087 Rain 16 1023 67 10000 4.6 330 12:47 28.04.2020
4088 Rain 16 1023 67 10000 4.6 330 12:27 28.04.2020
4089 Rain 19 1023 68 10000 3.1 40 11:59 28.04.2020
4090 Rain 19 1023 68 10000 3.1 40 11:39 28.04.2020
4091 Rain 19 1023 68 10000 3.1 40 11:20 28.04.2020
4092 Clouds 18 1023 72 10000 2.6 340 10:39 28.04.2020
4093 Clouds 18 1023 72 10000 2.6 340 10:19 28.04.2020
4094 Clouds 13 1022 93 10000 2.6 70 09:59 28.04.2020
4095 Clouds 13 1022 93 10000 2.6 70 09:40 28.04.2020
4096 Clouds 13 1022 93 10000 2.6 70 09:22 28.04.2020
4097 Rain 19 1023 59 10000 1.5 0 08:46 28.04.2020
4098 Rain 19 1023 59 10000 1.5 0 08:46 28.04.2020
4099 Clouds 21 1023 52 8000 2.1 0 08:27 28.04.2020
4100 Clouds 20 1023 60 10000 0.5 0 07:58 28.04.2020
4101 Clouds 20 1023 60 10000 0.5 0 07:38 28.04.2020
4102 Clouds 20 1023 60 10000 0.5 0 07:18 28.04.2020
4103 Clouds 18 1023 72 10000 2.1 200 06:28 28.04.2020
4104 Clear 17 1023 72 8000 1.5 0 05:44 28.04.2020
4105 Clear 17 1023 72 8000 1.5 0 05:25 28.04.2020
4106 Clear 15 1023 82 8000 1 0 04:33 28.04.2020
4107 Clear 15 1022 82 10000 1 0 02:36 28.04.2020
4108 Clouds 15 1022 77 10000 1 0 01:25 28.04.2020
4109 Clouds 16 1021 72 10000 1.5 280 00:59 28.04.2020
4110 Rain 16 1021 72 10000 1.5 280 00:26 28.04.2020
4111 Clouds 16 1022 77 10000 2.1 150 23:47 27.04.2020
4112 Clouds 16 1022 77 10000 2.1 150 23:25 27.04.2020
4113 Clouds 16 1022 77 10000 4.6 120 22:56 27.04.2020
4114 Clouds 16 1022 77 10000 4.6 120 22:38 27.04.2020
4115 Clouds 16 1022 77 10000 4.6 120 22:20 27.04.2020
4116 Clouds 17 1022 72 10000 4.6 110 21:56 27.04.2020
4117 Thunderstorm 17 1022 72 10000 5.1 160 21:38 27.04.2020
4118 Thunderstorm 17 1022 72 10000 5.1 160 21:18 27.04.2020
4119 Thunderstorm 18 1021 63 10000 3.1 160 20:44 27.04.2020
4120 Clouds 18 1021 63 10000 4.6 130 20:22 27.04.2020
4121 Clouds 18 1021 63 10000 4.6 130 20:22 27.04.2020
4122 Clouds 18 1021 63 10000 4.6 130 20:22 27.04.2020
4123 Clouds 18 1021 59 10000 3.6 100 19:59 27.04.2020
4124 Clouds 18 1021 59 10000 3.6 100 19:39 27.04.2020
4125 Clouds 18 1021 59 10000 3.6 100 19:21 27.04.2020
4126 Clouds 19 1020 63 10000 6.7 100 18:58 27.04.2020
4127 Clouds 19 1020 63 10000 6.7 100 18:40 27.04.2020
4128 Clouds 19 1020 63 10000 6.7 100 18:19 27.04.2020
4129 Clouds 19 1019 59 10000 6.2 120 17:54 27.04.2020
4130 Clouds 19 1019 59 10000 6.2 120 17:36 27.04.2020
4131 Clouds 19 1019 59 10000 6.2 120 17:18 27.04.2020
4132 Clouds 20 1018 52 10000 5.7 100 16:40 27.04.2020
4133 Clouds 20 1018 52 10000 5.7 100 16:21 27.04.2020
4134 Clouds 23 1018 43 10000 5.7 140 15:57 27.04.2020
4135 Clouds 23 1018 43 10000 5.7 140 15:38 27.04.2020
4136 Clouds 23 1018 43 10000 5.7 140 15:19 27.04.2020
4137 Clouds 23 1018 40 10000 5.7 110 14:56 27.04.2020
4138 Clouds 23 1018 40 10000 5.7 110 14:56 27.04.2020
4139 Clouds 23 1018 40 10000 5.7 110 14:37 27.04.2020
4140 Clouds 23 1018 40 10000 5.7 110 14:18 27.04.2020
4141 Clouds 25 1018 27 10000 5.7 10 13:42 27.04.2020
4142 Clouds 25 1018 27 10000 5.7 10 13:21 27.04.2020
4143 Clouds 25 1019 31 10000 5.7 60 12:57 27.04.2020
4144 Clouds 25 1019 31 10000 5.7 60 12:39 27.04.2020
4145 Clouds 25 1019 31 10000 5.7 60 12:20 27.04.2020
4146 Clouds 25 1020 29 10000 2.1 0 11:41 27.04.2020
4147 Clouds 25 1020 29 10000 2.1 0 11:21 27.04.2020
4148 Clouds 25 1020 29 10000 2.1 0 10:57 27.04.2020
4149 Clouds 25 1020 27 10000 1.5 0 10:39 27.04.2020
4150 Clouds 25 1020 27 10000 1.5 0 10:20 27.04.2020
4151 Clouds 23 1021 33 10000 2.1 0 09:44 27.04.2020
4152 Clouds 23 1021 33 10000 2.1 0 09:19 27.04.2020
4153 Clear 24 1022 29 10000 1.5 0 08:58 27.04.2020
4154 Clear 24 1022 29 10000 1.5 0 08:40 27.04.2020
4155 Clear 24 1022 29 10000 1.5 0 08:22 27.04.2020
4156 Clear 24 1022 29 10000 1.5 0 07:44 27.04.2020
4157 Clear 24 1022 29 10000 1.5 0 07:20 27.04.2020
4158 Clear 20 1021 42 10000 1.5 0 06:47 27.04.2020
4159 Clear 20 1021 42 10000 1.5 0 06:25 27.04.2020
4160 Clear 18 1021 45 10000 1.5 0 05:50 27.04.2020
4161 Clear 14 1020 54 10000 1 0 04:49 27.04.2020
4162 Clear 11 1020 66 10000 2.1 140 03:49 27.04.2020
4163 Clear 13 1019 54 10000 1.5 0 02:58 27.04.2020
4164 Clear 12 1019 58 10000 1.5 0 01:35 27.04.2020
4165 Clear 14 1018 50 10000 1.5 0 00:57 27.04.2020
4166 Clear 14 1018 50 10000 1.5 0 00:20 27.04.2020
4167 Clear 15 1019 41 10000 1.5 0 23:56 26.04.2020
4168 Clear 15 1019 41 10000 1.5 0 23:37 26.04.2020
4169 Clear 15 1019 41 10000 1.5 0 23:19 26.04.2020
4170 Clear 16 1019 36 10000 1 0 22:58 26.04.2020
4171 Clear 16 1019 36 10000 1 0 22:39 26.04.2020
4172 Clear 16 1019 36 10000 1 0 22:19 26.04.2020
4173 Clear 17 1019 33 10000 1.5 0 21:57 26.04.2020
4174 Clear 17 1019 33 10000 1.5 0 21:37 26.04.2020
4175 Clear 17 1019 33 10000 1.5 0 21:18 26.04.2020
4176 Clear 19 1019 23 10000 1.5 0 20:42 26.04.2020
4177 Clear 19 1019 23 10000 1.5 0 20:23 26.04.2020
4178 Clear 20 1019 24 10000 4.1 360 19:59 26.04.2020
4179 Clear 20 1019 24 10000 4.1 360 19:38 26.04.2020
4180 Clear 20 1019 24 10000 4.1 360 19:20 26.04.2020
4181 Clear 20 1018 22 10000 3.6 340 18:55 26.04.2020
4182 Clear 20 1018 22 10000 3.6 340 18:36 26.04.2020
4183 Clear 20 1018 22 10000 3.6 340 18:18 26.04.2020
4184 Clear 22 1018 18 10000 6.2 10 17:41 26.04.2020
4185 Clear 22 1018 18 10000 6.2 10 17:22 26.04.2020
4186 Clear 23 1017 18 10000 4.6 10 16:55 26.04.2020
4187 Clear 23 1017 18 10000 4.6 10 16:36 26.04.2020
4188 Clear 23 1017 18 10000 4.6 10 16:18 26.04.2020
4189 Clear 24 1017 23 10000 3.1 10 15:54 26.04.2020
4190 Clear 24 1017 23 10000 3.1 10 15:36 26.04.2020
4191 Clear 24 1017 23 10000 3.1 10 15:18 26.04.2020
4192 Clear 25 1017 23 10000 2.6 10 14:40 26.04.2020
4193 Clear 25 1017 23 10000 2.6 10 14:19 26.04.2020
4194 Clouds 26 1017 24 10000 5.1 60 13:57 26.04.2020
4195 Clouds 26 1017 24 10000 5.1 60 13:38 26.04.2020
4196 Clouds 26 1017 24 10000 5.1 60 13:19 26.04.2020
4197 Clouds 26 1017 24 10000 5.1 60 13:19 26.04.2020
4198 Clouds 26 1018 22 10000 2.1 0 12:54 26.04.2020
4199 Clouds 26 1018 22 10000 2.1 0 12:36 26.04.2020
4200 Clouds 26 1018 22 10000 2.1 0 12:36 26.04.2020
4201 Clouds 26 1018 22 10000 2.1 0 12:18 26.04.2020
4202 Clouds 26 1019 21 10000 3.1 0 11:41 26.04.2020
4203 Clouds 26 1019 21 10000 3.1 0 11:23 26.04.2020
4204 Clouds 25 1020 25 10000 2.1 0 10:58 26.04.2020
4205 Clouds 25 1020 25 10000 2.1 0 10:40 26.04.2020
4206 Clouds 25 1020 25 10000 2.1 0 10:40 26.04.2020
4207 Clouds 25 1020 25 10000 2.1 0 10:22 26.04.2020
4208 Clear 23 1020 27 10000 2.1 0 09:57 26.04.2020
4209 Clear 23 1020 27 10000 2.1 0 09:37 26.04.2020
4210 Clear 23 1020 27 10000 2.1 0 09:18 26.04.2020
4211 Clear 22 1021 28 10000 2.1 170 08:41 26.04.2020
4212 Clear 22 1021 28 10000 2.1 170 08:20 26.04.2020
4213 Clear 22 1021 30 10000 3.1 0 07:48 26.04.2020
4214 Clear 22 1021 30 10000 3.1 0 07:22 26.04.2020
4215 Clear 20 1021 37 10000 2.1 190 06:45 26.04.2020
4216 Clear 20 1021 37 10000 2.1 190 06:18 26.04.2020
4217 Clear 18 1020 45 10000 2.1 320 05:45 26.04.2020
4218 Clear 18 1020 45 10000 2.1 320 05:25 26.04.2020
4219 Clear 12 1019 62 10000 2.1 330 04:30 26.04.2020
4220 Clear 12 1019 62 10000 2.1 330 03:33 26.04.2020
4221 Clear 12 1018 66 10000 0.5 0 02:33 26.04.2020
4222 Clear 14 1018 50 10000 1.5 0 01:54 26.04.2020
4223 Clear 14 1018 50 10000 1.5 0 01:35 26.04.2020
4224 Clear 13 1018 50 10000 1.5 310 00:41 26.04.2020
4225 Clear 15 1018 44 10000 2.6 320 00:20 26.04.2020
4226 Clear 15 1018 44 10000 2.6 320 23:40 25.04.2020
4227 Clear 15 1018 44 10000 2.6 320 23:21 25.04.2020
4228 Clouds 18 1019 34 10000 6.2 10 22:59 25.04.2020
4229 Clouds 18 1019 34 10000 6.2 10 22:41 25.04.2020
4230 Clouds 18 1019 34 10000 6.2 10 22:19 25.04.2020
4231 Clouds 18 1019 36 10000 3.6 10 21:56 25.04.2020
4232 Clouds 18 1019 36 10000 3.6 10 21:37 25.04.2020
4233 Clouds 18 1019 36 10000 3.6 10 21:18 25.04.2020
4234 Clouds 19 1019 32 10000 4.1 40 20:42 25.04.2020
4235 Clouds 19 1019 32 10000 4.1 40 20:22 25.04.2020
4236 Clouds 18 1018 34 10000 2.6 30 19:58 25.04.2020
4237 Clouds 18 1018 34 10000 2.6 30 19:38 25.04.2020
4238 Clouds 18 1018 34 10000 2.6 30 19:19 25.04.2020
4239 Clouds 19 1018 34 10000 3.6 350 18:43 25.04.2020
4240 Clouds 19 1018 34 10000 3.6 350 18:21 25.04.2020
4241 Clouds 18 1017 39 10000 2.1 340 17:59 25.04.2020
4242 Clouds 18 1017 39 10000 2.1 340 17:39 25.04.2020
4243 Clouds 18 1017 39 10000 2.1 340 17:20 25.04.2020
4244 Clouds 20 1017 34 10000 2.6 350 16:59 25.04.2020
4245 Clouds 20 1017 34 10000 2.6 350 16:41 25.04.2020
4246 Clouds 20 1017 34 10000 2.6 350 16:21 25.04.2020
4247 Rain 21 1017 32 10000 3.6 350 15:54 25.04.2020
4248 Rain 21 1017 32 10000 3.6 350 15:36 25.04.2020
4249 Rain 21 1017 32 10000 3.6 350 15:18 25.04.2020
4250 Rain 21 1017 32 10000 4.6 10 14:39 25.04.2020
4251 Rain 21 1017 32 10000 4.6 10 14:20 25.04.2020
4252 Clouds 24 1016 22 10000 4.1 70 13:59 25.04.2020
4253 Clouds 24 1016 22 10000 4.1 70 13:40 25.04.2020
4254 Clouds 24 1016 22 10000 4.1 70 13:18 25.04.2020
4255 Clouds 25 1016 23 10000 4.6 90 12:54 25.04.2020
4256 Clouds 22 1017 30 10000 5.1 340 12:36 25.04.2020
4257 Clouds 22 1017 30 10000 5.1 340 12:18 25.04.2020
4258 Rain 25 1017 22 10000 2.6 0 11:41 25.04.2020
4259 Rain 25 1017 22 10000 2.6 0 11:23 25.04.2020
4260 Clouds 24 1018 29 10000 2.1 0 10:55 25.04.2020
4261 Clouds 24 1018 29 10000 2.1 0 10:37 25.04.2020
4262 Clouds 24 1018 29 10000 2.1 0 10:18 25.04.2020
4263 Clouds 23 1018 33 10000 2.1 0 09:41 25.04.2020
4264 Clouds 23 1018 33 10000 2.1 0 09:21 25.04.2020
4265 Clouds 22 1018 37 10000 1.5 0 08:42 25.04.2020
4266 Clouds 22 1018 37 10000 1.5 0 08:22 25.04.2020
4267 Clouds 20 1018 45 10000 2.1 0 07:59 25.04.2020
4268 Clouds 20 1018 45 10000 2.1 0 07:41 25.04.2020
4269 Clear 18 1018 48 10000 0.86 83 06:57 25.04.2020
4270 Clouds 18 1018 48 10000 1.03 82 06:38 25.04.2020
4271 Clouds 16 1018 59 10000 2.6 320 05:42 25.04.2020
4272 Clouds 16 1018 59 10000 2.6 320 05:24 25.04.2020
4273 Clouds 12 1017 76 10000 2.1 330 04:20 25.04.2020
4274 Clouds 10 1017 71 10000 1.5 0 02:38 25.04.2020
4275 Clouds 11 1017 71 10000 1.5 0 01:56 25.04.2020
4276 Clouds 11 1017 71 10000 1.5 0 01:38 25.04.2020
4277 Clouds 11 1017 71 10000 1.5 0 01:19 25.04.2020
4278 Clouds 10 1017 76 10000 2.1 0 00:39 25.04.2020
4279 Clouds 10 1017 76 10000 2.1 0 00:18 25.04.2020
4280 Clouds 12 1017 66 10000 1.5 0 23:41 24.04.2020
4281 Clouds 12 1017 66 10000 1.5 0 23:20 24.04.2020
4282 Clouds 12 1018 66 10000 2.6 340 22:41 24.04.2020
4283 Clouds 12 1018 66 10000 2.6 340 22:21 24.04.2020
4284 Clouds 14 1018 62 10000 2.6 340 21:59 24.04.2020
4285 Clouds 14 1018 62 10000 2.6 340 21:40 24.04.2020
4286 Clouds 14 1018 62 10000 2.6 340 21:22 24.04.2020
4287 Clouds 13 1018 62 10000 1.5 0 20:58 24.04.2020
4288 Clouds 13 1018 62 10000 1.5 0 20:40 24.04.2020
4289 Clouds 13 1018 62 10000 1.5 0 20:19 24.04.2020
4290 Clouds 16 1018 51 10000 2.1 200 19:47 24.04.2020
4291 Clouds 16 1018 51 10000 2.1 200 19:28 24.04.2020
4292 Clouds 15 1018 54 10000 1 0 18:58 24.04.2020
4293 Clouds 15 1018 54 10000 1 0 18:38 24.04.2020
4294 Rain 15 1018 54 10000 1 0 18:20 24.04.2020
4295 Rain 15 1018 54 10000 1 0 18:20 24.04.2020
4296 Rain 17 1017 48 10000 2.1 210 17:42 24.04.2020
4297 Rain 17 1017 48 10000 2.1 210 17:24 24.04.2020
4298 Clouds 17 1016 48 10000 4.6 200 16:59 24.04.2020
4299 Clouds 17 1016 48 10000 4.6 200 16:41 24.04.2020
4300 Clouds 17 1016 48 10000 4.6 200 16:41 24.04.2020
4301 Clouds 17 1016 48 10000 4.6 200 16:22 24.04.2020
4302 Clouds 19 1016 39 10000 6.2 220 15:59 24.04.2020
4303 Clouds 19 1016 39 10000 6.2 220 15:38 24.04.2020
4304 Clouds 19 1016 39 10000 6.2 220 15:18 24.04.2020
4305 Clouds 19 1016 39 10000 6.2 220 15:18 24.04.2020
4306 Rain 19 1016 39 10000 4.6 290 14:40 24.04.2020
4307 Rain 19 1016 39 10000 4.6 290 14:20 24.04.2020
4308 Rain 19 1016 39 10000 6.7 280 13:56 24.04.2020
4309 Rain 22 1016 28 10000 3.1 200 13:38 24.04.2020
4310 Rain 22 1016 28 10000 3.1 200 13:18 24.04.2020
4311 Dust 27 1011 21 10000 2.6 40 12:41 24.04.2020
4312 Clouds 25 1016 23 10000 2.1 0 12:22 24.04.2020
4313 Clouds 25 1016 23 10000 2.1 0 11:58 24.04.2020
4314 Clouds 25 1016 23 10000 2.1 0 11:38 24.04.2020
4315 Clouds 25 1016 23 10000 2.1 0 11:19 24.04.2020
4316 Clouds 23 1016 28 10000 2.6 0 10:54 24.04.2020
4317 Clouds 23 1016 28 10000 2.6 0 10:36 24.04.2020
4318 Clouds 23 1016 28 10000 2.6 0 10:18 24.04.2020
4319 Clouds 24 1017 29 10000 3.1 0 09:45 24.04.2020
4320 Clouds 24 1017 29 10000 3.1 0 09:24 24.04.2020
4321 Clouds 22 1018 35 10000 2.6 0 08:57 24.04.2020
4322 Clouds 22 1018 35 10000 2.6 0 08:37 24.04.2020
4323 Clouds 22 1018 35 10000 2.6 0 08:18 24.04.2020
4324 Clouds 20 1018 37 10000 1 0 07:44 24.04.2020
4325 Clouds 20 1018 37 10000 1 0 07:26 24.04.2020
4326 Rain 19 1018 42 10000 0.5 0 06:51 24.04.2020
4327 Rain 19 1018 42 10000 0.5 0 06:32 24.04.2020
4328 Clouds 17 1018 55 10000 1 120 05:44 24.04.2020
4329 Clouds 12 1017 71 10000 2.1 90 04:26 24.04.2020
4330 Clouds 12 1017 66 10000 1.5 0 02:58 24.04.2020
4331 Clouds 12 1017 66 10000 1.5 0 02:38 24.04.2020
4332 Clouds 12 1017 66 10000 1.5 0 02:19 24.04.2020
4333 Clouds 13 1017 62 10000 1.5 0 01:18 24.04.2020
4334 Clouds 13 1017 66 10000 1.5 360 00:36 24.04.2020
4335 Clouds 13 1017 66 10000 1.5 360 00:18 24.04.2020
4336 Clouds 15 1017 54 10000 1.5 40 23:42 23.04.2020
4337 Clouds 15 1017 54 10000 1.5 40 23:23 23.04.2020
4338 Clouds 14 1017 58 10000 1.5 0 22:55 23.04.2020
4339 Clouds 14 1017 58 10000 1.5 0 22:36 23.04.2020
4340 Clouds 14 1017 58 10000 1.5 0 22:18 23.04.2020
4341 Clouds 15 1018 54 10000 1.5 0 21:55 23.04.2020
4342 Clouds 15 1018 54 10000 1.5 0 21:37 23.04.2020
4343 Clouds 15 1018 54 10000 1.5 0 21:19 23.04.2020
4344 Clouds 16 1018 44 10000 1.5 0 20:41 23.04.2020
4345 Clouds 16 1018 44 10000 1.5 0 20:22 23.04.2020
4346 Clouds 16 1018 48 10000 1.5 90 19:58 23.04.2020
4347 Clouds 16 1018 48 10000 1.5 90 19:40 23.04.2020
4348 Clouds 16 1018 48 10000 1.5 90 19:21 23.04.2020
4349 Clouds 18 1017 39 10000 1.5 70 18:56 23.04.2020
4350 Clouds 18 1017 39 10000 1.5 70 18:36 23.04.2020
4351 Clear 18 1017 39 10000 1.5 70 18:18 23.04.2020
4352 Clear 18 1017 39 10000 2.1 60 17:55 23.04.2020
4353 Clear 18 1017 39 10000 2.1 60 17:36 23.04.2020
4354 Clear 18 1017 39 10000 2.1 60 17:18 23.04.2020
4355 Clouds 20 1016 34 10000 2.6 100 16:43 23.04.2020
4356 Clouds 20 1016 34 10000 2.6 100 16:19 23.04.2020
4357 Clouds 22 1016 26 10000 3.1 50 15:43 23.04.2020
4358 Clouds 22 1016 26 10000 3.1 50 15:23 23.04.2020
4359 Clouds 22 1016 28 10000 3.1 40 14:59 23.04.2020
4360 Clouds 22 1016 28 10000 3.1 40 14:39 23.04.2020
4361 Clouds 22 1016 28 10000 3.1 40 14:39 23.04.2020
4362 Clouds 22 1016 28 10000 3.1 40 14:20 23.04.2020
4363 Clouds 23 1017 27 10000 3.1 50 13:57 23.04.2020
4364 Clouds 23 1017 27 10000 3.1 50 13:38 23.04.2020
4365 Clouds 23 1017 27 10000 3.1 50 13:38 23.04.2020
4366 Clouds 23 1017 27 10000 3.1 50 13:19 23.04.2020
4367 Clouds 23 1017 27 10000 2.6 130 12:44 23.04.2020
4368 Clouds 23 1017 27 10000 2.6 130 12:26 23.04.2020
4369 Clouds 23 1018 27 10000 2.6 340 11:59 23.04.2020
4370 Clouds 23 1018 27 10000 2.6 340 11:40 23.04.2020
4371 Clouds 23 1018 27 10000 2.6 340 11:22 23.04.2020
4372 Clouds 22 1019 28 10000 1.5 0 10:42 23.04.2020
4373 Clouds 22 1019 28 10000 1.5 0 10:24 23.04.2020
4374 Clouds 21 1020 30 10000 3.6 30 09:55 23.04.2020
4375 Clouds 22 1016 35 10000 2.16 84 09:37 23.04.2020
4376 Clouds 20 1020 32 10000 3.1 350 09:18 23.04.2020
4377 Clouds 20 1020 32 10000 3.1 350 08:45 23.04.2020
4378 Clouds 20 1020 32 10000 3.1 350 08:27 23.04.2020
4379 Clear 19 1020 45 10000 1 0 07:43 23.04.2020
4380 Clear 19 1020 45 10000 1 0 07:23 23.04.2020
4381 Clear 17 1020 51 10000 1 0 06:49 23.04.2020
4382 Clear 17 1020 51 10000 1 0 06:27 23.04.2020
4383 Clear 15 1020 62 10000 1 0 05:31 23.04.2020
4384 Clear 12 1020 66 10000 1 0 04:52 23.04.2020
4385 Clear 9 1019 81 10000 0.62 8 02:25 23.04.2020
4386 Clouds 10 1019 76 10000 1 0 01:49 23.04.2020
4387 Clear 8 1016 87 10000 0.77 17 01:28 23.04.2020
4388 Clear 10 1016 76 10000 0.77 17 00:47 23.04.2020
4389 Clouds 11 1019 71 10000 1.03 25 00:20 23.04.2020
4390 Clouds 11 1019 71 10000 1.03 25 23:49 22.04.2020
4391 Clouds 11 1019 71 10000 1.03 25 23:23 22.04.2020
4392 Clouds 13 1019 62 10000 1 0 22:56 22.04.2020
4393 Clouds 13 1019 62 10000 1 0 22:37 22.04.2020
4394 Clouds 13 1019 62 10000 1 0 22:19 22.04.2020
4395 Clouds 14 1019 54 10000 1 170 21:56 22.04.2020
4396 Clouds 14 1019 54 10000 1 170 21:37 22.04.2020
4397 Clouds 14 1019 54 10000 1 170 21:19 22.04.2020
4398 Clouds 14 1019 41 10000 1.5 0 20:43 22.04.2020
4399 Clouds 14 1019 41 10000 1.5 0 20:19 22.04.2020
4400 Clouds 15 1019 33 10000 1.5 320 19:58 22.04.2020
4401 Clouds 15 1019 33 10000 1.5 320 19:38 22.04.2020
4402 Clouds 15 1019 33 10000 1.5 320 19:19 22.04.2020
4403 Clouds 18 1018 25 10000 3.1 0 18:59 22.04.2020
4404 Clouds 18 1018 25 10000 3.1 0 18:40 22.04.2020
4405 Clouds 18 1018 25 10000 3.1 0 18:22 22.04.2020
4406 Clouds 19 1018 20 10000 7.7 360 17:56 22.04.2020
4407 Clouds 19 1018 20 10000 7.7 360 17:37 22.04.2020
4408 Clouds 19 1018 20 10000 7.7 360 17:19 22.04.2020
4409 Clouds 19 1017 24 10000 6.2 10 16:42 22.04.2020
4410 Clouds 19 1017 24 10000 6.2 10 16:42 22.04.2020
4411 Clouds 19 1017 24 10000 6.2 10 16:23 22.04.2020
4412 Clouds 20 1016 24 10000 6.2 10 15:43 22.04.2020
4413 Clouds 20 1016 24 10000 6.2 10 15:25 22.04.2020
4414 Clouds 21 1016 13 10000 6.7 10 14:59 22.04.2020
4415 Clouds 21 1016 13 10000 6.7 10 14:41 22.04.2020
4416 Clouds 21 1016 13 10000 6.7 10 14:20 22.04.2020
4417 Clouds 22 1016 30 10000 3.6 360 13:56 22.04.2020
4418 Clouds 22 1016 30 10000 3.6 360 13:38 22.04.2020
4419 Clouds 22 1016 30 10000 3.6 360 13:19 22.04.2020
4420 Clouds 22 1017 30 10000 3.6 100 12:41 22.04.2020
4421 Clouds 22 1017 30 10000 3.6 100 12:23 22.04.2020
4422 Clouds 21 1017 30 10000 3.6 40 11:57 22.04.2020
4423 Clouds 21 1017 30 10000 3.6 40 11:36 22.04.2020
4424 Clouds 21 1017 30 10000 3.6 40 11:18 22.04.2020
4425 Clouds 21 1017 30 10000 3.1 40 10:41 22.04.2020
4426 Clouds 21 1017 30 10000 3.1 40 10:21 22.04.2020
4427 Clouds 21 1018 35 10000 2.1 0 09:41 22.04.2020
4428 Clouds 21 1018 35 10000 2.1 0 09:23 22.04.2020
4429 Clouds 20 1019 34 10000 1.5 0 08:59 22.04.2020
4430 Clouds 20 1019 34 10000 1.5 0 08:59 22.04.2020
4431 Clouds 20 1019 34 10000 1.5 0 08:41 22.04.2020
4432 Clouds 20 1019 34 10000 1.5 0 08:22 22.04.2020
4433 Clouds 18 1019 39 10000 1.5 0 07:53 22.04.2020
4434 Clouds 18 1019 39 10000 1.5 0 07:33 22.04.2020
4435 Clouds 16 1019 51 10000 1.5 310 06:53 22.04.2020
4436 Clouds 16 1019 51 10000 1.5 310 06:23 22.04.2020
4437 Clouds 12 1019 71 10000 3.1 320 05:38 22.04.2020
4438 Clouds 10 1019 76 10000 2.6 320 04:32 22.04.2020
4439 Clouds 9 1018 76 10000 2.6 180 02:59 22.04.2020
4440 Clouds 10 1018 71 10000 3.1 330 01:55 22.04.2020
4441 Clouds 10 1018 71 10000 3.1 330 01:28 22.04.2020
4442 Clouds 10 1018 76 10000 1.5 280 00:59 22.04.2020
4443 Clouds 10 1018 76 10000 1.5 280 00:41 22.04.2020
4444 Clear 10 1018 76 10000 1.5 280 00:19 22.04.2020
4445 Clear 10 1019 76 8000 1 0 23:43 21.04.2020
4446 Clear 10 1019 76 8000 1 0 23:20 21.04.2020
4447 Clear 12 1019 66 10000 0.5 0 22:41 21.04.2020
4448 Clear 12 1019 66 10000 0.5 0 22:22 21.04.2020
4449 Clear 12 1019 62 10000 1 0 21:59 21.04.2020
4450 Clear 12 1019 62 10000 1 0 21:41 21.04.2020
4451 Clear 12 1019 62 10000 1 0 21:23 21.04.2020
4452 Clear 13 1020 58 10000 0.5 0 20:57 21.04.2020
4453 Clear 13 1020 58 10000 0.5 0 20:39 21.04.2020
4454 Clouds 13 1020 58 10000 0.5 0 20:21 21.04.2020
4455 Clear 15 1020 47 10000 1.5 0 19:41 21.04.2020
4456 Clouds 16 1020 36 10000 3.1 360 19:20 21.04.2020
4457 Clouds 16 1020 36 10000 3.1 360 18:59 21.04.2020
4458 Clouds 16 1020 36 10000 3.1 360 18:59 21.04.2020
4459 Clouds 16 1020 36 10000 3.1 360 18:39 21.04.2020
4460 Clear 16 1020 36 10000 3.1 360 18:19 21.04.2020
4461 Clouds 17 1019 33 10000 4.1 10 17:59 21.04.2020
4462 Clouds 17 1019 33 10000 4.1 10 17:38 21.04.2020
4463 Clouds 17 1019 33 10000 4.1 10 17:19 21.04.2020
4464 Clouds 17 1018 39 10000 3.1 360 16:39 21.04.2020
4465 Clouds 17 1018 39 10000 3.1 360 16:19 21.04.2020
4466 Clouds 19 1018 34 10000 3.6 10 15:59 21.04.2020
4467 Clouds 19 1018 34 10000 3.6 10 15:41 21.04.2020
4468 Clouds 19 1018 34 10000 3.6 10 15:23 21.04.2020
4469 Clouds 21 1018 32 10000 2.1 0 14:58 21.04.2020
4470 Clouds 21 1018 32 10000 2.1 0 14:40 21.04.2020
4471 Clouds 21 1018 32 10000 2.1 0 14:22 21.04.2020
4472 Clouds 20 1018 34 10000 2.6 0 13:42 21.04.2020
4473 Clouds 20 1018 34 10000 2.6 0 13:23 21.04.2020
4474 Clouds 20 1019 34 10000 3.1 10 12:58 21.04.2020
4475 Clouds 20 1019 34 10000 3.1 10 12:38 21.04.2020
4476 Clouds 20 1019 34 10000 3.1 10 12:19 21.04.2020
4477 Clouds 20 1019 30 10000 1.5 0 11:56 21.04.2020
4478 Clouds 20 1019 30 10000 1.5 0 11:37 21.04.2020
4479 Clouds 20 1019 30 10000 1.5 0 11:18 21.04.2020
4480 Clouds 18 1020 39 10000 1.5 0 10:56 21.04.2020
4481 Clouds 18 1020 39 10000 1.5 0 10:38 21.04.2020
4482 Clouds 18 1020 39 10000 1.5 0 10:20 21.04.2020
4483 Clouds 18 1020 42 10000 2.1 0 09:37 21.04.2020
4484 Clouds 18 1020 42 10000 2.1 0 09:19 21.04.2020
4485 Clouds 16 1021 48 10000 2.6 200 08:57 21.04.2020
4486 Clouds 16 1021 48 10000 2.6 200 08:39 21.04.2020
4487 Clouds 16 1021 48 10000 2.6 200 08:19 21.04.2020
4488 Clear 15 1021 54 10000 2.1 0 07:44 21.04.2020
4489 Clear 15 1021 54 10000 2.1 0 07:22 21.04.2020
4490 Clear 14 1021 58 10000 1.5 0 06:49 21.04.2020
4491 Clear 14 1021 58 10000 1.5 0 06:20 21.04.2020
4492 Clear 11 1021 71 10000 1.5 0 05:48 21.04.2020
4493 Clear 8 1021 87 10000 1.3 227 04:21 21.04.2020
4494 Clear 6 1020 93 10000 1.3 227 03:42 21.04.2020
4495 Clear 7 1020 87 10000 0.5 360 01:46 21.04.2020
4496 Clear 7 1020 87 10000 0.5 360 01:18 21.04.2020
4497 Clear 8 1020 87 10000 1 0 00:35 21.04.2020
4498 Clear 8 1021 81 10000 2.1 20 23:45 20.04.2020
4499 Clear 8 1021 81 10000 2.1 20 23:25 20.04.2020
4500 Clear 8 1021 87 10000 1 240 22:58 20.04.2020
4501 Clear 8 1021 87 10000 1 240 22:38 20.04.2020
4502 Clear 8 1021 87 10000 1 240 22:20 20.04.2020
4503 Clear 9 1021 76 10000 1.5 150 21:57 20.04.2020
4504 Clear 9 1021 76 10000 1.5 150 21:38 20.04.2020
4505 Rain 9 1021 76 10000 1.5 150 21:19 20.04.2020
4506 Rain 8 1021 81 10000 3.1 120 20:57 20.04.2020
4507 Rain 8 1021 81 10000 3.1 120 20:38 20.04.2020
4508 Rain 8 1021 81 10000 3.1 120 20:18 20.04.2020
4509 Rain 8 1021 81 10000 3.1 120 20:18 20.04.2020
4510 Rain 8 1021 81 10000 3.1 120 20:18 20.04.2020
4511 Rain 10 1021 71 10000 1 0 19:57 20.04.2020
4512 Rain 10 1021 71 10000 1 0 19:38 20.04.2020
4513 Rain 10 1021 71 10000 1 0 19:19 20.04.2020
4514 Rain 12 1021 58 10000 1 220 18:42 20.04.2020
4515 Rain 12 1021 58 10000 1 220 18:22 20.04.2020
4516 Clouds 12 1021 62 10000 1.5 0 17:55 20.04.2020
4517 Clouds 12 1021 62 10000 1.5 0 17:37 20.04.2020
4518 Clouds 12 1021 62 10000 1.5 0 17:19 20.04.2020
4519 Clouds 12 1021 62 10000 5.1 320 16:57 20.04.2020
4520 Clouds 12 1021 62 10000 5.1 320 16:38 20.04.2020
4521 Clouds 12 1021 62 10000 5.1 320 16:18 20.04.2020
4522 Clouds 13 1020 58 10000 5.1 360 15:42 20.04.2020
4523 Clouds 13 1020 58 10000 5.1 360 15:23 20.04.2020
4524 Rain 13 1020 58 10000 7.7 10 14:55 20.04.2020
4525 Clouds 14 1018 54 10000 3.6 310 14:36 20.04.2020
4526 Clouds 15 1020 51 10000 3.1 250 14:18 20.04.2020
4527 Clouds 15 1020 51 10000 3.1 250 13:41 20.04.2020
4528 Clouds 15 1020 51 10000 3.1 250 13:22 20.04.2020
4529 Clouds 15 1020 51 10000 2.1 230 12:54 20.04.2020
4530 Clouds 15 1020 51 10000 2.1 230 12:36 20.04.2020
4531 Clouds 15 1020 51 10000 2.1 230 12:18 20.04.2020
4532 Clouds 15 1020 54 10000 5.1 160 11:40 20.04.2020
4533 Clouds 17 1020 54 10000 5.1 160 11:21 20.04.2020
4534 Clouds 15 1020 66 10000 5.1 80 10:57 20.04.2020
4535 Clouds 15 1020 66 10000 5.1 80 10:57 20.04.2020
4536 Clouds 15 1020 66 10000 5.1 80 10:57 20.04.2020
4537 Clouds 15 1020 66 10000 5.1 80 10:38 20.04.2020
4538 Clouds 15 1020 66 10000 5.1 80 10:19 20.04.2020
4539 Clouds 15 1020 71 10000 3.6 70 09:55 20.04.2020
4540 Thunderstorm 14 1021 81 10000 5.1 300 09:36 20.04.2020
4541 Thunderstorm 13 1021 81 10000 5.1 300 09:18 20.04.2020
4542 Thunderstorm 14 1020 76 10000 6.7 340 08:41 20.04.2020
4543 Thunderstorm 12 1020 55 10000 1.5 0 08:21 20.04.2020
4544 Thunderstorm 13 1020 55 10000 1.5 0 07:52 20.04.2020
4545 Thunderstorm 16 1020 55 10000 1.5 0 07:29 20.04.2020
4546 Clouds 13 1020 66 10000 1.5 0 06:55 20.04.2020
4547 Clouds 13 1020 66 10000 1.5 0 06:36 20.04.2020
4548 Clouds 12 1020 71 10000 1.5 0 05:38 20.04.2020
4549 Clouds 9 1019 87 10000 1.61 49 03:49 20.04.2020
4550 Clouds 9 1018 87 10000 1.5 320 02:44 20.04.2020
4551 Clouds 9 1019 87 10000 1 0 01:37 20.04.2020
4552 Clouds 10 1019 87 10000 1 0 01:19 20.04.2020
4553 Clouds 10 1019 87 10000 1.5 0 00:35 20.04.2020
4554 Clouds 12 1019 76 10000 1.5 0 23:57 19.04.2020
4555 Clouds 12 1019 76 10000 1.5 0 23:38 19.04.2020
4556 Clouds 12 1019 76 10000 1.5 0 23:19 19.04.2020
4557 Clouds 11 1019 76 10000 1 0 22:40 19.04.2020
4558 Clouds 12 1019 76 10000 1 0 22:22 19.04.2020
4559 Clouds 13 1019 71 10000 1.5 0 21:58 19.04.2020
4560 Clouds 13 1019 71 10000 1.5 0 21:39 19.04.2020
4561 Clouds 13 1019 71 10000 1.5 0 21:39 19.04.2020
4562 Clouds 13 1019 71 10000 1.5 0 21:20 19.04.2020
4563 Clouds 14 1019 66 10000 5.1 130 20:55 19.04.2020
4564 Clouds 14 1019 66 10000 5.1 130 20:36 19.04.2020
4565 Clouds 14 1019 66 10000 5.1 130 20:18 19.04.2020
4566 Clouds 14 1019 66 10000 3.1 130 19:41 19.04.2020
4567 Clouds 14 1019 66 10000 3.1 130 19:22 19.04.2020
4568 Clouds 14 1019 71 10000 3.1 130 18:58 19.04.2020
4569 Clouds 14 1019 71 10000 3.1 130 18:40 19.04.2020
4570 Clouds 15 1019 71 10000 3.1 130 18:20 19.04.2020
4571 Clouds 16 1018 47 10000 2.1 170 17:58 19.04.2020
4572 Clouds 16 1018 47 10000 2.1 170 17:40 19.04.2020
4573 Clouds 16 1018 47 10000 2.1 170 17:21 19.04.2020
4574 Clouds 15 1017 47 10000 3.1 300 16:58 19.04.2020
4575 Clouds 15 1017 47 10000 3.1 300 16:38 19.04.2020
4576 Clouds 15 1017 47 10000 3.1 300 16:38 19.04.2020
4577 Clouds 17 1017 47 10000 3.1 300 16:20 19.04.2020
4578 Clouds 17 1017 47 10000 3.1 300 16:20 19.04.2020
4579 Clouds 19 1017 25 10000 3.6 330 15:43 19.04.2020
4580 Clouds 19 1017 14 10000 3.6 330 15:22 19.04.2020
4581 Clouds 18 1017 36 10000 3.1 330 14:56 19.04.2020
4582 Clouds 18 1017 36 10000 3.1 330 14:37 19.04.2020
4583 Clouds 18 1017 36 10000 3.1 330 14:19 19.04.2020
4584 Clouds 19 1017 36 10000 4.1 60 13:40 19.04.2020
4585 Clouds 19 1017 36 10000 4.1 60 13:21 19.04.2020
4586 Clouds 20 1017 32 10000 3.6 0 12:58 19.04.2020
4587 Clouds 20 1017 32 10000 3.6 0 12:40 19.04.2020
4588 Clouds 20 1017 32 10000 3.6 0 12:20 19.04.2020
4589 Clouds 19 1018 36 10000 2.1 0 11:37 19.04.2020
4590 Clouds 19 1018 36 10000 2.1 0 11:37 19.04.2020
4591 Clouds 19 1018 36 10000 2.1 0 11:19 19.04.2020
4592 Clouds 19 1019 42 10000 3.1 80 10:58 19.04.2020
4593 Clouds 19 1019 42 10000 3.1 80 10:39 19.04.2020
4594 Clouds 18 1016 45 10000 1.31 91 10:19 19.04.2020
4595 Clouds 18 1016 45 10000 1.31 91 09:46 19.04.2020
4596 Clouds 17 1020 51 10000 1.5 0 09:28 19.04.2020
4597 Clouds 16 1020 51 10000 1.5 0 08:42 19.04.2020
4598 Clouds 16 1020 51 10000 1.5 0 08:24 19.04.2020
4599 Clouds 14 1020 62 10000 1.5 0 07:59 19.04.2020
4600 Clouds 14 1020 62 10000 1.5 0 07:41 19.04.2020
4601 Clouds 14 1020 62 10000 1.5 0 07:23 19.04.2020
4602 Clouds 14 1020 62 10000 1.5 0 07:23 19.04.2020
4603 Clouds 13 1020 71 9000 1.5 0 06:30 19.04.2020
4604 Clouds 12 1019 76 10000 1.5 110 05:56 19.04.2020
4605 Clouds 9 1019 87 10000 0.69 40 04:48 19.04.2020
4606 Clear 7 1019 100 10000 0.5 0 02:59 19.04.2020
4607 Clear 7 1019 100 10000 0.5 0 02:21 19.04.2020
4608 Clear 8 1019 100 10000 0.58 352 01:39 19.04.2020
4609 Clear 9 1019 93 10000 2.1 110 00:49 19.04.2020
4610 Rain 9 1019 93 10000 2.1 110 00:25 19.04.2020
4611 Clouds 9 1019 93 10000 1 0 23:56 18.04.2020
4612 Clouds 9 1019 93 10000 1 0 23:36 18.04.2020
4613 Clouds 10 1019 93 10000 1 0 23:18 18.04.2020
4614 Rain 11 1020 81 10000 1 0 22:41 18.04.2020
4615 Rain 11 1020 81 10000 1 0 22:21 18.04.2020
4616 Rain 11 1020 76 10000 0.5 0 21:57 18.04.2020
4617 Rain 11 1020 76 10000 0.5 0 21:38 18.04.2020
4618 Rain 12 1020 76 10000 0.5 0 21:19 18.04.2020
4619 Clouds 12 1020 76 10000 1.5 110 20:42 18.04.2020
4620 Clouds 12 1020 76 10000 1.5 110 20:42 18.04.2020
4621 Clouds 12 1020 76 10000 1.5 110 20:22 18.04.2020
4622 Clouds 12 1019 81 10000 2.1 130 19:59 18.04.2020
4623 Clouds 12 1019 81 10000 2.1 130 19:38 18.04.2020
4624 Clouds 13 1019 81 10000 2.1 130 19:19 18.04.2020
4625 Clouds 14 1019 71 10000 3.6 150 18:38 18.04.2020
4626 Clouds 14 1019 71 10000 3.6 150 18:20 18.04.2020
4627 Rain 14 1018 62 10000 1.5 0 17:45 18.04.2020
4628 Rain 14 1018 62 10000 1.5 0 17:22 18.04.2020
4629 Rain 15 1018 58 10000 3.6 110 16:58 18.04.2020
4630 Rain 15 1018 58 10000 3.6 110 16:39 18.04.2020
4631 Rain 16 1018 58 10000 3.6 110 16:21 18.04.2020
4632 Rain 18 1016 39 10000 1 0 15:40 18.04.2020
4633 Rain 18 1016 39 10000 1 0 15:22 18.04.2020
4634 Clouds 19 1016 32 10000 1 0 14:48 18.04.2020
4635 Clouds 19 1016 32 10000 1 0 14:29 18.04.2020
4636 Clouds 20 1016 29 10000 2.1 0 13:59 18.04.2020
4637 Clouds 20 1016 29 10000 2.1 0 13:41 18.04.2020
4638 Clouds 19 1016 29 10000 2.1 0 13:20 18.04.2020
4639 Clouds 19 1017 39 10000 1 0 12:42 18.04.2020
4640 Clouds 19 1017 39 10000 1 0 12:42 18.04.2020
4641 Clouds 19 1017 39 10000 1 0 12:24 18.04.2020
4642 Rain 19 1018 34 10000 1.5 0 11:57 18.04.2020
4643 Rain 19 1018 34 10000 1.5 0 11:38 18.04.2020
4644 Rain 19 1018 34 10000 1.5 0 11:38 18.04.2020
4645 Rain 19 1018 34 10000 1.5 0 11:19 18.04.2020
4646 Clouds 18 1018 39 10000 2.6 0 10:42 18.04.2020
4647 Clouds 18 1018 39 10000 2.6 0 10:22 18.04.2020
4648 Clouds 16 1019 44 10000 3.1 210 09:58 18.04.2020
4649 Clouds 16 1019 44 10000 3.1 210 09:39 18.04.2020
4650 Clouds 16 1019 44 10000 3.1 210 09:20 18.04.2020
4651 Clouds 15 1019 51 10000 3.1 200 08:42 18.04.2020
4652 Clouds 14 1019 51 10000 3.1 200 08:21 18.04.2020
4653 Clouds 14 1019 62 10000 1.5 0 07:45 18.04.2020
4654 Clouds 14 1019 62 10000 1.5 0 07:23 18.04.2020
4655 Clouds 12 1019 76 10000 0.5 0 06:39 18.04.2020
4656 Clouds 9 1019 93 8000 0.5 0 05:48 18.04.2020
4657 Mist 8 1018 100 5000 1 170 04:54 18.04.2020
4658 Mist 7 1018 100 1200 1.5 0 04:30 18.04.2020
4659 Fog 7 1018 100 800 1 0 03:18 18.04.2020
4660 Fog 7 1018 100 800 1.5 0 02:40 18.04.2020
4661 Fog 7 1018 100 800 1.5 0 02:20 18.04.2020
4662 Fog 7 1018 100 600 1.5 0 01:40 18.04.2020
4663 Fog 7 1018 100 200 1.5 170 00:59 18.04.2020
4664 Fog 6 1018 100 300 2.1 130 00:24 18.04.2020
4665 Fog 6 1018 100 400 1.5 0 23:58 17.04.2020
4666 Fog 6 1018 100 400 1.5 0 23:40 17.04.2020
4667 Clouds 8 1019 100 10000 1.5 0 23:19 17.04.2020
4668 Clouds 8 1019 93 10000 1.5 0 22:58 17.04.2020
4669 Clouds 8 1019 93 10000 1.5 0 22:58 17.04.2020
4670 Clouds 8 1019 93 10000 1.5 0 22:40 17.04.2020
4671 Clouds 8 1019 93 10000 1.5 0 22:19 17.04.2020
4672 Clouds 8 1019 93 10000 1.5 0 21:56 17.04.2020
4673 Clouds 8 1019 93 10000 1.5 0 21:37 17.04.2020
4674 Clouds 8 1019 93 10000 1.5 0 21:18 17.04.2020
4675 Clouds 9 1019 87 10000 1.5 0 20:54 17.04.2020
4676 Clouds 9 1019 87 10000 1.5 0 20:36 17.04.2020
4677 Clouds 10 1019 87 10000 1.5 0 20:18 17.04.2020
4678 Clouds 9 1019 93 10000 2.1 90 19:42 17.04.2020
4679 Clouds 9 1019 93 10000 2.1 90 19:23 17.04.2020
4680 Clouds 10 1018 87 10000 2.1 70 18:45 17.04.2020
4681 Clouds 10 1018 87 10000 2.1 70 18:24 17.04.2020
4682 Clouds 10 1018 81 10000 1.5 0 17:57 17.04.2020
4683 Clouds 10 1018 81 10000 1.5 0 17:37 17.04.2020
4684 Clouds 10 1018 81 10000 1.5 0 17:18 17.04.2020
4685 Clouds 11 1017 76 10000 0.5 0 16:43 17.04.2020
4686 Clouds 11 1017 76 10000 0.5 0 16:23 17.04.2020
4687 Clouds 10 1017 76 10000 1.5 170 15:44 17.04.2020
4688 Clouds 11 1017 76 10000 1.5 170 15:24 17.04.2020
4689 Clouds 11 1016 81 10000 1.5 130 14:58 17.04.2020
4690 Clouds 11 1016 81 10000 1.5 130 14:39 17.04.2020
4691 Clouds 11 1016 81 10000 1.5 130 14:21 17.04.2020
4692 Rain 11 1016 81 10000 2.6 360 13:55 17.04.2020
4693 Rain 11 1016 81 10000 2.6 360 13:36 17.04.2020
4694 Rain 10 1016 81 10000 2.6 360 13:18 17.04.2020
4695 Rain 10 1016 87 10000 4.1 10 12:44 17.04.2020
4696 Rain 10 1016 87 10000 4.1 10 12:23 17.04.2020
4697 Rain 10 1017 87 10000 3.6 360 11:42 17.04.2020
4698 Rain 10 1017 87 10000 3.6 360 11:19 17.04.2020
4699 Rain 10 1018 87 10000 4.1 360 10:56 17.04.2020
4700 Rain 10 1018 87 10000 4.1 360 10:56 17.04.2020
4701 Rain 10 1018 87 10000 4.1 360 10:38 17.04.2020
4702 Rain 10 1018 87 10000 4.1 360 10:18 17.04.2020
4703 Rain 10 1018 93 10000 3.6 360 09:41 17.04.2020
4704 Rain 10 1018 93 10000 3.6 360 09:20 17.04.2020
4705 Rain 10 1018 87 10000 1 0 08:57 17.04.2020
4706 Rain 10 1018 87 10000 1 0 08:39 17.04.2020
4707 Rain 10 1018 87 10000 1 0 08:19 17.04.2020
4708 Rain 10 1019 87 10000 1.5 0 07:44 17.04.2020
4709 Rain 10 1019 87 10000 1.5 0 07:22 17.04.2020
4710 Rain 10 1019 81 10000 1 0 06:45 17.04.2020
4711 Rain 10 1019 81 10000 1 0 06:23 17.04.2020
4712 Rain 10 1018 81 10000 3.1 90 05:25 17.04.2020
4713 Clouds 10 1017 76 10000 1.5 0 03:19 17.04.2020
4714 Rain 11 1017 87 10000 3.1 310 02:19 17.04.2020
4715 Rain 11 1017 71 10000 1.5 0 01:29 17.04.2020
4716 Clouds 11 1018 76 10000 1.5 320 00:51 17.04.2020
4717 Clouds 11 1018 76 10000 1.5 320 00:19 17.04.2020
4718 Clouds 11 1018 76 10000 1.5 100 23:42 16.04.2020
4719 Clouds 11 1018 76 10000 1.5 100 23:42 16.04.2020
4720 Clouds 11 1018 76 10000 1.5 100 23:22 16.04.2020
4721 Clouds 11 1019 81 10000 1.5 60 22:56 16.04.2020
4722 Clouds 11 1019 81 10000 1.5 60 22:37 16.04.2020
4723 Clouds 11 1019 81 10000 1.5 60 22:19 16.04.2020
4724 Clouds 12 1020 66 10000 1.5 0 21:42 16.04.2020
4725 Clouds 12 1020 66 10000 1.5 0 21:20 16.04.2020
4726 Clouds 12 1020 71 10000 1.5 320 20:59 16.04.2020
4727 Clouds 12 1020 71 10000 1.5 320 20:39 16.04.2020
4728 Clouds 11 1020 71 10000 1.5 320 20:19 16.04.2020
4729 Clouds 12 1020 62 10000 1.5 0 19:55 16.04.2020
4730 Clouds 12 1020 62 10000 1.5 0 19:36 16.04.2020
4731 Clouds 13 1020 62 10000 1.5 0 19:18 16.04.2020
4732 Clouds 13 1020 62 10000 1.5 0 18:42 16.04.2020
4733 Clouds 13 1020 62 10000 1.5 0 18:23 16.04.2020
4734 Clouds 12 1019 66 10000 3.1 100 17:57 16.04.2020
4735 Clouds 12 1019 66 10000 3.1 100 17:38 16.04.2020
4736 Clouds 13 1019 66 10000 3.1 100 17:18 16.04.2020
4737 Clouds 16 1016 48 10000 1.5 90 16:42 16.04.2020
4738 Clouds 15 1019 50 10000 2.6 350 16:23 16.04.2020
4739 Clouds 15 1019 50 10000 2.6 350 15:45 16.04.2020
4740 Clouds 15 1019 50 10000 2.6 350 15:20 16.04.2020
4741 Rain 15 1019 58 10000 5.1 350 14:58 16.04.2020
4742 Rain 15 1019 58 10000 5.1 350 14:40 16.04.2020
4743 Rain 15 1019 58 10000 5.1 350 14:21 16.04.2020
4744 Rain 15 1019 58 10000 5.1 350 14:21 16.04.2020
4745 Rain 16 1019 44 10000 6.2 40 13:57 16.04.2020
4746 Rain 16 1019 44 10000 6.2 40 13:38 16.04.2020
4747 Rain 16 1019 44 10000 6.2 40 13:19 16.04.2020
4748 Clouds 17 1019 48 10000 2.1 100 12:57 16.04.2020
4749 Clouds 17 1019 48 10000 2.1 100 12:38 16.04.2020
4750 Clouds 17 1019 48 10000 2.1 100 12:19 16.04.2020
4751 Clouds 17 1020 51 10000 1.5 30 11:55 16.04.2020
4752 Clouds 17 1020 51 10000 1.5 30 11:37 16.04.2020
4753 Clouds 16 1020 51 10000 1.5 30 11:18 16.04.2020
4754 Clouds 16 1021 51 10000 2.6 360 10:40 16.04.2020
4755 Clouds 16 1021 51 10000 2.6 360 10:19 16.04.2020
4756 Clouds 17 1021 45 10000 1 0 09:59 16.04.2020
4757 Clouds 17 1021 45 10000 1 0 09:38 16.04.2020
4758 Clouds 16 1021 45 10000 1 0 09:19 16.04.2020
4759 Clouds 16 1022 48 10000 1 0 08:43 16.04.2020
4760 Clouds 16 1022 48 10000 1 0 08:23 16.04.2020
4761 Clouds 14 1019 71 10000 0.89 125 07:46 16.04.2020
4762 Clouds 14 1021 54 10000 1.5 300 07:28 16.04.2020
4763 Clouds 14 1021 54 10000 1.5 300 06:46 16.04.2020
4764 Clouds 14 1021 54 10000 1.5 300 06:27 16.04.2020
4765 Clouds 11 1021 76 10000 1.5 330 05:59 16.04.2020
4766 Clouds 10 1020 87 10000 1 0 04:44 16.04.2020
4767 Clouds 9 1020 87 10000 2.1 320 03:25 16.04.2020
4768 Clouds 9 1019 87 10000 1.5 0 02:55 16.04.2020
4769 Clouds 9 1019 87 10000 1.5 0 02:33 16.04.2020
4770 Clouds 10 1019 87 10000 1.5 0 01:21 16.04.2020
4771 Clouds 9 1020 87 10000 1.5 0 00:38 16.04.2020
4772 Clouds 10 1020 87 10000 1.5 0 00:18 16.04.2020
4773 Clouds 11 1020 81 10000 1.5 180 23:43 15.04.2020
4774 Clouds 11 1020 81 10000 1.5 180 23:22 15.04.2020
4775 Clouds 11 1021 81 10000 1.5 360 22:58 15.04.2020
4776 Clouds 11 1021 81 10000 1.5 360 22:37 15.04.2020
4777 Clouds 11 1021 81 10000 1.5 360 22:19 15.04.2020
4778 Clouds 12 1021 76 10000 1.5 0 21:41 15.04.2020
4779 Clouds 12 1021 76 10000 1.5 0 21:23 15.04.2020
4780 Clouds 13 1021 71 10000 1.5 360 20:59 15.04.2020
4781 Clouds 13 1021 71 10000 1.5 360 20:41 15.04.2020
4782 Clouds 13 1021 71 10000 1.5 360 20:22 15.04.2020
4783 Clouds 12 1021 76 10000 1.5 0 19:57 15.04.2020
4784 Clouds 12 1021 76 10000 1.5 0 19:39 15.04.2020
4785 Clouds 12 1021 76 10000 1.5 0 19:18 15.04.2020
4786 Clouds 15 1021 62 10000 2.1 0 18:40 15.04.2020
4787 Clouds 15 1021 62 10000 2.1 0 18:22 15.04.2020
4788 Clouds 16 1020 54 10000 5.1 10 17:55 15.04.2020
4789 Clouds 16 1020 54 10000 5.1 10 17:37 15.04.2020
4790 Clouds 16 1020 54 10000 5.1 10 17:37 15.04.2020
4791 Clouds 16 1020 54 10000 5.1 10 17:18 15.04.2020
4792 Clouds 18 1017 48 10000 1.5 310 16:54 15.04.2020
4793 Clouds 18 1017 48 10000 1.5 310 16:36 15.04.2020
4794 Clouds 19 1017 42 10000 2.6 320 16:18 15.04.2020
4795 Clouds 18 1020 34 10000 2.6 50 15:55 15.04.2020
4796 Clouds 18 1020 34 10000 2.6 50 15:36 15.04.2020
4797 Clouds 18 1020 34 10000 2.6 50 15:18 15.04.2020
4798 Clouds 19 1020 29 10000 2.1 0 14:41 15.04.2020
4799 Clouds 19 1020 29 10000 2.1 0 14:23 15.04.2020
4800 Clouds 20 1020 13 10000 2.1 0 13:59 15.04.2020
4801 Clouds 20 1020 13 10000 2.1 0 13:40 15.04.2020
4802 Clouds 20 1020 13 10000 2.1 0 13:21 15.04.2020
4803 Clouds 19 1021 34 10000 3.1 0 12:58 15.04.2020
4804 Clouds 19 1021 34 10000 3.1 0 12:39 15.04.2020
4805 Clouds 19 1021 34 10000 3.1 0 12:21 15.04.2020
4806 Clouds 19 1022 34 10000 3.1 0 11:57 15.04.2020
4807 Clouds 19 1022 34 10000 3.1 0 11:38 15.04.2020
4808 Clouds 19 1022 34 10000 3.1 0 11:20 15.04.2020
4809 Clouds 18 1022 39 10000 3.1 0 10:38 15.04.2020
4810 Clouds 18 1022 39 10000 3.1 0 10:19 15.04.2020
4811 Clouds 16 1022 38 10000 2.6 0 09:56 15.04.2020
4812 Clouds 16 1022 38 10000 2.6 0 09:38 15.04.2020
4813 Clouds 16 1022 38 10000 2.6 0 09:19 15.04.2020
4814 Clouds 16 1023 59 10000 3.1 180 08:42 15.04.2020
4815 Clouds 16 1023 59 10000 3.1 180 08:23 15.04.2020
4816 Clouds 15 1023 67 10000 1 0 07:59 15.04.2020
4817 Clouds 15 1023 67 10000 1 0 07:40 15.04.2020
4818 Clouds 13 1023 82 10000 0.5 0 07:00 15.04.2020
4819 Clouds 13 1023 82 10000 0.5 0 06:24 15.04.2020
4820 Clouds 12 1022 87 6000 1.5 0 05:34 15.04.2020
4821 Fog 9 1022 100 7000 1.5 130 04:47 15.04.2020
4822 Fog 9 1022 100 7000 1.5 130 04:18 15.04.2020
4823 Mist 9 1021 100 10000 1.5 0 03:22 15.04.2020
4824 Clouds 9 1020 100 10000 1 0 02:45 15.04.2020
4825 Clouds 9 1020 100 10000 1.5 0 01:51 15.04.2020
4826 Clouds 10 1020 93 10000 1.5 140 01:25 15.04.2020
4827 Clouds 10 1020 93 10000 1.5 140 00:47 15.04.2020
4828 Clouds 10 1020 93 10000 1.5 140 00:24 15.04.2020
4829 Clouds 10 1019 93 10000 4.1 310 23:56 14.04.2020
4830 Clouds 10 1019 93 10000 4.1 310 23:38 14.04.2020
4831 Clouds 10 1019 93 10000 4.1 310 23:20 14.04.2020
4832 Clouds 10 1019 93 10000 2.1 320 22:56 14.04.2020
4833 Clouds 10 1019 93 10000 2.1 320 22:56 14.04.2020
4834 Clouds 10 1019 93 10000 2.1 320 22:38 14.04.2020
4835 Clouds 10 1019 93 10000 2.1 320 22:20 14.04.2020
4836 Clouds 11 1019 93 10000 3.6 80 21:56 14.04.2020
4837 Clouds 11 1019 93 10000 3.6 80 21:37 14.04.2020
4838 Clouds 11 1019 93 10000 3.6 80 21:19 14.04.2020
4839 Thunderstorm 11 1019 93 7000 5.1 320 20:41 14.04.2020
4840 Thunderstorm 11 1019 93 7000 5.1 320 20:41 14.04.2020
4841 Thunderstorm 11 1019 93 7000 5.1 320 20:23 14.04.2020
4842 Clouds 11 1019 100 10000 1.5 110 20:00 14.04.2020
4843 Clouds 11 1019 100 10000 1.5 110 19:40 14.04.2020
4844 Clouds 12 1019 100 10000 1.5 110 19:21 14.04.2020
4845 Clouds 12 1018 93 10000 1.5 100 18:57 14.04.2020
4846 Clouds 12 1018 93 10000 1.5 100 18:39 14.04.2020
4847 Clouds 12 1018 93 10000 1.5 100 18:20 14.04.2020
4848 Clouds 12 1018 93 10000 2.1 350 17:57 14.04.2020
4849 Clouds 12 1018 93 10000 2.1 350 17:37 14.04.2020
4850 Clouds 12 1018 93 10000 2.1 350 17:19 14.04.2020
4851 Clouds 13 1018 87 10000 2.24 101 16:54 14.04.2020
4852 Clouds 13 1018 87 10000 1.11 198 16:36 14.04.2020
4853 Clouds 12 1018 87 10000 2.24 101 16:18 14.04.2020
4854 Clouds 12 1018 87 10000 2.24 101 16:18 14.04.2020
4855 Rain 12 1018 87 4000 6.2 100 15:41 14.04.2020
4856 Rain 12 1018 87 4000 6.2 100 15:23 14.04.2020
4857 Rain 13 1017 87 10000 2.1 80 14:59 14.04.2020
4858 Rain 13 1017 87 10000 2.1 80 14:40 14.04.2020
4859 Rain 13 1017 87 10000 2.1 80 14:22 14.04.2020
4860 Rain 12 1018 93 7000 1 0 13:57 14.04.2020
4861 Rain 12 1018 93 7000 1 0 13:39 14.04.2020
4862 Rain 12 1018 93 7000 1 0 13:20 14.04.2020
4863 Rain 13 1018 87 8000 1.5 0 12:42 14.04.2020
4864 Rain 13 1018 87 8000 1.5 0 12:21 14.04.2020
4865 Clouds 13 1019 82 10000 4.1 350 11:55 14.04.2020
4866 Clouds 13 1019 82 10000 4.1 350 11:37 14.04.2020
4867 Clouds 13 1019 82 10000 4.1 350 11:18 14.04.2020
4868 Rain 13 1019 87 10000 5.1 360 10:44 14.04.2020
4869 Rain 13 1019 87 10000 5.1 360 10:24 14.04.2020
4870 Clouds 15 1020 82 8000 1 0 09:55 14.04.2020
4871 Clouds 15 1020 82 8000 1 0 09:37 14.04.2020
4872 Clouds 14 1020 82 8000 1 0 09:18 14.04.2020
4873 Clouds 14 1020 82 8000 1 0 08:41 14.04.2020
4874 Clouds 12 1020 93 8000 2.6 60 08:22 14.04.2020
4875 Thunderstorm 11 1021 100 6000 2.6 310 07:54 14.04.2020
4876 Thunderstorm 11 1021 93 6000 4.6 320 07:30 14.04.2020
4877 Thunderstorm 11 1021 93 6000 4.6 320 07:30 14.04.2020
4878 Thunderstorm 11 1021 93 6000 4.6 320 06:49 14.04.2020
4879 Clouds 12 1019 87 8000 1 0 06:18 14.04.2020
4880 Clouds 11 1019 93 9000 1.5 0 03:52 14.04.2020
4881 Rain 13 1015 38 0 1.11 112 02:56 14.04.2020
4882 Clouds 11 1020 100 10000 1 0 01:46 14.04.2020
4883 Clouds 10 1020 100 10000 1 0 01:24 14.04.2020
4884 Clouds 10 1020 93 10000 1.5 70 00:38 14.04.2020
4885 Clouds 11 1020 93 10000 1.5 70 00:18 14.04.2020
4886 Clouds 11 1021 100 10000 1.5 140 23:44 13.04.2020
4887 Clouds 11 1021 100 10000 1.5 140 23:25 13.04.2020
4888 Clouds 11 1022 93 10000 1 330 22:57 13.04.2020
4889 Clouds 11 1022 93 10000 1 330 22:39 13.04.2020
4890 Clouds 11 1022 93 10000 1 330 22:20 13.04.2020
4891 Clouds 11 1022 93 10000 1 70 21:55 13.04.2020
4892 Clouds 11 1022 93 10000 1 70 21:37 13.04.2020
4893 Clouds 12 1022 93 10000 1 70 21:19 13.04.2020
4894 Clouds 11 1022 93 10000 2.1 290 20:41 13.04.2020
4895 Clouds 11 1022 93 10000 2.1 290 20:20 13.04.2020
4896 Clouds 13 1020 93 10000 1.28 30 20:00 13.04.2020
4897 Clouds 13 1020 93 10000 1.28 30 20:00 13.04.2020
4898 Clouds 13 1020 93 10000 2.6 260 19:38 13.04.2020
4899 Clouds 12 1023 93 10000 5.1 150 19:19 13.04.2020
4900 Clouds 12 1023 93 10000 5.1 150 18:59 13.04.2020
4901 Clouds 12 1023 93 10000 5.1 150 18:39 13.04.2020
4902 Clouds 12 1023 93 10000 5.1 150 18:20 13.04.2020
4903 Rain 12 1022 87 10000 3.6 160 17:58 13.04.2020
4904 Thunderstorm 12 1022 87 10000 3.6 310 17:38 13.04.2020
4905 Thunderstorm 12 1022 87 10000 3.6 310 17:19 13.04.2020
4906 Thunderstorm 14 1020 82 6000 6.2 320 16:58 13.04.2020
4907 Clouds 15 1020 71 10000 2.1 290 16:40 13.04.2020
4908 Clouds 15 1020 71 10000 2.1 290 16:20 13.04.2020
4909 Rain 15 1020 82 10000 5.1 350 15:57 13.04.2020
4910 Rain 15 1020 82 10000 5.1 350 15:39 13.04.2020
4911 Rain 15 1020 82 10000 5.1 350 15:20 13.04.2020
4912 Rain 15 1020 82 10000 6.2 360 14:54 13.04.2020
4913 Rain 15 1020 82 10000 6.2 360 14:36 13.04.2020
4914 Rain 15 1020 82 10000 6.2 360 14:18 13.04.2020
4915 Rain 15 1020 82 10000 6.2 360 14:18 13.04.2020
4916 Thunderstorm 15 1020 67 10000 5.7 350 13:54 13.04.2020
4917 Thunderstorm 15 1020 67 10000 5.7 350 13:36 13.04.2020
4918 Thunderstorm 17 1020 67 10000 5.7 350 13:18 13.04.2020
4919 Clouds 19 1020 59 10000 4.1 140 12:40 13.04.2020
4920 Clouds 19 1020 59 10000 4.1 140 12:21 13.04.2020
4921 Clouds 19 1020 59 10000 4.1 140 12:21 13.04.2020
4922 Thunderstorm 19 1021 55 10000 1.5 40 11:59 13.04.2020
4923 Thunderstorm 19 1021 55 10000 1.5 40 11:41 13.04.2020
4924 Thunderstorm 19 1021 55 10000 1.5 40 11:18 13.04.2020
4925 Thunderstorm 19 1021 55 10000 1.5 40 11:18 13.04.2020
4926 Clouds 19 1021 55 10000 5.1 60 10:55 13.04.2020
4927 Clouds 19 1021 55 10000 5.1 60 10:37 13.04.2020
4928 Clouds 19 1022 59 10000 2.6 80 10:18 13.04.2020
4929 Clouds 19 1022 59 10000 2.6 80 09:44 13.04.2020
4930 Clouds 19 1022 59 10000 2.6 80 09:26 13.04.2020
4931 Clouds 17 1022 59 10000 2.1 20 08:49 13.04.2020
4932 Clouds 17 1022 59 10000 2.1 20 08:30 13.04.2020
4933 Clouds 17 1022 55 10000 1 0 07:58 13.04.2020
4934 Clouds 17 1022 55 10000 1 0 07:38 13.04.2020
4935 Clouds 16 1022 55 10000 1 0 07:20 13.04.2020
4936 Clouds 16 1022 63 10000 0.5 0 06:47 13.04.2020
4937 Clouds 14 1022 82 10000 1.5 0 05:56 13.04.2020
4938 Clouds 14 1022 82 10000 1.5 0 05:28 13.04.2020
4939 Clouds 12 1022 93 10000 0.43 356 04:52 13.04.2020
4940 Clouds 12 1022 93 10000 0.43 356 04:22 13.04.2020
4941 Clouds 11 1021 93 10000 0.43 356 03:45 13.04.2020
4942 Rain 11 1022 93 10000 0.49 320 02:50 13.04.2020
4943 Rain 11 1021 87 10000 1.5 130 01:54 13.04.2020
4944 Rain 11 1021 87 10000 1.5 130 01:35 13.04.2020
4945 Rain 13 1022 82 10000 1.5 0 00:55 13.04.2020
4946 Rain 13 1022 82 10000 1.5 0 00:36 13.04.2020
4947 Rain 13 1022 82 10000 1.5 0 00:18 13.04.2020
4948 Rain 13 1022 82 10000 1 0 23:42 12.04.2020
4949 Rain 13 1022 82 10000 1 0 23:22 12.04.2020
4950 Clouds 14 1022 76 10000 1.5 360 22:55 12.04.2020
4951 Clouds 14 1022 76 10000 1.5 360 22:36 12.04.2020
4952 Clouds 14 1022 76 10000 1.5 360 22:18 12.04.2020
4953 Clouds 14 1023 76 10000 1.5 260 21:39 12.04.2020
4954 Clouds 14 1023 76 10000 1.5 260 21:20 12.04.2020
4955 Clouds 14 1023 76 10000 1.5 260 21:20 12.04.2020
4956 Clouds 14 1023 76 10000 1.5 300 20:56 12.04.2020
4957 Clouds 14 1023 76 10000 1.5 300 20:38 12.04.2020
4958 Clouds 14 1023 76 10000 1.5 300 20:19 12.04.2020
4959 Rain 14 1023 82 10000 3.1 350 19:42 12.04.2020
4960 Rain 14 1023 82 10000 3.1 350 19:20 12.04.2020
4961 Rain 15 1023 82 10000 1 0 18:59 12.04.2020
4962 Rain 15 1023 82 10000 1 0 18:40 12.04.2020
4963 Rain 15 1023 82 10000 1 0 18:20 12.04.2020
4964 Rain 15 1023 82 10000 1 0 18:20 12.04.2020
4965 Clouds 15 1022 77 10000 4.6 140 17:56 12.04.2020
4966 Clouds 15 1022 77 10000 4.6 140 17:38 12.04.2020
4967 Clouds 16 1022 77 10000 4.6 140 17:18 12.04.2020
4968 Rain 17 1022 59 10000 3.1 250 16:56 12.04.2020
4969 Rain 17 1022 59 10000 3.1 250 16:36 12.04.2020
4970 Rain 18 1022 59 10000 3.1 250 16:18 12.04.2020
4971 Rain 20 1020 45 10000 2.6 70 15:41 12.04.2020
4972 Rain 20 1020 45 10000 2.6 70 15:21 12.04.2020
4973 Clouds 21 1020 40 10000 3.1 70 14:40 12.04.2020
4974 Clouds 21 1020 40 10000 3.1 70 14:22 12.04.2020
4975 Clouds 23 1021 38 10000 2.6 120 13:58 12.04.2020
4976 Clouds 23 1021 38 10000 2.6 120 13:58 12.04.2020
4977 Clouds 23 1021 38 10000 2.6 120 13:37 12.04.2020
4978 Clouds 23 1021 38 10000 2.6 120 13:19 12.04.2020
4979 Clouds 23 1022 40 10000 0.5 0 12:46 12.04.2020
4980 Clouds 22 1022 40 10000 0.5 0 12:22 12.04.2020
4981 Clouds 22 1023 40 10000 2.1 140 11:59 12.04.2020
4982 Clouds 22 1023 40 10000 2.1 140 11:38 12.04.2020
4983 Clouds 22 1023 40 10000 2.1 140 11:19 12.04.2020
4984 Clouds 22 1024 37 10000 2.6 190 10:56 12.04.2020
4985 Clouds 22 1024 37 10000 2.6 190 10:38 12.04.2020
4986 Clouds 21 1024 37 10000 2.6 190 10:20 12.04.2020
4987 Clouds 21 1024 46 10000 2.6 250 09:56 12.04.2020
4988 Clouds 21 1024 46 10000 2.6 250 09:37 12.04.2020
4989 Clouds 21 1024 46 10000 2.6 250 09:19 12.04.2020
4990 Clouds 19 1025 42 10000 3.6 230 08:50 12.04.2020
4991 Clouds 19 1025 42 10000 3.6 230 08:50 12.04.2020
4992 Clouds 19 1025 42 10000 3.6 230 08:30 12.04.2020
4993 Clouds 18 1025 48 10000 2.1 200 07:47 12.04.2020
4994 Clouds 18 1025 48 10000 2.1 200 07:19 12.04.2020
4995 Clouds 17 1025 55 10000 1.5 0 06:54 12.04.2020
4996 Clouds 17 1025 55 10000 1.5 0 06:26 12.04.2020
4997 Clouds 14 1025 67 10000 1.5 0 05:42 12.04.2020
4998 Clouds 11 1025 76 10000 1.1 209 04:26 12.04.2020
4999 Clouds 9 1025 81 10000 2.6 330 03:29 12.04.2020
5000 Clouds 10 1025 76 10000 2.6 330 02:48 12.04.2020
5001 Clouds 10 1025 76 10000 2.6 330 02:27 12.04.2020
5002 Clouds 11 1025 76 10000 2.1 340 01:23 12.04.2020
5003 Clouds 11 1025 76 10000 2.1 340 00:43 12.04.2020
5004 Rain 12 1025 76 10000 2.1 330 00:21 12.04.2020
5005 Rain 12 1025 76 10000 1.5 330 23:47 11.04.2020
5006 Rain 12 1025 76 10000 1.5 330 23:26 11.04.2020
5007 Rain 12 1026 81 10000 2.6 340 22:59 11.04.2020
5008 Rain 12 1026 81 10000 2.6 340 22:37 11.04.2020
5009 Rain 12 1026 81 10000 2.6 340 22:18 11.04.2020
5010 Rain 14 1026 67 10000 0.5 150 21:55 11.04.2020
5011 Rain 14 1026 67 10000 0.5 150 21:36 11.04.2020
5012 Rain 14 1026 67 10000 0.5 150 21:18 11.04.2020
5013 Rain 14 1026 71 10000 1.5 170 20:55 11.04.2020
5014 Rain 14 1026 71 10000 1.5 170 20:37 11.04.2020
5015 Rain 15 1026 71 10000 1.5 170 20:19 11.04.2020
5016 Rain 15 1026 71 10000 1.5 170 20:19 11.04.2020
5017 Clouds 15 1026 67 10000 1.5 340 19:56 11.04.2020
5018 Clouds 15 1026 67 10000 1.5 340 19:56 11.04.2020
5019 Clouds 16 1023 72 10000 1.98 3 19:37 11.04.2020
5020 Clouds 16 1023 72 10000 1.98 3 19:37 11.04.2020
5021 Clouds 16 1026 62 10000 1.98 3 19:18 11.04.2020
5022 Clouds 16 1026 62 10000 1.98 3 19:18 11.04.2020
5023 Clouds 16 1026 62 10000 1.98 3 18:55 11.04.2020
5024 Clouds 17 1023 63 10000 2.6 240 18:36 11.04.2020
5025 Clouds 17 1026 62 10000 1.97 327 18:18 11.04.2020
5026 Clouds 17 1026 62 10000 1.97 327 17:56 11.04.2020
5027 Clouds 17 1026 62 10000 1.97 327 17:36 11.04.2020
5028 Clouds 17 1026 62 10000 1.97 327 17:18 11.04.2020
5029 Clouds 18 1026 59 10000 1.5 0 16:42 11.04.2020
5030 Clouds 18 1026 59 10000 1.5 0 16:21 11.04.2020
5031 Clouds 18 1026 63 10000 3.1 290 15:41 11.04.2020
5032 Clouds 18 1026 63 10000 3.1 290 15:21 11.04.2020
5033 Rain 19 1025 45 10000 4.1 300 14:57 11.04.2020
5034 Rain 19 1025 45 10000 4.1 300 14:39 11.04.2020
5035 Rain 19 1025 45 10000 4.1 300 14:20 11.04.2020
5036 Clouds 20 1022 40 10000 1.5 300 13:42 11.04.2020
5037 Clouds 19 1025 48 10000 4.6 10 13:24 11.04.2020
5038 Clouds 19 1025 48 10000 4.6 10 12:59 11.04.2020
5039 Clouds 19 1025 48 10000 4.6 10 12:37 11.04.2020
5040 Clouds 19 1025 48 10000 4.6 10 12:18 11.04.2020
5041 Clouds 19 1026 52 10000 3.1 40 11:42 11.04.2020
5042 Clouds 19 1026 52 10000 3.1 40 11:20 11.04.2020
5043 Clouds 19 1027 48 10000 4.1 50 10:56 11.04.2020
5044 Clouds 19 1027 48 10000 4.1 50 10:37 11.04.2020
5045 Clouds 19 1027 48 10000 4.1 50 10:19 11.04.2020
5046 Clouds 19 1027 45 10000 1.5 0 09:57 11.04.2020
5047 Clouds 19 1027 45 10000 1.5 0 09:37 11.04.2020
5048 Clouds 19 1027 45 10000 1.5 0 09:37 11.04.2020
5049 Clouds 18 1027 45 10000 1.5 0 09:18 11.04.2020
5050 Clouds 20 1027 42 10000 1.5 0 08:42 11.04.2020
5051 Clouds 19 1027 42 10000 1.5 0 08:23 11.04.2020
5052 Clouds 18 1028 45 10000 1.5 0 07:48 11.04.2020
5053 Clouds 18 1028 45 10000 1.5 0 07:27 11.04.2020
5054 Clouds 17 1027 48 10000 1.5 0 06:42 11.04.2020
5055 Clouds 15 1027 62 10000 1.5 0 05:58 11.04.2020
5056 Clouds 12 1027 76 10000 0.23 168 04:33 11.04.2020
5057 Clouds 10 1026 81 10000 1.5 0 03:30 11.04.2020
5058 Clouds 12 1025 71 10000 2.6 320 01:48 11.04.2020
5059 Clouds 12 1025 71 10000 2.6 320 01:19 11.04.2020
5060 Clouds 13 1025 66 10000 2.1 360 00:42 11.04.2020
5061 Clouds 14 1025 66 10000 2.1 360 00:19 11.04.2020
5062 Clouds 14 1025 54 10000 3.1 350 23:55 10.04.2020
5063 Clouds 14 1025 54 10000 3.1 350 23:36 10.04.2020
5064 Clouds 15 1025 54 10000 3.1 350 23:18 10.04.2020
5065 Clouds 15 1026 62 10000 0.5 0 22:43 10.04.2020
5066 Clouds 15 1026 62 10000 0.5 0 22:20 10.04.2020
5067 Clouds 15 1026 58 10000 1 0 21:58 10.04.2020
5068 Clouds 15 1026 58 10000 1 0 21:39 10.04.2020
5069 Clouds 16 1026 58 10000 1 0 21:18 10.04.2020
5070 Clouds 16 1026 58 10000 1 0 20:41 10.04.2020
5071 Clouds 16 1025 62 10000 1 0 20:23 10.04.2020
5072 Clouds 15 1025 67 10000 2.1 120 19:57 10.04.2020
5073 Clouds 15 1025 67 10000 2.1 120 19:39 10.04.2020
5074 Clouds 16 1025 67 10000 2.1 120 19:20 10.04.2020
5075 Clouds 16 1024 51 10000 3.1 130 18:57 10.04.2020
5076 Clouds 16 1024 51 10000 3.1 130 18:38 10.04.2020
5077 Clouds 17 1024 51 10000 3.1 130 18:20 10.04.2020
5078 Clouds 17 1023 41 10000 2.6 350 17:58 10.04.2020
5079 Clouds 17 1023 41 10000 2.6 350 17:39 10.04.2020
5080 Clouds 17 1023 41 10000 2.6 350 17:20 10.04.2020
5081 Clouds 17 1023 41 10000 2.6 350 16:55 10.04.2020
5082 Clouds 17 1023 41 10000 2.6 350 16:36 10.04.2020
5083 Clouds 17 1023 41 10000 2.6 350 16:18 10.04.2020
5084 Clouds 18 1022 42 10000 2.6 360 15:54 10.04.2020
5085 Clouds 18 1022 42 10000 2.6 360 15:36 10.04.2020
5086 Clouds 18 1022 42 10000 2.6 360 15:18 10.04.2020
5087 Clouds 19 1022 45 10000 1.5 0 14:54 10.04.2020
5088 Clouds 19 1022 45 10000 1.5 0 14:36 10.04.2020
5089 Clouds 19 1022 45 10000 1.5 0 14:18 10.04.2020
5090 Clouds 20 1022 39 10000 3.1 340 13:42 10.04.2020
5091 Clouds 20 1022 39 10000 3.1 340 13:21 10.04.2020
5092 Clouds 19 1023 39 10000 3.1 0 12:43 10.04.2020
5093 Clouds 18 1023 39 10000 3.1 0 12:23 10.04.2020
5094 Clouds 19 1024 39 10000 3.1 0 11:56 10.04.2020
5095 Clouds 19 1024 39 10000 3.1 0 11:38 10.04.2020
5096 Clouds 19 1024 39 10000 3.1 0 11:20 10.04.2020
5097 Clouds 17 1024 38 10000 3.6 30 10:44 10.04.2020
5098 Clouds 17 1024 38 10000 3.6 30 10:23 10.04.2020
5099 Clouds 16 1025 38 10000 2.1 0 09:57 10.04.2020
5100 Clouds 16 1025 38 10000 2.1 0 09:38 10.04.2020
5101 Clouds 16 1025 38 10000 2.1 0 09:18 10.04.2020
5102 Clouds 15 1025 50 10000 2.6 350 08:42 10.04.2020
5103 Clouds 15 1025 50 10000 2.6 350 08:23 10.04.2020
5104 Clouds 13 1024 58 10000 1.5 0 07:45 10.04.2020
5105 Clouds 13 1024 58 10000 1.5 0 07:24 10.04.2020
5106 Clouds 12 1024 66 10000 0.5 0 06:49 10.04.2020
5107 Clouds 12 1024 66 10000 0.5 0 06:28 10.04.2020
5108 Clouds 10 1024 81 10000 1.5 130 05:40 10.04.2020
5109 Clouds 7 1023 100 10000 1 0 04:58 10.04.2020
5110 Clouds 6 1023 100 10000 1 280 03:49 10.04.2020
5111 Clouds 6 1023 100 10000 1 280 03:30 10.04.2020
5112 Clouds 7 1022 93 10000 2.1 340 02:48 10.04.2020
5113 Clear 7 1022 93 10000 2.1 340 02:28 10.04.2020
5114 Clear 8 1022 93 10000 1.5 0 01:30 10.04.2020
5115 Clear 8 1022 93 10000 1 0 00:50 10.04.2020
5116 Clear 8 1022 93 10000 1 0 00:23 10.04.2020
5117 Clear 8 1022 87 10000 1 0 23:55 09.04.2020
5118 Clear 8 1022 87 10000 1 0 23:37 09.04.2020
5119 Clear 9 1022 87 10000 1 0 23:19 09.04.2020
5120 Clear 9 1022 87 10000 1 0 22:41 09.04.2020
5121 Clear 9 1022 87 10000 1 0 22:23 09.04.2020
5122 Clear 10 1022 81 10000 1 0 21:54 09.04.2020
5123 Clear 10 1022 81 10000 1 0 21:36 09.04.2020
5124 Rain 10 1022 81 10000 1 0 21:18 09.04.2020
5125 Clouds 11 1022 81 10000 2.1 140 20:41 09.04.2020
5126 Clouds 11 1022 81 10000 2.1 140 20:20 09.04.2020
5127 Clouds 10 1022 87 10000 1.5 0 19:56 09.04.2020
5128 Clouds 10 1022 87 10000 1.5 0 19:36 09.04.2020
5129 Clouds 10 1022 87 10000 1.5 0 19:18 09.04.2020
5130 Rain 11 1021 76 10000 1.5 0 18:41 09.04.2020
5131 Clouds 12 1021 66 10000 0.5 0 18:18 09.04.2020
5132 Clouds 12 1021 66 10000 0.5 0 17:40 09.04.2020
5133 Clouds 12 1021 66 10000 0.5 0 17:22 09.04.2020
5134 Clouds 12 1020 62 10000 0.5 0 16:56 09.04.2020
5135 Clouds 12 1020 62 10000 0.5 0 16:37 09.04.2020
5136 Clouds 12 1020 62 10000 0.5 0 16:37 09.04.2020
5137 Clouds 13 1020 62 10000 0.5 0 16:18 09.04.2020
5138 Clouds 14 1020 62 10000 2.1 230 15:54 09.04.2020
5139 Clouds 14 1020 62 10000 2.1 230 15:36 09.04.2020
5140 Clouds 14 1020 62 10000 2.1 230 15:18 09.04.2020
5141 Clouds 14 1020 62 10000 3.1 150 14:39 09.04.2020
5142 Clouds 14 1020 62 10000 3.1 150 14:20 09.04.2020
5143 Clouds 14 1020 66 10000 4.1 100 13:42 09.04.2020
5144 Clouds 13 1020 66 10000 4.1 100 13:24 09.04.2020
5145 Clouds 13 1020 81 10000 7.7 360 12:59 09.04.2020
5146 Clouds 13 1020 81 10000 7.7 360 12:39 09.04.2020
5147 Clouds 12 1020 81 10000 7.7 360 12:21 09.04.2020
5148 Thunderstorm 11 1020 87 8000 7.7 360 11:55 09.04.2020
5149 Thunderstorm 12 1019 81 7000 12.9 10 11:36 09.04.2020
5150 Thunderstorm 11 1019 81 7000 12.9 10 11:18 09.04.2020
5151 Clouds 16 1019 63 10000 2.6 330 10:41 09.04.2020
5152 Clouds 16 1019 63 10000 2.6 330 10:22 09.04.2020
5153 Rain 15 1020 67 10000 0.39 258 09:58 09.04.2020
5154 Rain 16 1020 67 10000 1.29 190 09:40 09.04.2020
5155 Rain 16 1020 67 10000 0.41 126 09:21 09.04.2020
5156 Rain 16 1020 67 10000 0.41 126 09:21 09.04.2020
5157 Clouds 16 1021 58 10000 1.5 0 08:56 09.04.2020
5158 Clouds 16 1021 58 10000 1.5 0 08:37 09.04.2020
5159 Clouds 15 1021 58 10000 1.5 0 08:18 09.04.2020
5160 Clouds 15 1021 67 10000 3.1 350 07:40 09.04.2020
5161 Clouds 14 1021 67 10000 3.1 350 07:21 09.04.2020
5162 Clouds 14 1021 62 10000 0.41 126 06:35 09.04.2020
5163 Clouds 12 1020 71 10000 1 0 05:49 09.04.2020
5164 Clouds 10 1020 87 10000 2.1 120 05:24 09.04.2020
5165 Clouds 11 1020 81 10000 1 0 02:36 09.04.2020
5166 Rain 10 1020 81 10000 1.5 0 01:46 09.04.2020
5167 Rain 10 1020 81 10000 1.5 0 01:27 09.04.2020
5168 Clouds 11 1020 76 10000 1.5 20 00:54 09.04.2020
5169 Clouds 11 1020 76 10000 1.5 20 00:36 09.04.2020
5170 Clouds 11 1020 76 10000 1.5 20 00:18 09.04.2020
5171 Clouds 11 1020 76 10000 1.5 20 00:18 09.04.2020
5172 Clouds 12 1021 71 10000 3.1 330 23:41 08.04.2020
5173 Clouds 12 1021 71 10000 3.1 330 23:22 08.04.2020
5174 Clouds 12 1021 76 10000 2.1 340 22:44 08.04.2020
5175 Clouds 12 1021 76 10000 2.1 340 22:25 08.04.2020
5176 Clouds 12 1022 66 10000 2.6 340 21:57 08.04.2020
5177 Clouds 12 1022 66 10000 2.6 340 21:57 08.04.2020
5178 Clouds 12 1022 66 10000 2.6 340 21:39 08.04.2020
5179 Clouds 13 1022 66 10000 2.6 340 21:21 08.04.2020
5180 Rain 13 1022 71 10000 4.1 330 20:59 08.04.2020
5181 Rain 13 1022 71 10000 4.1 330 20:40 08.04.2020
5182 Rain 13 1022 71 10000 4.1 330 20:21 08.04.2020
5183 Rain 13 1022 66 10000 4.1 350 19:59 08.04.2020
5184 Rain 13 1022 66 10000 4.1 350 19:38 08.04.2020
5185 Rain 14 1022 66 10000 4.1 350 19:20 08.04.2020
5186 Clouds 13 1021 71 10000 1.5 0 18:45 08.04.2020
5187 Clouds 13 1021 71 10000 1.5 0 18:45 08.04.2020
5188 Clouds 14 1021 71 10000 1.5 0 18:26 08.04.2020
5189 Rain 16 1021 54 10000 2.6 180 17:56 08.04.2020
5190 Rain 16 1021 54 10000 2.6 180 17:38 08.04.2020
5191 Rain 16 1021 54 10000 2.6 180 17:19 08.04.2020
5192 Clouds 16 1019 51 10000 3.1 20 16:43 08.04.2020
5193 Clouds 16 1019 51 10000 3.1 20 16:24 08.04.2020
5194 Clouds 17 1019 48 10000 4.1 120 15:59 08.04.2020
5195 Clouds 17 1019 48 10000 4.1 120 15:38 08.04.2020
5196 Clouds 17 1019 48 10000 4.1 120 15:20 08.04.2020
5197 Clouds 18 1019 42 10000 4.6 10 14:45 08.04.2020
5198 Clouds 18 1019 39 10000 3.1 40 14:25 08.04.2020
5199 Clouds 18 1019 39 10000 3.1 40 13:57 08.04.2020
5200 Clouds 18 1019 39 10000 3.1 40 13:39 08.04.2020
5201 Clouds 18 1019 39 10000 3.1 40 13:20 08.04.2020
5202 Clouds 18 1020 45 0 2.1 110 12:42 08.04.2020
5203 Clouds 17 1020 45 0 2.1 110 12:19 08.04.2020
5204 Clouds 17 1021 48 10000 2.6 30 11:58 08.04.2020
5205 Clouds 17 1021 48 10000 2.6 30 11:39 08.04.2020
5206 Clouds 17 1021 48 10000 2.6 30 11:21 08.04.2020
5207 Clouds 17 1021 51 10000 2.1 350 10:56 08.04.2020
5208 Clouds 17 1021 51 10000 2.1 350 10:56 08.04.2020
5209 Clouds 17 1021 51 10000 2.1 350 10:37 08.04.2020
5210 Clouds 17 1021 51 10000 2.1 350 10:18 08.04.2020
5211 Clouds 16 1021 59 10000 3.1 90 09:55 08.04.2020
5212 Clouds 16 1021 59 10000 3.1 90 09:36 08.04.2020
5213 Clouds 16 1021 59 10000 3.1 90 09:18 08.04.2020
5214 Clouds 16 1019 48 10000 2.6 110 08:42 08.04.2020
5215 Clouds 15 1021 54 8000 1.5 0 08:23 08.04.2020
5216 Clouds 15 1021 54 8000 1.5 0 07:44 08.04.2020
5217 Clouds 14 1021 54 8000 1.5 0 07:25 08.04.2020
5218 Clouds 12 1022 71 7000 1 0 06:56 08.04.2020
5219 Mist 9 1021 81 7000 1.5 0 05:56 08.04.2020
5220 Clouds 6 1019 93 10000 0.45 267 03:49 08.04.2020
5221 Clouds 6 1019 87 8000 1 270 02:49 08.04.2020
5222 Clouds 6 1019 87 8000 1 270 02:19 08.04.2020
5223 Clouds 8 1019 81 9000 2.1 110 01:43 08.04.2020
5224 Clouds 8 1019 81 9000 2.1 110 01:22 08.04.2020
5225 Clouds 6 1019 87 10000 2.1 120 00:41 08.04.2020
5226 Clear 7 1019 87 10000 2.1 120 00:21 08.04.2020
5227 Clear 9 1019 70 10000 1.5 0 23:39 07.04.2020
5228 Clear 9 1019 70 10000 1.5 0 23:20 07.04.2020
5229 Clouds 9 1019 70 10000 1.5 0 22:57 07.04.2020
5230 Clouds 9 1019 70 10000 1.5 0 22:57 07.04.2020
5231 Clouds 9 1019 70 10000 1.5 0 22:39 07.04.2020
5232 Clouds 9 1019 70 10000 1.5 0 22:19 07.04.2020
5233 Clear 10 1020 66 10000 1.5 280 21:56 07.04.2020
5234 Clear 10 1020 66 10000 1.5 280 21:56 07.04.2020
5235 Clear 10 1020 66 10000 1.5 280 21:38 07.04.2020
5236 Clear 10 1020 66 10000 1.5 280 21:19 07.04.2020
5237 Clear 10 1020 61 10000 1.5 0 20:55 07.04.2020
5238 Clear 10 1020 61 10000 1.5 0 20:37 07.04.2020
5239 Clear 10 1020 61 10000 1.5 0 20:18 07.04.2020
5240 Clear 13 1020 50 10000 1.5 0 19:56 07.04.2020
5241 Clear 13 1020 50 10000 1.5 0 19:36 07.04.2020
5242 Clear 13 1020 50 10000 1.5 0 19:18 07.04.2020
5243 Clouds 14 1019 47 10000 1.5 0 18:42 07.04.2020
5244 Clouds 14 1019 47 10000 1.5 0 18:21 07.04.2020
5245 Clouds 14 1019 29 10000 1.5 350 17:59 07.04.2020
5246 Clouds 14 1019 29 10000 1.5 350 17:40 07.04.2020
5247 Clouds 14 1019 29 10000 1.5 350 17:20 07.04.2020
5248 Clouds 14 1019 29 10000 1.5 350 17:20 07.04.2020
5249 Clouds 15 1018 47 10000 2.6 10 16:45 07.04.2020
5250 Clouds 15 1018 47 10000 2.6 10 16:26 07.04.2020
5251 Clouds 17 1018 44 10000 4.1 10 15:47 07.04.2020
5252 Clouds 17 1018 44 10000 4.1 10 15:27 07.04.2020
5253 Clouds 18 1018 45 10000 3.1 320 14:58 07.04.2020
5254 Clouds 18 1018 45 10000 3.1 320 14:39 07.04.2020
5255 Clouds 18 1018 45 10000 3.1 320 14:20 07.04.2020
5256 Clouds 17 1019 48 10000 2.6 70 13:43 07.04.2020
5257 Clouds 16 1019 48 10000 2.6 70 13:21 07.04.2020
5258 Clouds 16 1019 44 10000 4.1 90 12:59 07.04.2020
5259 Clouds 16 1019 44 10000 4.1 90 12:40 07.04.2020
5260 Clouds 16 1019 44 10000 4.1 90 12:21 07.04.2020
5261 Clouds 16 1020 48 10000 2.6 290 11:59 07.04.2020
5262 Clouds 16 1020 48 10000 2.6 290 11:41 07.04.2020
5263 Clouds 16 1020 48 10000 2.6 290 11:21 07.04.2020
5264 Clouds 15 1021 47 10000 1.5 0 10:55 07.04.2020
5265 Clouds 15 1021 47 10000 1.5 0 10:36 07.04.2020
5266 Clouds 15 1021 47 10000 1.5 0 10:18 07.04.2020
5267 Clouds 14 1021 58 10000 0.5 0 09:43 07.04.2020
5268 Clouds 14 1021 58 10000 0.5 0 09:18 07.04.2020
5269 Clouds 13 1022 71 10000 1.5 0 08:41 07.04.2020
5270 Clouds 13 1022 71 10000 1.5 0 08:23 07.04.2020
5271 Clouds 11 1022 62 10000 1.5 110 07:57 07.04.2020
5272 Clouds 11 1022 62 10000 1.5 110 07:38 07.04.2020
5273 Clouds 11 1022 62 10000 1.5 110 07:20 07.04.2020
5274 Clouds 9 1022 70 10000 0.5 0 06:42 07.04.2020
5275 Clouds 9 1022 70 10000 0.5 0 06:18 07.04.2020
5276 Clouds 7 1021 87 10000 2.1 100 05:29 07.04.2020
5277 Clouds 6 1021 93 10000 1.5 0 04:35 07.04.2020
5278 Clouds 5 1021 86 10000 1.5 330 03:24 07.04.2020
5279 Clouds 6 1021 93 10000 1 0 02:47 07.04.2020
5280 Clouds 5 1021 93 10000 2.1 100 01:43 07.04.2020
5281 Clouds 5 1021 93 10000 2.1 100 01:23 07.04.2020
5282 Clouds 6 1021 93 10000 1.5 110 00:26 07.04.2020
5283 Clouds 6 1022 93 10000 3.1 320 23:44 06.04.2020
5284 Clouds 6 1022 93 10000 3.1 320 23:44 06.04.2020
5285 Clouds 6 1022 93 10000 3.1 320 23:23 06.04.2020
5286 Clouds 6 1022 87 10000 3.6 350 22:56 06.04.2020
5287 Clouds 6 1022 87 10000 3.6 350 22:37 06.04.2020
5288 Clouds 6 1022 87 10000 3.6 350 22:19 06.04.2020
5289 Clouds 6 1023 87 10000 3.1 330 21:56 06.04.2020
5290 Clouds 6 1023 87 10000 3.1 330 21:37 06.04.2020
5291 Clouds 7 1023 87 10000 3.1 330 21:18 06.04.2020
5292 Clouds 7 1022 87 10000 5.1 90 20:42 06.04.2020
5293 Clouds 7 1022 87 10000 5.1 90 20:23 06.04.2020
5294 Clouds 7 1023 81 10000 3.1 0 19:58 06.04.2020
5295 Clouds 7 1023 81 10000 3.1 0 19:39 06.04.2020
5296 Clouds 7 1023 81 10000 3.1 0 19:20 06.04.2020
5297 Thunderstorm 10 1022 76 10000 5.1 310 18:54 06.04.2020
5298 Thunderstorm 10 1022 76 10000 5.1 310 18:36 06.04.2020
5299 Thunderstorm 10 1022 76 10000 5.1 310 18:18 06.04.2020
5300 Clouds 10 1021 71 10000 1 270 17:41 06.04.2020
5301 Clouds 11 1021 71 10000 1 270 17:19 06.04.2020
5302 Thunderstorm 12 1021 76 10000 1.5 0 16:49 06.04.2020
5303 Thunderstorm 12 1021 76 10000 1.5 0 16:49 06.04.2020
5304 Thunderstorm 12 1021 76 10000 1.5 0 16:31 06.04.2020
5305 Thunderstorm 12 1020 81 10000 6.2 10 15:40 06.04.2020
5306 Thunderstorm 12 1020 81 10000 6.2 10 15:39 06.04.2020
5307 Thunderstorm 13 1023 81 10000 5.1 360 13:45 06.04.2020
5308 Thunderstorm 13 1023 81 10000 5.1 360 13:45 06.04.2020
5309 Rain 13 1020 71 10000 6.2 10 13:23 06.04.2020
5310 Clouds 14 1022 62 10000 3.6 20 12:50 06.04.2020
5311 Clouds 14 1022 62 10000 3.6 20 12:50 06.04.2020
5312 Clouds 14 1022 62 10000 3.6 20 12:50 06.04.2020
5313 Clouds 14 1022 62 10000 3.6 20 12:50 06.04.2020
5314 Clouds 14 1022 62 10000 3.6 20 12:50 06.04.2020
5315 Clouds 14 1022 62 10000 3.6 20 12:21 06.04.2020
5316 Clouds 14 1022 62 10000 3.6 20 12:21 06.04.2020
5317 Clouds 14 1022 54 10000 1 0 11:54 06.04.2020
5318 Clouds 14 1022 54 10000 1 0 11:54 06.04.2020
5319 Clouds 14 1022 54 10000 1 0 11:54 06.04.2020
5320 Clouds 14 1022 54 10000 1 0 11:54 06.04.2020
5321 Clouds 14 1022 54 10000 1 0 11:54 06.04.2020
5322 Clouds 14 1022 54 10000 1 0 11:28 06.04.2020
5323 Clouds 12 1023 66 10000 3.1 280 10:49 06.04.2020
5324 Clouds 12 1023 66 10000 3.1 280 10:49 06.04.2020
5325 Clouds 12 1023 66 10000 3.1 280 10:49 06.04.2020
5326 Clouds 12 1023 66 10000 3.1 280 10:49 06.04.2020
5327 Clouds 12 1023 66 10000 3.1 280 10:49 06.04.2020
5328 Clouds 12 1023 66 10000 3.1 280 10:21 06.04.2020
5329 Clouds 12 1023 66 10000 3.1 280 10:21 06.04.2020
5330 Clouds 9 1023 81 10000 2.6 310 09:42 06.04.2020
5331 Clouds 9 1023 81 10000 2.6 310 09:42 06.04.2020
5332 Clouds 9 1023 81 10000 2.6 310 09:42 06.04.2020
5333 Clouds 9 1023 81 10000 2.6 310 09:42 06.04.2020
5334 Clouds 9 1023 81 10000 2.6 310 09:20 06.04.2020
5335 Rain 10 1024 81 8000 2.1 180 08:51 06.04.2020
5336 Rain 10 1024 87 4000 4.1 240 08:30 06.04.2020
5337 Clouds 11 1023 66 10000 3.6 190 07:24 06.04.2020
5338 Clouds 10 1023 71 10000 1 0 06:34 06.04.2020
5339 Clouds 9 1022 76 10000 1 0 06:01 06.04.2020
5340 Clouds 7 1022 81 10000 2.1 90 04:18 06.04.2020
5341 Clouds 8 1022 75 10000 1.5 20 02:56 06.04.2020
5342 Clouds 9 1022 70 10000 1.5 90 01:57 06.04.2020
5343 Clouds 9 1022 70 10000 1.5 90 01:57 06.04.2020
5344 Clouds 9 1022 76 10000 1.5 90 00:59 06.04.2020
5345 Clouds 9 1022 76 10000 1.5 90 00:29 06.04.2020
5346 Clouds 9 1022 76 10000 1.5 90 00:29 06.04.2020
5347 Clouds 10 1023 62 10000 2.1 200 23:59 05.04.2020
5348 Clouds 10 1023 62 10000 2.1 200 23:40 05.04.2020
5349 Clouds 10 1023 62 10000 2.1 200 23:20 05.04.2020
5350 Clouds 10 1023 62 10000 2.1 200 23:20 05.04.2020
5351 Clouds 10 1023 62 10000 2.1 200 23:20 05.04.2020
5352 Clouds 10 1023 66 10000 1.5 180 22:54 05.04.2020
5353 Clouds 10 1023 66 10000 1.5 180 22:36 05.04.2020
5354 Clouds 10 1023 66 10000 1.5 180 22:18 05.04.2020
5355 Clouds 10 1023 66 10000 1 0 21:43 05.04.2020
5356 Clouds 10 1023 66 10000 1 0 21:43 05.04.2020
5357 Clouds 10 1023 66 10000 1 0 21:43 05.04.2020
5358 Clouds 10 1023 66 10000 1 0 21:23 05.04.2020
5359 Clouds 11 1023 66 10000 1.5 80 20:24 05.04.2020
5360 Clouds 11 1023 66 10000 1.5 80 20:24 05.04.2020
5361 Clouds 11 1023 62 10000 1 170 19:43 05.04.2020
5362 Clouds 11 1023 62 10000 1 170 19:24 05.04.2020
5363 Clouds 12 1023 66 10000 2.1 110 18:48 05.04.2020
5364 Clouds 12 1023 66 10000 2.1 110 18:18 05.04.2020
5365 Clouds 12 1023 66 10000 2.1 110 18:18 05.04.2020
5366 Clouds 13 1022 54 10000 3.1 10 17:49 05.04.2020
5367 Clouds 13 1022 54 10000 3.1 10 17:48 05.04.2020
5368 Clouds 13 1022 54 10000 3.1 10 17:48 05.04.2020
5369 Clouds 13 1022 54 10000 3.1 10 17:47 05.04.2020
5370 Clouds 13 1022 54 10000 3.1 10 17:22 05.04.2020
5371 Clouds 14 1022 50 10000 3.6 70 16:47 05.04.2020
5372 Clouds 14 1022 50 10000 3.6 70 16:47 05.04.2020
5373 Clouds 14 1022 50 10000 3.6 70 16:19 05.04.2020
5374 Clouds 14 1022 50 10000 3.6 70 16:19 05.04.2020
5375 Clouds 16 1022 44 10000 3.1 150 15:46 05.04.2020
5376 Clouds 16 1022 44 10000 3.1 150 15:26 05.04.2020
5377 Clouds 16 1022 44 10000 3.1 150 15:26 05.04.2020
5378 Clouds 17 1022 41 10000 5.1 130 14:48 05.04.2020
5379 Clouds 17 1022 41 10000 5.1 130 14:48 05.04.2020
5380 Clouds 17 1022 41 10000 5.1 130 14:48 05.04.2020
5381 Clouds 17 1022 41 10000 5.1 130 14:48 05.04.2020
5382 Clouds 17 1022 44 10000 5.7 130 13:59 05.04.2020
5383 Clouds 17 1022 44 10000 5.7 130 13:40 05.04.2020
5384 Clouds 17 1022 44 10000 5.7 130 13:40 05.04.2020
5385 Clouds 17 1022 44 10000 5.7 130 13:40 05.04.2020
5386 Clouds 17 1022 44 10000 5.7 130 13:40 05.04.2020
5387 Clouds 17 1022 44 10000 5.7 130 13:40 05.04.2020
5388 Clouds 17 1022 48 10000 6.2 120 12:20 05.04.2020
5389 Clouds 17 1023 44 10000 4.6 130 11:39 05.04.2020
5390 Clouds 17 1023 44 10000 4.6 130 11:19 05.04.2020
5391 Clouds 16 1024 50 10000 5.1 110 10:47 05.04.2020
5392 Clouds 16 1024 50 10000 5.1 110 10:23 05.04.2020
5393 Clouds 16 1024 50 10000 5.1 110 09:54 05.04.2020
5394 Clouds 16 1024 50 10000 5.1 110 09:27 05.04.2020
5395 Clouds 16 1024 50 10000 5.1 110 09:27 05.04.2020
5396 Clouds 15 1024 58 10000 4.1 210 08:32 05.04.2020
5397 Clouds 14 1024 58 10000 4.1 210 07:05 05.04.2020
5398 Clouds 14 1024 58 10000 4.1 210 07:05 05.04.2020
5399 Clouds 14 1024 58 10000 4.1 210 07:05 05.04.2020
5400 Clouds 10 1022 71 10000 2.1 140 04:31 05.04.2020
5401 Clouds 10 1021 66 10000 1.5 240 03:28 05.04.2020
5402 Clouds 10 1021 66 10000 1.5 310 02:19 05.04.2020
5403 Clouds 11 1021 66 10000 3.1 140 01:42 05.04.2020
5404 Clouds 11 1021 66 10000 3.1 140 01:22 05.04.2020
5405 Rain 11 1021 76 10000 3.1 260 00:37 05.04.2020
5406 Rain 11 1021 76 10000 3.1 260 00:18 05.04.2020
5407 Clouds 12 1022 58 10000 1.5 220 23:41 04.04.2020
5408 Clouds 12 1022 58 10000 1.5 220 23:22 04.04.2020
5409 Clouds 12 1022 54 10000 1.5 260 22:57 04.04.2020
5410 Clouds 12 1022 54 10000 1.5 260 22:39 04.04.2020
5411 Clouds 12 1022 54 10000 1.5 260 22:20 04.04.2020
5412 Clouds 13 1022 58 10000 4.1 170 21:57 04.04.2020
5413 Clouds 13 1022 58 10000 4.1 170 21:39 04.04.2020
5414 Clouds 13 1022 58 10000 4.1 170 21:19 04.04.2020
5415 Clouds 14 1022 50 10000 1.5 190 20:55 04.04.2020
5416 Clouds 14 1022 50 10000 1.5 190 20:36 04.04.2020
5417 Clouds 14 1022 50 10000 1.5 190 20:18 04.04.2020
5418 Clouds 14 1021 54 10000 4.1 220 19:42 04.04.2020
5419 Clouds 14 1021 54 10000 4.1 220 19:21 04.04.2020
5420 Clouds 15 1021 54 10000 7.7 240 18:59 04.04.2020
5421 Clouds 15 1021 54 10000 7.7 240 18:40 04.04.2020
5422 Clouds 15 1021 54 10000 7.7 240 18:21 04.04.2020
5423 Clouds 15 1021 54 10000 7.7 240 18:21 04.04.2020
5424 Clouds 17 1020 41 10000 4.1 120 17:58 04.04.2020
5425 Clouds 17 1020 41 10000 4.1 120 17:39 04.04.2020
5426 Clouds 17 1020 41 10000 4.1 120 17:19 04.04.2020
5427 Clouds 17 1019 41 10000 6.2 110 16:45 04.04.2020
5428 Clouds 17 1019 41 10000 6.2 110 16:27 04.04.2020
5429 Clouds 18 1018 39 10000 5.1 90 15:59 04.04.2020
5430 Clouds 18 1018 39 10000 5.1 90 15:39 04.04.2020
5431 Clouds 18 1018 39 10000 5.1 90 15:19 04.04.2020
5432 Clouds 19 1018 34 10000 4.1 70 14:55 04.04.2020
5433 Clouds 19 1018 34 10000 4.1 70 14:37 04.04.2020
5434 Clouds 19 1018 34 10000 4.1 70 14:18 04.04.2020
5435 Clouds 20 1018 29 10000 5.1 70 13:42 04.04.2020
5436 Clouds 20 1018 29 10000 5.1 70 13:22 04.04.2020
5437 Clouds 20 1019 32 10000 2.6 360 12:58 04.04.2020
5438 Clouds 20 1019 32 10000 2.6 360 12:40 04.04.2020
5439 Clouds 20 1019 32 10000 2.6 360 12:20 04.04.2020
5440 Clouds 20 1020 25 10000 1.5 0 11:42 04.04.2020
5441 Clouds 20 1020 25 10000 1.5 0 11:42 04.04.2020
5442 Clouds 20 1020 25 10000 1.5 0 11:23 04.04.2020
5443 Clouds 19 1021 29 10000 1.5 0 10:59 04.04.2020
5444 Clouds 19 1021 29 10000 1.5 0 10:40 04.04.2020
5445 Clouds 19 1021 29 10000 1.5 0 10:22 04.04.2020
5446 Clouds 18 1022 29 10000 2.6 0 09:56 04.04.2020
5447 Clouds 18 1022 29 10000 2.6 0 09:38 04.04.2020
5448 Clouds 18 1022 29 10000 2.6 0 09:20 04.04.2020
5449 Clouds 17 1023 42 10000 1.5 0 08:43 04.04.2020
5450 Clouds 17 1023 42 10000 1.5 0 08:23 04.04.2020
5451 Clouds 15 1023 38 10000 1.5 0 07:57 04.04.2020
5452 Clouds 15 1023 38 10000 1.5 0 07:38 04.04.2020
5453 Clouds 14 1023 43 10000 1.5 0 07:20 04.04.2020
5454 Clouds 13 1023 43 10000 1.5 0 06:29 04.04.2020
5455 Clouds 11 1022 57 10000 1.5 0 05:52 04.04.2020
5456 Clouds 11 1022 57 10000 1.5 0 05:32 04.04.2020
5457 Clouds 7 1022 81 10000 0.9 282 04:34 04.04.2020
5458 Clouds 6 1021 81 10000 0.9 282 03:56 04.04.2020
5459 Clouds 6 1021 81 10000 0.9 282 03:29 04.04.2020
5460 Clear 6 1021 81 10000 1 0 02:45 04.04.2020
5461 Clear 6 1021 81 10000 1 0 02:25 04.04.2020
5462 Clear 8 1021 70 10000 2.6 280 01:27 04.04.2020
5463 Clear 7 1021 75 10000 1.1 294 00:58 04.04.2020
5464 Clear 7 1021 75 10000 1.1 294 00:31 04.04.2020
5465 Clear 8 1022 66 10000 0.5 0 23:57 03.04.2020
5466 Clear 8 1022 66 10000 0.5 0 23:38 03.04.2020
5467 Clear 8 1022 66 10000 0.5 0 23:19 03.04.2020
5468 Clear 8 1022 66 10000 0.5 0 23:19 03.04.2020
5469 Clear 9 1022 66 10000 1.16 314 22:40 03.04.2020
5470 Clear 9 1022 66 10000 1.16 314 22:19 03.04.2020
5471 Clear 9 1022 66 10000 1.16 314 22:19 03.04.2020
5472 Clear 10 1022 57 10000 1 0 21:57 03.04.2020
5473 Clear 10 1022 57 10000 1 0 21:38 03.04.2020
5474 Clear 10 1022 57 10000 1 0 21:20 03.04.2020
5475 Clear 12 1022 37 10000 2.1 310 20:55 03.04.2020
5476 Clear 12 1022 37 10000 2.1 310 20:36 03.04.2020
5477 Clear 12 1022 37 10000 2.1 310 20:18 03.04.2020
5478 Clear 12 1022 37 10000 2.1 310 20:18 03.04.2020
5479 Clear 13 1022 37 10000 2.1 320 19:55 03.04.2020
5480 Clear 13 1022 37 10000 2.1 320 19:36 03.04.2020
5481 Clear 13 1022 37 10000 2.1 320 19:18 03.04.2020
5482 Clear 15 1021 22 10000 2.6 240 18:56 03.04.2020
5483 Clear 15 1021 22 10000 2.6 240 18:38 03.04.2020
5484 Clear 15 1021 21 10000 2.6 240 18:20 03.04.2020
5485 Clouds 16 1021 30 10000 5.1 20 17:40 03.04.2020
5486 Clouds 16 1021 30 10000 5.1 20 17:19 03.04.2020
5487 Clouds 17 1020 29 10000 5.1 30 16:55 03.04.2020
5488 Clouds 17 1020 29 10000 5.1 30 16:36 03.04.2020
5489 Clouds 17 1020 29 10000 5.1 30 16:18 03.04.2020
5490 Clouds 18 1019 33 10000 4.1 10 15:41 03.04.2020
5491 Clouds 18 1019 33 10000 4.1 10 15:22 03.04.2020
5492 Clouds 17 1019 33 10000 4.1 10 14:58 03.04.2020
5493 Clear 17 1016 14 0 0.48 351 14:40 03.04.2020
5494 Clouds 19 1020 31 10000 3.1 70 14:21 03.04.2020
5495 Clouds 19 1020 31 10000 3.1 70 13:46 03.04.2020
5496 Clouds 19 1020 31 10000 3.1 70 13:27 03.04.2020
5497 Clouds 20 1020 29 10000 1.5 0 12:57 03.04.2020
5498 Clouds 20 1020 29 10000 1.5 0 12:39 03.04.2020
5499 Clouds 20 1020 29 10000 1.5 0 12:18 03.04.2020
5500 Clouds 20 1021 29 10000 1.5 0 11:55 03.04.2020
5501 Clouds 20 1021 29 10000 1.5 0 11:55 03.04.2020
5502 Clouds 20 1021 29 10000 1.5 0 11:37 03.04.2020
5503 Clouds 20 1021 29 10000 1.5 0 11:18 03.04.2020
5504 Clouds 18 1022 25 10000 2.6 220 10:56 03.04.2020
5505 Clouds 18 1022 25 10000 2.6 220 10:37 03.04.2020
5506 Clouds 18 1022 25 10000 2.6 220 10:19 03.04.2020
5507 Clouds 18 1022 29 10000 1.5 0 09:55 03.04.2020
5508 Clouds 18 1022 29 10000 1.5 0 09:37 03.04.2020
5509 Clouds 18 1022 29 10000 1.5 0 09:37 03.04.2020
5510 Clouds 18 1022 29 10000 1.5 0 09:18 03.04.2020
5511 Clouds 16 1023 16 10000 1.5 0 08:43 03.04.2020
5512 Clouds 16 1023 16 10000 1.5 0 08:23 03.04.2020
5513 Clouds 14 1023 16 10000 1.5 0 07:51 03.04.2020
5514 Clouds 14 1023 16 10000 1.5 0 07:33 03.04.2020
5515 Clouds 11 1023 61 10000 1.5 0 06:57 03.04.2020
5516 Clouds 11 1023 61 10000 1.5 0 06:27 03.04.2020
5517 Clouds 8 1022 65 10000 1 280 05:42 03.04.2020
5518 Clouds 5 1022 80 10000 1.5 0 03:52 03.04.2020
5519 Clouds 5 1022 80 10000 1.5 0 03:31 03.04.2020
5520 Clouds 6 1021 75 10000 1.5 0 02:30 03.04.2020
5521 Clouds 7 1022 70 10000 1 0 01:24 03.04.2020
5522 Clouds 7 1021 75 10000 1 120 00:43 03.04.2020
5523 Clouds 7 1021 75 10000 1 120 00:23 03.04.2020
5524 Clouds 6 1022 75 10000 2.1 120 23:43 02.04.2020
5525 Clouds 6 1022 75 10000 2.1 120 23:24 02.04.2020
5526 Clouds 7 1022 70 10000 1.5 0 22:59 02.04.2020
5527 Clouds 7 1022 70 10000 1.5 0 22:41 02.04.2020
5528 Clouds 7 1022 70 10000 1.5 0 22:21 02.04.2020
5529 Clouds 9 1022 61 10000 1.04 298 21:57 02.04.2020
5530 Clouds 9 1022 61 10000 1.04 298 21:36 02.04.2020
5531 Clouds 9 1022 61 10000 1.53 295 21:18 02.04.2020
5532 Clouds 8 1022 65 10000 0.5 0 20:44 02.04.2020
5533 Clouds 8 1022 65 10000 0.5 0 20:23 02.04.2020
5534 Clouds 11 1022 23 10000 1 0 19:55 02.04.2020
5535 Clouds 11 1022 23 10000 1 0 19:37 02.04.2020
5536 Clouds 11 1022 23 10000 1 0 19:18 02.04.2020
5537 Clouds 11 1021 46 10000 2.6 310 18:41 02.04.2020
5538 Clouds 11 1021 46 10000 2.6 310 18:21 02.04.2020
5539 Clouds 13 1020 37 10000 0.5 0 17:57 02.04.2020
5540 Clouds 13 1020 37 10000 0.5 0 17:39 02.04.2020
5541 Clouds 13 1020 37 10000 0.5 0 17:20 02.04.2020
5542 Clouds 14 1019 33 10000 2.6 40 16:56 02.04.2020
5543 Clouds 14 1019 33 10000 2.6 40 16:38 02.04.2020
5544 Clouds 14 1019 33 10000 2.6 40 16:20 02.04.2020
5545 Clouds 17 1019 25 10000 2.1 180 15:54 02.04.2020
5546 Clouds 17 1019 25 10000 2.1 180 15:36 02.04.2020
5547 Clear 17 1019 25 10000 2.1 180 15:18 02.04.2020
5548 Clear 17 1018 23 10000 3.1 160 14:40 02.04.2020
5549 Clear 17 1018 23 10000 3.1 160 14:21 02.04.2020
5550 Clear 17 1019 25 10000 3.1 0 13:58 02.04.2020
5551 Clear 17 1019 25 10000 3.1 0 13:39 02.04.2020
5552 Clear 17 1019 25 10000 3.1 0 13:21 02.04.2020
5553 Clear 17 1019 23 10000 3.6 200 12:56 02.04.2020
5554 Clear 17 1019 23 10000 3.6 200 12:38 02.04.2020
5555 Clear 17 1019 23 10000 3.6 200 12:19 02.04.2020
5556 Clear 17 1019 23 10000 3.6 200 12:19 02.04.2020
5557 Clear 16 1020 28 10000 5.1 200 11:57 02.04.2020
5558 Clear 16 1020 28 10000 5.1 200 11:38 02.04.2020
5559 Clear 16 1020 28 10000 5.1 200 11:38 02.04.2020
5560 Clear 16 1020 28 10000 5.1 200 11:19 02.04.2020
5561 Clear 16 1020 28 10000 5.1 200 11:19 02.04.2020
5562 Clear 17 1018 27 10000 4.6 210 10:55 02.04.2020
5563 Clear 17 1018 27 10000 4.6 210 10:55 02.04.2020
5564 Clear 17 1018 27 10000 4.6 210 10:37 02.04.2020
5565 Clear 15 1022 30 10000 5.1 210 10:18 02.04.2020
5566 Clear 14 1022 30 10000 5.1 210 09:43 02.04.2020
5567 Clear 14 1022 30 10000 5.1 210 09:25 02.04.2020
5568 Clear 14 1022 30 10000 4.6 220 08:58 02.04.2020
5569 Clear 14 1022 30 10000 4.6 220 08:40 02.04.2020
5570 Clear 14 1022 30 10000 4.6 220 08:22 02.04.2020
5571 Clear 12 1022 29 10000 3.6 240 07:44 02.04.2020
5572 Clear 11 1022 29 10000 3.6 240 07:20 02.04.2020
5573 Clear 11 1022 37 10000 3.1 270 06:58 02.04.2020
5574 Clear 11 1022 37 10000 3.1 270 06:21 02.04.2020
5575 Clear 7 1021 60 10000 3.6 310 05:44 02.04.2020
5576 Clear 3 1021 74 10000 2.6 330 03:57 02.04.2020
5577 Clear 5 1020 80 10000 1.5 340 01:34 02.04.2020
5578 Clear 5 1020 93 10000 1.5 310 00:46 02.04.2020
5579 Clear 5 1020 93 10000 1.5 310 00:26 02.04.2020
5580 Clear 4 1020 86 10000 1.5 0 23:41 01.04.2020
5581 Clear 4 1020 86 10000 1.5 0 23:20 01.04.2020
5582 Clear 5 1021 80 10000 2.1 250 22:59 01.04.2020
5583 Clear 5 1021 80 10000 2.1 250 22:39 01.04.2020
5584 Clear 7 1021 80 10000 2.1 250 22:21 01.04.2020
5585 Clear 7 1021 86 10000 1.5 0 21:42 01.04.2020
5586 Clouds 7 1021 86 10000 1.5 0 21:22 01.04.2020
5587 Clear 7 1021 86 10000 1.5 0 21:22 01.04.2020
5588 Clear 7 1021 86 10000 1.5 0 21:21 01.04.2020
5589 Clear 7 1021 86 10000 1.5 0 21:21 01.04.2020
5590 Clear 7 1021 86 10000 1.5 0 21:20 01.04.2020
5591 Clouds 5 1021 80 10000 1.5 0 20:57 01.04.2020
5592 Clouds 5 1021 80 10000 1.5 0 20:39 01.04.2020
5593 Clouds 7 1021 80 10000 1.5 0 20:20 01.04.2020
5594 Clouds 7 1021 80 10000 1.5 0 20:20 01.04.2020
5595 Clouds 8 1021 70 10000 2.1 70 19:59 01.04.2020
5596 Clouds 7 1021 70 10000 2.1 70 19:41 01.04.2020
5597 -273 0 0 0 0 0 19:20 01.04.2020
5598 Clouds 8 1020 75 10000 2.1 310 18:44 01.04.2020
5599 Clouds 8 1020 75 10000 2.1 310 18:25 01.04.2020
5600 Clouds 8 1019 30 10000 2.6 260 17:58 01.04.2020
5601 Clouds 8 1019 30 10000 2.6 260 17:38 01.04.2020
5602 Clouds 9 1019 30 10000 2.6 260 17:19 01.04.2020
5603 Clouds 9 1019 66 10000 6.2 340 16:58 01.04.2020
5604 Clouds 9 1019 66 10000 6.2 340 16:58 01.04.2020
5605 Clouds 9 1019 66 10000 6.2 340 16:39 01.04.2020
5606 Clouds 9 1019 66 10000 6.2 340 16:21 01.04.2020
5607 Clouds 10 1019 61 10000 5.1 360 15:57 01.04.2020
5608 Clouds 10 1019 61 10000 5.1 360 15:38 01.04.2020
5609 Clouds 10 1019 61 10000 5.1 360 15:19 01.04.2020
5610 Clouds 11 1018 66 10000 5.7 360 14:55 01.04.2020
5611 Clouds 11 1018 66 10000 5.7 360 14:55 01.04.2020
5612 Clouds 11 1018 66 10000 5.7 360 14:37 01.04.2020
5613 Clouds 11 1018 66 10000 5.7 360 14:19 01.04.2020
5614 Clouds 11 1019 66 10000 5.1 10 13:56 01.04.2020
5615 Clouds 11 1019 66 10000 5.1 10 13:37 01.04.2020
5616 Clouds 11 1019 66 10000 5.1 10 13:18 01.04.2020
5617 Clouds 11 1020 66 10000 6.2 350 12:42 01.04.2020
5618 Clouds 11 1020 66 10000 6.2 350 12:24 01.04.2020
5619 Clouds 10 1020 76 10000 4.6 30 11:59 01.04.2020
5620 Clouds 10 1020 76 10000 4.6 30 11:39 01.04.2020
5621 Clouds 10 1020 76 10000 4.6 30 11:20 01.04.2020
5622 Clouds 10 1021 71 10000 3.6 50 10:56 01.04.2020
5623 Clouds 10 1021 71 10000 3.6 50 10:37 01.04.2020
5624 Clouds 10 1021 71 10000 3.6 50 10:18 01.04.2020
5625 Clouds 9 1022 66 10000 1.5 0 09:40 01.04.2020
5626 Clouds 9 1022 66 10000 1.5 0 09:40 01.04.2020
5627 Clouds 9 1022 66 10000 1.5 0 09:21 01.04.2020
5628 Rain 7 1022 81 9000 3.1 150 08:59 01.04.2020
5629 Rain 7 1022 81 9000 3.1 150 08:40 01.04.2020
5630 Rain 7 1022 81 9000 3.1 150 08:18 01.04.2020
5631 Rain 5 1021 93 9000 6.2 150 07:42 01.04.2020
5632 Rain 5 1021 93 9000 6.2 150 07:19 01.04.2020
5633 Mist 6 1021 87 4000 1.5 90 06:47 01.04.2020
5634 Mist 6 1021 87 4000 1.5 90 06:21 01.04.2020
5635 Mist 5 1021 93 5000 2.1 320 05:53 01.04.2020
5636 Mist 5 1020 93 4000 1.5 290 04:29 01.04.2020
5637 Mist 5 1020 93 5000 1.5 0 03:21 01.04.2020
5638 Clouds 4 1019 93 7000 1.5 0 02:41 01.04.2020
5639 Clouds 4 1019 100 7000 2.6 130 01:53 01.04.2020
5640 Clouds 4 1019 100 7000 2.6 130 01:27 01.04.2020
5641 Clouds 4 1019 100 8000 1.5 70 00:47 01.04.2020
5642 Clouds 4 1019 100 8000 1.5 70 00:24 01.04.2020
5643 Clouds 3 1019 100 9000 1.5 110 23:59 31.03.2020
5644 Clouds 4 1019 100 9000 1.5 110 23:41 31.03.2020
5645 Clouds 4 1019 100 9000 1.5 110 23:22 31.03.2020
5646 Clouds 3 1020 100 9000 1.5 110 22:41 31.03.2020
5647 Clouds 4 1020 100 9000 1.5 110 22:22 31.03.2020
5648 Clouds 5 1020 93 9000 1.5 320 21:58 31.03.2020
5649 Clouds 5 1020 93 9000 1.5 320 21:58 31.03.2020
5650 Clouds 5 1020 93 9000 1.5 320 21:40 31.03.2020
5651 Clouds 5 1020 93 9000 1.5 320 21:21 31.03.2020
5652 Clouds 5 1020 93 9000 1.5 80 20:57 31.03.2020
5653 Clouds 5 1020 93 9000 1.5 80 20:57 31.03.2020
5654 Clouds 5 1020 93 9000 1.5 80 20:37 31.03.2020
5655 Clouds 5 1020 93 9000 1.5 70 20:19 31.03.2020
5656 Clouds 5 1020 93 9000 1.5 70 19:57 31.03.2020
5657 Clouds 5 1020 93 9000 1.5 70 19:38 31.03.2020
5658 Clouds 5 1020 93 9000 1.5 120 19:19 31.03.2020
5659 Clouds 5 1020 93 9000 1.5 120 18:44 31.03.2020
5660 Clouds 5 1020 93 9000 1.5 120 18:21 31.03.2020
5661 Clouds 5 1019 93 9000 1.5 110 17:57 31.03.2020
5662 Clouds 5 1019 93 9000 1.5 110 17:57 31.03.2020
5663 Clouds 6 1019 93 9000 1.5 110 17:39 31.03.2020
5664 Clouds 6 1019 93 9000 1.5 110 17:21 31.03.2020
5665 Clouds 6 1019 93 9000 1.5 110 16:56 31.03.2020
5666 Clouds 6 1019 93 9000 1.5 110 16:37 31.03.2020
5667 Clouds 6 1018 93 10000 1.5 0 16:18 31.03.2020
5668 Drizzle 6 1018 93 10000 1.5 70 15:56 31.03.2020
5669 Drizzle 6 1018 93 10000 1.5 70 15:37 31.03.2020
5670 Drizzle 6 1018 93 10000 1.5 70 15:18 31.03.2020
5671 Rain 6 1018 87 10000 1.5 10 14:42 31.03.2020
5672 Rain 6 1018 87 10000 1.5 10 14:23 31.03.2020
5673 Rain 6 1019 86 10000 3.1 340 13:59 31.03.2020
5674 Rain 6 1019 86 10000 3.1 340 13:40 31.03.2020
5675 Rain 5 1019 86 10000 3.1 340 13:19 31.03.2020
5676 Clouds 5 1019 86 10000 3.1 340 12:46 31.03.2020
5677 Clouds 5 1019 86 10000 3.1 340 12:20 31.03.2020
5678 Rain 5 1020 86 10000 3.6 350 11:58 31.03.2020
5679 Rain 5 1020 86 10000 3.6 350 11:38 31.03.2020
5680 Rain 5 1020 86 10000 3.6 350 11:19 31.03.2020
5681 Rain 5 1020 86 8000 2.6 350 10:55 31.03.2020
5682 Rain 5 1020 86 8000 2.6 350 10:37 31.03.2020
5683 Rain 5 1020 86 8000 2.6 350 10:19 31.03.2020
5684 Rain 5 1020 86 8000 5.1 350 09:44 31.03.2020
5685 Rain 5 1020 86 8000 5.1 350 09:25 31.03.2020
5686 Rain 5 1020 86 8000 3.6 340 08:59 31.03.2020
5687 Rain 5 1020 86 8000 3.6 340 08:40 31.03.2020
5688 Rain 5 1020 86 8000 3.6 340 08:20 31.03.2020
5689 Rain 5 1020 93 8000 2.1 350 07:57 31.03.2020
5690 Rain 5 1020 93 8000 2.1 350 07:38 31.03.2020
5691 Rain 5 1020 93 8000 2.1 350 07:20 31.03.2020
5692 Rain 6 1020 87 8000 2.1 70 06:53 31.03.2020
5693 Rain 6 1020 87 8000 2.1 70 06:35 31.03.2020
5694 Rain 6 1019 93 5000 1.54 60 05:41 31.03.2020
5695 Rain 6 1019 87 10000 5.1 70 04:33 31.03.2020
5696 Rain 6 1019 87 10000 4.1 20 02:30 31.03.2020
5697 Rain 6 1019 93 10000 5.7 360 01:46 31.03.2020
5698 Rain 6 1019 100 7000 2.6 310 00:53 31.03.2020
5699 Rain 6 1019 100 7000 2.6 310 00:25 31.03.2020
5700 Rain 6 1020 100 8000 2.6 310 23:59 30.03.2020
5701 Rain 6 1020 100 8000 2.6 310 23:38 30.03.2020
5702 Rain 6 1020 100 8000 2.6 310 23:19 30.03.2020
5703 Rain 7 1021 93 7000 3.1 250 22:57 30.03.2020
5704 Rain 7 1021 93 7000 3.1 250 22:38 30.03.2020
5705 Rain 7 1021 93 7000 3.1 250 22:18 30.03.2020
5706 Rain 8 1020 75 10000 3.1 250 21:57 30.03.2020
5707 Rain 8 1020 75 10000 3.1 250 21:37 30.03.2020
5708 Rain 8 1020 75 10000 3.1 250 21:19 30.03.2020
5709 Rain 9 1020 61 10000 1.5 60 20:55 30.03.2020
5710 Rain 9 1020 61 10000 1.5 60 20:36 30.03.2020
5711 Rain 9 1020 61 10000 1.5 60 20:18 30.03.2020
5712 Clouds 8 1021 70 10000 3.6 30 19:40 30.03.2020
5713 Clouds 8 1021 70 10000 3.6 30 19:22 30.03.2020
5714 Clouds 8 1021 70 10000 2.1 0 18:57 30.03.2020
5715 Clouds 8 1021 70 10000 2.1 0 18:39 30.03.2020
5716 Clouds 8 1021 70 10000 2.1 0 18:20 30.03.2020
5717 Clouds 8 1020 75 10000 3.1 30 17:57 30.03.2020
5718 Clouds 8 1020 75 10000 3.1 30 17:38 30.03.2020
5719 Clouds 8 1020 75 10000 3.1 30 17:19 30.03.2020
5720 Clouds 8 1021 81 10000 5.1 350 16:55 30.03.2020
5721 Clouds 8 1021 81 10000 5.1 350 16:37 30.03.2020
5722 Clouds 8 1021 81 10000 5.1 350 16:19 30.03.2020
5723 Clouds 8 1021 81 10000 4.6 360 15:54 30.03.2020
5724 Clouds 8 1021 81 10000 4.6 360 15:36 30.03.2020
5725 Clouds 8 1021 81 10000 4.6 360 15:18 30.03.2020
5726 Clouds 8 1022 81 10000 4.6 360 14:39 30.03.2020
5727 Clouds 8 1022 81 10000 4.6 360 14:19 30.03.2020
5728 Clouds 8 1022 81 10000 5.1 350 13:59 30.03.2020
5729 Clouds 8 1022 81 10000 5.1 350 13:40 30.03.2020
5730 Clouds 8 1022 81 10000 5.1 350 13:21 30.03.2020
5731 Clouds 8 1023 81 10000 3.6 30 12:56 30.03.2020
5732 Clouds 8 1023 81 10000 3.6 30 12:37 30.03.2020
5733 Clouds 8 1023 81 10000 3.6 30 12:19 30.03.2020
5734 Clouds 9 1023 70 10000 2.1 60 11:55 30.03.2020
5735 Clouds 9 1023 70 10000 2.1 60 11:55 30.03.2020
5736 Clouds 9 1023 70 10000 2.1 60 11:55 30.03.2020
5737 Clouds 9 1023 70 10000 2.1 60 11:37 30.03.2020
5738 Clouds 9 1023 70 10000 2.1 60 11:18 30.03.2020
5739 Clouds 9 1023 76 10000 2.6 50 10:39 30.03.2020
5740 Clouds 9 1023 76 10000 2.6 50 10:21 30.03.2020
5741 Clouds 9 1023 76 10000 2.6 50 10:21 30.03.2020
5742 Rain 8 1024 81 10000 3.1 340 09:55 30.03.2020
5743 Rain 8 1024 81 10000 3.1 340 09:37 30.03.2020
5744 Rain 8 1024 81 10000 3.1 340 09:18 30.03.2020
5745 Rain 7 1024 87 10000 2.1 350 08:40 30.03.2020
5746 Rain 7 1024 87 10000 2.1 350 08:22 30.03.2020
5747 Rain 7 1024 87 10000 2.1 360 07:49 30.03.2020
5748 Rain 7 1024 87 10000 2.1 360 07:26 30.03.2020
5749 Rain 6 1023 87 10000 2.6 350 06:52 30.03.2020
5750 Rain 6 1023 87 10000 2.6 350 06:30 30.03.2020
5751 Rain 6 1022 93 10000 1.52 56 05:47 30.03.2020
5752 Rain 6 1022 93 10000 1.52 56 05:18 30.03.2020
5753 Rain 6 1022 87 9000 1 0 04:21 30.03.2020
5754 Rain 6 1021 87 7000 1.5 150 03:19 30.03.2020
5755 Rain 8 1021 87 9000 4.1 80 01:59 30.03.2020
5756 Rain 8 1021 87 9000 4.1 80 01:24 30.03.2020
5757 Rain 8 1021 93 10000 1 0 00:30 30.03.2020
5758 Rain 9 1021 87 10000 4.1 330 23:59 29.03.2020
5759 Rain 9 1021 87 10000 4.1 330 23:40 29.03.2020
5760 Rain 9 1021 87 10000 4.1 330 23:21 29.03.2020
5761 Rain 11 1021 66 10000 2.1 40 22:55 29.03.2020
5762 Rain 11 1021 66 10000 2.1 40 22:37 29.03.2020
5763 Rain 11 1021 66 10000 2.1 40 22:18 29.03.2020
5764 Rain 12 1021 53 10000 3.1 100 21:39 29.03.2020
5765 Rain 12 1021 53 10000 3.1 100 21:20 29.03.2020
5766 Clouds 12 1020 50 10000 5.1 110 20:56 29.03.2020
5767 Clouds 12 1020 50 10000 5.1 110 20:37 29.03.2020
5768 Clouds 12 1020 50 10000 5.1 110 20:19 29.03.2020
5769 Clouds 13 1020 54 10000 4.6 80 19:58 29.03.2020
5770 Clouds 13 1020 54 10000 4.6 80 19:40 29.03.2020
5771 Clouds 13 1020 54 10000 4.6 80 19:22 29.03.2020
5772 Clouds 14 1018 58 10000 1.78 46 18:57 29.03.2020
5773 Clouds 15 1017 44 10000 3.6 150 18:38 29.03.2020
5774 Clouds 13 1019 62 10000 3.1 90 18:19 29.03.2020
5775 Clouds 13 1019 62 10000 3.1 90 18:19 29.03.2020
5776 Clouds 13 1019 62 10000 3.1 90 17:56 29.03.2020
5777 Clouds 13 1019 62 10000 3.1 90 17:38 29.03.2020
5778 Clouds 13 1019 62 10000 3.1 90 17:18 29.03.2020
5779 Clouds 14 1019 47 10000 1.5 70 16:56 29.03.2020
5780 Clouds 14 1019 47 10000 1.5 70 16:38 29.03.2020
5781 Clouds 14 1019 47 10000 1.5 70 16:19 29.03.2020
5782 Clouds 15 1019 44 10000 4.1 20 15:41 29.03.2020
5783 Clouds 15 1019 44 10000 4.1 20 15:41 29.03.2020
5784 Clouds 15 1019 44 10000 4.1 20 15:23 29.03.2020
5785 Clouds 15 1019 38 10000 5.1 350 14:58 29.03.2020
5786 Clouds 15 1019 38 10000 5.1 350 14:40 29.03.2020
5787 Clouds 15 1019 38 10000 5.1 350 14:20 29.03.2020
5788 Clouds 16 1019 38 10000 1 0 13:57 29.03.2020
5789 Clouds 16 1019 38 10000 1 0 13:39 29.03.2020
5790 Clouds 16 1019 38 10000 1 0 13:39 29.03.2020
5791 Clouds 16 1019 38 10000 1 0 13:20 29.03.2020
5792 Clouds 15 1019 44 10000 4.1 20 12:55 29.03.2020
5793 Clouds 15 1019 44 10000 4.1 20 12:37 29.03.2020
5794 Clouds 15 1019 44 10000 4.1 20 12:19 29.03.2020
5795 Clouds 15 1020 47 10000 2.1 50 11:55 29.03.2020
5796 Clouds 15 1020 47 10000 2.1 50 11:36 29.03.2020
5797 Clouds 15 1020 47 10000 2.1 50 11:18 29.03.2020
5798 Clouds 15 1020 47 10000 2.1 50 11:18 29.03.2020
5799 Clouds 14 1021 54 10000 4.1 60 10:38 29.03.2020
5800 Clouds 14 1021 54 10000 4.1 60 10:19 29.03.2020
5801 Clouds 14 1022 50 10000 1.5 210 09:41 29.03.2020
5802 Clouds 14 1022 50 10000 1.5 210 09:20 29.03.2020
5803 Clouds 12 1023 58 10000 2.1 120 08:54 29.03.2020
5804 Clouds 12 1023 58 10000 2.1 120 08:36 29.03.2020
5805 Clouds 12 1023 58 10000 2.1 120 08:18 29.03.2020
5806 Clouds 11 1023 62 10000 1 110 07:42 29.03.2020
5807 Clouds 11 1023 62 10000 1 110 07:21 29.03.2020
5808 Clear 7 1022 75 10000 0.5 0 05:46 29.03.2020
5809 Clouds 5 1022 80 10000 1 0 04:27 29.03.2020
5810 Clouds 4 1021 86 10000 1 100 03:31 29.03.2020
5811 Clouds 5 1021 86 10000 1 120 01:51 29.03.2020
5812 Clouds 5 1021 86 10000 1 120 01:23 29.03.2020
5813 Clouds 5 1021 86 10000 0.85 16 00:56 29.03.2020
5814 Clouds 5 1021 86 10000 0.85 16 00:33 29.03.2020
5815 Clouds 5 1021 86 10000 0.5 320 23:56 28.03.2020
5816 Clouds 5 1021 86 10000 0.5 320 23:38 28.03.2020
5817 Rain 6 1021 86 10000 0.5 320 23:18 28.03.2020
5818 Rain 6 1021 86 10000 1.08 31 22:39 28.03.2020
5819 Rain 6 1021 86 10000 1.08 31 22:21 28.03.2020
5820 Rain 8 1021 81 10000 1 180 21:55 28.03.2020
5821 Rain 8 1021 81 10000 1 180 21:37 28.03.2020
5822 Rain 8 1021 81 10000 1 180 21:18 28.03.2020
5823 Rain 8 1022 75 10000 0.5 170 20:42 28.03.2020
5824 Rain 8 1022 75 10000 0.5 170 20:23 28.03.2020
5825 Clouds 8 1021 75 10000 2.1 110 19:57 28.03.2020
5826 Clouds 8 1021 75 10000 2.1 110 19:39 28.03.2020
5827 Clouds 8 1021 75 10000 2.1 110 19:20 28.03.2020
5828 Clouds 9 1021 70 10000 0.5 0 18:58 28.03.2020
5829 Clouds 9 1021 70 10000 0.5 0 18:39 28.03.2020
5830 Clouds 9 1021 70 10000 0.5 0 18:19 28.03.2020
5831 Clouds 9 1021 70 10000 3.1 110 17:39 28.03.2020
5832 Clouds 9 1021 70 10000 3.1 110 17:20 28.03.2020
5833 Clouds 10 1020 61 10000 2.6 80 16:43 28.03.2020
5834 Clouds 10 1020 61 10000 2.6 80 16:20 28.03.2020
5835 Clouds 10 1020 61 10000 2.6 80 16:20 28.03.2020
5836 Clouds 10 1020 61 10000 2.6 80 16:20 28.03.2020
5837 Clouds 11 1020 61 10000 5.1 120 15:59 28.03.2020
5838 Clouds 11 1020 61 10000 5.1 120 15:39 28.03.2020
5839 Clouds 11 1020 61 10000 5.1 120 15:19 28.03.2020
5840 Clouds 12 1019 62 10000 6.7 120 14:55 28.03.2020
5841 Clouds 12 1019 62 10000 6.7 120 14:37 28.03.2020
5842 Clouds 12 1019 62 10000 6.7 120 14:18 28.03.2020
5843 Clouds 14 1018 47 10000 6.7 120 13:39 28.03.2020
5844 Clouds 14 1018 47 10000 6.7 120 13:21 28.03.2020
5845 Clouds 15 1019 47 10000 6.7 130 12:40 28.03.2020
5846 Clouds 15 1019 47 10000 6.7 130 12:22 28.03.2020
5847 Clouds 15 1019 47 10000 5.1 140 11:43 28.03.2020
5848 Clouds 15 1019 47 10000 5.1 140 11:23 28.03.2020
5849 Rain 16 1020 47 10000 6.7 130 10:56 28.03.2020
5850 Rain 16 1020 47 10000 6.7 130 10:38 28.03.2020
5851 Rain 16 1020 47 10000 6.7 130 10:18 28.03.2020
5852 Clouds 15 1020 44 10000 4.1 150 09:42 28.03.2020
5853 Clouds 15 1020 44 10000 4.1 150 09:23 28.03.2020
5854 Clouds 15 1021 41 10000 3.6 100 08:47 28.03.2020
5855 Clouds 15 1021 41 10000 3.6 100 08:28 28.03.2020
5856 Clouds 14 1021 23 10000 2.1 0 07:59 28.03.2020
5857 Clouds 14 1021 23 10000 2.1 0 07:41 28.03.2020
5858 Clouds 13 1020 40 10000 1.5 0 06:56 28.03.2020
5859 Clouds 13 1020 40 10000 1.5 0 06:33 28.03.2020
5860 Clear 11 1019 50 10000 1.5 330 05:41 28.03.2020
5861 Clear 11 1019 50 10000 1.5 330 05:19 28.03.2020
5862 Clear 8 1018 81 10000 1.5 340 04:40 28.03.2020
5863 Clear 5 1017 93 10000 1.5 320 02:55 28.03.2020
5864 Clouds 5 1016 93 10000 0.5 0 01:48 28.03.2020
5865 Clouds 5 1016 93 10000 0.5 0 01:24 28.03.2020
5866 Clouds 8 1016 87 8000 1 0 00:54 28.03.2020
5867 Clouds 8 1016 87 8000 1 0 00:33 28.03.2020
5868 Clouds 8 1016 87 8000 0.5 0 23:45 27.03.2020
5869 Clouds 11 1013 37 10000 3.1 310 23:26 27.03.2020
5870 Clouds 9 1016 81 8000 1.5 0 22:58 27.03.2020
5871 Clouds 9 1016 81 8000 1.5 0 22:40 27.03.2020
5872 Clouds 9 1016 81 8000 1.5 0 22:21 27.03.2020
5873 Clouds 9 1016 75 10000 1.5 0 21:59 27.03.2020
5874 Clouds 9 1016 75 10000 1.5 0 21:41 27.03.2020
5875 Clouds 9 1016 75 10000 1.5 0 21:23 27.03.2020
5876 Clouds 10 1016 75 10000 1.5 0 20:57 27.03.2020
5877 Clouds 10 1016 75 10000 1.5 0 20:39 27.03.2020
5878 Clouds 10 1016 75 10000 1.5 0 20:19 27.03.2020
5879 Clouds 9 1016 75 10000 1.5 0 19:55 27.03.2020
5880 Clouds 9 1016 75 10000 1.5 0 19:36 27.03.2020
5881 Clouds 9 1016 75 10000 1.5 0 19:18 27.03.2020
5882 Clouds 10 1016 75 10000 1.23 337 18:42 27.03.2020
5883 Clouds 10 1016 75 10000 1.23 337 18:23 27.03.2020
5884 Clouds 12 1015 61 10000 1 0 17:55 27.03.2020
5885 Clouds 12 1015 61 10000 1 0 17:36 27.03.2020
5886 Clouds 11 1015 61 10000 1 0 17:18 27.03.2020
5887 Clouds 11 1015 70 10000 1 0 16:43 27.03.2020
5888 Clouds 11 1015 70 10000 1 0 16:24 27.03.2020
5889 Clouds 12 1015 50 10000 1.5 230 15:44 27.03.2020
5890 Clouds 12 1015 50 10000 1.5 230 15:26 27.03.2020
5891 Clouds 13 1015 50 10000 1.5 180 14:56 27.03.2020
5892 Clouds 13 1015 50 10000 1.5 180 14:36 27.03.2020
5893 Clouds 13 1015 50 10000 1.5 180 14:18 27.03.2020
5894 Clouds 12 1015 58 10000 3.1 240 13:42 27.03.2020
5895 Clouds 12 1015 58 10000 3.1 240 13:21 27.03.2020
5896 Clouds 12 1016 58 10000 2.1 0 12:58 27.03.2020
5897 Clouds 12 1016 58 10000 2.1 0 12:39 27.03.2020
5898 Clouds 12 1016 58 10000 2.1 0 12:19 27.03.2020
5899 Clouds 12 1016 58 10000 4.1 190 11:42 27.03.2020
5900 Clouds 12 1016 58 10000 4.1 190 11:24 27.03.2020
5901 Thunderstorm 12 1017 62 10000 1.5 0 10:55 27.03.2020
5902 Thunderstorm 12 1017 62 10000 1.5 0 10:37 27.03.2020
5903 Thunderstorm 12 1017 62 10000 1.5 0 10:19 27.03.2020
5904 Clouds 13 1018 58 10000 4.6 100 09:57 27.03.2020
5905 Clouds 13 1018 58 10000 4.6 100 09:38 27.03.2020
5906 Clouds 13 1018 58 10000 4.6 100 09:19 27.03.2020
5907 Haze 13 1019 66 10000 2.1 0 08:56 27.03.2020
5908 Haze 13 1019 66 10000 2.1 0 08:38 27.03.2020
5909 Haze 13 1019 66 10000 2.1 0 08:20 27.03.2020
5910 Clouds 14 1019 47 10000 1.5 0 07:52 27.03.2020
5911 Clouds 14 1019 47 10000 1.5 0 07:25 27.03.2020
5912 Clouds 11 1019 66 10000 1 0 06:53 27.03.2020
5913 Clouds 11 1019 66 10000 1 0 06:35 27.03.2020
5914 Clouds 11 1019 66 8000 1 0 05:28 27.03.2020
5915 Clouds 7 1019 87 10000 1 0 02:46 27.03.2020
5916 Clouds 7 1020 87 10000 0.5 0 01:23 27.03.2020
5917 Clouds 7 1020 87 8000 1.58 319 00:51 27.03.2020
5918 Clouds 7 1020 87 8000 1.58 319 00:32 27.03.2020
5919 Clouds 7 1021 87 8000 1 0 23:44 26.03.2020
5920 Clouds 7 1021 87 8000 1 0 23:23 26.03.2020
5921 Clouds 7 1021 87 8000 1 0 22:59 26.03.2020
5922 Clouds 7 1021 87 8000 1 0 22:39 26.03.2020
5923 Clouds 7 1021 87 8000 1 0 22:20 26.03.2020
5924 Clouds 8 1022 81 10000 1 0 21:57 26.03.2020
5925 Clouds 8 1022 81 10000 1 0 21:39 26.03.2020
5926 Clouds 8 1022 81 10000 1 0 21:20 26.03.2020
5927 Clouds 9 1022 76 10000 1.19 349 20:58 26.03.2020
5928 Clouds 9 1022 76 10000 1.19 349 20:38 26.03.2020
5929 Clouds 9 1022 76 10000 1.19 349 20:38 26.03.2020
5930 Clouds 9 1022 76 10000 1.55 10 20:20 26.03.2020
5931 Clouds 9 1022 76 10000 1.55 10 20:20 26.03.2020
5932 Clouds 8 1022 81 10000 1 0 19:55 26.03.2020
5933 Clouds 8 1022 81 10000 1 0 19:37 26.03.2020
5934 Clouds 8 1022 81 10000 1 0 19:19 26.03.2020
5935 Clouds 8 1023 81 10000 2.1 90 18:55 26.03.2020
5936 Clouds 8 1023 81 10000 2.1 90 18:36 26.03.2020
5937 Clouds 8 1023 81 10000 2.1 90 18:18 26.03.2020
5938 Clouds 8 1022 81 10000 1 0 17:42 26.03.2020
5939 Clouds 8 1022 81 10000 1 0 17:18 26.03.2020
5940 Clouds 8 1022 75 10000 2.1 280 16:45 26.03.2020
5941 Clouds 8 1022 75 10000 2.1 280 16:45 26.03.2020
5942 Clouds 8 1022 75 10000 2.1 280 16:26 26.03.2020
5943 Clouds 8 1022 81 10000 1 0 15:58 26.03.2020
5944 Clouds 8 1022 81 10000 1 0 15:40 26.03.2020
5945 Rain 11 1019 32 0 1.21 360 15:21 26.03.2020
5946 Rain 8 1022 81 10000 6.7 110 14:57 26.03.2020
5947 Rain 8 1022 81 10000 6.7 110 14:38 26.03.2020
5948 Rain 8 1022 81 10000 6.7 110 14:18 26.03.2020
5949 Clouds 11 1022 62 10000 5.1 130 13:43 26.03.2020
5950 Clouds 11 1022 62 10000 5.1 130 13:23 26.03.2020
5951 Rain 11 1021 71 10000 5.7 350 12:56 26.03.2020
5952 Rain 11 1021 71 10000 5.7 350 12:37 26.03.2020
5953 Rain 11 1021 71 10000 5.7 350 12:19 26.03.2020
5954 Thunderstorm 11 1021 66 10000 6.7 360 11:44 26.03.2020
5955 Thunderstorm 11 1021 66 10000 6.7 360 11:20 26.03.2020
5956 Clouds 12 1022 66 10000 5.7 350 10:56 26.03.2020
5957 Clouds 12 1022 66 10000 5.7 350 10:36 26.03.2020
5958 Clouds 12 1022 66 10000 5.7 350 10:18 26.03.2020
5959 Clouds 12 1022 66 10000 5.7 350 10:18 26.03.2020
5960 Clouds 15 1022 51 10000 2.1 0 09:42 26.03.2020
5961 Clouds 15 1022 51 10000 2.1 0 09:19 26.03.2020
5962 Clouds 13 1023 54 10000 2.1 0 08:46 26.03.2020
5963 Clouds 13 1023 54 10000 2.1 0 08:27 26.03.2020
5964 Clouds 11 1023 66 9000 2.1 0 07:58 26.03.2020
5965 Clouds 11 1023 66 9000 2.1 0 07:40 26.03.2020
5966 Clouds 11 1023 66 9000 2.1 0 07:20 26.03.2020
5967 Clouds 9 1023 81 9000 1 0 06:46 26.03.2020
5968 Clouds 8 1023 81 8000 1 0 05:52 26.03.2020
5969 Clouds 6 1022 93 10000 1.5 150 03:52 26.03.2020
5970 Clouds 6 1022 93 10000 1.5 150 03:33 26.03.2020
5971 Clouds 6 1021 93 10000 1.5 340 02:53 26.03.2020
5972 Clouds 6 1021 93 10000 1.43 40 01:44 26.03.2020
5973 Clouds 7 1020 87 10000 1 0 00:43 26.03.2020
5974 Clouds 6 1020 87 10000 1 0 23:45 25.03.2020
5975 Clouds 6 1020 87 10000 1 0 23:27 25.03.2020
5976 Clouds 6 1021 93 10000 1 0 22:57 25.03.2020
5977 Clouds 6 1021 93 10000 1 0 22:38 25.03.2020
5978 Clouds 6 1021 93 10000 1 0 22:19 25.03.2020
5979 Clouds 6 1021 100 10000 0.5 0 21:54 25.03.2020
5980 Clouds 6 1021 100 10000 0.5 0 21:36 25.03.2020
5981 Clouds 6 1021 100 10000 0.5 0 21:18 25.03.2020
5982 Clouds 7 1021 93 10000 1 0 20:39 25.03.2020
5983 Clouds 7 1021 93 10000 1 0 20:20 25.03.2020
5984 Clouds 7 1021 93 10000 1.5 0 19:57 25.03.2020
5985 Clouds 7 1021 93 10000 1.5 0 19:38 25.03.2020
5986 Clouds 7 1021 93 10000 1.5 0 19:20 25.03.2020
5987 Rain 7 1021 93 10000 2.1 90 18:54 25.03.2020
5988 Rain 7 1021 93 10000 2.1 90 18:36 25.03.2020
5989 Rain 7 1021 93 10000 2.1 90 18:18 25.03.2020
5990 Rain 8 1021 87 10000 1 0 17:41 25.03.2020
5991 Rain 8 1021 87 10000 1 0 17:22 25.03.2020
5992 Rain 8 1021 87 10000 1 0 17:22 25.03.2020
5993 Clouds 8 1020 87 10000 3.6 330 16:59 25.03.2020
5994 Clouds 8 1020 87 10000 3.6 330 16:39 25.03.2020
5995 -273 0 0 0 0 0 16:21 25.03.2020
5996 Clouds 8 1020 87 10000 3.6 330 16:21 25.03.2020
5997 Clouds 8 1020 87 10000 3.6 330 16:21 25.03.2020
5998 Rain 8 1019 87 10000 3.6 350 15:43 25.03.2020
5999 Rain 8 1019 87 10000 3.6 350 15:21 25.03.2020
6000 Clouds 9 1019 70 10000 1 0 14:59 25.03.2020
6001 Clouds 9 1019 70 10000 1 0 14:40 25.03.2020
6002 Clouds 8 1019 87 10000 2.6 130 14:20 25.03.2020
6003 Clouds 8 1019 87 10000 2.6 130 13:45 25.03.2020
6004 Clouds 8 1019 87 10000 2.6 130 13:24 25.03.2020
6005 Clouds 9 1019 76 10000 5.7 130 12:40 25.03.2020
6006 Clouds 9 1019 76 10000 5.7 130 12:21 25.03.2020
6007 Rain 10 1019 76 9000 5.7 120 11:59 25.03.2020
6008 Rain 10 1019 76 9000 5.7 120 11:41 25.03.2020
6009 Rain 10 1019 76 9000 5.7 120 11:21 25.03.2020
6010 Rain 11 1019 71 10000 2.6 0 10:58 25.03.2020
6011 Rain 11 1019 71 10000 2.6 0 10:40 25.03.2020
6012 Rain 11 1019 71 10000 2.6 0 10:40 25.03.2020
6013 Rain 11 1019 71 10000 2.6 0 10:19 25.03.2020
6014 Clouds 11 1020 76 10000 4.1 30 09:56 25.03.2020
6015 Clouds 11 1020 76 10000 4.1 30 09:56 25.03.2020
6016 Clouds 11 1020 76 10000 4.1 30 09:38 25.03.2020
6017 Clouds 11 1020 76 10000 4.1 30 09:20 25.03.2020
6018 Clouds 11 1021 66 10000 1 0 08:42 25.03.2020
6019 Clouds 11 1021 66 10000 1 0 08:42 25.03.2020
6020 Clouds 11 1021 66 10000 1 0 08:24 25.03.2020
6021 Clouds 10 1022 76 10000 2.6 60 07:57 25.03.2020
6022 Clouds 10 1022 76 10000 2.6 60 07:38 25.03.2020
6023 Clouds 10 1022 76 10000 2.6 60 07:18 25.03.2020
6024 Clouds 9 1021 76 10000 2.6 60 06:42 25.03.2020
6025 Clouds 9 1021 76 10000 2.6 60 06:23 25.03.2020
6026 Clouds 7 1021 87 10000 1.5 50 05:47 25.03.2020
6027 Rain 6 1020 93 8000 3.6 260 04:46 25.03.2020
6028 Clouds 6 1019 100 10000 1 0 03:58 25.03.2020
6029 Clouds 6 1019 100 10000 1 0 03:33 25.03.2020
6030 Clouds 6 1019 93 10000 0.93 30 01:41 25.03.2020
6031 Clouds 6 1019 93 10000 1.5 80 00:51 25.03.2020
6032 Clouds 6 1019 93 10000 1.5 80 00:30 25.03.2020
6033 Rain 7 1019 87 10000 1.5 310 23:58 24.03.2020
6034 Rain 7 1019 87 10000 1.5 310 23:39 24.03.2020
6035 Rain 7 1019 87 10000 1.5 310 23:19 24.03.2020
6036 Rain 7 1019 87 10000 1.5 0 22:54 24.03.2020
6037 Rain 7 1019 87 10000 1.5 0 22:36 24.03.2020
6038 Rain 7 1019 87 10000 1.5 0 22:18 24.03.2020
6039 Clouds 8 1019 81 10000 3.1 360 21:42 24.03.2020
6040 Clouds 8 1019 81 10000 3.1 360 21:19 24.03.2020
6041 Clouds 8 1020 87 10000 4.1 10 20:59 24.03.2020
6042 Clouds 8 1020 87 10000 4.1 10 20:40 24.03.2020
6043 Clouds 8 1020 87 10000 4.1 10 20:22 24.03.2020
6044 Clouds 7 1019 93 10000 3.1 320 19:48 24.03.2020
6045 Clouds 7 1019 93 10000 3.1 320 19:22 24.03.2020
6046 Clouds 8 1019 87 10000 2.1 300 18:59 24.03.2020
6047 Clouds 8 1019 87 10000 2.1 300 18:39 24.03.2020
6048 Clouds 8 1019 87 10000 2.1 300 18:20 24.03.2020
6049 Clouds 7 1019 93 10000 2.1 0 17:58 24.03.2020
6050 Clouds 7 1019 93 10000 2.1 0 17:40 24.03.2020
6051 Clouds 7 1019 93 10000 2.1 0 17:40 24.03.2020
6052 Clouds 7 1019 93 10000 2.1 0 17:40 24.03.2020
6053 Thunderstorm 9 1019 81 9000 1.5 290 17:22 24.03.2020
6054 Thunderstorm 9 1018 81 10000 2.6 340 16:57 24.03.2020
6055 Thunderstorm 9 1018 81 10000 2.6 340 16:57 24.03.2020
6056 Thunderstorm 9 1018 81 10000 2.6 340 16:38 24.03.2020
6057 Clouds 9 1018 87 10000 5.1 360 16:20 24.03.2020
6058 Clouds 9 1017 81 10000 2.6 0 15:43 24.03.2020
6059 Clouds 9 1017 81 10000 2.6 0 15:25 24.03.2020
6060 Rain 11 1017 71 10000 5.1 110 14:44 24.03.2020
6061 Rain 11 1017 71 10000 5.1 110 14:44 24.03.2020
6062 Clouds 11 1017 71 10000 5.1 110 14:24 24.03.2020
6063 Rain 9 1017 81 10000 4.1 110 13:59 24.03.2020
6064 Rain 9 1017 81 10000 4.1 110 13:41 24.03.2020
6065 Rain 9 1017 81 10000 4.1 110 13:41 24.03.2020
6066 Rain 9 1017 81 10000 4.1 110 13:22 24.03.2020
6067 Rain 9 1017 87 8000 5.7 130 12:43 24.03.2020
6068 Rain 11 1016 71 10000 5.7 140 12:25 24.03.2020
6069 Clouds 11 1017 71 10000 3.1 70 11:56 24.03.2020
6070 Clouds 11 1017 71 10000 3.1 70 11:37 24.03.2020
6071 Clouds 12 1017 71 10000 3.1 70 11:18 24.03.2020
6072 Clouds 12 1018 71 10000 4.6 360 10:41 24.03.2020
6073 Clouds 12 1018 71 10000 4.6 360 10:19 24.03.2020
6074 Clouds 12 1018 71 10000 4.6 360 10:19 24.03.2020
6075 Clouds 11 1018 71 10000 1.5 0 09:48 24.03.2020
6076 Clouds 11 1018 71 10000 1.5 0 09:27 24.03.2020
6077 Clouds 11 1019 66 10000 1 0 08:58 24.03.2020
6078 Clouds 11 1019 66 10000 1 0 08:38 24.03.2020
6079 Clouds 11 1019 66 10000 1 0 08:20 24.03.2020
6080 Clouds 10 1019 76 10000 1.5 0 07:44 24.03.2020
6081 Clouds 10 1019 76 10000 1.5 0 07:22 24.03.2020
6082 Rain 8 1019 93 7000 1 0 06:42 24.03.2020
6083 Rain 8 1019 93 7000 1 0 06:21 24.03.2020
6084 Rain 7 1017 87 6000 1.79 27 04:52 24.03.2020
6085 Clouds 7 1017 87 10000 1.79 27 03:43 24.03.2020
6086 Clouds 7 1016 93 10000 1.79 27 02:45 24.03.2020
6087 Rain 6 1017 93 10000 1.5 330 01:22 24.03.2020
6088 Drizzle 6 1018 93 10000 1.5 300 00:41 24.03.2020
6089 Drizzle 6 1018 93 10000 1.5 300 00:22 24.03.2020
6090 Drizzle 7 1019 93 10000 2.6 320 23:38 23.03.2020
6091 Drizzle 7 1019 93 10000 2.6 320 23:20 23.03.2020
6092 Rain 7 1019 93 10000 2.1 340 22:45 23.03.2020
6093 Rain 7 1019 93 10000 2.1 340 22:24 23.03.2020
6094 Rain 7 1018 93 5000 1.54 60 21:57 23.03.2020
6095 Rain 7 1019 93 10000 3.1 340 21:38 23.03.2020
6096 Rain 7 1019 93 10000 3.1 340 21:20 23.03.2020
6097 Rain 7 1020 93 9000 3.6 350 20:56 23.03.2020
6098 Rain 7 1020 93 9000 3.6 350 20:38 23.03.2020
6099 Rain 7 1020 93 9000 3.6 350 20:19 23.03.2020
6100 Rain 7 1020 87 9000 2.6 0 19:42 23.03.2020
6101 Rain 7 1020 87 9000 2.6 0 19:23 23.03.2020
6102 Rain 7 1020 87 9000 2.1 0 18:56 23.03.2020
6103 Rain 7 1020 87 9000 2.1 0 18:38 23.03.2020
6104 Rain 7 1020 87 9000 2.1 0 18:19 23.03.2020
6105 Rain 8 1019 93 9000 1.5 130 17:41 23.03.2020
6106 -273 0 0 0 0 0 17:20 23.03.2020
6107 Rain 8 1020 87 8000 2.1 0 16:56 23.03.2020
6108 Rain 8 1020 87 8000 2.1 0 16:37 23.03.2020
6109 Rain 8 1020 87 8000 2.1 0 16:18 23.03.2020
6110 Rain 8 1019 87 8000 4.1 330 15:41 23.03.2020
6111 Rain 8 1019 87 8000 4.1 330 15:19 23.03.2020
6112 Rain 9 1019 81 10000 3.1 20 14:38 23.03.2020
6113 Rain 9 1019 81 10000 3.1 20 14:20 23.03.2020
6114 Rain 10 1017 81 9000 2.1 200 13:57 23.03.2020
6115 Rain 10 1019 66 10000 6.2 120 13:39 23.03.2020
6116 Rain 10 1019 66 10000 6.2 120 13:20 23.03.2020
6117 Rain 11 1019 62 10000 6.2 120 12:44 23.03.2020
6118 Rain 11 1019 62 10000 6.2 120 12:25 23.03.2020
6119 Rain 15 1016 41 9000 6.7 190 11:58 23.03.2020
6120 Rain 15 1016 41 9000 6.7 190 11:38 23.03.2020
6121 Rain 14 1018 47 10000 5.7 100 11:19 23.03.2020
6122 Rain 15 1019 44 10000 5.1 80 10:56 23.03.2020
6123 Rain 15 1019 44 10000 5.1 80 10:37 23.03.2020
6124 Rain 15 1019 44 10000 5.1 80 10:19 23.03.2020
6125 Clouds 14 1020 54 10000 2.1 0 09:43 23.03.2020
6126 Clouds 14 1020 54 10000 2.1 0 09:21 23.03.2020
6127 Clouds 14 1021 58 10000 4.6 350 08:40 23.03.2020
6128 Clouds 14 1021 58 10000 4.6 350 08:20 23.03.2020
6129 Clouds 14 1021 54 10000 2.1 350 07:59 23.03.2020
6130 Clouds 14 1021 54 10000 2.1 350 07:59 23.03.2020
6131 Clouds 14 1021 54 10000 2.1 350 07:40 23.03.2020
6132 Clouds 14 1021 54 10000 2.1 350 07:19 23.03.2020
6133 Clouds 13 1021 62 10000 1 240 06:48 23.03.2020
6134 Clouds 12 1021 66 10000 1 0 05:50 23.03.2020
6135 Clouds 11 1021 71 10000 1.5 0 04:57 23.03.2020
6136 Clouds 9 1021 81 10000 2.6 100 03:24 23.03.2020
6137 Clouds 11 1020 71 10000 4.1 300 01:50 23.03.2020
6138 Clouds 12 1021 66 10000 1.5 200 00:58 23.03.2020
6139 Clouds 12 1021 66 10000 1.5 200 00:36 23.03.2020
6140 Clouds 11 1020 66 10000 1.5 210 23:47 22.03.2020
6141 Clouds 11 1020 66 10000 1.5 210 23:25 22.03.2020
6142 Clouds 11 1021 62 10000 1.5 330 22:45 22.03.2020
6143 Clouds 11 1021 62 10000 1.5 330 22:24 22.03.2020
6144 Clouds 12 1021 62 10000 1.5 0 21:56 22.03.2020
6145 Clouds 12 1021 62 10000 1.5 0 21:37 22.03.2020
6146 Clouds 12 1021 62 10000 1.5 0 21:19 22.03.2020
6147 Clouds 13 1021 50 10000 1.5 0 20:46 22.03.2020
6148 Clouds 13 1021 50 10000 1.5 0 20:25 22.03.2020
6149 Clouds 14 1021 43 10000 2.6 70 19:58 22.03.2020
6150 Clouds 14 1021 43 10000 2.6 70 19:40 22.03.2020
6151 Clouds 14 1021 43 10000 2.6 70 19:20 22.03.2020
6152 Clouds 13 1021 58 10000 2.1 70 18:59 22.03.2020
6153 Clouds 13 1021 58 10000 2.1 70 18:41 22.03.2020
6154 Clouds 13 1021 58 10000 2.1 70 18:22 22.03.2020
6155 Clouds 13 1021 58 10000 3.1 60 17:58 22.03.2020
6156 Clouds 13 1021 58 10000 3.1 60 17:38 22.03.2020
6157 Clouds 13 1021 58 10000 3.1 60 17:20 22.03.2020
6158 Clouds 14 1020 58 10000 2.1 70 16:57 22.03.2020
6159 Clouds 14 1020 58 10000 2.1 70 16:39 22.03.2020
6160 Clouds 14 1020 58 10000 2.1 70 16:21 22.03.2020
6161 Clouds 15 1020 54 10000 3.1 120 15:44 22.03.2020
6162 Clouds 15 1020 54 10000 3.1 120 15:26 22.03.2020
6163 Clouds 16 1019 33 10000 2.1 40 14:46 22.03.2020
6164 Clouds 16 1019 33 10000 2.1 40 14:19 22.03.2020
6165 Clouds 17 1020 26 10000 2.6 60 13:45 22.03.2020
6166 Clouds 17 1020 26 10000 2.6 60 13:21 22.03.2020
6167 Clouds 17 1020 31 10000 3.6 70 12:59 22.03.2020
6168 Clouds 17 1020 31 10000 3.6 70 12:41 22.03.2020
6169 Clouds 17 1020 31 10000 3.6 70 12:19 22.03.2020
6170 Clouds 17 1020 38 10000 3.6 80 11:44 22.03.2020
6171 Clouds 17 1020 38 10000 3.6 80 11:25 22.03.2020
6172 Clouds 17 1021 36 10000 2.6 70 10:58 22.03.2020
6173 Clouds 17 1021 36 10000 2.6 70 10:40 22.03.2020
6174 Clouds 17 1021 36 10000 2.6 70 10:22 22.03.2020
6175 Clouds 17 1022 31 10000 1.5 0 09:47 22.03.2020
6176 Clouds 17 1022 31 10000 1.5 0 09:28 22.03.2020
6177 Clouds 15 1023 26 10000 1 0 08:51 22.03.2020
6178 Clouds 15 1023 26 10000 1 0 08:33 22.03.2020
6179 Clouds 15 1023 26 10000 1 0 08:33 22.03.2020
6180 Clouds 14 1023 35 10000 1.5 0 07:59 22.03.2020
6181 Clouds 14 1023 35 10000 1.5 0 07:41 22.03.2020
6182 Clouds 12 1023 50 10000 1 350 06:48 22.03.2020
6183 Clouds 10 1023 76 10000 1.5 70 05:52 22.03.2020
6184 Clear 8 1023 93 10000 0.6 213 04:39 22.03.2020
6185 Mist 5 1021 100 5000 0.93 250 01:49 22.03.2020
6186 Clear 6 1021 93 9000 1 140 00:50 22.03.2020
6187 Clear 6 1021 93 9000 1 140 00:31 22.03.2020
6188 Clear 6 1021 100 8000 0.5 40 23:46 21.03.2020
6189 Clear 6 1021 100 8000 0.5 40 23:22 21.03.2020
6190 Clear 6 1022 93 8000 1.5 110 22:59 21.03.2020
6191 Clear 6 1022 93 8000 1.5 110 22:38 21.03.2020
6192 Clear 6 1022 93 8000 1.5 110 22:20 21.03.2020
6193 Clear 8 1022 87 10000 1.21 307 21:58 21.03.2020
6194 Clear 8 1022 87 10000 1.21 307 21:38 21.03.2020
6195 Clear 8 1022 87 10000 1.21 307 21:19 21.03.2020
6196 Clear 9 1022 87 10000 1 0 20:42 21.03.2020
6197 Clear 9 1022 87 10000 1 0 20:22 21.03.2020
6198 Clouds 9 1022 87 9000 2.1 120 19:55 21.03.2020
6199 Clouds 9 1022 87 9000 2.1 120 19:36 21.03.2020
6200 Clouds 9 1022 87 9000 2.1 120 19:18 21.03.2020
6201 Clouds 11 1021 71 10000 1.5 350 18:41 21.03.2020
6202 Clouds 11 1021 71 10000 1.5 350 18:21 21.03.2020
6203 Clouds 9 1021 76 10000 1 0 17:59 21.03.2020
6204 Clouds 9 1021 76 10000 1 0 17:41 21.03.2020
6205 Clouds 10 1021 76 10000 1 0 17:22 21.03.2020
6206 Clouds 11 1019 62 10000 1 320 16:42 21.03.2020
6207 Clouds 11 1019 62 10000 1 320 16:23 21.03.2020
6208 Clouds 12 1019 54 10000 0.5 0 15:59 21.03.2020
6209 Clouds 12 1019 54 10000 0.5 0 15:40 21.03.2020
6210 Clouds 12 1019 54 10000 0.5 0 15:21 21.03.2020
6211 Clouds 15 1018 47 10000 2.1 270 14:56 21.03.2020
6212 Clouds 15 1018 47 10000 2.1 270 14:38 21.03.2020
6213 Clouds 15 1018 47 10000 2.1 270 14:19 21.03.2020
6214 Clouds 15 1018 47 10000 6.2 80 13:57 21.03.2020
6215 Clouds 15 1018 47 10000 6.2 80 13:38 21.03.2020
6216 Thunderstorm 14 1018 62 10000 6.2 340 13:20 21.03.2020
6217 Thunderstorm 14 1017 66 10000 4.6 360 12:54 21.03.2020
6218 Thunderstorm 14 1017 66 10000 4.6 360 12:36 21.03.2020
6219 Clouds 14 1017 58 10000 3.6 20 12:18 21.03.2020
6220 Clouds 15 1015 58 10000 2.1 140 11:54 21.03.2020
6221 Clouds 15 1018 67 10000 1 0 11:36 21.03.2020
6222 Clouds 14 1018 67 10000 1 0 11:18 21.03.2020
6223 Thunderstorm 13 1018 71 10000 2.6 360 10:55 21.03.2020
6224 Thunderstorm 13 1018 71 10000 2.6 360 10:37 21.03.2020
6225 Clouds 14 1018 62 10000 4.1 90 10:18 21.03.2020
6226 Clouds 13 1019 71 10000 5.1 50 09:39 21.03.2020
6227 Clouds 13 1019 71 10000 5.1 50 09:21 21.03.2020
6228 Clouds 12 1019 66 10000 1.5 0 08:56 21.03.2020
6229 Clouds 12 1019 66 10000 1.5 0 08:38 21.03.2020
6230 Clouds 12 1019 66 10000 1.5 0 08:19 21.03.2020
6231 Clouds 11 1020 71 10000 0.5 0 07:39 21.03.2020
6232 Clouds 11 1020 71 10000 0.5 0 07:20 21.03.2020
6233 Clouds 10 1020 81 10000 1 0 06:44 21.03.2020
6234 Clouds 10 1020 81 10000 1 0 06:25 21.03.2020
6235 Clouds 8 1019 93 10000 1 0 05:40 21.03.2020
6236 Clouds 7 1019 93 10000 1.5 0 04:26 21.03.2020
6237 Rain 7 1018 87 10000 3.6 350 02:37 21.03.2020
6238 Clouds 8 1016 93 10000 1.74 36 01:45 21.03.2020
6239 Rain 7 1017 93 10000 1 0 01:25 21.03.2020
6240 Clouds 7 1017 93 10000 1 0 00:39 21.03.2020
6241 Clouds 7 1017 93 10000 1 0 00:21 21.03.2020
6242 Rain 7 1018 93 10000 1.5 320 23:43 20.03.2020
6243 Rain 7 1018 93 10000 1.5 320 23:22 20.03.2020
6244 Rain 7 1018 87 10000 1.5 330 22:44 20.03.2020
6245 Rain 7 1018 87 10000 1.5 330 22:25 20.03.2020
6246 Clouds 7 1019 87 10000 1 40 21:58 20.03.2020
6247 Clouds 7 1019 87 10000 1 40 21:40 20.03.2020
6248 Clouds 7 1019 87 10000 1 40 21:20 20.03.2020
6249 Rain 7 1019 93 10000 1.5 120 20:58 20.03.2020
6250 Rain 7 1019 93 10000 1.5 120 20:40 20.03.2020
6251 Rain 7 1019 93 10000 1.5 120 20:20 20.03.2020
6252 Rain 8 1019 93 10000 1 180 19:48 20.03.2020
6253 Rain 8 1019 93 10000 1 180 19:21 20.03.2020
6254 Rain 8 1019 100 10000 4.1 90 18:58 20.03.2020
6255 Rain 8 1019 100 10000 4.1 90 18:38 20.03.2020
6256 Rain 8 1019 100 10000 4.1 90 18:20 20.03.2020
6257 Rain 8 1019 100 10000 4.1 90 18:20 20.03.2020
6258 Rain 9 1017 87 8000 2.6 180 17:56 20.03.2020
6259 Rain 9 1016 87 10000 2.6 80 17:37 20.03.2020
6260 Rain 9 1019 93 5000 3.1 270 17:19 20.03.2020
6261 Rain 9 1017 81 10000 2.6 340 16:42 20.03.2020
6262 Rain 9 1017 81 10000 2.6 340 16:21 20.03.2020
6263 Rain 9 1017 87 10000 4.1 360 15:55 20.03.2020
6264 Rain 9 1017 87 10000 4.1 360 15:37 20.03.2020
6265 Rain 9 1017 87 10000 4.1 360 15:37 20.03.2020
6266 Rain 9 1017 87 10000 1.5 80 15:18 20.03.2020
6267 Rain 9 1017 87 10000 1.5 80 14:42 20.03.2020
6268 Rain 9 1017 87 10000 1.5 80 14:21 20.03.2020
6269 Rain 11 1017 87 10000 2.6 0 13:49 20.03.2020
6270 Rain 11 1017 87 10000 2.6 0 13:25 20.03.2020
6271 Thunderstorm 12 1017 81 8000 2.1 0 12:58 20.03.2020
6272 Thunderstorm 12 1017 81 8000 2.1 0 12:38 20.03.2020
6273 Clouds 12 1014 58 10000 5.1 140 12:20 20.03.2020
6274 Thunderstorm 11 1017 81 10000 3.1 70 11:39 20.03.2020
6275 Clouds 11 1017 87 10000 4.1 80 11:21 20.03.2020
6276 Rain 11 1015 76 8000 4.1 150 10:56 20.03.2020
6277 Rain 11 1018 100 10000 4.1 70 10:38 20.03.2020
6278 Rain 11 1018 100 10000 4.1 70 10:18 20.03.2020
6279 Rain 11 1018 100 10000 4.1 70 10:18 20.03.2020
6280 Thunderstorm 10 1018 100 9000 7.2 310 09:46 20.03.2020
6281 Clouds 14 1018 58 10000 5.1 30 09:21 20.03.2020
6282 Clouds 14 1019 58 10000 3.6 40 08:58 20.03.2020
6283 Clouds 14 1019 58 10000 3.6 40 08:39 20.03.2020
6284 Clouds 14 1019 58 10000 3.6 40 08:19 20.03.2020
6285 Clouds 14 1020 58 10000 4.1 360 07:41 20.03.2020
6286 Clouds 14 1020 58 10000 4.1 360 07:23 20.03.2020
6287 Clouds 14 1020 58 10000 2.6 0 06:42 20.03.2020
6288 Clouds 14 1020 58 10000 2.6 0 06:42 20.03.2020
6289 Clouds 14 1020 58 10000 2.6 0 06:22 20.03.2020
6290 Clouds 10 1019 66 10000 1.5 240 04:39 20.03.2020
6291 Thunderstorm 9 1016 71 10000 1.44 11 02:51 20.03.2020
6292 Clouds 9 1018 75 10000 1.5 120 01:50 20.03.2020
6293 Clouds 9 1018 66 10000 1.5 210 00:45 20.03.2020
6294 Clouds 9 1018 66 10000 1.5 210 00:23 20.03.2020
6295 Clouds 10 1018 66 10000 1.5 70 23:42 19.03.2020
6296 Clouds 11 1018 66 10000 1.5 70 23:23 19.03.2020
6297 Clouds 12 1019 57 10000 2.1 60 22:54 19.03.2020
6298 Clouds 12 1019 57 10000 2.1 60 22:36 19.03.2020
6299 Clouds 12 1019 57 10000 2.1 60 22:18 19.03.2020
6300 Clouds 12 1019 57 10000 2.1 90 21:39 19.03.2020
6301 Clouds 12 1019 57 10000 2.1 90 21:20 19.03.2020
6302 Clouds 13 1019 53 10000 1.5 70 20:54 19.03.2020
6303 Clouds 13 1019 53 10000 1.5 70 20:36 19.03.2020
6304 Clear 14 1016 44 10000 2.1 100 20:18 19.03.2020
6305 Clouds 14 1018 54 10000 1.5 120 19:39 19.03.2020
6306 Clouds 14 1018 54 10000 1.5 120 19:21 19.03.2020
6307 Clouds 14 1018 50 10000 3.1 130 18:59 19.03.2020
6308 Clouds 14 1018 50 10000 3.1 130 18:41 19.03.2020
6309 Clouds 14 1018 50 10000 3.1 130 18:22 19.03.2020
6310 Clouds 14 1017 47 10000 2.6 110 17:55 19.03.2020
6311 Clouds 14 1017 47 10000 2.6 110 17:37 19.03.2020
6312 Clouds 14 1017 47 10000 2.6 110 17:18 19.03.2020
6313 Clouds 15 1017 43 10000 1.5 80 16:42 19.03.2020
6314 Clouds 15 1017 43 10000 1.5 80 16:21 19.03.2020
6315 Clouds 17 1016 31 10000 2.6 80 15:44 19.03.2020
6316 Clouds 17 1016 31 10000 2.6 80 15:24 19.03.2020
6317 Clouds 19 1016 25 10000 2.6 90 14:54 19.03.2020
6318 Clouds 19 1016 25 10000 2.6 90 14:36 19.03.2020
6319 Clouds 19 1016 25 10000 2.6 90 14:18 19.03.2020
6320 Clouds 21 1013 21 10000 2.6 80 13:38 19.03.2020
6321 Clouds 21 1013 22 10000 0.51 200 13:18 19.03.2020
6322 Clouds 21 1013 22 10000 0.51 200 12:42 19.03.2020
6323 Clouds 21 1013 22 10000 0.51 200 12:24 19.03.2020
6324 Clouds 20 1013 22 10000 0.51 200 11:58 19.03.2020
6325 Clouds 19 1017 23 10000 2.6 0 11:40 19.03.2020
6326 Clouds 19 1017 23 10000 2.6 0 11:22 19.03.2020
6327 Clouds 19 1018 33 10000 1 0 10:43 19.03.2020
6328 Clouds 19 1018 33 10000 1 0 10:22 19.03.2020
6329 Clouds 18 1019 27 10000 2.1 0 09:58 19.03.2020
6330 Clouds 18 1019 27 10000 2.1 0 09:39 19.03.2020
6331 Clouds 18 1019 27 10000 2.1 0 09:19 19.03.2020
6332 Clouds 18 1020 29 10000 3.1 0 08:46 19.03.2020
6333 Clouds 18 1020 29 10000 3.1 0 08:22 19.03.2020
6334 Clouds 16 1020 31 10000 3.6 190 07:47 19.03.2020
6335 Clouds 16 1020 31 10000 3.6 190 07:29 19.03.2020
6336 Clear 15 1021 33 10000 2.6 0 06:51 19.03.2020
6337 Clear 12 1021 46 10000 2.6 340 05:53 19.03.2020
6338 Clear 11 1021 46 10000 2.6 340 05:22 19.03.2020
6339 Clear 10 1020 53 10000 2.6 330 04:41 19.03.2020
6340 Clear 6 1020 70 10000 1 0 03:36 19.03.2020
6341 Clear 7 1020 70 10000 1 0 01:27 19.03.2020
6342 Clouds 9 1020 61 10000 1.5 0 00:37 19.03.2020
6343 Clear 8 1017 65 10000 1.55 297 23:58 18.03.2020
6344 Clouds 9 1020 61 10000 1 0 23:36 18.03.2020
6345 Clouds 9 1020 61 10000 1 0 23:18 18.03.2020
6346 Clouds 10 1020 53 10000 1.5 0 22:42 18.03.2020
6347 Clouds 10 1020 53 10000 1.5 0 22:22 18.03.2020
6348 Clouds 12 1021 54 10000 1 0 21:54 18.03.2020
6349 Clouds 12 1021 54 10000 1 0 21:36 18.03.2020
6350 Clouds 12 1021 54 10000 1 0 21:18 18.03.2020
6351 Clouds 12 1021 46 10000 0.5 0 20:41 18.03.2020
6352 Clouds 12 1021 46 10000 0.5 0 20:21 18.03.2020
6353 Clouds 12 1021 44 10000 2.6 100 19:58 18.03.2020
6354 Clouds 12 1021 44 10000 2.6 100 19:40 18.03.2020
6355 Clouds 12 1021 44 10000 2.6 100 19:21 18.03.2020
6356 Clouds 13 1021 44 10000 2.6 100 19:21 18.03.2020
6357 Clouds 14 1021 37 10000 3.6 330 18:54 18.03.2020
6358 Clouds 14 1021 37 10000 3.6 330 18:36 18.03.2020
6359 Clouds 14 1021 37 10000 3.6 330 18:18 18.03.2020
6360 Clouds 15 1021 41 10000 2.6 320 17:41 18.03.2020
6361 Clouds 15 1021 41 10000 2.6 320 17:22 18.03.2020
6362 Clouds 16 1020 48 10000 2.1 60 16:59 18.03.2020
6363 Clouds 16 1020 48 10000 2.1 60 16:40 18.03.2020
6364 Clouds 16 1020 48 10000 2.1 60 16:20 18.03.2020
6365 Clouds 16 1020 48 10000 1.5 70 15:56 18.03.2020
6366 Clouds 16 1020 48 10000 1.5 70 15:37 18.03.2020
6367 Clouds 17 1020 48 10000 1.5 70 15:18 18.03.2020
6368 Clouds 18 1020 48 10000 2.1 130 14:42 18.03.2020
6369 Clouds 18 1020 48 10000 2.1 130 14:21 18.03.2020
6370 Clouds 19 1020 38 10000 2.1 130 13:40 18.03.2020
6371 Clouds 19 1020 38 10000 2.1 130 13:19 18.03.2020
6372 Clouds 19 1020 37 10000 2.1 130 13:19 18.03.2020
6373 Clouds 19 1020 27 10000 1.5 0 12:43 18.03.2020
6374 Clouds 19 1020 27 10000 1.5 0 12:21 18.03.2020
6375 Clouds 20 1017 22 10000 0.46 343 11:58 18.03.2020
6376 Clouds 20 1021 37 10000 2.1 0 11:37 18.03.2020
6377 Clouds 20 1021 40 10000 2.1 0 11:18 18.03.2020
6378 Clouds 19 1022 34 10000 3.1 100 10:55 18.03.2020
6379 Clouds 19 1022 34 10000 3.1 100 10:36 18.03.2020
6380 Clouds 19 1022 34 10000 3.1 100 10:18 18.03.2020
6381 Clouds 19 1023 33 10000 2.6 0 09:41 18.03.2020
6382 Clouds 19 1023 33 10000 2.6 0 09:22 18.03.2020
6383 Clouds 18 1024 41 10000 2.6 0 08:40 18.03.2020
6384 Clouds 18 1024 41 10000 2.6 0 08:22 18.03.2020
6385 Clouds 16 1025 41 10000 2.1 0 07:59 18.03.2020
6386 Clouds 16 1025 41 10000 2.1 0 07:37 18.03.2020
6387 Clouds 15 1025 41 10000 2.1 0 07:19 18.03.2020
6388 Clear 15 1025 44 10000 2.6 0 06:39 18.03.2020
6389 Clear 12 1025 62 10000 1.5 0 05:37 18.03.2020
6390 Clear 9 1025 66 10000 1.5 290 04:58 18.03.2020
6391 Clear 7 1025 70 10000 2.1 300 03:21 18.03.2020
6392 Clear 6 1024 81 10000 2.1 320 02:37 18.03.2020
6393 Clear 8 1024 70 10000 1 0 01:43 18.03.2020
6394 Clouds 8 1024 70 10000 1 0 00:45 18.03.2020
6395 Clouds 8 1024 70 10000 1 0 00:21 18.03.2020
6396 Clouds 10 1024 70 10000 1.5 0 23:42 17.03.2020
6397 Clouds 10 1024 70 10000 1.5 0 23:21 17.03.2020
6398 Clouds 10 1025 70 10000 2.1 120 22:46 17.03.2020
6399 Clouds 10 1025 70 10000 2.1 120 22:28 17.03.2020
6400 Clouds 11 1025 62 10000 1.5 70 21:44 17.03.2020
6401 Clouds 11 1025 62 10000 1.5 70 21:25 17.03.2020
6402 Clouds 12 1025 57 10000 1 0 20:58 17.03.2020
6403 Clouds 12 1025 57 10000 1 0 20:38 17.03.2020
6404 Clouds 12 1025 57 10000 1 0 20:19 17.03.2020
6405 Clouds 12 1025 57 10000 1 0 20:19 17.03.2020
6406 Clouds 12 1024 57 10000 1 0 19:42 17.03.2020
6407 Clouds 13 1024 57 10000 1 0 19:20 17.03.2020
6408 Clouds 13 1022 47 10000 2.1 90 18:57 17.03.2020
6409 Clouds 12 1024 57 10000 1.5 80 18:39 17.03.2020
6410 Clouds 12 1024 57 10000 1.5 80 18:21 17.03.2020
6411 Clouds 13 1023 53 10000 0.5 0 17:56 17.03.2020
6412 Clouds 13 1023 53 10000 0.5 0 17:37 17.03.2020
6413 Clouds 13 1023 53 10000 0.5 0 17:18 17.03.2020
6414 Clouds 14 1023 47 10000 3.6 230 16:41 17.03.2020
6415 Clouds 14 1023 47 10000 3.6 230 16:19 17.03.2020
6416 Clouds 15 1022 44 10000 4.1 210 15:45 17.03.2020
6417 Clouds 15 1022 44 10000 4.1 210 15:22 17.03.2020
6418 Clouds 16 1022 51 10000 4.6 330 14:44 17.03.2020
6419 Clouds 16 1022 51 10000 4.6 330 14:26 17.03.2020
6420 Clouds 18 1021 27 10000 2.6 280 13:58 17.03.2020
6421 Clouds 18 1021 27 10000 2.6 280 13:40 17.03.2020
6422 Clouds 18 1021 27 10000 2.6 280 13:21 17.03.2020
6423 Rain 17 1021 29 10000 2.6 0 12:44 17.03.2020
6424 Rain 17 1021 29 10000 2.6 0 12:24 17.03.2020
6425 Clouds 18 1022 33 10000 3.1 350 11:56 17.03.2020
6426 Clouds 18 1022 33 10000 3.1 350 11:37 17.03.2020
6427 Clouds 18 1022 33 10000 3.1 350 11:19 17.03.2020
6428 Clouds 17 1022 36 10000 3.6 80 10:54 17.03.2020
6429 Clouds 17 1022 36 10000 3.6 80 10:36 17.03.2020
6430 Clouds 17 1022 36 10000 3.6 80 10:18 17.03.2020
6431 Clouds 17 1023 46 10000 1 0 09:44 17.03.2020
6432 Clouds 17 1023 46 10000 1 0 09:20 17.03.2020
6433 Clouds 16 1024 50 10000 1.5 0 08:51 17.03.2020
6434 Clouds 16 1024 46 10000 1.5 0 08:24 17.03.2020
6435 Clouds 15 1025 53 10000 1 0 07:58 17.03.2020
6436 Clouds 15 1025 53 10000 1 0 07:39 17.03.2020
6437 Clouds 15 1025 53 10000 1 0 07:19 17.03.2020
6438 Haze 13 1025 47 7000 2.1 290 06:40 17.03.2020
6439 Haze 13 1025 47 7000 2.1 290 06:19 17.03.2020
6440 Clouds 8 1024 70 10000 1 0 04:40 17.03.2020
6441 Clouds 5 1024 75 10000 1 270 03:19 17.03.2020
6442 Clouds 5 1023 80 7000 1 0 01:49 17.03.2020
6443 Clouds 5 1023 80 7000 1 0 01:28 17.03.2020
6444 Clouds 6 1023 75 6000 1.35 303 00:48 17.03.2020
6445 Clouds 6 1023 75 6000 1 0 23:51 16.03.2020
6446 Clouds 6 1023 75 6000 1 0 23:32 16.03.2020
6447 Clouds 8 1024 65 7000 1 0 22:43 16.03.2020
6448 Clouds 8 1024 65 7000 1 0 22:25 16.03.2020
6449 Clouds 8 1024 70 7000 1.42 312 21:59 16.03.2020
6450 Clouds 8 1024 70 7000 1.42 312 21:40 16.03.2020
6451 Clouds 8 1024 70 7000 1.42 312 21:22 16.03.2020
6452 Clouds 8 1024 61 8000 1.42 312 20:56 16.03.2020
6453 Clouds 8 1024 61 8000 1.42 312 20:38 16.03.2020
6454 Clouds 8 1024 61 8000 1.89 306 20:19 16.03.2020
6455 Clouds 9 1024 57 8000 1 0 19:41 16.03.2020
6456 Clouds 9 1024 57 8000 1 0 19:21 16.03.2020
6457 Clouds 10 1024 41 8000 1 0 18:56 16.03.2020
6458 Clouds 10 1024 41 8000 1 0 18:37 16.03.2020
6459 Clouds 10 1024 41 8000 1 0 18:18 16.03.2020
6460 Clouds 11 1023 41 10000 0.5 0 17:42 16.03.2020
6461 Clouds 12 1023 41 10000 0.5 0 17:22 16.03.2020
6462 Haze 14 1020 39 8000 1.96 304 16:46 16.03.2020
6463 Haze 14 1020 39 8000 1.96 304 16:27 16.03.2020
6464 Clouds 13 1022 37 10000 1.5 310 15:56 16.03.2020
6465 Clouds 13 1022 37 10000 1.5 310 15:37 16.03.2020
6466 Clouds 13 1022 37 10000 1.5 310 15:18 16.03.2020
6467 Clouds 15 1022 33 10000 2.6 210 14:39 16.03.2020
6468 Clouds 15 1022 33 10000 2.6 210 14:19 16.03.2020
6469 Clouds 16 1022 30 10000 2.6 240 13:41 16.03.2020
6470 Clouds 16 1022 30 10000 2.6 240 13:22 16.03.2020
6471 Clouds 16 1022 30 10000 3.6 250 12:45 16.03.2020
6472 Clouds 16 1022 30 10000 3.6 250 12:26 16.03.2020
6473 Clouds 16 1022 30 10000 3.6 260 11:56 16.03.2020
6474 Clouds 16 1022 30 10000 3.6 260 11:37 16.03.2020
6475 Clouds 16 1022 30 10000 3.6 260 11:18 16.03.2020
6476 Clouds 16 1022 29 10000 1.5 0 10:40 16.03.2020
6477 Clouds 16 1022 29 10000 1.5 0 10:19 16.03.2020
6478 Clouds 15 1023 30 10000 3.1 210 09:42 16.03.2020
6479 Clouds 15 1023 30 10000 3.1 210 09:24 16.03.2020
6480 Clouds 14 1023 30 10000 3.6 200 08:53 16.03.2020
6481 Clouds 14 1021 33 10000 1.63 178 08:25 16.03.2020
6482 Clouds 13 1024 30 10000 4.6 200 07:49 16.03.2020
6483 Clouds 13 1024 30 10000 4.6 200 07:27 16.03.2020
6484 Clouds 12 1024 40 10000 1 0 06:54 16.03.2020
6485 Clouds 12 1024 40 10000 1 0 06:25 16.03.2020
6486 Haze 10 1024 43 9000 1.5 20 05:42 16.03.2020
6487 Clouds 4 1023 33 8000 1 0 02:44 16.03.2020
6488 Clouds 5 1023 38 10000 1 0 01:20 16.03.2020
6489 Clouds 5 1023 75 10000 1 270 00:39 16.03.2020
6490 Clouds 5 1023 75 10000 1 270 00:39 16.03.2020
6491 Clouds 5 1023 65 10000 1 360 23:47 15.03.2020
6492 Clouds 5 1023 65 10000 1 360 23:20 15.03.2020
6493 Clouds 5 1024 65 9000 1.5 320 22:43 15.03.2020
6494 Clouds 6 1021 75 10000 2.1 230 22:23 15.03.2020
6495 Clouds 7 1024 56 8000 0.5 0 21:58 15.03.2020
6496 Clouds 7 1024 56 8000 0.5 0 21:38 15.03.2020
6497 Clouds 7 1024 56 8000 0.5 0 21:18 15.03.2020
6498 Clouds 8 1024 52 8000 1.99 307 20:42 15.03.2020
6499 Clouds 8 1024 52 8000 2.39 311 20:21 15.03.2020
6500 Clouds 7 1025 52 8000 1.5 100 19:58 15.03.2020
6501 Clouds 7 1025 52 8000 1.5 100 19:39 15.03.2020
6502 Clouds 7 1025 52 8000 1.5 100 19:20 15.03.2020
6503 Clouds 8 1024 45 10000 1.5 0 18:56 15.03.2020
6504 Clouds 8 1024 45 10000 1.5 0 18:37 15.03.2020
6505 Clouds 8 1024 45 10000 1.5 0 18:19 15.03.2020
6506 Clouds 11 1024 31 10000 1.5 0 17:41 15.03.2020
6507 Clouds 11 1024 31 10000 1.5 0 17:21 15.03.2020
6508 Clouds 12 1024 29 10000 2.6 90 16:58 15.03.2020
6509 Clouds 12 1024 29 10000 2.6 90 16:39 15.03.2020
6510 Clouds 12 1024 29 10000 2.6 90 16:21 15.03.2020
6511 Clouds 14 1023 20 10000 1.5 60 15:46 15.03.2020
6512 Clouds 14 1023 20 10000 1.5 60 15:28 15.03.2020
6513 Clouds 14 1023 20 10000 1.5 60 14:58 15.03.2020
6514 Clouds 14 1023 20 10000 1.5 60 14:38 15.03.2020
6515 Clouds 15 1022 20 10000 1.5 80 14:19 15.03.2020
6516 Clouds 16 1022 19 10000 2.6 60 13:55 15.03.2020
6517 Clouds 16 1022 19 10000 2.6 60 13:55 15.03.2020
6518 Clouds 16 1022 19 10000 2.6 60 13:36 15.03.2020
6519 Clouds 16 1022 19 10000 2.6 60 13:18 15.03.2020
6520 Clouds 16 1022 19 10000 2.6 60 13:18 15.03.2020
6521 Clouds 16 1022 19 10000 2.1 20 12:40 15.03.2020
6522 Clouds 16 1022 19 10000 2.1 20 12:21 15.03.2020
6523 Clouds 16 1022 19 10000 2.1 20 12:21 15.03.2020
6524 Clouds 16 1023 24 10000 2.6 0 11:43 15.03.2020
6525 Clouds 16 1023 19 10000 1 0 11:24 15.03.2020
6526 Clouds 16 1023 19 10000 1 0 10:58 15.03.2020
6527 Clouds 16 1023 19 10000 1 0 10:39 15.03.2020
6528 Clouds 16 1023 19 10000 1 0 10:39 15.03.2020
6529 Clouds 16 1023 19 10000 1 0 10:21 15.03.2020
6530 Clouds 14 1024 17 10000 1.5 0 09:44 15.03.2020
6531 Clouds 14 1024 17 10000 1.5 0 09:25 15.03.2020
6532 Clouds 14 1025 22 10000 2.6 0 08:58 15.03.2020
6533 Clouds 14 1025 22 10000 2.6 0 08:40 15.03.2020
6534 Clouds 14 1025 22 10000 2.6 0 08:40 15.03.2020
6535 Clear 14 1025 22 10000 2.6 0 08:18 15.03.2020
6536 Clear 12 1025 25 10000 3.1 180 07:44 15.03.2020
6537 Clear 10 1025 31 10000 1 0 06:59 15.03.2020
6538 Clear 10 1025 31 10000 1 0 06:35 15.03.2020
6539 Clear 8 1024 39 10000 2.1 330 05:46 15.03.2020
6540 Clear 4 1023 55 10000 3.1 340 04:49 15.03.2020
6541 Clear 4 1023 55 10000 3.1 340 04:29 15.03.2020
6542 Clear 2 1023 69 10000 1 240 03:59 15.03.2020
6543 Clear 1 1022 74 10000 1.5 360 02:48 15.03.2020
6544 Clouds 2 1022 69 10000 1.5 0 01:56 15.03.2020
6545 Clouds 2 1022 64 10000 1.5 0 00:53 15.03.2020
6546 Clouds 2 1022 64 10000 1.5 0 00:28 15.03.2020
6547 Clouds 2 1022 64 9000 1.5 90 23:58 14.03.2020
6548 Clouds 2 1022 64 9000 1.5 90 23:38 14.03.2020
6549 Clouds 2 1022 64 9000 1.5 90 23:19 14.03.2020
6550 Clouds 4 1022 55 7000 2.1 340 22:46 14.03.2020
6551 Clouds 4 1022 55 7000 2.1 340 22:27 14.03.2020
6552 Clouds 5 1022 48 8000 2.6 90 21:57 14.03.2020
6553 Clouds 5 1022 48 8000 2.6 90 21:37 14.03.2020
6554 Clouds 5 1022 48 8000 2.6 90 21:19 14.03.2020
6555 Clouds 5 1022 48 8000 2.6 90 21:19 14.03.2020
6556 Clouds 5 1022 48 8000 2.6 90 21:19 14.03.2020
6557 Clouds 6 1022 45 9000 1.5 0 20:59 14.03.2020
6558 Clouds 6 1022 45 9000 1.5 0 20:41 14.03.2020
6559 Clear 6 1022 45 9000 1.5 0 20:20 14.03.2020
6560 Clear 6 1022 41 10000 1.5 0 19:59 14.03.2020
6561 Clear 6 1022 41 10000 1.5 0 19:40 14.03.2020
6562 Clear 6 1022 41 10000 1.5 0 19:20 14.03.2020
6563 Clear 9 1022 33 10000 2.1 230 18:39 14.03.2020
6564 Clear 9 1022 33 10000 2.1 230 18:19 14.03.2020
6565 Clear 10 1021 23 10000 2.1 0 17:40 14.03.2020
6566 Clear 11 1021 23 10000 2.1 0 17:21 14.03.2020
6567 Clear 11 1020 23 10000 6.2 20 16:57 14.03.2020
6568 Clear 11 1020 23 10000 6.2 20 16:38 14.03.2020
6569 Clear 12 1020 23 10000 6.2 20 16:18 14.03.2020
6570 Clouds 13 1020 20 10000 4.1 10 15:28 14.03.2020
6571 Clouds 14 1020 19 10000 7.7 10 14:59 14.03.2020
6572 Clouds 14 1020 19 10000 7.7 10 14:38 14.03.2020
6573 Clouds 14 1020 19 10000 7.7 10 14:20 14.03.2020
6574 Clouds 15 1020 19 10000 6.2 350 13:56 14.03.2020
6575 Clouds 15 1020 19 10000 6.2 350 13:38 14.03.2020
6576 Clouds 15 1020 19 10000 6.2 350 13:18 14.03.2020
6577 Clouds 16 1020 22 10000 6.2 320 12:43 14.03.2020
6578 Clouds 16 1020 22 10000 6.2 320 12:43 14.03.2020
6579 Clouds 16 1020 22 10000 6.2 320 12:24 14.03.2020
6580 Clouds 15 1020 22 10000 4.1 10 11:43 14.03.2020
6581 Clouds 15 1020 22 10000 4.1 10 11:43 14.03.2020
6582 Clouds 15 1020 22 10000 4.1 10 11:25 14.03.2020
6583 Clear 17 1021 21 10000 1 0 10:47 14.03.2020
6584 Clear 17 1021 21 10000 1 0 10:28 14.03.2020
6585 Clear 15 1022 24 10000 5.1 360 09:59 14.03.2020
6586 Clear 15 1022 24 10000 5.1 360 09:40 14.03.2020
6587 Clear 15 1022 24 10000 5.1 360 09:21 14.03.2020
6588 Clear 15 1023 26 10000 3.6 300 08:46 14.03.2020
6589 Clear 15 1023 26 10000 3.6 300 08:46 14.03.2020
6590 Clear 15 1023 26 10000 3.6 300 08:26 14.03.2020
6591 Clouds 13 1024 34 10000 1.5 0 07:40 14.03.2020
6592 Clouds 12 1024 34 10000 1.5 0 07:21 14.03.2020
6593 Clouds 11 1024 34 10000 1 0 06:55 14.03.2020
6594 Clouds 11 1024 34 10000 1 0 06:34 14.03.2020
6595 Clouds 4 1023 74 10000 1.5 270 04:56 14.03.2020
6596 Clouds 0 1022 25 10000 1 320 03:37 14.03.2020
6597 Clouds 1 1022 25 9000 1.5 0 02:53 14.03.2020
6598 Clear 1 1022 31 9000 1.5 0 01:47 14.03.2020
6599 Clear 2 1021 93 8000 1.5 0 00:34 14.03.2020
6600 Clear 3 1022 86 7000 1.5 300 23:42 13.03.2020
6601 Clouds 3 1022 86 7000 1.5 300 23:23 13.03.2020
6602 Clouds 2 1022 93 7000 1.5 0 22:45 13.03.2020
6603 Clouds 2 1022 93 7000 1.5 0 22:22 13.03.2020
6604 Clouds 6 1022 86 7000 1.5 140 21:41 13.03.2020
6605 Clouds 6 1022 86 7000 1.5 140 21:19 13.03.2020
6606 Clouds 7 1022 81 6000 1.5 0 20:43 13.03.2020
6607 Clouds 7 1022 81 6000 1.5 0 20:23 13.03.2020
6608 Clouds 7 1022 70 7000 1.5 0 19:59 13.03.2020
6609 Clouds 7 1022 70 7000 1.5 0 19:40 13.03.2020
6610 Clouds 7 1022 70 7000 1.5 0 19:22 13.03.2020
6611 Clouds 9 1022 61 8000 1.5 0 18:44 13.03.2020
6612 Clouds 9 1022 61 8000 1.5 0 18:23 13.03.2020
6613 Clouds 9 1021 29 10000 2.1 60 17:43 13.03.2020
6614 Clouds 10 1021 29 10000 2.1 60 17:21 13.03.2020
6615 Clouds 11 1021 39 10000 2.6 50 16:59 13.03.2020
6616 Clouds 11 1021 39 10000 2.6 50 16:39 13.03.2020
6617 Clouds 11 1021 39 10000 2.6 50 16:20 13.03.2020
6618 Clouds 12 1020 40 10000 2.1 60 15:46 13.03.2020
6619 Clouds 12 1020 40 10000 2.1 60 15:23 13.03.2020
6620 Clouds 13 1020 37 10000 2.1 70 14:59 13.03.2020
6621 Clouds 13 1020 37 10000 2.1 70 14:40 13.03.2020
6622 Clouds 13 1020 37 10000 2.1 70 14:21 13.03.2020
6623 Clouds 15 1020 33 10000 1.5 0 13:43 13.03.2020
6624 Clouds 15 1020 33 10000 1.5 0 13:24 13.03.2020
6625 Clouds 15 1020 28 10000 1.5 0 12:59 13.03.2020
6626 Clouds 15 1020 28 10000 1.5 0 12:38 13.03.2020
6627 Clouds 15 1020 28 10000 1.5 0 12:20 13.03.2020
6628 Clouds 14 1020 38 10000 1.5 0 11:56 13.03.2020
6629 Clouds 14 1020 38 10000 1.5 0 11:36 13.03.2020
6630 Clouds 13 1020 39 10000 1.5 0 11:18 13.03.2020
6631 Clouds 13 1021 39 10000 1.5 0 10:46 13.03.2020
6632 Clouds 13 1021 39 10000 1.5 0 10:26 13.03.2020
6633 Clouds 13 1022 46 10000 1.5 0 09:49 13.03.2020
6634 Clouds 13 1022 46 10000 1.5 0 09:30 13.03.2020
6635 Clouds 11 1022 50 10000 2.1 250 08:59 13.03.2020
6636 Clouds 11 1022 50 10000 2.1 250 08:41 13.03.2020
6637 Clear 11 1022 50 10000 2.1 250 08:22 13.03.2020
6638 Clouds 9 1022 57 6000 2.6 150 07:44 13.03.2020
6639 Clouds 9 1022 57 6000 2.6 150 07:25 13.03.2020
6640 Mist 8 1022 65 5000 1.5 150 06:46 13.03.2020
6641 Mist 8 1022 65 5000 1.5 150 06:23 13.03.2020
6642 Mist 5 1021 75 6000 0.5 0 05:46 13.03.2020
6643 Mist 2 1021 61 5000 0.16 111 04:57 13.03.2020
6644 Mist 2 1021 61 5000 0.16 111 04:26 13.03.2020
6645 Mist 1 1020 61 5000 2.6 330 02:58 13.03.2020
6646 Mist 2 1020 100 4000 1 250 01:39 13.03.2020
6647 Mist 2 1020 100 4000 1 250 01:18 13.03.2020
6648 Mist 1 1020 100 4000 1 250 00:42 13.03.2020
6649 Mist 1 1020 60 4000 1 300 00:19 13.03.2020
6650 Mist 2 1020 100 5000 0.5 320 23:39 12.03.2020
6651 Mist 2 1020 100 5000 0.5 320 23:19 12.03.2020
6652 Clear 2 1020 93 6000 0.5 80 22:47 12.03.2020
6653 Clear 2 1020 93 6000 0.5 80 22:28 12.03.2020
6654 Clear 2 1020 93 6000 0.5 80 21:57 12.03.2020
6655 Clear 2 1020 93 6000 0.5 80 21:39 12.03.2020
6656 Clear 2 1021 93 6000 1 170 21:20 12.03.2020
6657 Clear 2 1021 71 7000 1.5 90 20:42 12.03.2020
6658 Clouds 2 1021 76 7000 1.5 90 20:20 12.03.2020
6659 Clouds 3 1022 86 10000 2.6 330 19:56 12.03.2020
6660 Clouds 3 1022 86 10000 2.6 330 19:37 12.03.2020
6661 Clouds 4 1022 86 10000 2.6 330 19:18 12.03.2020
6662 Clouds 4 1021 72 10000 2.1 340 18:42 12.03.2020
6663 Clouds 4 1021 72 10000 2.1 340 18:22 12.03.2020
6664 Clouds 5 1021 80 10000 1.5 110 17:56 12.03.2020
6665 Clouds 5 1021 80 10000 1.5 110 17:37 12.03.2020
6666 Clouds 5 1021 80 10000 1.5 110 17:18 12.03.2020
6667 Clouds 6 1022 80 10000 1 100 16:41 12.03.2020
6668 Clouds 6 1022 80 10000 1 100 16:41 12.03.2020
6669 Clouds 6 1022 80 10000 1 100 16:22 12.03.2020
6670 Clouds 6 1021 68 10000 3.6 70 15:49 12.03.2020
6671 Clouds 6 1021 68 10000 3.6 70 15:28 12.03.2020
6672 Clouds 7 1020 81 10000 2.6 90 14:58 12.03.2020
6673 Clouds 6 1021 70 10000 4.6 60 14:38 12.03.2020
6674 Clouds 6 1021 70 10000 4.6 60 14:18 12.03.2020
6675 Clouds 7 1020 75 10000 3.6 60 13:40 12.03.2020
6676 Clouds 7 1020 75 10000 3.6 60 13:21 12.03.2020
6677 Rain 7 1020 80 10000 6.2 120 12:55 12.03.2020
6678 Rain 7 1020 80 10000 6.2 120 12:37 12.03.2020
6679 Rain 7 1020 80 10000 6.2 120 12:18 12.03.2020
6680 Haze 9 1017 57 3200 8.2 140 11:55 12.03.2020
6681 Haze 10 1016 57 4000 7.2 130 11:36 12.03.2020
6682 Clouds 10 1018 70 10000 6.2 120 11:18 12.03.2020
6683 Clouds 10 1018 65 10000 1 0 10:43 12.03.2020
6684 Clouds 10 1018 65 10000 1 0 10:24 12.03.2020
6685 Clouds 10 1018 61 10000 2.1 0 09:59 12.03.2020
6686 Clouds 10 1018 61 10000 2.1 0 09:40 12.03.2020
6687 Clouds 10 1018 61 10000 2.1 0 09:22 12.03.2020
6688 Rain 8 1019 75 10000 3.6 30 08:39 12.03.2020
6689 Rain 8 1019 75 10000 3.6 30 08:18 12.03.2020
6690 Rain 7 1019 80 10000 6.2 110 07:47 12.03.2020
6691 Rain 7 1019 80 10000 6.2 110 07:22 12.03.2020
6692 Clouds 8 1017 70 10000 3.6 90 06:26 12.03.2020
6693 Clouds 7 1016 65 10000 5.1 20 05:35 12.03.2020
6694 Clouds 4 1014 86 8000 1.5 320 03:44 12.03.2020
6695 Clouds 4 1011 93 6000 1 350 01:58 12.03.2020
6696 Clouds 4 1011 93 6000 1 350 01:23 12.03.2020
6697 Clouds 4 1011 93 7000 2.1 100 00:42 12.03.2020
6698 Clouds 4 1009 86 10000 1.5 260 23:58 11.03.2020
6699 Clouds 4 1011 86 8000 1.5 140 23:29 11.03.2020
6700 Clouds 4 1011 93 8000 0.5 0 22:59 11.03.2020
6701 Clouds 4 1011 93 8000 0.5 0 22:40 11.03.2020